<?xml version='1.0' encoding='UTF-8'?><gpx version="1.1" creator="JPX - https://github.com/jenetics/jpx" xmlns="http://www.topografix.com/GPX/1/1"><trk><trkseg><trkpt lat="42.300715" lon="12.0931033"><ele>409.2</ele><time>2026-04-26T12:44:09.99Z</time></trkpt><trkpt lat="42.3006817" lon="12.093285"><ele>409.4</ele><time>2026-04-26T12:44:11.989Z</time></trkpt><trkpt lat="42.30066" lon="12.0934"><ele>409.6</ele><time>2026-04-26T12:44:12.989Z</time></trkpt><trkpt lat="42.3006317" lon="12.0935283"><ele>409.8</ele><time>2026-04-26T12:44:13.991Z</time></trkpt><trkpt lat="42.3006083" lon="12.09367"><ele>410.0</ele><time>2026-04-26T12:44:14.99Z</time></trkpt><trkpt lat="42.3005817" lon="12.0938167"><ele>410.0</ele><time>2026-04-26T12:44:15.989Z</time></trkpt><trkpt lat="42.3005583" lon="12.093965"><ele>410.0</ele><time>2026-04-26T12:44:16.997Z</time></trkpt><trkpt lat="42.3005383" lon="12.0941067"><ele>410.0</ele><time>2026-04-26T12:44:17.997Z</time></trkpt><trkpt lat="42.300515" lon="12.0942433"><ele>410.0</ele><time>2026-04-26T12:44:18.987Z</time></trkpt><trkpt lat="42.30049" lon="12.09438"><ele>410.0</ele><time>2026-04-26T12:44:19.99Z</time></trkpt><trkpt lat="42.3004633" lon="12.094525"><ele>410.0</ele><time>2026-04-26T12:44:20.989Z</time></trkpt><trkpt lat="42.3004333" lon="12.09467"><ele>410.0</ele><time>2026-04-26T12:44:21.992Z</time></trkpt><trkpt lat="42.3004017" lon="12.09481"><ele>410.0</ele><time>2026-04-26T12:44:22.989Z</time></trkpt><trkpt lat="42.3003683" lon="12.0949617"><ele>410.0</ele><time>2026-04-26T12:44:23.995Z</time></trkpt><trkpt lat="42.3003267" lon="12.0951083"><ele>410.0</ele><time>2026-04-26T12:44:24.991Z</time></trkpt><trkpt lat="42.3002933" lon="12.0952517"><ele>410.0</ele><time>2026-04-26T12:44:25.99Z</time></trkpt><trkpt lat="42.3002567" lon="12.0953933"><ele>410.0</ele><time>2026-04-26T12:44:26.988Z</time></trkpt><trkpt lat="42.3002183" lon="12.0955267"><ele>410.0</ele><time>2026-04-26T12:44:27.995Z</time></trkpt><trkpt lat="42.30018" lon="12.095645"><ele>410.0</ele><time>2026-04-26T12:44:28.991Z</time></trkpt><trkpt lat="42.3001417" lon="12.0957533"><ele>410.2</ele><time>2026-04-26T12:44:29.991Z</time></trkpt><trkpt lat="42.3000933" lon="12.0958583"><ele>410.4</ele><time>2026-04-26T12:44:30.991Z</time></trkpt><trkpt lat="42.3000283" lon="12.095965"><ele>410.6</ele><time>2026-04-26T12:44:31.997Z</time></trkpt><trkpt lat="42.29996" lon="12.0960717"><ele>410.8</ele><time>2026-04-26T12:44:32.996Z</time></trkpt><trkpt lat="42.299885" lon="12.09618"><ele>411.0</ele><time>2026-04-26T12:44:33.991Z</time></trkpt><trkpt lat="42.2998067" lon="12.0962833"><ele>411.0</ele><time>2026-04-26T12:44:34.994Z</time></trkpt><trkpt lat="42.299725" lon="12.0963883"><ele>411.0</ele><time>2026-04-26T12:44:35.998Z</time></trkpt><trkpt lat="42.2996367" lon="12.0964933"><ele>411.0</ele><time>2026-04-26T12:44:36.988Z</time></trkpt><trkpt lat="42.29955" lon="12.0965983"><ele>411.0</ele><time>2026-04-26T12:44:37.991Z</time></trkpt><trkpt lat="42.2994633" lon="12.0967117"><ele>411.5</ele><time>2026-04-26T12:44:38.994Z</time></trkpt><trkpt lat="42.2993733" lon="12.096825"><ele>412.0</ele><time>2026-04-26T12:44:39.992Z</time></trkpt><trkpt lat="42.29928" lon="12.0969433"><ele>412.5</ele><time>2026-04-26T12:44:40.992Z</time></trkpt><trkpt lat="42.2991833" lon="12.0970633"><ele>413.0</ele><time>2026-04-26T12:44:41.99Z</time></trkpt><trkpt lat="42.2990833" lon="12.0971867"><ele>413.0</ele><time>2026-04-26T12:44:42.993Z</time></trkpt><trkpt lat="42.2989833" lon="12.09731"><ele>413.0</ele><time>2026-04-26T12:44:43.991Z</time></trkpt><trkpt lat="42.2988817" lon="12.09743"><ele>413.0</ele><time>2026-04-26T12:44:44.999Z</time></trkpt><trkpt lat="42.298775" lon="12.0975583"><ele>413.0</ele><time>2026-04-26T12:44:45.988Z</time></trkpt><trkpt lat="42.2986717" lon="12.0976867"><ele>413.75</ele><time>2026-04-26T12:44:46.991Z</time></trkpt><trkpt lat="42.2985683" lon="12.09781"><ele>414.5</ele><time>2026-04-26T12:44:47.989Z</time></trkpt><trkpt lat="42.2984617" lon="12.0979383"><ele>415.25</ele><time>2026-04-26T12:44:48.989Z</time></trkpt><trkpt lat="42.2983517" lon="12.09807"><ele>416.0</ele><time>2026-04-26T12:44:49.991Z</time></trkpt><trkpt lat="42.2982383" lon="12.098205"><ele>416.66666666666663</ele><time>2026-04-26T12:44:50.99Z</time></trkpt><trkpt lat="42.2981267" lon="12.098345"><ele>417.33333333333337</ele><time>2026-04-26T12:44:51.992Z</time></trkpt><trkpt lat="42.298015" lon="12.098485"><ele>418.0</ele><time>2026-04-26T12:44:52.992Z</time></trkpt><trkpt lat="42.2979083" lon="12.09862"><ele>419.75</ele><time>2026-04-26T12:44:53.998Z</time></trkpt><trkpt lat="42.29781" lon="12.0987483"><ele>421.5</ele><time>2026-04-26T12:44:54.99Z</time></trkpt><trkpt lat="42.2977167" lon="12.0988633"><ele>423.25</ele><time>2026-04-26T12:44:55.99Z</time></trkpt><trkpt lat="42.29763" lon="12.0989633"><ele>425.0</ele><time>2026-04-26T12:44:56.995Z</time></trkpt><trkpt lat="42.2975533" lon="12.0990467"><ele>424.2</ele><time>2026-04-26T12:44:57.991Z</time></trkpt><trkpt lat="42.29748" lon="12.0991117"><ele>423.4</ele><time>2026-04-26T12:44:58.992Z</time></trkpt><trkpt lat="42.2974017" lon="12.0991633"><ele>422.6</ele><time>2026-04-26T12:44:59.988Z</time></trkpt><trkpt lat="42.2973167" lon="12.0992183"><ele>421.8</ele><time>2026-04-26T12:45:00.989Z</time></trkpt><trkpt lat="42.2972317" lon="12.0992933"><ele>421.0</ele><time>2026-04-26T12:45:01.994Z</time></trkpt><trkpt lat="42.2971383" lon="12.099385"><ele>424.75</ele><time>2026-04-26T12:45:02.99Z</time></trkpt><trkpt lat="42.297035" lon="12.0994783"><ele>428.5</ele><time>2026-04-26T12:45:03.988Z</time></trkpt><trkpt lat="42.2969233" lon="12.0995717"><ele>432.25</ele><time>2026-04-26T12:45:04.993Z</time></trkpt><trkpt lat="42.2968017" lon="12.0996667"><ele>436.0</ele><time>2026-04-26T12:45:05.993Z</time></trkpt><trkpt lat="42.2966783" lon="12.09977"><ele>436.0</ele><time>2026-04-26T12:45:06.997Z</time></trkpt><trkpt lat="42.29656" lon="12.0998767"><ele>436.0</ele><time>2026-04-26T12:45:07.992Z</time></trkpt><trkpt lat="42.2964467" lon="12.0999883"><ele>436.0</ele><time>2026-04-26T12:45:08.993Z</time></trkpt><trkpt lat="42.296335" lon="12.10011"><ele>436.0</ele><time>2026-04-26T12:45:09.99Z</time></trkpt><trkpt lat="42.2962267" lon="12.1002417"><ele>437.25</ele><time>2026-04-26T12:45:10.99Z</time></trkpt><trkpt lat="42.2961183" lon="12.100375"><ele>438.5</ele><time>2026-04-26T12:45:11.991Z</time></trkpt><trkpt lat="42.2960117" lon="12.100515"><ele>439.75</ele><time>2026-04-26T12:45:12.992Z</time></trkpt><trkpt lat="42.2959083" lon="12.1006617"><ele>441.0</ele><time>2026-04-26T12:45:13.992Z</time></trkpt><trkpt lat="42.2958017" lon="12.1008117"><ele>441.0</ele><time>2026-04-26T12:45:14.995Z</time></trkpt><trkpt lat="42.2956917" lon="12.1009617"><ele>441.0</ele><time>2026-04-26T12:45:15.99Z</time></trkpt><trkpt lat="42.2955833" lon="12.1011167"><ele>441.0</ele><time>2026-04-26T12:45:16.995Z</time></trkpt><trkpt lat="42.2954767" lon="12.1012717"><ele>443.33333333333337</ele><time>2026-04-26T12:45:17.991Z</time></trkpt><trkpt lat="42.2953667" lon="12.1014267"><ele>445.6666666666667</ele><time>2026-04-26T12:45:18.993Z</time></trkpt><trkpt lat="42.29526" lon="12.1015833"><ele>448.0</ele><time>2026-04-26T12:45:19.991Z</time></trkpt><trkpt lat="42.2951517" lon="12.1017467"><ele>448.33333333333337</ele><time>2026-04-26T12:45:20.992Z</time></trkpt><trkpt lat="42.295045" lon="12.1019117"><ele>448.66666666666663</ele><time>2026-04-26T12:45:21.994Z</time></trkpt><trkpt lat="42.294935" lon="12.1020767"><ele>449.0</ele><time>2026-04-26T12:45:22.993Z</time></trkpt><trkpt lat="42.2948233" lon="12.10224"><ele>450.3333333333333</ele><time>2026-04-26T12:45:23.993Z</time></trkpt><trkpt lat="42.2947133" lon="12.1024017"><ele>451.66666666666663</ele><time>2026-04-26T12:45:24.991Z</time></trkpt><trkpt lat="42.294605" lon="12.1025633"><ele>453.0</ele><time>2026-04-26T12:45:25.99Z</time></trkpt><trkpt lat="42.294495" lon="12.1027233"><ele>453.0</ele><time>2026-04-26T12:45:26.995Z</time></trkpt><trkpt lat="42.294385" lon="12.1028783"><ele>453.0</ele><time>2026-04-26T12:45:27.994Z</time></trkpt><trkpt lat="42.2942767" lon="12.10303"><ele>453.0</ele><time>2026-04-26T12:45:28.994Z</time></trkpt><trkpt lat="42.294165" lon="12.1031867"><ele>453.0</ele><time>2026-04-26T12:45:29.994Z</time></trkpt><trkpt lat="42.2940517" lon="12.10334"><ele>453.0</ele><time>2026-04-26T12:45:30.998Z</time></trkpt><trkpt lat="42.29394" lon="12.1035"><ele>453.0</ele><time>2026-04-26T12:45:31.996Z</time></trkpt><trkpt lat="42.29382" lon="12.1036567"><ele>453.66666666666663</ele><time>2026-04-26T12:45:32.994Z</time></trkpt><trkpt lat="42.2936983" lon="12.1038083"><ele>454.3333333333333</ele><time>2026-04-26T12:45:33.992Z</time></trkpt><trkpt lat="42.2935783" lon="12.10396"><ele>455.0</ele><time>2026-04-26T12:45:35Z</time></trkpt><trkpt lat="42.2934583" lon="12.1041117"><ele>455.0</ele><time>2026-04-26T12:45:35.991Z</time></trkpt><trkpt lat="42.2933383" lon="12.10426"><ele>455.0</ele><time>2026-04-26T12:45:36.995Z</time></trkpt><trkpt lat="42.29322" lon="12.10441"><ele>455.0</ele><time>2026-04-26T12:45:37.995Z</time></trkpt><trkpt lat="42.2931017" lon="12.1045633"><ele>456.3333333333333</ele><time>2026-04-26T12:45:38.99Z</time></trkpt><trkpt lat="42.29298" lon="12.1047183"><ele>457.66666666666663</ele><time>2026-04-26T12:45:39.991Z</time></trkpt><trkpt lat="42.2928617" lon="12.10488"><ele>459.0</ele><time>2026-04-26T12:45:40.991Z</time></trkpt><trkpt lat="42.2927517" lon="12.1050467"><ele>459.0</ele><time>2026-04-26T12:45:41.995Z</time></trkpt><trkpt lat="42.29265" lon="12.105225"><ele>459.0</ele><time>2026-04-26T12:45:42.992Z</time></trkpt><trkpt lat="42.292565" lon="12.10542"><ele>459.0</ele><time>2026-04-26T12:45:43.997Z</time></trkpt><trkpt lat="42.2924883" lon="12.1056283"><ele>460.0</ele><time>2026-04-26T12:45:44.989Z</time></trkpt><trkpt lat="42.2924283" lon="12.105855"><ele>461.0</ele><time>2026-04-26T12:45:45.991Z</time></trkpt><trkpt lat="42.2923767" lon="12.1060883"><ele>462.0</ele><time>2026-04-26T12:45:46.993Z</time></trkpt><trkpt lat="42.2923283" lon="12.106325"><ele>462.0</ele><time>2026-04-26T12:45:47.993Z</time></trkpt><trkpt lat="42.292285" lon="12.10657"><ele>462.0</ele><time>2026-04-26T12:45:48.995Z</time></trkpt><trkpt lat="42.292245" lon="12.1068183"><ele>462.0</ele><time>2026-04-26T12:45:49.997Z</time></trkpt><trkpt lat="42.2922067" lon="12.1070667"><ele>462.0</ele><time>2026-04-26T12:45:50.997Z</time></trkpt><trkpt lat="42.2921667" lon="12.1073167"><ele>462.0</ele><time>2026-04-26T12:45:51.994Z</time></trkpt><trkpt lat="42.2921283" lon="12.1075667"><ele>462.0</ele><time>2026-04-26T12:45:52.992Z</time></trkpt><trkpt lat="42.29209" lon="12.107815"><ele>462.0</ele><time>2026-04-26T12:45:53.994Z</time></trkpt><trkpt lat="42.2920533" lon="12.1080617"><ele>462.0</ele><time>2026-04-26T12:45:54.995Z</time></trkpt><trkpt lat="42.2920167" lon="12.10831"><ele>462.0</ele><time>2026-04-26T12:45:56Z</time></trkpt><trkpt lat="42.2919783" lon="12.1085567"><ele>462.0</ele><time>2026-04-26T12:45:56.991Z</time></trkpt><trkpt lat="42.2919383" lon="12.1088017"><ele>462.0</ele><time>2026-04-26T12:45:57.996Z</time></trkpt><trkpt lat="42.2918967" lon="12.1090467"><ele>462.0</ele><time>2026-04-26T12:45:58.999Z</time></trkpt><trkpt lat="42.29185" lon="12.1092883"><ele>462.33333333333337</ele><time>2026-04-26T12:45:59.995Z</time></trkpt><trkpt lat="42.2918017" lon="12.1095333"><ele>462.6666666666667</ele><time>2026-04-26T12:46:00.991Z</time></trkpt><trkpt lat="42.291755" lon="12.1097817"><ele>463.0</ele><time>2026-04-26T12:46:01.998Z</time></trkpt><trkpt lat="42.291705" lon="12.1100283"><ele>463.33333333333337</ele><time>2026-04-26T12:46:02.996Z</time></trkpt><trkpt lat="42.2916517" lon="12.1102717"><ele>463.66666666666663</ele><time>2026-04-26T12:46:03.996Z</time></trkpt><trkpt lat="42.2915983" lon="12.1105133"><ele>464.0</ele><time>2026-04-26T12:46:04.998Z</time></trkpt><trkpt lat="42.291545" lon="12.110755"><ele>464.0</ele><time>2026-04-26T12:46:05.996Z</time></trkpt><trkpt lat="42.2914917" lon="12.1109933"><ele>464.0</ele><time>2026-04-26T12:46:06.996Z</time></trkpt><trkpt lat="42.29144" lon="12.11123"><ele>464.0</ele><time>2026-04-26T12:46:07.996Z</time></trkpt><trkpt lat="42.29139" lon="12.1114717"><ele>463.66666666666663</ele><time>2026-04-26T12:46:08.995Z</time></trkpt><trkpt lat="42.2913367" lon="12.1117183"><ele>463.33333333333337</ele><time>2026-04-26T12:46:09.992Z</time></trkpt><trkpt lat="42.2912833" lon="12.1119683"><ele>463.0</ele><time>2026-04-26T12:46:10.993Z</time></trkpt><trkpt lat="42.2912283" lon="12.1122217"><ele>463.33333333333337</ele><time>2026-04-26T12:46:11.995Z</time></trkpt><trkpt lat="42.2911717" lon="12.1124767"><ele>463.66666666666663</ele><time>2026-04-26T12:46:12.999Z</time></trkpt><trkpt lat="42.291115" lon="12.1127267"><ele>464.0</ele><time>2026-04-26T12:46:13.996Z</time></trkpt><trkpt lat="42.2910617" lon="12.1129767"><ele>464.0</ele><time>2026-04-26T12:46:14.996Z</time></trkpt><trkpt lat="42.29101" lon="12.1132317"><ele>464.0</ele><time>2026-04-26T12:46:15.989Z</time></trkpt><trkpt lat="42.290955" lon="12.11349"><ele>464.0</ele><time>2026-04-26T12:46:16.993Z</time></trkpt><trkpt lat="42.2909" lon="12.1137533"><ele>464.3333333333333</ele><time>2026-04-26T12:46:17.998Z</time></trkpt><trkpt lat="42.290845" lon="12.1140183"><ele>464.66666666666663</ele><time>2026-04-26T12:46:18.991Z</time></trkpt><trkpt lat="42.2907917" lon="12.1142817"><ele>465.0</ele><time>2026-04-26T12:46:19.995Z</time></trkpt><trkpt lat="42.290735" lon="12.1145433"><ele>465.0</ele><time>2026-04-26T12:46:20.993Z</time></trkpt><trkpt lat="42.2906817" lon="12.114805"><ele>465.0</ele><time>2026-04-26T12:46:21.993Z</time></trkpt><trkpt lat="42.2906267" lon="12.115065"><ele>465.0</ele><time>2026-04-26T12:46:22.997Z</time></trkpt><trkpt lat="42.2905733" lon="12.115325"><ele>465.0</ele><time>2026-04-26T12:46:23.998Z</time></trkpt><trkpt lat="42.29052" lon="12.1155867"><ele>465.0</ele><time>2026-04-26T12:46:24.994Z</time></trkpt><trkpt lat="42.2904583" lon="12.115845"><ele>465.0</ele><time>2026-04-26T12:46:25.995Z</time></trkpt><trkpt lat="42.29039" lon="12.1161017"><ele>465.66666666666663</ele><time>2026-04-26T12:46:26.996Z</time></trkpt><trkpt lat="42.2903183" lon="12.116355"><ele>466.3333333333333</ele><time>2026-04-26T12:46:27.996Z</time></trkpt><trkpt lat="42.2902417" lon="12.1166117"><ele>467.0</ele><time>2026-04-26T12:46:28.991Z</time></trkpt><trkpt lat="42.2901633" lon="12.1168683"><ele>467.66666666666663</ele><time>2026-04-26T12:46:29.997Z</time></trkpt><trkpt lat="42.290085" lon="12.1171267"><ele>468.33333333333337</ele><time>2026-04-26T12:46:30.993Z</time></trkpt><trkpt lat="42.29" lon="12.117385"><ele>469.0</ele><time>2026-04-26T12:46:31.995Z</time></trkpt><trkpt lat="42.2899167" lon="12.1176417"><ele>469.33333333333337</ele><time>2026-04-26T12:46:32.993Z</time></trkpt><trkpt lat="42.28983" lon="12.1178917"><ele>469.66666666666663</ele><time>2026-04-26T12:46:33.995Z</time></trkpt><trkpt lat="42.2897417" lon="12.1181417"><ele>470.0</ele><time>2026-04-26T12:46:34.998Z</time></trkpt><trkpt lat="42.2896517" lon="12.1183883"><ele>471.3333333333333</ele><time>2026-04-26T12:46:35.996Z</time></trkpt><trkpt lat="42.2895583" lon="12.118635"><ele>472.66666666666663</ele><time>2026-04-26T12:46:36.998Z</time></trkpt><trkpt lat="42.2894583" lon="12.11888"><ele>474.0</ele><time>2026-04-26T12:46:37.993Z</time></trkpt><trkpt lat="42.2893567" lon="12.11912"><ele>475.0</ele><time>2026-04-26T12:46:38.994Z</time></trkpt><trkpt lat="42.2892483" lon="12.119355"><ele>476.0</ele><time>2026-04-26T12:46:39.997Z</time></trkpt><trkpt lat="42.2891367" lon="12.119585"><ele>477.0</ele><time>2026-04-26T12:46:40.998Z</time></trkpt><trkpt lat="42.2890133" lon="12.119805"><ele>478.0</ele><time>2026-04-26T12:46:41.996Z</time></trkpt><trkpt lat="42.288885" lon="12.12002"><ele>479.0</ele><time>2026-04-26T12:46:42.993Z</time></trkpt><trkpt lat="42.2887533" lon="12.1202317"><ele>480.0</ele><time>2026-04-26T12:46:43.996Z</time></trkpt><trkpt lat="42.28862" lon="12.1204467"><ele>480.0</ele><time>2026-04-26T12:46:44.99Z</time></trkpt><trkpt lat="42.28849" lon="12.1206633"><ele>480.0</ele><time>2026-04-26T12:46:45.993Z</time></trkpt><trkpt lat="42.2883633" lon="12.120875"><ele>480.0</ele><time>2026-04-26T12:46:46.999Z</time></trkpt><trkpt lat="42.2882367" lon="12.1210867"><ele>479.33333333333337</ele><time>2026-04-26T12:46:47.996Z</time></trkpt><trkpt lat="42.2881067" lon="12.1213"><ele>478.6666666666667</ele><time>2026-04-26T12:46:48.996Z</time></trkpt><trkpt lat="42.2879767" lon="12.1215133"><ele>478.0</ele><time>2026-04-26T12:46:49.995Z</time></trkpt><trkpt lat="42.2878467" lon="12.121725"><ele>477.33333333333337</ele><time>2026-04-26T12:46:50.992Z</time></trkpt><trkpt lat="42.2877167" lon="12.1219283"><ele>476.66666666666663</ele><time>2026-04-26T12:46:51.995Z</time></trkpt><trkpt lat="42.28759" lon="12.1221183"><ele>476.0</ele><time>2026-04-26T12:46:52.998Z</time></trkpt><trkpt lat="42.2874617" lon="12.1223067"><ele>475.3333333333333</ele><time>2026-04-26T12:46:53.991Z</time></trkpt><trkpt lat="42.2873283" lon="12.1224917"><ele>474.66666666666663</ele><time>2026-04-26T12:46:54.996Z</time></trkpt><trkpt lat="42.2871883" lon="12.12267"><ele>474.0</ele><time>2026-04-26T12:46:55.991Z</time></trkpt><trkpt lat="42.2870533" lon="12.12285"><ele>473.33333333333337</ele><time>2026-04-26T12:46:56.993Z</time></trkpt><trkpt lat="42.2869283" lon="12.1230317"><ele>472.6666666666667</ele><time>2026-04-26T12:46:57.994Z</time></trkpt><trkpt lat="42.2868067" lon="12.12321"><ele>472.0</ele><time>2026-04-26T12:46:58.992Z</time></trkpt><trkpt lat="42.2866917" lon="12.1233933"><ele>472.33333333333337</ele><time>2026-04-26T12:46:59.993Z</time></trkpt><trkpt lat="42.2865833" lon="12.1235917"><ele>472.66666666666663</ele><time>2026-04-26T12:47:01.001Z</time></trkpt><trkpt lat="42.2864817" lon="12.1237983"><ele>473.0</ele><time>2026-04-26T12:47:01.992Z</time></trkpt><trkpt lat="42.286395" lon="12.124025"><ele>472.66666666666663</ele><time>2026-04-26T12:47:02.996Z</time></trkpt><trkpt lat="42.2863217" lon="12.1242683"><ele>472.33333333333337</ele><time>2026-04-26T12:47:03.991Z</time></trkpt><trkpt lat="42.2862567" lon="12.1245183"><ele>472.0</ele><time>2026-04-26T12:47:04.997Z</time></trkpt><trkpt lat="42.2861883" lon="12.1247667"><ele>471.33333333333337</ele><time>2026-04-26T12:47:05.995Z</time></trkpt><trkpt lat="42.286115" lon="12.125005"><ele>470.66666666666663</ele><time>2026-04-26T12:47:06.996Z</time></trkpt><trkpt lat="42.286035" lon="12.1252333"><ele>470.0</ele><time>2026-04-26T12:47:07.997Z</time></trkpt><trkpt lat="42.28595" lon="12.125455"><ele>470.0</ele><time>2026-04-26T12:47:09.004Z</time></trkpt><trkpt lat="42.2858633" lon="12.125675"><ele>470.0</ele><time>2026-04-26T12:47:09.995Z</time></trkpt><trkpt lat="42.2857717" lon="12.125895"><ele>470.0</ele><time>2026-04-26T12:47:10.995Z</time></trkpt><trkpt lat="42.28568" lon="12.126115"><ele>470.3333333333333</ele><time>2026-04-26T12:47:11.994Z</time></trkpt><trkpt lat="42.28559" lon="12.1263333"><ele>470.66666666666663</ele><time>2026-04-26T12:47:12.999Z</time></trkpt><trkpt lat="42.2855" lon="12.12655"><ele>471.0</ele><time>2026-04-26T12:47:13.995Z</time></trkpt><trkpt lat="42.28541" lon="12.12677"><ele>471.0</ele><time>2026-04-26T12:47:14.993Z</time></trkpt><trkpt lat="42.2853233" lon="12.1269917"><ele>471.0</ele><time>2026-04-26T12:47:15.999Z</time></trkpt><trkpt lat="42.285235" lon="12.1272083"><ele>471.0</ele><time>2026-04-26T12:47:16.998Z</time></trkpt><trkpt lat="42.28515" lon="12.127425"><ele>471.66666666666663</ele><time>2026-04-26T12:47:17.995Z</time></trkpt><trkpt lat="42.28506" lon="12.12764"><ele>472.3333333333333</ele><time>2026-04-26T12:47:18.998Z</time></trkpt><trkpt lat="42.28497" lon="12.1278517"><ele>473.0</ele><time>2026-04-26T12:47:19.994Z</time></trkpt><trkpt lat="42.2848767" lon="12.128065"><ele>472.3333333333333</ele><time>2026-04-26T12:47:20.992Z</time></trkpt><trkpt lat="42.2847783" lon="12.1282783"><ele>471.66666666666663</ele><time>2026-04-26T12:47:21.995Z</time></trkpt><trkpt lat="42.2846833" lon="12.128495"><ele>471.0</ele><time>2026-04-26T12:47:22.999Z</time></trkpt><trkpt lat="42.2845883" lon="12.1287133"><ele>471.0</ele><time>2026-04-26T12:47:23.996Z</time></trkpt><trkpt lat="42.2844933" lon="12.1289367"><ele>471.0</ele><time>2026-04-26T12:47:24.997Z</time></trkpt><trkpt lat="42.2844" lon="12.1291667"><ele>471.0</ele><time>2026-04-26T12:47:25.994Z</time></trkpt><trkpt lat="42.2843067" lon="12.1293917"><ele>471.33333333333337</ele><time>2026-04-26T12:47:26.997Z</time></trkpt><trkpt lat="42.284215" lon="12.1296167"><ele>471.6666666666667</ele><time>2026-04-26T12:47:27.992Z</time></trkpt><trkpt lat="42.2841217" lon="12.12984"><ele>472.0</ele><time>2026-04-26T12:47:28.994Z</time></trkpt><trkpt lat="42.2840283" lon="12.130065"><ele>472.33333333333337</ele><time>2026-04-26T12:47:29.993Z</time></trkpt><trkpt lat="42.283935" lon="12.13029"><ele>472.66666666666663</ele><time>2026-04-26T12:47:30.993Z</time></trkpt><trkpt lat="42.2838383" lon="12.1305133"><ele>473.0</ele><time>2026-04-26T12:47:31.997Z</time></trkpt><trkpt lat="42.283745" lon="12.1307367"><ele>474.0</ele><time>2026-04-26T12:47:32.988Z</time></trkpt><trkpt lat="42.2836517" lon="12.1309617"><ele>475.0</ele><time>2026-04-26T12:47:33.996Z</time></trkpt><trkpt lat="42.28356" lon="12.1311883"><ele>476.0</ele><time>2026-04-26T12:47:34.994Z</time></trkpt><trkpt lat="42.2834683" lon="12.1314167"><ele>477.3333333333333</ele><time>2026-04-26T12:47:35.996Z</time></trkpt><trkpt lat="42.2833783" lon="12.13164"><ele>478.66666666666663</ele><time>2026-04-26T12:47:36.992Z</time></trkpt><trkpt lat="42.28329" lon="12.1318583"><ele>480.0</ele><time>2026-04-26T12:47:37.993Z</time></trkpt><trkpt lat="42.283205" lon="12.1320733"><ele>480.0</ele><time>2026-04-26T12:47:38.997Z</time></trkpt><trkpt lat="42.28312" lon="12.132285"><ele>480.0</ele><time>2026-04-26T12:47:39.995Z</time></trkpt><trkpt lat="42.2830383" lon="12.1324933"><ele>480.0</ele><time>2026-04-26T12:47:40.997Z</time></trkpt><trkpt lat="42.282965" lon="12.132695"><ele>480.25</ele><time>2026-04-26T12:47:41.995Z</time></trkpt><trkpt lat="42.2828933" lon="12.13288"><ele>480.5</ele><time>2026-04-26T12:47:42.995Z</time></trkpt><trkpt lat="42.28283" lon="12.13305"><ele>480.75</ele><time>2026-04-26T12:47:43.99Z</time></trkpt><trkpt lat="42.2827683" lon="12.1332083"><ele>481.0</ele><time>2026-04-26T12:47:44.991Z</time></trkpt><trkpt lat="42.2827133" lon="12.1333483"><ele>481.4</ele><time>2026-04-26T12:47:45.989Z</time></trkpt><trkpt lat="42.28266" lon="12.133475"><ele>481.8</ele><time>2026-04-26T12:47:46.992Z</time></trkpt><trkpt lat="42.2826017" lon="12.1335867"><ele>482.19999999999993</ele><time>2026-04-26T12:47:47.993Z</time></trkpt><trkpt lat="42.2825383" lon="12.1336783"><ele>482.59999999999997</ele><time>2026-04-26T12:47:48.993Z</time></trkpt><trkpt lat="42.28247" lon="12.1337417"><ele>483.0</ele><time>2026-04-26T12:47:49.992Z</time></trkpt><trkpt lat="42.2823933" lon="12.1337717"><ele>483.0</ele><time>2026-04-26T12:47:50.992Z</time></trkpt><trkpt lat="42.2823183" lon="12.1337667"><ele>483.0</ele><time>2026-04-26T12:47:51.995Z</time></trkpt><trkpt lat="42.28225" lon="12.1337217"><ele>483.0</ele><time>2026-04-26T12:47:52.997Z</time></trkpt><trkpt lat="42.2821883" lon="12.1336483"><ele>483.0</ele><time>2026-04-26T12:47:53.991Z</time></trkpt><trkpt lat="42.2821283" lon="12.1335583"><ele>483.0</ele><time>2026-04-26T12:47:55.028Z</time></trkpt><trkpt lat="42.2820583" lon="12.1334567"><ele>483.0</ele><time>2026-04-26T12:47:55.993Z</time></trkpt><trkpt lat="42.28198" lon="12.133345"><ele>482.75</ele><time>2026-04-26T12:47:56.995Z</time></trkpt><trkpt lat="42.281895" lon="12.1332267"><ele>482.5</ele><time>2026-04-26T12:47:57.994Z</time></trkpt><trkpt lat="42.2818033" lon="12.1331017"><ele>482.25</ele><time>2026-04-26T12:47:59Z</time></trkpt><trkpt lat="42.281705" lon="12.1329717"><ele>482.0</ele><time>2026-04-26T12:48:00.001Z</time></trkpt><trkpt lat="42.2816033" lon="12.132835"><ele>482.0</ele><time>2026-04-26T12:48:00.991Z</time></trkpt><trkpt lat="42.2814983" lon="12.1326917"><ele>482.0</ele><time>2026-04-26T12:48:01.995Z</time></trkpt><trkpt lat="42.28139" lon="12.132545"><ele>482.0</ele><time>2026-04-26T12:48:02.993Z</time></trkpt><trkpt lat="42.2812783" lon="12.13239"><ele>481.3333333333333</ele><time>2026-04-26T12:48:03.999Z</time></trkpt><trkpt lat="42.2811617" lon="12.1322333"><ele>480.66666666666663</ele><time>2026-04-26T12:48:04.994Z</time></trkpt><trkpt lat="42.281045" lon="12.1320783"><ele>480.0</ele><time>2026-04-26T12:48:05.991Z</time></trkpt><trkpt lat="42.2809283" lon="12.13192"><ele>480.0</ele><time>2026-04-26T12:48:06.992Z</time></trkpt><trkpt lat="42.2808133" lon="12.1317617"><ele>480.0</ele><time>2026-04-26T12:48:07.992Z</time></trkpt><trkpt lat="42.2807017" lon="12.1316017"><ele>480.0</ele><time>2026-04-26T12:48:08.993Z</time></trkpt><trkpt lat="42.2805917" lon="12.131445"><ele>479.66666666666663</ele><time>2026-04-26T12:48:09.996Z</time></trkpt><trkpt lat="42.280485" lon="12.13129"><ele>479.3333333333333</ele><time>2026-04-26T12:48:10.998Z</time></trkpt><trkpt lat="42.2803817" lon="12.1311367"><ele>479.0</ele><time>2026-04-26T12:48:11.995Z</time></trkpt><trkpt lat="42.2802817" lon="12.1309833"><ele>479.0</ele><time>2026-04-26T12:48:12.994Z</time></trkpt><trkpt lat="42.280185" lon="12.1308267"><ele>479.0</ele><time>2026-04-26T12:48:13.995Z</time></trkpt><trkpt lat="42.2800917" lon="12.1306667"><ele>479.0</ele><time>2026-04-26T12:48:14.994Z</time></trkpt><trkpt lat="42.2799967" lon="12.1305"><ele>479.0</ele><time>2026-04-26T12:48:15.99Z</time></trkpt><trkpt lat="42.2799067" lon="12.13033"><ele>479.0</ele><time>2026-04-26T12:48:16.992Z</time></trkpt><trkpt lat="42.27982" lon="12.130155"><ele>479.0</ele><time>2026-04-26T12:48:17.994Z</time></trkpt><trkpt lat="42.2797383" lon="12.12998"><ele>478.3333333333333</ele><time>2026-04-26T12:48:19Z</time></trkpt><trkpt lat="42.2796617" lon="12.1298017"><ele>477.66666666666663</ele><time>2026-04-26T12:48:19.998Z</time></trkpt><trkpt lat="42.279585" lon="12.1296217"><ele>477.0</ele><time>2026-04-26T12:48:20.994Z</time></trkpt><trkpt lat="42.2795117" lon="12.1294417"><ele>477.0</ele><time>2026-04-26T12:48:21.997Z</time></trkpt><trkpt lat="42.27944" lon="12.1292583"><ele>477.0</ele><time>2026-04-26T12:48:22.996Z</time></trkpt><trkpt lat="42.279375" lon="12.129075"><ele>477.0</ele><time>2026-04-26T12:48:23.991Z</time></trkpt><trkpt lat="42.2793133" lon="12.1289017"><ele>477.0</ele><time>2026-04-26T12:48:24.995Z</time></trkpt><trkpt lat="42.279255" lon="12.12874"><ele>477.0</ele><time>2026-04-26T12:48:25.993Z</time></trkpt><trkpt lat="42.2791983" lon="12.1285833"><ele>477.0</ele><time>2026-04-26T12:48:26.99Z</time></trkpt><trkpt lat="42.2791433" lon="12.1284233"><ele>477.0</ele><time>2026-04-26T12:48:27.993Z</time></trkpt><trkpt lat="42.2790867" lon="12.1282617"><ele>477.0</ele><time>2026-04-26T12:48:29Z</time></trkpt><trkpt lat="42.2790317" lon="12.1280967"><ele>476.5</ele><time>2026-04-26T12:48:29.999Z</time></trkpt><trkpt lat="42.2789733" lon="12.1279267"><ele>476.0</ele><time>2026-04-26T12:48:30.997Z</time></trkpt><trkpt lat="42.27891" lon="12.127755"><ele>475.5</ele><time>2026-04-26T12:48:32.005Z</time></trkpt><trkpt lat="42.278845" lon="12.12758"><ele>475.0</ele><time>2026-04-26T12:48:32.997Z</time></trkpt><trkpt lat="42.27878" lon="12.1274017"><ele>474.5</ele><time>2026-04-26T12:48:33.996Z</time></trkpt><trkpt lat="42.278715" lon="12.1272283"><ele>474.0</ele><time>2026-04-26T12:48:35Z</time></trkpt><trkpt lat="42.2786517" lon="12.12706"><ele>473.5</ele><time>2026-04-26T12:48:35.992Z</time></trkpt><trkpt lat="42.2785917" lon="12.1268883"><ele>473.0</ele><time>2026-04-26T12:48:36.995Z</time></trkpt><trkpt lat="42.2785333" lon="12.1267133"><ele>472.75</ele><time>2026-04-26T12:48:37.995Z</time></trkpt><trkpt lat="42.27847" lon="12.1265383"><ele>472.5</ele><time>2026-04-26T12:48:38.996Z</time></trkpt><trkpt lat="42.2784067" lon="12.1263633"><ele>472.25</ele><time>2026-04-26T12:48:39.992Z</time></trkpt><trkpt lat="42.2783383" lon="12.1261867"><ele>472.0</ele><time>2026-04-26T12:48:40.993Z</time></trkpt><trkpt lat="42.2782767" lon="12.1260083"><ele>472.0</ele><time>2026-04-26T12:48:41.999Z</time></trkpt><trkpt lat="42.2782117" lon="12.125825"><ele>472.0</ele><time>2026-04-26T12:48:43Z</time></trkpt><trkpt lat="42.2781433" lon="12.12564"><ele>472.0</ele><time>2026-04-26T12:48:43.997Z</time></trkpt><trkpt lat="42.27808" lon="12.1254567"><ele>470.75</ele><time>2026-04-26T12:48:45.003Z</time></trkpt><trkpt lat="42.27801" lon="12.12528"><ele>469.5</ele><time>2026-04-26T12:48:45.991Z</time></trkpt><trkpt lat="42.277945" lon="12.1251033"><ele>468.25</ele><time>2026-04-26T12:48:46.991Z</time></trkpt><trkpt lat="42.27788" lon="12.12493"><ele>467.0</ele><time>2026-04-26T12:48:47.992Z</time></trkpt><trkpt lat="42.2778183" lon="12.124765"><ele>466.25</ele><time>2026-04-26T12:48:48.998Z</time></trkpt><trkpt lat="42.27776" lon="12.1246033"><ele>465.5</ele><time>2026-04-26T12:48:49.995Z</time></trkpt><trkpt lat="42.2777017" lon="12.1244383"><ele>464.75</ele><time>2026-04-26T12:48:50.994Z</time></trkpt><trkpt lat="42.277645" lon="12.1242733"><ele>464.0</ele><time>2026-04-26T12:48:51.991Z</time></trkpt><trkpt lat="42.2775917" lon="12.1241167"><ele>463.0</ele><time>2026-04-26T12:48:52.99Z</time></trkpt><trkpt lat="42.2775333" lon="12.123975"><ele>462.0</ele><time>2026-04-26T12:48:53.99Z</time></trkpt><trkpt lat="42.2774767" lon="12.1238467"><ele>461.0</ele><time>2026-04-26T12:48:54.996Z</time></trkpt><trkpt lat="42.2774033" lon="12.1237267"><ele>460.0</ele><time>2026-04-26T12:48:55.994Z</time></trkpt><trkpt lat="42.277315" lon="12.123625"><ele>459.4</ele><time>2026-04-26T12:48:56.992Z</time></trkpt><trkpt lat="42.2772233" lon="12.1235367"><ele>458.8</ele><time>2026-04-26T12:48:57.993Z</time></trkpt><trkpt lat="42.2771383" lon="12.1234583"><ele>458.20000000000005</ele><time>2026-04-26T12:48:58.996Z</time></trkpt><trkpt lat="42.2770617" lon="12.12339"><ele>457.6</ele><time>2026-04-26T12:48:59.996Z</time></trkpt><trkpt lat="42.2769983" lon="12.1233333"><ele>457.0</ele><time>2026-04-26T12:49:00.994Z</time></trkpt><trkpt lat="42.27691" lon="12.1232517"><ele>457.1666666666667</ele><time>2026-04-26T12:49:02.992Z</time></trkpt><trkpt lat="42.276855" lon="12.1231883"><ele>457.33333333333337</ele><time>2026-04-26T12:49:04.994Z</time></trkpt><trkpt lat="42.2767883" lon="12.1231017"><ele>457.5</ele><time>2026-04-26T12:49:06.996Z</time></trkpt><trkpt lat="42.2767517" lon="12.1230283"><ele>457.66666666666663</ele><time>2026-04-26T12:49:07.993Z</time></trkpt><trkpt lat="42.2767217" lon="12.12294"><ele>457.8333333333333</ele><time>2026-04-26T12:49:09.001Z</time></trkpt><trkpt lat="42.2767017" lon="12.1228417"><ele>458.0</ele><time>2026-04-26T12:49:09.992Z</time></trkpt><trkpt lat="42.2766883" lon="12.12274"><ele>458.0</ele><time>2026-04-26T12:49:11Z</time></trkpt><trkpt lat="42.2766817" lon="12.1226317"><ele>457.99999999999994</ele><time>2026-04-26T12:49:11.995Z</time></trkpt><trkpt lat="42.2766817" lon="12.1225133"><ele>457.99999999999994</ele><time>2026-04-26T12:49:12.995Z</time></trkpt><trkpt lat="42.2766783" lon="12.122385"><ele>458.0</ele><time>2026-04-26T12:49:13.993Z</time></trkpt><trkpt lat="42.276665" lon="12.1222533"><ele>458.0</ele><time>2026-04-26T12:49:14.994Z</time></trkpt><trkpt lat="42.276635" lon="12.1221283"><ele>457.5</ele><time>2026-04-26T12:49:15.99Z</time></trkpt><trkpt lat="42.276585" lon="12.1220083"><ele>457.0</ele><time>2026-04-26T12:49:16.994Z</time></trkpt><trkpt lat="42.27651" lon="12.121895"><ele>456.5</ele><time>2026-04-26T12:49:17.997Z</time></trkpt><trkpt lat="42.2764183" lon="12.1217783"><ele>456.0</ele><time>2026-04-26T12:49:19Z</time></trkpt><trkpt lat="42.2763083" lon="12.121655"><ele>455.66666666666663</ele><time>2026-04-26T12:49:19.99Z</time></trkpt><trkpt lat="42.2761867" lon="12.1215233"><ele>455.3333333333333</ele><time>2026-04-26T12:49:20.991Z</time></trkpt><trkpt lat="42.2760667" lon="12.12139"><ele>455.0</ele><time>2026-04-26T12:49:21.995Z</time></trkpt><trkpt lat="42.2759467" lon="12.12126"><ele>455.0</ele><time>2026-04-26T12:49:22.992Z</time></trkpt><trkpt lat="42.27583" lon="12.1211317"><ele>455.0</ele><time>2026-04-26T12:49:23.994Z</time></trkpt><trkpt lat="42.275715" lon="12.1210017"><ele>455.0</ele><time>2026-04-26T12:49:24.991Z</time></trkpt><trkpt lat="42.2755967" lon="12.1208717"><ele>455.0</ele><time>2026-04-26T12:49:26.002Z</time></trkpt><trkpt lat="42.2754767" lon="12.1207383"><ele>455.0</ele><time>2026-04-26T12:49:26.995Z</time></trkpt><trkpt lat="42.27535" lon="12.1206067"><ele>455.0</ele><time>2026-04-26T12:49:27.993Z</time></trkpt><trkpt lat="42.2752183" lon="12.12047"><ele>455.0</ele><time>2026-04-26T12:49:28.996Z</time></trkpt><trkpt lat="42.27509" lon="12.1203283"><ele>455.0</ele><time>2026-04-26T12:49:29.992Z</time></trkpt><trkpt lat="42.2749617" lon="12.120175"><ele>455.0</ele><time>2026-04-26T12:49:30.997Z</time></trkpt><trkpt lat="42.27483" lon="12.12002"><ele>455.3333333333333</ele><time>2026-04-26T12:49:31.997Z</time></trkpt><trkpt lat="42.274695" lon="12.1198633"><ele>455.66666666666663</ele><time>2026-04-26T12:49:32.996Z</time></trkpt><trkpt lat="42.2745617" lon="12.1197033"><ele>456.0</ele><time>2026-04-26T12:49:33.991Z</time></trkpt><trkpt lat="42.2744233" lon="12.11954"><ele>456.0</ele><time>2026-04-26T12:49:35Z</time></trkpt><trkpt lat="42.2742767" lon="12.1193667"><ele>456.0</ele><time>2026-04-26T12:49:35.994Z</time></trkpt><trkpt lat="42.2741167" lon="12.1191833"><ele>456.0</ele><time>2026-04-26T12:49:36.995Z</time></trkpt><trkpt lat="42.2739517" lon="12.118995"><ele>456.66666666666663</ele><time>2026-04-26T12:49:37.993Z</time></trkpt><trkpt lat="42.2737883" lon="12.1188083"><ele>457.3333333333333</ele><time>2026-04-26T12:49:38.991Z</time></trkpt><trkpt lat="42.27363" lon="12.1186317"><ele>458.0</ele><time>2026-04-26T12:49:39.99Z</time></trkpt><trkpt lat="42.27348" lon="12.11847"><ele>458.0</ele><time>2026-04-26T12:49:40.999Z</time></trkpt><trkpt lat="42.273345" lon="12.1183133"><ele>458.0</ele><time>2026-04-26T12:49:41.99Z</time></trkpt><trkpt lat="42.2732167" lon="12.1181667"><ele>458.0</ele><time>2026-04-26T12:49:42.999Z</time></trkpt><trkpt lat="42.2730867" lon="12.11802"><ele>459.0</ele><time>2026-04-26T12:49:43.992Z</time></trkpt><trkpt lat="42.2729583" lon="12.1178683"><ele>460.0</ele><time>2026-04-26T12:49:44.99Z</time></trkpt><trkpt lat="42.272825" lon="12.1177167"><ele>461.0</ele><time>2026-04-26T12:49:45.996Z</time></trkpt><trkpt lat="42.2726867" lon="12.1175533"><ele>461.0</ele><time>2026-04-26T12:49:46.996Z</time></trkpt><trkpt lat="42.2725367" lon="12.1173883"><ele>461.0</ele><time>2026-04-26T12:49:47.993Z</time></trkpt><trkpt lat="42.2723767" lon="12.1172233"><ele>461.0</ele><time>2026-04-26T12:49:48.992Z</time></trkpt><trkpt lat="42.2722117" lon="12.1170417"><ele>461.5</ele><time>2026-04-26T12:49:49.994Z</time></trkpt><trkpt lat="42.27204" lon="12.1168483"><ele>462.0</ele><time>2026-04-26T12:49:50.991Z</time></trkpt><trkpt lat="42.27187" lon="12.1166433"><ele>462.0</ele><time>2026-04-26T12:49:51.992Z</time></trkpt><trkpt lat="42.2716983" lon="12.116435"><ele>462.0</ele><time>2026-04-26T12:49:52.997Z</time></trkpt><trkpt lat="42.2715267" lon="12.1162283"><ele>463.5</ele><time>2026-04-26T12:49:53.993Z</time></trkpt><trkpt lat="42.2713583" lon="12.1160233"><ele>465.0</ele><time>2026-04-26T12:49:54.989Z</time></trkpt><trkpt lat="42.2711917" lon="12.1158217"><ele>465.0</ele><time>2026-04-26T12:49:56.003Z</time></trkpt><trkpt lat="42.2710233" lon="12.1156267"><ele>465.0</ele><time>2026-04-26T12:49:56.991Z</time></trkpt><trkpt lat="42.27086" lon="12.115435"><ele>465.0</ele><time>2026-04-26T12:49:57.993Z</time></trkpt><trkpt lat="42.2706967" lon="12.115245"><ele>465.33333333333337</ele><time>2026-04-26T12:49:58.988Z</time></trkpt><trkpt lat="42.2705267" lon="12.1150533"><ele>465.6666666666667</ele><time>2026-04-26T12:49:59.988Z</time></trkpt><trkpt lat="42.2703517" lon="12.1148567"><ele>466.0</ele><time>2026-04-26T12:50:00.992Z</time></trkpt><trkpt lat="42.270175" lon="12.1146583"><ele>467.0</ele><time>2026-04-26T12:50:01.996Z</time></trkpt><trkpt lat="42.2699983" lon="12.11446"><ele>468.0</ele><time>2026-04-26T12:50:02.997Z</time></trkpt><trkpt lat="42.26982" lon="12.1142533"><ele>470.5</ele><time>2026-04-26T12:50:03.993Z</time></trkpt><trkpt lat="42.2696433" lon="12.11404"><ele>473.0</ele><time>2026-04-26T12:50:04.993Z</time></trkpt><trkpt lat="42.26947" lon="12.113835"><ele>473.0</ele><time>2026-04-26T12:50:05.994Z</time></trkpt><trkpt lat="42.269305" lon="12.11364"><ele>473.0</ele><time>2026-04-26T12:50:06.991Z</time></trkpt><trkpt lat="42.2691383" lon="12.1134483"><ele>473.0</ele><time>2026-04-26T12:50:07.998Z</time></trkpt><trkpt lat="42.268975" lon="12.1132583"><ele>474.3333333333333</ele><time>2026-04-26T12:50:08.989Z</time></trkpt><trkpt lat="42.26881" lon="12.11307"><ele>475.66666666666663</ele><time>2026-04-26T12:50:09.991Z</time></trkpt><trkpt lat="42.2686483" lon="12.11288"><ele>477.0</ele><time>2026-04-26T12:50:10.992Z</time></trkpt><trkpt lat="42.268485" lon="12.1126883"><ele>477.0</ele><time>2026-04-26T12:50:11.991Z</time></trkpt><trkpt lat="42.2683183" lon="12.1124967"><ele>477.0</ele><time>2026-04-26T12:50:12.993Z</time></trkpt><trkpt lat="42.268155" lon="12.1123017"><ele>477.0</ele><time>2026-04-26T12:50:14.007Z</time></trkpt><trkpt lat="42.26799" lon="12.11211"><ele>479.66666666666663</ele><time>2026-04-26T12:50:14.998Z</time></trkpt><trkpt lat="42.2678283" lon="12.111925"><ele>482.3333333333333</ele><time>2026-04-26T12:50:15.995Z</time></trkpt><trkpt lat="42.2676633" lon="12.1117433"><ele>485.0</ele><time>2026-04-26T12:50:16.994Z</time></trkpt><trkpt lat="42.2674983" lon="12.1115583"><ele>485.0</ele><time>2026-04-26T12:50:17.993Z</time></trkpt><trkpt lat="42.26733" lon="12.1113733"><ele>485.0</ele><time>2026-04-26T12:50:18.995Z</time></trkpt><trkpt lat="42.2671633" lon="12.1111883"><ele>485.0</ele><time>2026-04-26T12:50:20Z</time></trkpt><trkpt lat="42.2669967" lon="12.111"><ele>485.0</ele><time>2026-04-26T12:50:20.992Z</time></trkpt><trkpt lat="42.2668283" lon="12.1108017"><ele>485.0</ele><time>2026-04-26T12:50:21.992Z</time></trkpt><trkpt lat="42.2666617" lon="12.110605"><ele>485.0</ele><time>2026-04-26T12:50:22.992Z</time></trkpt><trkpt lat="42.2664933" lon="12.1104133"><ele>486.0</ele><time>2026-04-26T12:50:23.998Z</time></trkpt><trkpt lat="42.2663217" lon="12.1102283"><ele>487.0</ele><time>2026-04-26T12:50:24.993Z</time></trkpt><trkpt lat="42.2661533" lon="12.11005"><ele>488.0</ele><time>2026-04-26T12:50:26.001Z</time></trkpt><trkpt lat="42.2659933" lon="12.1098667"><ele>488.3333333333333</ele><time>2026-04-26T12:50:26.992Z</time></trkpt><trkpt lat="42.2658333" lon="12.1096867"><ele>488.66666666666663</ele><time>2026-04-26T12:50:28Z</time></trkpt><trkpt lat="42.265675" lon="12.109505"><ele>489.0</ele><time>2026-04-26T12:50:28.987Z</time></trkpt><trkpt lat="42.2655167" lon="12.1093267"><ele>491.0</ele><time>2026-04-26T12:50:29.991Z</time></trkpt><trkpt lat="42.2653583" lon="12.109145"><ele>493.0</ele><time>2026-04-26T12:50:30.992Z</time></trkpt><trkpt lat="42.2651983" lon="12.108965"><ele>495.0</ele><time>2026-04-26T12:50:31.993Z</time></trkpt><trkpt lat="42.2650417" lon="12.108785"><ele>495.0</ele><time>2026-04-26T12:50:32.997Z</time></trkpt><trkpt lat="42.2648917" lon="12.10861"><ele>495.0</ele><time>2026-04-26T12:50:33.992Z</time></trkpt><trkpt lat="42.2647433" lon="12.1084383"><ele>495.0</ele><time>2026-04-26T12:50:34.991Z</time></trkpt><trkpt lat="42.2645917" lon="12.1082667"><ele>497.0</ele><time>2026-04-26T12:50:35.993Z</time></trkpt><trkpt lat="42.264445" lon="12.108095"><ele>499.0</ele><time>2026-04-26T12:50:36.998Z</time></trkpt><trkpt lat="42.2642983" lon="12.107925"><ele>501.0</ele><time>2026-04-26T12:50:37.997Z</time></trkpt><trkpt lat="42.2641517" lon="12.1077517"><ele>501.0</ele><time>2026-04-26T12:50:38.991Z</time></trkpt><trkpt lat="42.2639983" lon="12.1075783"><ele>501.0</ele><time>2026-04-26T12:50:39.991Z</time></trkpt><trkpt lat="42.2638433" lon="12.1073983"><ele>501.0</ele><time>2026-04-26T12:50:40.99Z</time></trkpt><trkpt lat="42.263685" lon="12.10722"><ele>500.66666666666663</ele><time>2026-04-26T12:50:41.998Z</time></trkpt><trkpt lat="42.263525" lon="12.10704"><ele>500.3333333333333</ele><time>2026-04-26T12:50:43Z</time></trkpt><trkpt lat="42.2633717" lon="12.1068583"><ele>500.0</ele><time>2026-04-26T12:50:43.996Z</time></trkpt><trkpt lat="42.2632183" lon="12.1066867"><ele>501.3333333333333</ele><time>2026-04-26T12:50:44.993Z</time></trkpt><trkpt lat="42.2630717" lon="12.10652"><ele>502.66666666666663</ele><time>2026-04-26T12:50:45.992Z</time></trkpt><trkpt lat="42.262925" lon="12.1063533"><ele>504.0</ele><time>2026-04-26T12:50:46.993Z</time></trkpt><trkpt lat="42.2627767" lon="12.1061833"><ele>504.0</ele><time>2026-04-26T12:50:47.992Z</time></trkpt><trkpt lat="42.26263" lon="12.1060117"><ele>504.0</ele><time>2026-04-26T12:50:48.993Z</time></trkpt><trkpt lat="42.2624867" lon="12.1058433"><ele>504.0</ele><time>2026-04-26T12:50:49.994Z</time></trkpt><trkpt lat="42.262345" lon="12.1056733"><ele>503.0</ele><time>2026-04-26T12:50:50.994Z</time></trkpt><trkpt lat="42.262205" lon="12.1055"><ele>502.0</ele><time>2026-04-26T12:50:51.991Z</time></trkpt><trkpt lat="42.2620633" lon="12.105335"><ele>501.0</ele><time>2026-04-26T12:50:52.996Z</time></trkpt><trkpt lat="42.2619183" lon="12.1051767"><ele>501.0</ele><time>2026-04-26T12:50:53.992Z</time></trkpt><trkpt lat="42.2617683" lon="12.1050167"><ele>501.0</ele><time>2026-04-26T12:50:54.993Z</time></trkpt><trkpt lat="42.26162" lon="12.1048467"><ele>501.0</ele><time>2026-04-26T12:50:55.995Z</time></trkpt><trkpt lat="42.26147" lon="12.10467"><ele>499.66666666666663</ele><time>2026-04-26T12:50:56.993Z</time></trkpt><trkpt lat="42.2613183" lon="12.1044967"><ele>498.3333333333333</ele><time>2026-04-26T12:50:57.988Z</time></trkpt><trkpt lat="42.2611733" lon="12.104325"><ele>497.0</ele><time>2026-04-26T12:50:58.991Z</time></trkpt><trkpt lat="42.2610283" lon="12.10416"><ele>497.0</ele><time>2026-04-26T12:50:59.995Z</time></trkpt><trkpt lat="42.260885" lon="12.1039933"><ele>497.0</ele><time>2026-04-26T12:51:00.996Z</time></trkpt><trkpt lat="42.260745" lon="12.103835"><ele>497.0</ele><time>2026-04-26T12:51:01.994Z</time></trkpt><trkpt lat="42.260605" lon="12.103675"><ele>496.3333333333333</ele><time>2026-04-26T12:51:02.988Z</time></trkpt><trkpt lat="42.2604717" lon="12.103525"><ele>495.66666666666663</ele><time>2026-04-26T12:51:03.999Z</time></trkpt><trkpt lat="42.260335" lon="12.1033733"><ele>495.0</ele><time>2026-04-26T12:51:04.995Z</time></trkpt><trkpt lat="42.260195" lon="12.1032183"><ele>495.0</ele><time>2026-04-26T12:51:05.993Z</time></trkpt><trkpt lat="42.2600533" lon="12.10306"><ele>495.0</ele><time>2026-04-26T12:51:06.992Z</time></trkpt><trkpt lat="42.25991" lon="12.1029"><ele>495.0</ele><time>2026-04-26T12:51:07.997Z</time></trkpt><trkpt lat="42.2597633" lon="12.10274"><ele>494.33333333333337</ele><time>2026-04-26T12:51:08.991Z</time></trkpt><trkpt lat="42.2596167" lon="12.1025767"><ele>493.6666666666667</ele><time>2026-04-26T12:51:09.996Z</time></trkpt><trkpt lat="42.25947" lon="12.1024167"><ele>493.0</ele><time>2026-04-26T12:51:10.993Z</time></trkpt><trkpt lat="42.25933" lon="12.1022533"><ele>493.0</ele><time>2026-04-26T12:51:11.992Z</time></trkpt><trkpt lat="42.25919" lon="12.1020967"><ele>493.0</ele><time>2026-04-26T12:51:12.993Z</time></trkpt><trkpt lat="42.2590483" lon="12.1019367"><ele>493.0</ele><time>2026-04-26T12:51:13.991Z</time></trkpt><trkpt lat="42.2588983" lon="12.1017683"><ele>493.0</ele><time>2026-04-26T12:51:14.99Z</time></trkpt><trkpt lat="42.2587433" lon="12.101595"><ele>493.0</ele><time>2026-04-26T12:51:15.992Z</time></trkpt><trkpt lat="42.2585867" lon="12.1014167"><ele>493.0</ele><time>2026-04-26T12:51:16.995Z</time></trkpt><trkpt lat="42.258445" lon="12.10125"><ele>493.0</ele><time>2026-04-26T12:51:17.996Z</time></trkpt><trkpt lat="42.2583183" lon="12.1010933"><ele>493.0</ele><time>2026-04-26T12:51:18.996Z</time></trkpt><trkpt lat="42.2582" lon="12.1009683"><ele>493.0</ele><time>2026-04-26T12:51:19.997Z</time></trkpt><trkpt lat="42.2580733" lon="12.1008733"><ele>491.5</ele><time>2026-04-26T12:51:20.995Z</time></trkpt><trkpt lat="42.2579367" lon="12.100815"><ele>490.0</ele><time>2026-04-26T12:51:21.997Z</time></trkpt><trkpt lat="42.2577967" lon="12.1007917"><ele>488.5</ele><time>2026-04-26T12:51:22.993Z</time></trkpt><trkpt lat="42.257645" lon="12.1008183"><ele>487.0</ele><time>2026-04-26T12:51:23.994Z</time></trkpt><trkpt lat="42.25747" lon="12.1008883"><ele>485.33333333333337</ele><time>2026-04-26T12:51:24.992Z</time></trkpt><trkpt lat="42.2572817" lon="12.100965"><ele>483.66666666666663</ele><time>2026-04-26T12:51:25.992Z</time></trkpt><trkpt lat="42.2570683" lon="12.1010533"><ele>482.0</ele><time>2026-04-26T12:51:26.993Z</time></trkpt><trkpt lat="42.2568567" lon="12.1011333"><ele>482.0</ele><time>2026-04-26T12:51:27.998Z</time></trkpt><trkpt lat="42.2566533" lon="12.1012133"><ele>482.0</ele><time>2026-04-26T12:51:28.998Z</time></trkpt><trkpt lat="42.2564633" lon="12.1012833"><ele>482.0</ele><time>2026-04-26T12:51:30.001Z</time></trkpt><trkpt lat="42.2562933" lon="12.1013467"><ele>479.0</ele><time>2026-04-26T12:51:30.993Z</time></trkpt><trkpt lat="42.2561367" lon="12.1013833"><ele>476.0</ele><time>2026-04-26T12:51:31.993Z</time></trkpt><trkpt lat="42.25598" lon="12.10138"><ele>473.0</ele><time>2026-04-26T12:51:32.992Z</time></trkpt><trkpt lat="42.2558117" lon="12.1013517"><ele>473.0</ele><time>2026-04-26T12:51:33.998Z</time></trkpt><trkpt lat="42.2556333" lon="12.10132"><ele>473.0</ele><time>2026-04-26T12:51:34.991Z</time></trkpt><trkpt lat="42.255445" lon="12.1012967"><ele>473.0</ele><time>2026-04-26T12:51:35.993Z</time></trkpt><trkpt lat="42.2552617" lon="12.1012883"><ele>470.75</ele><time>2026-04-26T12:51:36.994Z</time></trkpt><trkpt lat="42.2551" lon="12.1012983"><ele>468.5</ele><time>2026-04-26T12:51:38.006Z</time></trkpt><trkpt lat="42.2549517" lon="12.1013"><ele>466.25</ele><time>2026-04-26T12:51:38.993Z</time></trkpt><trkpt lat="42.2548233" lon="12.1012767"><ele>464.0</ele><time>2026-04-26T12:51:39.993Z</time></trkpt><trkpt lat="42.25471" lon="12.10121"><ele>463.75</ele><time>2026-04-26T12:51:40.994Z</time></trkpt><trkpt lat="42.2546117" lon="12.1010983"><ele>463.5</ele><time>2026-04-26T12:51:41.993Z</time></trkpt><trkpt lat="42.2545183" lon="12.1009783"><ele>463.25</ele><time>2026-04-26T12:51:42.994Z</time></trkpt><trkpt lat="42.2544217" lon="12.10087"><ele>463.0</ele><time>2026-04-26T12:51:43.997Z</time></trkpt><trkpt lat="42.254305" lon="12.1008"><ele>463.0</ele><time>2026-04-26T12:51:44.998Z</time></trkpt><trkpt lat="42.2541633" lon="12.1007767"><ele>463.0</ele><time>2026-04-26T12:51:45.991Z</time></trkpt><trkpt lat="42.25402" lon="12.10077"><ele>463.0</ele><time>2026-04-26T12:51:46.993Z</time></trkpt><trkpt lat="42.2538867" lon="12.1007517"><ele>463.0</ele><time>2026-04-26T12:51:47.996Z</time></trkpt><trkpt lat="42.253765" lon="12.1006983"><ele>460.5</ele><time>2026-04-26T12:51:48.991Z</time></trkpt><trkpt lat="42.2536483" lon="12.1006017"><ele>458.0</ele><time>2026-04-26T12:51:49.999Z</time></trkpt><trkpt lat="42.253535" lon="12.10046"><ele>455.5</ele><time>2026-04-26T12:51:50.995Z</time></trkpt><trkpt lat="42.25343" lon="12.1003033"><ele>453.0</ele><time>2026-04-26T12:51:52Z</time></trkpt><trkpt lat="42.2533367" lon="12.1001333"><ele>453.0</ele><time>2026-04-26T12:51:52.997Z</time></trkpt><trkpt lat="42.2532483" lon="12.0999717"><ele>453.0</ele><time>2026-04-26T12:51:53.99Z</time></trkpt><trkpt lat="42.2531633" lon="12.09982"><ele>453.0</ele><time>2026-04-26T12:51:54.992Z</time></trkpt><trkpt lat="42.2530617" lon="12.0996967"><ele>453.0</ele><time>2026-04-26T12:51:55.997Z</time></trkpt><trkpt lat="42.25293" lon="12.0996067"><ele>449.0</ele><time>2026-04-26T12:51:56.992Z</time></trkpt><trkpt lat="42.2527617" lon="12.0995433"><ele>445.0</ele><time>2026-04-26T12:51:57.997Z</time></trkpt><trkpt lat="42.252575" lon="12.0995017"><ele>441.0</ele><time>2026-04-26T12:51:58.994Z</time></trkpt><trkpt lat="42.2523967" lon="12.0994683"><ele>440.25</ele><time>2026-04-26T12:51:59.992Z</time></trkpt><trkpt lat="42.2522367" lon="12.099435"><ele>439.5</ele><time>2026-04-26T12:52:00.988Z</time></trkpt><trkpt lat="42.252095" lon="12.0994117"><ele>438.75</ele><time>2026-04-26T12:52:01.997Z</time></trkpt><trkpt lat="42.2519733" lon="12.0994083"><ele>438.0</ele><time>2026-04-26T12:52:02.994Z</time></trkpt><trkpt lat="42.2518617" lon="12.09944"><ele>438.0</ele><time>2026-04-26T12:52:04.003Z</time></trkpt><trkpt lat="42.2517583" lon="12.0995183"><ele>438.0</ele><time>2026-04-26T12:52:04.995Z</time></trkpt><trkpt lat="42.251675" lon="12.0996283"><ele>438.0</ele><time>2026-04-26T12:52:05.993Z</time></trkpt><trkpt lat="42.251615" lon="12.099775"><ele>438.0</ele><time>2026-04-26T12:52:06.996Z</time></trkpt><trkpt lat="42.25158" lon="12.0999667"><ele>439.0</ele><time>2026-04-26T12:52:07.994Z</time></trkpt><trkpt lat="42.251555" lon="12.1002"><ele>440.0</ele><time>2026-04-26T12:52:08.993Z</time></trkpt><trkpt lat="42.2515217" lon="12.1004433"><ele>441.0</ele><time>2026-04-26T12:52:09.992Z</time></trkpt><trkpt lat="42.251475" lon="12.1006717"><ele>438.0</ele><time>2026-04-26T12:52:10.996Z</time></trkpt><trkpt lat="42.2514167" lon="12.1008883"><ele>435.0</ele><time>2026-04-26T12:52:12.041Z</time></trkpt><trkpt lat="42.2513417" lon="12.101095"><ele>432.0</ele><time>2026-04-26T12:52:12.996Z</time></trkpt><trkpt lat="42.2512683" lon="12.1012783"><ele>432.0</ele><time>2026-04-26T12:52:13.993Z</time></trkpt><trkpt lat="42.2512017" lon="12.1014233"><ele>432.00000000000006</ele><time>2026-04-26T12:52:14.992Z</time></trkpt><trkpt lat="42.2511333" lon="12.1015267"><ele>432.00000000000006</ele><time>2026-04-26T12:52:15.995Z</time></trkpt><trkpt lat="42.2510567" lon="12.1015933"><ele>432.0</ele><time>2026-04-26T12:52:16.994Z</time></trkpt><trkpt lat="42.25098" lon="12.101625"><ele>432.0</ele><time>2026-04-26T12:52:17.998Z</time></trkpt><trkpt lat="42.2509" lon="12.1016083"><ele>432.0</ele><time>2026-04-26T12:52:18.995Z</time></trkpt><trkpt lat="42.2508133" lon="12.1015417"><ele>432.0</ele><time>2026-04-26T12:52:19.993Z</time></trkpt><trkpt lat="42.2507067" lon="12.1014317"><ele>432.0</ele><time>2026-04-26T12:52:20.993Z</time></trkpt><trkpt lat="42.2505817" lon="12.1013133"><ele>432.0</ele><time>2026-04-26T12:52:21.996Z</time></trkpt><trkpt lat="42.2504417" lon="12.1011717"><ele>433.0</ele><time>2026-04-26T12:52:22.998Z</time></trkpt><trkpt lat="42.250285" lon="12.1010117"><ele>434.0</ele><time>2026-04-26T12:52:23.988Z</time></trkpt><trkpt lat="42.25012" lon="12.1008467"><ele>435.0</ele><time>2026-04-26T12:52:24.993Z</time></trkpt><trkpt lat="42.249955" lon="12.1006817"><ele>432.0</ele><time>2026-04-26T12:52:25.994Z</time></trkpt><trkpt lat="42.2497917" lon="12.100525"><ele>429.0</ele><time>2026-04-26T12:52:26.995Z</time></trkpt><trkpt lat="42.2496283" lon="12.1003683"><ele>426.0</ele><time>2026-04-26T12:52:27.997Z</time></trkpt><trkpt lat="42.2494683" lon="12.100215"><ele>426.0</ele><time>2026-04-26T12:52:28.996Z</time></trkpt><trkpt lat="42.2493117" lon="12.1000717"><ele>426.0</ele><time>2026-04-26T12:52:29.995Z</time></trkpt><trkpt lat="42.2491583" lon="12.0999233"><ele>426.0</ele><time>2026-04-26T12:52:30.997Z</time></trkpt><trkpt lat="42.2490183" lon="12.0997683"><ele>426.0</ele><time>2026-04-26T12:52:31.997Z</time></trkpt><trkpt lat="42.2488967" lon="12.0996"><ele>426.0</ele><time>2026-04-26T12:52:32.996Z</time></trkpt><trkpt lat="42.2487867" lon="12.0994233"><ele>426.0</ele><time>2026-04-26T12:52:33.995Z</time></trkpt><trkpt lat="42.2486817" lon="12.099255"><ele>426.0</ele><time>2026-04-26T12:52:35.001Z</time></trkpt><trkpt lat="42.24858" lon="12.099105"><ele>426.0</ele><time>2026-04-26T12:52:35.993Z</time></trkpt><trkpt lat="42.2484667" lon="12.0989633"><ele>426.0</ele><time>2026-04-26T12:52:36.994Z</time></trkpt><trkpt lat="42.24832" lon="12.0988517"><ele>425.0</ele><time>2026-04-26T12:52:37.995Z</time></trkpt><trkpt lat="42.248135" lon="12.0987617"><ele>424.0</ele><time>2026-04-26T12:52:38.991Z</time></trkpt><trkpt lat="42.2479267" lon="12.09867"><ele>423.0</ele><time>2026-04-26T12:52:39.997Z</time></trkpt><trkpt lat="42.247705" lon="12.098575"><ele>423.0</ele><time>2026-04-26T12:52:40.996Z</time></trkpt><trkpt lat="42.2474867" lon="12.09848"><ele>423.0</ele><time>2026-04-26T12:52:41.992Z</time></trkpt><trkpt lat="42.24729" lon="12.0983917"><ele>423.0</ele><time>2026-04-26T12:52:42.991Z</time></trkpt><trkpt lat="42.2471183" lon="12.098315"><ele>423.75</ele><time>2026-04-26T12:52:43.992Z</time></trkpt><trkpt lat="42.2469633" lon="12.098245"><ele>424.5</ele><time>2026-04-26T12:52:44.995Z</time></trkpt><trkpt lat="42.2468267" lon="12.098175"><ele>425.25</ele><time>2026-04-26T12:52:45.99Z</time></trkpt><trkpt lat="42.2467017" lon="12.0980933"><ele>426.0</ele><time>2026-04-26T12:52:46.994Z</time></trkpt><trkpt lat="42.24659" lon="12.09799"><ele>426.0</ele><time>2026-04-26T12:52:47.999Z</time></trkpt><trkpt lat="42.2465" lon="12.09785"><ele>426.0</ele><time>2026-04-26T12:52:48.998Z</time></trkpt><trkpt lat="42.2464333" lon="12.0976883"><ele>426.0</ele><time>2026-04-26T12:52:49.996Z</time></trkpt><trkpt lat="42.2463817" lon="12.09752"><ele>426.0</ele><time>2026-04-26T12:52:50.993Z</time></trkpt><trkpt lat="42.246325" lon="12.0973617"><ele>424.75</ele><time>2026-04-26T12:52:51.998Z</time></trkpt><trkpt lat="42.2462467" lon="12.0972333"><ele>423.5</ele><time>2026-04-26T12:52:52.989Z</time></trkpt><trkpt lat="42.2461433" lon="12.0971367"><ele>422.25</ele><time>2026-04-26T12:52:54.006Z</time></trkpt><trkpt lat="42.2460233" lon="12.0970883"><ele>421.0</ele><time>2026-04-26T12:52:54.991Z</time></trkpt><trkpt lat="42.2459033" lon="12.0970967"><ele>421.0</ele><time>2026-04-26T12:52:55.989Z</time></trkpt><trkpt lat="42.2457717" lon="12.0971767"><ele>421.0</ele><time>2026-04-26T12:52:56.995Z</time></trkpt><trkpt lat="42.2456317" lon="12.0972767"><ele>421.0</ele><time>2026-04-26T12:52:57.998Z</time></trkpt><trkpt lat="42.2454817" lon="12.097365"><ele>423.0</ele><time>2026-04-26T12:52:58.994Z</time></trkpt><trkpt lat="42.2453167" lon="12.0974333"><ele>425.0</ele><time>2026-04-26T12:52:59.993Z</time></trkpt><trkpt lat="42.24513" lon="12.097475"><ele>427.0</ele><time>2026-04-26T12:53:00.994Z</time></trkpt><trkpt lat="42.2449383" lon="12.0974967"><ele>426.6666666666667</ele><time>2026-04-26T12:53:01.997Z</time></trkpt><trkpt lat="42.2447517" lon="12.0974933"><ele>426.33333333333337</ele><time>2026-04-26T12:53:02.992Z</time></trkpt><trkpt lat="42.2445633" lon="12.0974767"><ele>426.0</ele><time>2026-04-26T12:53:03.999Z</time></trkpt><trkpt lat="42.2443617" lon="12.097445"><ele>423.66666666666663</ele><time>2026-04-26T12:53:04.995Z</time></trkpt><trkpt lat="42.2441633" lon="12.0974033"><ele>421.3333333333333</ele><time>2026-04-26T12:53:05.99Z</time></trkpt><trkpt lat="42.243975" lon="12.0973533"><ele>419.0</ele><time>2026-04-26T12:53:06.995Z</time></trkpt><trkpt lat="42.2438017" lon="12.0973"><ele>419.0</ele><time>2026-04-26T12:53:07.996Z</time></trkpt><trkpt lat="42.2436367" lon="12.09725"><ele>419.0</ele><time>2026-04-26T12:53:08.991Z</time></trkpt><trkpt lat="42.2434783" lon="12.0971917"><ele>419.0</ele><time>2026-04-26T12:53:09.995Z</time></trkpt><trkpt lat="42.2433183" lon="12.0971133"><ele>419.0</ele><time>2026-04-26T12:53:10.996Z</time></trkpt><trkpt lat="42.2431433" lon="12.097015"><ele>419.0</ele><time>2026-04-26T12:53:11.988Z</time></trkpt><trkpt lat="42.24297" lon="12.0969"><ele>419.0</ele><time>2026-04-26T12:53:12.995Z</time></trkpt><trkpt lat="42.2428033" lon="12.0967817"><ele>418.75</ele><time>2026-04-26T12:53:13.995Z</time></trkpt><trkpt lat="42.2426533" lon="12.0966783"><ele>418.5</ele><time>2026-04-26T12:53:14.998Z</time></trkpt><trkpt lat="42.2425283" lon="12.0965833"><ele>418.25</ele><time>2026-04-26T12:53:15.994Z</time></trkpt><trkpt lat="42.242425" lon="12.09648"><ele>418.0</ele><time>2026-04-26T12:53:16.992Z</time></trkpt><trkpt lat="42.242355" lon="12.096335"><ele>418.0</ele><time>2026-04-26T12:53:17.995Z</time></trkpt><trkpt lat="42.2423117" lon="12.09616"><ele>418.0</ele><time>2026-04-26T12:53:18.994Z</time></trkpt><trkpt lat="42.2422967" lon="12.0959467"><ele>418.0</ele><time>2026-04-26T12:53:19.996Z</time></trkpt><trkpt lat="42.2423017" lon="12.0957033"><ele>416.33333333333337</ele><time>2026-04-26T12:53:20.994Z</time></trkpt><trkpt lat="42.242315" lon="12.095455"><ele>414.66666666666663</ele><time>2026-04-26T12:53:21.994Z</time></trkpt><trkpt lat="42.2423317" lon="12.0952117"><ele>413.0</ele><time>2026-04-26T12:53:22.993Z</time></trkpt><trkpt lat="42.2423567" lon="12.0949783"><ele>411.3333333333333</ele><time>2026-04-26T12:53:23.992Z</time></trkpt><trkpt lat="42.2424017" lon="12.0947517"><ele>409.66666666666663</ele><time>2026-04-26T12:53:24.992Z</time></trkpt><trkpt lat="42.24247" lon="12.0945033"><ele>408.0</ele><time>2026-04-26T12:53:25.995Z</time></trkpt><trkpt lat="42.2425383" lon="12.09425"><ele>407.66666666666663</ele><time>2026-04-26T12:53:26.993Z</time></trkpt><trkpt lat="42.2425883" lon="12.094005"><ele>407.3333333333333</ele><time>2026-04-26T12:53:27.993Z</time></trkpt><trkpt lat="42.2426217" lon="12.0937533"><ele>407.0</ele><time>2026-04-26T12:53:28.993Z</time></trkpt><trkpt lat="42.2426367" lon="12.0934933"><ele>406.3333333333333</ele><time>2026-04-26T12:53:29.992Z</time></trkpt><trkpt lat="42.2426483" lon="12.0932283"><ele>405.66666666666663</ele><time>2026-04-26T12:53:30.99Z</time></trkpt><trkpt lat="42.24265" lon="12.0929683"><ele>405.0</ele><time>2026-04-26T12:53:32Z</time></trkpt><trkpt lat="42.242655" lon="12.0927167"><ele>405.0</ele><time>2026-04-26T12:53:32.991Z</time></trkpt><trkpt lat="42.242655" lon="12.0924683"><ele>405.0</ele><time>2026-04-26T12:53:33.993Z</time></trkpt><trkpt lat="42.24265" lon="12.092225"><ele>405.0</ele><time>2026-04-26T12:53:34.99Z</time></trkpt><trkpt lat="42.2426417" lon="12.0919883"><ele>405.0</ele><time>2026-04-26T12:53:35.992Z</time></trkpt><trkpt lat="42.2426333" lon="12.0917583"><ele>405.0</ele><time>2026-04-26T12:53:36.99Z</time></trkpt><trkpt lat="42.24263" lon="12.0915333"><ele>405.0</ele><time>2026-04-26T12:53:37.994Z</time></trkpt><trkpt lat="42.2426233" lon="12.0913067"><ele>406.0</ele><time>2026-04-26T12:53:38.994Z</time></trkpt><trkpt lat="42.2426167" lon="12.0910783"><ele>407.0</ele><time>2026-04-26T12:53:39.993Z</time></trkpt><trkpt lat="42.2426067" lon="12.0908533"><ele>408.0</ele><time>2026-04-26T12:53:40.989Z</time></trkpt><trkpt lat="42.242595" lon="12.090625"><ele>408.0</ele><time>2026-04-26T12:53:41.995Z</time></trkpt><trkpt lat="42.24258" lon="12.0903967"><ele>408.0</ele><time>2026-04-26T12:53:42.996Z</time></trkpt><trkpt lat="42.2425617" lon="12.09018"><ele>408.0</ele><time>2026-04-26T12:53:44.03Z</time></trkpt><trkpt lat="42.242545" lon="12.08996"><ele>408.0</ele><time>2026-04-26T12:53:44.994Z</time></trkpt><trkpt lat="42.2425217" lon="12.0897417"><ele>408.0</ele><time>2026-04-26T12:53:45.997Z</time></trkpt><trkpt lat="42.2425" lon="12.08953"><ele>408.0</ele><time>2026-04-26T12:53:46.994Z</time></trkpt><trkpt lat="42.2424717" lon="12.0893283"><ele>408.0</ele><time>2026-04-26T12:53:47.997Z</time></trkpt><trkpt lat="42.2424417" lon="12.089135"><ele>408.0</ele><time>2026-04-26T12:53:48.994Z</time></trkpt><trkpt lat="42.2424033" lon="12.0889567"><ele>408.0</ele><time>2026-04-26T12:53:49.997Z</time></trkpt><trkpt lat="42.242365" lon="12.0887967"><ele>408.0</ele><time>2026-04-26T12:53:50.991Z</time></trkpt><trkpt lat="42.2423333" lon="12.0886433"><ele>407.8333333333333</ele><time>2026-04-26T12:53:51.992Z</time></trkpt><trkpt lat="42.2423033" lon="12.0885083"><ele>407.66666666666663</ele><time>2026-04-26T12:53:52.993Z</time></trkpt><trkpt lat="42.2422717" lon="12.0883867"><ele>407.5</ele><time>2026-04-26T12:53:53.995Z</time></trkpt><trkpt lat="42.2422417" lon="12.088275"><ele>407.3333333333333</ele><time>2026-04-26T12:53:54.991Z</time></trkpt><trkpt lat="42.242205" lon="12.0881783"><ele>407.16666666666663</ele><time>2026-04-26T12:53:55.994Z</time></trkpt><trkpt lat="42.2421733" lon="12.0881017"><ele>407.0</ele><time>2026-04-26T12:53:56.992Z</time></trkpt><trkpt lat="42.2421317" lon="12.087995"><ele>407.0</ele><time>2026-04-26T12:53:58.991Z</time></trkpt><trkpt lat="42.24206" lon="12.0879617"><ele>407.0</ele><time>2026-04-26T12:54:03.997Z</time></trkpt><trkpt lat="42.2419783" lon="12.0880133"><ele>407.0</ele><time>2026-04-26T12:54:05.995Z</time></trkpt><trkpt lat="42.2419133" lon="12.0880733"><ele>407.0</ele><time>2026-04-26T12:54:06.996Z</time></trkpt><trkpt lat="42.2418333" lon="12.088155"><ele>407.0</ele><time>2026-04-26T12:54:07.998Z</time></trkpt><trkpt lat="42.2417383" lon="12.0882533"><ele>407.0</ele><time>2026-04-26T12:54:08.994Z</time></trkpt><trkpt lat="42.2416183" lon="12.0883633"><ele>407.0</ele><time>2026-04-26T12:54:09.992Z</time></trkpt><trkpt lat="42.2414833" lon="12.0884933"><ele>407.0</ele><time>2026-04-26T12:54:10.995Z</time></trkpt><trkpt lat="42.241345" lon="12.088615"><ele>406.0</ele><time>2026-04-26T12:54:11.996Z</time></trkpt><trkpt lat="42.24121" lon="12.08874"><ele>405.0</ele><time>2026-04-26T12:54:12.992Z</time></trkpt><trkpt lat="42.241085" lon="12.0888617"><ele>404.0</ele><time>2026-04-26T12:54:13.992Z</time></trkpt><trkpt lat="42.2409717" lon="12.0889733"><ele>404.0</ele><time>2026-04-26T12:54:14.992Z</time></trkpt><trkpt lat="42.2408633" lon="12.0890667"><ele>404.0</ele><time>2026-04-26T12:54:15.993Z</time></trkpt><trkpt lat="42.2407533" lon="12.089145"><ele>404.0</ele><time>2026-04-26T12:54:16.992Z</time></trkpt><trkpt lat="42.240635" lon="12.0891933"><ele>404.0</ele><time>2026-04-26T12:54:17.992Z</time></trkpt><trkpt lat="42.2404967" lon="12.0892083"><ele>404.75</ele><time>2026-04-26T12:54:18.989Z</time></trkpt><trkpt lat="42.2403517" lon="12.0892217"><ele>405.5</ele><time>2026-04-26T12:54:19.995Z</time></trkpt><trkpt lat="42.2402117" lon="12.0892583"><ele>406.25</ele><time>2026-04-26T12:54:20.996Z</time></trkpt><trkpt lat="42.2400733" lon="12.0893333"><ele>407.0</ele><time>2026-04-26T12:54:21.991Z</time></trkpt><trkpt lat="42.2399367" lon="12.0894267"><ele>407.0</ele><time>2026-04-26T12:54:22.991Z</time></trkpt><trkpt lat="42.2398167" lon="12.0895167"><ele>407.0</ele><time>2026-04-26T12:54:23.997Z</time></trkpt><trkpt lat="42.239705" lon="12.0895783"><ele>407.0</ele><time>2026-04-26T12:54:24.992Z</time></trkpt><trkpt lat="42.2395917" lon="12.0896167"><ele>407.0</ele><time>2026-04-26T12:54:25.996Z</time></trkpt><trkpt lat="42.23946" lon="12.08962"><ele>406.3333333333333</ele><time>2026-04-26T12:54:26.989Z</time></trkpt><trkpt lat="42.2393033" lon="12.0896133"><ele>405.66666666666663</ele><time>2026-04-26T12:54:27.995Z</time></trkpt><trkpt lat="42.239125" lon="12.0896067"><ele>405.0</ele><time>2026-04-26T12:54:28.997Z</time></trkpt><trkpt lat="42.2389317" lon="12.089605"><ele>404.0</ele><time>2026-04-26T12:54:29.993Z</time></trkpt><trkpt lat="42.2387417" lon="12.0896033"><ele>403.0</ele><time>2026-04-26T12:54:30.993Z</time></trkpt><trkpt lat="42.238565" lon="12.0895983"><ele>402.0</ele><time>2026-04-26T12:54:31.997Z</time></trkpt><trkpt lat="42.2384017" lon="12.0895933"><ele>402.0</ele><time>2026-04-26T12:54:32.994Z</time></trkpt><trkpt lat="42.2382583" lon="12.0895817"><ele>402.0</ele><time>2026-04-26T12:54:33.993Z</time></trkpt><trkpt lat="42.2381317" lon="12.089555"><ele>402.0</ele><time>2026-04-26T12:54:34.996Z</time></trkpt><trkpt lat="42.23801" lon="12.0894883"><ele>402.0</ele><time>2026-04-26T12:54:35.996Z</time></trkpt><trkpt lat="42.237885" lon="12.0893833"><ele>400.33333333333337</ele><time>2026-04-26T12:54:36.995Z</time></trkpt><trkpt lat="42.2377583" lon="12.089245"><ele>398.6666666666667</ele><time>2026-04-26T12:54:37.999Z</time></trkpt><trkpt lat="42.237635" lon="12.0891067"><ele>397.0</ele><time>2026-04-26T12:54:38.987Z</time></trkpt><trkpt lat="42.2375217" lon="12.088985"><ele>397.0</ele><time>2026-04-26T12:54:39.987Z</time></trkpt><trkpt lat="42.2374117" lon="12.0888667"><ele>397.0</ele><time>2026-04-26T12:54:40.991Z</time></trkpt><trkpt lat="42.2373017" lon="12.0887417"><ele>397.0</ele><time>2026-04-26T12:54:41.999Z</time></trkpt><trkpt lat="42.23719" lon="12.08861"><ele>397.0</ele><time>2026-04-26T12:54:42.998Z</time></trkpt><trkpt lat="42.2370717" lon="12.0884767"><ele>396.0</ele><time>2026-04-26T12:54:43.998Z</time></trkpt><trkpt lat="42.2369533" lon="12.0883517"><ele>395.0</ele><time>2026-04-26T12:54:44.993Z</time></trkpt><trkpt lat="42.2368367" lon="12.0882567"><ele>394.0</ele><time>2026-04-26T12:54:45.996Z</time></trkpt><trkpt lat="42.2367183" lon="12.0881733"><ele>393.0</ele><time>2026-04-26T12:54:46.99Z</time></trkpt><trkpt lat="42.2366033" lon="12.0881067"><ele>393.0</ele><time>2026-04-26T12:54:47.998Z</time></trkpt><trkpt lat="42.2364817" lon="12.08807"><ele>393.0</ele><time>2026-04-26T12:54:48.994Z</time></trkpt><trkpt lat="42.2363517" lon="12.0880633"><ele>393.0</ele><time>2026-04-26T12:54:49.998Z</time></trkpt><trkpt lat="42.23621" lon="12.0880783"><ele>393.0</ele><time>2026-04-26T12:54:50.996Z</time></trkpt><trkpt lat="42.236055" lon="12.088115"><ele>392.0</ele><time>2026-04-26T12:54:51.996Z</time></trkpt><trkpt lat="42.2358883" lon="12.0881583"><ele>391.0</ele><time>2026-04-26T12:54:52.992Z</time></trkpt><trkpt lat="42.2357083" lon="12.088205"><ele>390.0</ele><time>2026-04-26T12:54:53.998Z</time></trkpt><trkpt lat="42.2355267" lon="12.0882517"><ele>388.66666666666663</ele><time>2026-04-26T12:54:55.001Z</time></trkpt><trkpt lat="42.2353467" lon="12.0883"><ele>387.3333333333333</ele><time>2026-04-26T12:54:56.001Z</time></trkpt><trkpt lat="42.2351633" lon="12.08835"><ele>386.0</ele><time>2026-04-26T12:54:56.995Z</time></trkpt><trkpt lat="42.2349767" lon="12.0883983"><ele>385.0</ele><time>2026-04-26T12:54:57.999Z</time></trkpt><trkpt lat="42.23479" lon="12.08845"><ele>384.0</ele><time>2026-04-26T12:54:58.993Z</time></trkpt><trkpt lat="42.234605" lon="12.0885033"><ele>383.0</ele><time>2026-04-26T12:54:59.997Z</time></trkpt><trkpt lat="42.2344167" lon="12.0885533"><ele>383.0</ele><time>2026-04-26T12:55:00.992Z</time></trkpt><trkpt lat="42.234225" lon="12.0886017"><ele>383.0</ele><time>2026-04-26T12:55:01.997Z</time></trkpt><trkpt lat="42.2340367" lon="12.08865"><ele>383.0</ele><time>2026-04-26T12:55:02.993Z</time></trkpt><trkpt lat="42.2338583" lon="12.0886983"><ele>382.33333333333337</ele><time>2026-04-26T12:55:03.994Z</time></trkpt><trkpt lat="42.23369" lon="12.08874"><ele>381.6666666666667</ele><time>2026-04-26T12:55:04.991Z</time></trkpt><trkpt lat="42.233535" lon="12.0887917"><ele>381.0</ele><time>2026-04-26T12:55:05.996Z</time></trkpt><trkpt lat="42.233395" lon="12.088865"><ele>381.0</ele><time>2026-04-26T12:55:06.997Z</time></trkpt><trkpt lat="42.2332667" lon="12.088975"><ele>381.0</ele><time>2026-04-26T12:55:08.001Z</time></trkpt><trkpt lat="42.2331533" lon="12.0891233"><ele>381.0</ele><time>2026-04-26T12:55:09.003Z</time></trkpt><trkpt lat="42.2330567" lon="12.0893167"><ele>382.66666666666663</ele><time>2026-04-26T12:55:09.989Z</time></trkpt><trkpt lat="42.2329667" lon="12.08951"><ele>384.3333333333333</ele><time>2026-04-26T12:55:11Z</time></trkpt><trkpt lat="42.2328833" lon="12.0896933"><ele>386.0</ele><time>2026-04-26T12:55:11.995Z</time></trkpt><trkpt lat="42.2327867" lon="12.0898517"><ele>384.0</ele><time>2026-04-26T12:55:13.001Z</time></trkpt><trkpt lat="42.23267" lon="12.0899933"><ele>382.0</ele><time>2026-04-26T12:55:13.996Z</time></trkpt><trkpt lat="42.2325317" lon="12.0901267"><ele>380.0</ele><time>2026-04-26T12:55:14.994Z</time></trkpt><trkpt lat="42.2323733" lon="12.09026"><ele>381.6666666666667</ele><time>2026-04-26T12:55:15.991Z</time></trkpt><trkpt lat="42.2322083" lon="12.0903933"><ele>383.33333333333337</ele><time>2026-04-26T12:55:16.992Z</time></trkpt><trkpt lat="42.2320467" lon="12.090525"><ele>385.0</ele><time>2026-04-26T12:55:17.994Z</time></trkpt><trkpt lat="42.231885" lon="12.0906617"><ele>382.6666666666667</ele><time>2026-04-26T12:55:18.992Z</time></trkpt><trkpt lat="42.2317183" lon="12.0908033"><ele>380.33333333333337</ele><time>2026-04-26T12:55:19.994Z</time></trkpt><trkpt lat="42.23155" lon="12.0909483"><ele>378.0</ele><time>2026-04-26T12:55:20.991Z</time></trkpt><trkpt lat="42.23139" lon="12.0910817"><ele>378.0</ele><time>2026-04-26T12:55:21.989Z</time></trkpt><trkpt lat="42.231245" lon="12.0912"><ele>378.0</ele><time>2026-04-26T12:55:22.997Z</time></trkpt><trkpt lat="42.2311117" lon="12.09129"><ele>378.0</ele><time>2026-04-26T12:55:23.994Z</time></trkpt><trkpt lat="42.2309833" lon="12.091335"><ele>378.0</ele><time>2026-04-26T12:55:24.996Z</time></trkpt><trkpt lat="42.2308517" lon="12.0913267"><ele>378.0</ele><time>2026-04-26T12:55:25.992Z</time></trkpt><trkpt lat="42.23072" lon="12.09127"><ele>378.0</ele><time>2026-04-26T12:55:26.994Z</time></trkpt><trkpt lat="42.2305883" lon="12.0911633"><ele>378.0</ele><time>2026-04-26T12:55:27.994Z</time></trkpt><trkpt lat="42.230455" lon="12.0910167"><ele>378.3333333333333</ele><time>2026-04-26T12:55:28.992Z</time></trkpt><trkpt lat="42.2303167" lon="12.0908483"><ele>378.66666666666663</ele><time>2026-04-26T12:55:29.997Z</time></trkpt><trkpt lat="42.2301783" lon="12.090675"><ele>379.0</ele><time>2026-04-26T12:55:30.994Z</time></trkpt><trkpt lat="42.2300333" lon="12.0904933"><ele>380.0</ele><time>2026-04-26T12:55:31.995Z</time></trkpt><trkpt lat="42.2298833" lon="12.0902967"><ele>381.0</ele><time>2026-04-26T12:55:32.991Z</time></trkpt><trkpt lat="42.229735" lon="12.09011"><ele>382.0</ele><time>2026-04-26T12:55:33.993Z</time></trkpt><trkpt lat="42.2295933" lon="12.089925"><ele>384.66666666666663</ele><time>2026-04-26T12:55:34.998Z</time></trkpt><trkpt lat="42.2294533" lon="12.0897333"><ele>387.3333333333333</ele><time>2026-04-26T12:55:36Z</time></trkpt><trkpt lat="42.2293083" lon="12.089525"><ele>390.0</ele><time>2026-04-26T12:55:36.995Z</time></trkpt><trkpt lat="42.22916" lon="12.0893083"><ele>390.0</ele><time>2026-04-26T12:55:37.99Z</time></trkpt><trkpt lat="42.2290133" lon="12.0890933"><ele>390.0</ele><time>2026-04-26T12:55:38.994Z</time></trkpt><trkpt lat="42.2288833" lon="12.088885"><ele>390.0</ele><time>2026-04-26T12:55:39.993Z</time></trkpt><trkpt lat="42.2287567" lon="12.088685"><ele>393.33333333333337</ele><time>2026-04-26T12:55:40.992Z</time></trkpt><trkpt lat="42.228635" lon="12.0885"><ele>396.6666666666667</ele><time>2026-04-26T12:55:42.001Z</time></trkpt><trkpt lat="42.2285167" lon="12.0883383"><ele>400.0</ele><time>2026-04-26T12:55:42.996Z</time></trkpt><trkpt lat="42.2283917" lon="12.0882033"><ele>401.33333333333337</ele><time>2026-04-26T12:55:43.995Z</time></trkpt><trkpt lat="42.22824" lon="12.0881"><ele>402.66666666666663</ele><time>2026-04-26T12:55:44.992Z</time></trkpt><trkpt lat="42.22806" lon="12.088025"><ele>404.0</ele><time>2026-04-26T12:55:45.995Z</time></trkpt><trkpt lat="42.22786" lon="12.0879767"><ele>405.66666666666663</ele><time>2026-04-26T12:55:46.991Z</time></trkpt><trkpt lat="42.2276417" lon="12.0879617"><ele>407.33333333333337</ele><time>2026-04-26T12:55:47.998Z</time></trkpt><trkpt lat="42.2274233" lon="12.0879583"><ele>409.0</ele><time>2026-04-26T12:55:48.997Z</time></trkpt><trkpt lat="42.2272217" lon="12.0879367"><ele>409.33333333333337</ele><time>2026-04-26T12:55:49.999Z</time></trkpt><trkpt lat="42.2270333" lon="12.0879217"><ele>409.66666666666663</ele><time>2026-04-26T12:55:50.999Z</time></trkpt><trkpt lat="42.22686" lon="12.087915"><ele>410.0</ele><time>2026-04-26T12:55:51.994Z</time></trkpt><trkpt lat="42.2266867" lon="12.0879083"><ele>410.0</ele><time>2026-04-26T12:55:52.997Z</time></trkpt><trkpt lat="42.2265083" lon="12.0878933"><ele>410.0</ele><time>2026-04-26T12:55:53.995Z</time></trkpt><trkpt lat="42.226325" lon="12.08788"><ele>410.0</ele><time>2026-04-26T12:55:54.996Z</time></trkpt><trkpt lat="42.2261317" lon="12.08787"><ele>410.3333333333333</ele><time>2026-04-26T12:55:55.992Z</time></trkpt><trkpt lat="42.225935" lon="12.0878567"><ele>410.66666666666663</ele><time>2026-04-26T12:55:56.992Z</time></trkpt><trkpt lat="42.2257383" lon="12.087845"><ele>411.0</ele><time>2026-04-26T12:55:57.989Z</time></trkpt><trkpt lat="42.2255417" lon="12.0878333"><ele>409.66666666666663</ele><time>2026-04-26T12:55:58.997Z</time></trkpt><trkpt lat="42.2253467" lon="12.08782"><ele>408.3333333333333</ele><time>2026-04-26T12:55:59.988Z</time></trkpt><trkpt lat="42.2251533" lon="12.087805"><ele>407.0</ele><time>2026-04-26T12:56:00.994Z</time></trkpt><trkpt lat="42.2249617" lon="12.0877883"><ele>408.0</ele><time>2026-04-26T12:56:01.992Z</time></trkpt><trkpt lat="42.2247783" lon="12.0877717"><ele>409.0</ele><time>2026-04-26T12:56:02.995Z</time></trkpt><trkpt lat="42.224605" lon="12.087765"><ele>410.0</ele><time>2026-04-26T12:56:04.001Z</time></trkpt><trkpt lat="42.2244417" lon="12.08778"><ele>410.0</ele><time>2026-04-26T12:56:04.99Z</time></trkpt><trkpt lat="42.224295" lon="12.0878333"><ele>410.0</ele><time>2026-04-26T12:56:05.995Z</time></trkpt><trkpt lat="42.2241583" lon="12.08793"><ele>410.0</ele><time>2026-04-26T12:56:06.996Z</time></trkpt><trkpt lat="42.22402" lon="12.0880717"><ele>411.0</ele><time>2026-04-26T12:56:08.001Z</time></trkpt><trkpt lat="42.2238917" lon="12.08824"><ele>412.0</ele><time>2026-04-26T12:56:08.996Z</time></trkpt><trkpt lat="42.2237817" lon="12.0884317"><ele>413.0</ele><time>2026-04-26T12:56:09.994Z</time></trkpt><trkpt lat="42.2236883" lon="12.0886367"><ele>410.66666666666663</ele><time>2026-04-26T12:56:10.993Z</time></trkpt><trkpt lat="42.22361" lon="12.0888433"><ele>408.33333333333337</ele><time>2026-04-26T12:56:11.991Z</time></trkpt><trkpt lat="42.2235317" lon="12.08905"><ele>406.0</ele><time>2026-04-26T12:56:12.996Z</time></trkpt><trkpt lat="42.2234517" lon="12.08926"><ele>404.6666666666667</ele><time>2026-04-26T12:56:13.993Z</time></trkpt><trkpt lat="42.223375" lon="12.08946"><ele>403.33333333333337</ele><time>2026-04-26T12:56:14.998Z</time></trkpt><trkpt lat="42.2233017" lon="12.0896517"><ele>402.0</ele><time>2026-04-26T12:56:15.996Z</time></trkpt><trkpt lat="42.22323" lon="12.0898417"><ele>401.66666666666663</ele><time>2026-04-26T12:56:16.996Z</time></trkpt><trkpt lat="42.22316" lon="12.0900283"><ele>401.3333333333333</ele><time>2026-04-26T12:56:17.991Z</time></trkpt><trkpt lat="42.22309" lon="12.0902067"><ele>401.0</ele><time>2026-04-26T12:56:18.991Z</time></trkpt><trkpt lat="42.22302" lon="12.0903867"><ele>401.0</ele><time>2026-04-26T12:56:19.993Z</time></trkpt><trkpt lat="42.22295" lon="12.0905667"><ele>401.0</ele><time>2026-04-26T12:56:20.994Z</time></trkpt><trkpt lat="42.2228783" lon="12.090745"><ele>401.0</ele><time>2026-04-26T12:56:21.997Z</time></trkpt><trkpt lat="42.22281" lon="12.09092"><ele>401.0</ele><time>2026-04-26T12:56:22.991Z</time></trkpt><trkpt lat="42.2227467" lon="12.0910883"><ele>401.0</ele><time>2026-04-26T12:56:23.99Z</time></trkpt><trkpt lat="42.2226833" lon="12.0912583"><ele>401.0</ele><time>2026-04-26T12:56:24.992Z</time></trkpt><trkpt lat="42.2226167" lon="12.09143"><ele>401.0</ele><time>2026-04-26T12:56:25.992Z</time></trkpt><trkpt lat="42.2225533" lon="12.091605"><ele>401.0</ele><time>2026-04-26T12:56:26.995Z</time></trkpt><trkpt lat="42.22249" lon="12.0917767"><ele>401.0</ele><time>2026-04-26T12:56:27.998Z</time></trkpt><trkpt lat="42.22243" lon="12.09195"><ele>401.0</ele><time>2026-04-26T12:56:28.996Z</time></trkpt><trkpt lat="42.2223717" lon="12.0921117"><ele>401.0</ele><time>2026-04-26T12:56:29.993Z</time></trkpt><trkpt lat="42.2223117" lon="12.0922733"><ele>401.0</ele><time>2026-04-26T12:56:30.988Z</time></trkpt><trkpt lat="42.2222467" lon="12.09244"><ele>400.75</ele><time>2026-04-26T12:56:31.996Z</time></trkpt><trkpt lat="42.2221783" lon="12.0926"><ele>400.5</ele><time>2026-04-26T12:56:32.995Z</time></trkpt><trkpt lat="42.222105" lon="12.0927467"><ele>400.25</ele><time>2026-04-26T12:56:33.994Z</time></trkpt><trkpt lat="42.2220217" lon="12.092885"><ele>400.0</ele><time>2026-04-26T12:56:35Z</time></trkpt><trkpt lat="42.2219233" lon="12.0930067"><ele>400.0</ele><time>2026-04-26T12:56:35.994Z</time></trkpt><trkpt lat="42.2218133" lon="12.0931083"><ele>400.0</ele><time>2026-04-26T12:56:36.997Z</time></trkpt><trkpt lat="42.2217" lon="12.0931833"><ele>400.0</ele><time>2026-04-26T12:56:37.99Z</time></trkpt><trkpt lat="42.2215883" lon="12.09324"><ele>400.0</ele><time>2026-04-26T12:56:38.993Z</time></trkpt><trkpt lat="42.221475" lon="12.09329"><ele>400.0</ele><time>2026-04-26T12:56:39.991Z</time></trkpt><trkpt lat="42.2213583" lon="12.0933383"><ele>400.0</ele><time>2026-04-26T12:56:40.994Z</time></trkpt><trkpt lat="42.2212383" lon="12.09339"><ele>400.0</ele><time>2026-04-26T12:56:41.997Z</time></trkpt><trkpt lat="42.2211217" lon="12.09344"><ele>400.0</ele><time>2026-04-26T12:56:42.993Z</time></trkpt><trkpt lat="42.221" lon="12.0934817"><ele>400.0</ele><time>2026-04-26T12:56:43.999Z</time></trkpt><trkpt lat="42.2208833" lon="12.0935283"><ele>400.0</ele><time>2026-04-26T12:56:44.992Z</time></trkpt><trkpt lat="42.2207717" lon="12.0935767"><ele>400.0</ele><time>2026-04-26T12:56:45.998Z</time></trkpt><trkpt lat="42.2206633" lon="12.0936217"><ele>400.0</ele><time>2026-04-26T12:56:46.993Z</time></trkpt><trkpt lat="42.2205517" lon="12.0936633"><ele>399.75</ele><time>2026-04-26T12:56:47.991Z</time></trkpt><trkpt lat="42.2204417" lon="12.093705"><ele>399.5</ele><time>2026-04-26T12:56:49.001Z</time></trkpt><trkpt lat="42.2203333" lon="12.0937517"><ele>399.25</ele><time>2026-04-26T12:56:49.993Z</time></trkpt><trkpt lat="42.220225" lon="12.0937933"><ele>399.0</ele><time>2026-04-26T12:56:50.993Z</time></trkpt><trkpt lat="42.2201183" lon="12.093825"><ele>399.0</ele><time>2026-04-26T12:56:51.995Z</time></trkpt><trkpt lat="42.2200133" lon="12.0938633"><ele>399.0</ele><time>2026-04-26T12:56:52.994Z</time></trkpt><trkpt lat="42.2199217" lon="12.0938967"><ele>399.0</ele><time>2026-04-26T12:56:53.996Z</time></trkpt><trkpt lat="42.21984" lon="12.09392"><ele>399.0</ele><time>2026-04-26T12:56:54.993Z</time></trkpt><trkpt lat="42.219735" lon="12.0939583"><ele>399.0</ele><time>2026-04-26T12:56:56.997Z</time></trkpt><trkpt lat="42.2196433" lon="12.0939883"><ele>399.0</ele><time>2026-04-26T12:56:58.994Z</time></trkpt><trkpt lat="42.2195567" lon="12.0940167"><ele>399.0</ele><time>2026-04-26T12:57:00.997Z</time></trkpt><trkpt lat="42.2194467" lon="12.094055"><ele>399.0</ele><time>2026-04-26T12:57:02.994Z</time></trkpt><trkpt lat="42.2193283" lon="12.0940983"><ele>399.0</ele><time>2026-04-26T12:57:04.991Z</time></trkpt><trkpt lat="42.2192" lon="12.0941483"><ele>399.0</ele><time>2026-04-26T12:57:06.992Z</time></trkpt><trkpt lat="42.2191317" lon="12.0941717"><ele>399.0</ele><time>2026-04-26T12:57:07.995Z</time></trkpt><trkpt lat="42.2190567" lon="12.0941983"><ele>399.0</ele><time>2026-04-26T12:57:08.99Z</time></trkpt><trkpt lat="42.218975" lon="12.0942317"><ele>399.0</ele><time>2026-04-26T12:57:09.992Z</time></trkpt><trkpt lat="42.218885" lon="12.0942733"><ele>399.0</ele><time>2026-04-26T12:57:10.991Z</time></trkpt><trkpt lat="42.218795" lon="12.09431"><ele>399.0</ele><time>2026-04-26T12:57:11.991Z</time></trkpt><trkpt lat="42.2187" lon="12.0943367"><ele>398.6</ele><time>2026-04-26T12:57:12.998Z</time></trkpt><trkpt lat="42.2186067" lon="12.0943733"><ele>398.2</ele><time>2026-04-26T12:57:13.991Z</time></trkpt><trkpt lat="42.2185117" lon="12.0944017"><ele>397.8</ele><time>2026-04-26T12:57:14.995Z</time></trkpt><trkpt lat="42.2184233" lon="12.0944417"><ele>397.40000000000003</ele><time>2026-04-26T12:57:15.998Z</time></trkpt><trkpt lat="42.21833" lon="12.0944767"><ele>397.0</ele><time>2026-04-26T12:57:17.001Z</time></trkpt><trkpt lat="42.2182383" lon="12.0945183"><ele>396.40000000000003</ele><time>2026-04-26T12:57:17.991Z</time></trkpt><trkpt lat="42.2181433" lon="12.0945583"><ele>395.8</ele><time>2026-04-26T12:57:18.995Z</time></trkpt><trkpt lat="42.2180467" lon="12.0946033"><ele>395.2</ele><time>2026-04-26T12:57:19.994Z</time></trkpt><trkpt lat="42.2179433" lon="12.094635"><ele>394.6</ele><time>2026-04-26T12:57:20.998Z</time></trkpt><trkpt lat="42.21784" lon="12.0946683"><ele>394.0</ele><time>2026-04-26T12:57:21.993Z</time></trkpt><trkpt lat="42.2177417" lon="12.0947067"><ele>394.00000000000006</ele><time>2026-04-26T12:57:22.992Z</time></trkpt><trkpt lat="42.217645" lon="12.0947333"><ele>394.0</ele><time>2026-04-26T12:57:23.996Z</time></trkpt><trkpt lat="42.2175567" lon="12.0947717"><ele>394.0</ele><time>2026-04-26T12:57:24.993Z</time></trkpt><trkpt lat="42.2174817" lon="12.094805"><ele>394.0</ele><time>2026-04-26T12:57:25.994Z</time></trkpt><trkpt lat="42.217415" lon="12.0948217"><ele>394.00000000000006</ele><time>2026-04-26T12:57:27Z</time></trkpt><trkpt lat="42.2173533" lon="12.09484"><ele>394.0</ele><time>2026-04-26T12:57:28.996Z</time></trkpt><trkpt lat="42.2172583" lon="12.094885"><ele>393.2</ele><time>2026-04-26T12:57:46.997Z</time></trkpt><trkpt lat="42.2171667" lon="12.0949167"><ele>392.4</ele><time>2026-04-26T12:57:48.992Z</time></trkpt><trkpt lat="42.2170867" lon="12.0949917"><ele>391.6</ele><time>2026-04-26T12:57:50.993Z</time></trkpt><trkpt lat="42.2170033" lon="12.0950733"><ele>390.8</ele><time>2026-04-26T12:57:52.994Z</time></trkpt><trkpt lat="42.2169217" lon="12.0951733"><ele>390.0</ele><time>2026-04-26T12:57:54.998Z</time></trkpt><trkpt lat="42.2168283" lon="12.0952867"><ele>390.0</ele><time>2026-04-26T12:57:56.993Z</time></trkpt><trkpt lat="42.2167783" lon="12.0953567"><ele>390.0</ele><time>2026-04-26T12:57:57.994Z</time></trkpt><trkpt lat="42.21672" lon="12.0954367"><ele>390.0</ele><time>2026-04-26T12:57:58.994Z</time></trkpt><trkpt lat="42.216655" lon="12.09552"><ele>390.0</ele><time>2026-04-26T12:57:59.991Z</time></trkpt><trkpt lat="42.2165967" lon="12.0956083"><ele>390.0</ele><time>2026-04-26T12:58:00.995Z</time></trkpt><trkpt lat="42.2165383" lon="12.09569"><ele>390.0</ele><time>2026-04-26T12:58:01.998Z</time></trkpt><trkpt lat="42.2164883" lon="12.0957717"><ele>389.0</ele><time>2026-04-26T12:58:02.992Z</time></trkpt><trkpt lat="42.2164417" lon="12.0958467"><ele>388.0</ele><time>2026-04-26T12:58:03.996Z</time></trkpt><trkpt lat="42.2163983" lon="12.09591"><ele>387.0</ele><time>2026-04-26T12:58:04.991Z</time></trkpt><trkpt lat="42.216325" lon="12.096025"><ele>386.0</ele><time>2026-04-26T12:58:06.992Z</time></trkpt><trkpt lat="42.21629" lon="12.09615"><ele>385.0</ele><time>2026-04-26T12:58:08.994Z</time></trkpt><trkpt lat="42.2162967" lon="12.0963067"><ele>385.00000000000006</ele><time>2026-04-26T12:58:10.997Z</time></trkpt><trkpt lat="42.2163067" lon="12.0963933"><ele>385.0</ele><time>2026-04-26T12:58:11.996Z</time></trkpt><trkpt lat="42.216325" lon="12.0964767"><ele>385.0</ele><time>2026-04-26T12:58:13.001Z</time></trkpt><trkpt lat="42.2163533" lon="12.09663"><ele>385.0</ele><time>2026-04-26T12:58:14.993Z</time></trkpt><trkpt lat="42.2163567" lon="12.0967567"><ele>385.00000000000006</ele><time>2026-04-26T12:58:16.995Z</time></trkpt><trkpt lat="42.2163217" lon="12.0968633"><ele>385.0</ele><time>2026-04-26T12:58:18.997Z</time></trkpt><trkpt lat="42.21623" lon="12.0969233"><ele>382.83333333333337</ele><time>2026-04-26T12:58:21Z</time></trkpt><trkpt lat="42.2161667" lon="12.0969217"><ele>380.6666666666667</ele><time>2026-04-26T12:58:21.995Z</time></trkpt><trkpt lat="42.2160983" lon="12.0969"><ele>378.5</ele><time>2026-04-26T12:58:23Z</time></trkpt><trkpt lat="42.216025" lon="12.0968583"><ele>376.33333333333337</ele><time>2026-04-26T12:58:23.991Z</time></trkpt><trkpt lat="42.2159483" lon="12.0968"><ele>374.1666666666667</ele><time>2026-04-26T12:58:24.992Z</time></trkpt><trkpt lat="42.2158733" lon="12.0967317"><ele>372.0</ele><time>2026-04-26T12:58:25.998Z</time></trkpt><trkpt lat="42.2158033" lon="12.0966717"><ele>372.00000000000006</ele><time>2026-04-26T12:58:26.993Z</time></trkpt><trkpt lat="42.2157333" lon="12.096615"><ele>372.0</ele><time>2026-04-26T12:58:27.991Z</time></trkpt><trkpt lat="42.2156683" lon="12.0965583"><ele>372.0</ele><time>2026-04-26T12:58:28.994Z</time></trkpt><trkpt lat="42.2156033" lon="12.0965133"><ele>372.0</ele><time>2026-04-26T12:58:29.995Z</time></trkpt><trkpt lat="42.2155383" lon="12.0964817"><ele>372.0</ele><time>2026-04-26T12:58:30.994Z</time></trkpt><trkpt lat="42.2154717" lon="12.096465"><ele>372.00000000000006</ele><time>2026-04-26T12:58:31.996Z</time></trkpt><trkpt lat="42.2154083" lon="12.0964683"><ele>372.0</ele><time>2026-04-26T12:58:33.003Z</time></trkpt><trkpt lat="42.2153467" lon="12.0964983"><ele>370.8</ele><time>2026-04-26T12:58:33.993Z</time></trkpt><trkpt lat="42.2152833" lon="12.0965617"><ele>369.6</ele><time>2026-04-26T12:58:34.999Z</time></trkpt><trkpt lat="42.215215" lon="12.0966633"><ele>368.40000000000003</ele><time>2026-04-26T12:58:35.997Z</time></trkpt><trkpt lat="42.21515" lon="12.0968083"><ele>367.20000000000005</ele><time>2026-04-26T12:58:36.997Z</time></trkpt><trkpt lat="42.215085" lon="12.09695"><ele>366.0</ele><time>2026-04-26T12:58:37.997Z</time></trkpt><trkpt lat="42.215015" lon="12.0970983"><ele>364.0</ele><time>2026-04-26T12:58:38.993Z</time></trkpt><trkpt lat="42.2149433" lon="12.09724"><ele>362.0</ele><time>2026-04-26T12:58:39.994Z</time></trkpt><trkpt lat="42.214875" lon="12.097375"><ele>360.0</ele><time>2026-04-26T12:58:40.992Z</time></trkpt><trkpt lat="42.2148133" lon="12.0974967"><ele>358.0</ele><time>2026-04-26T12:58:41.996Z</time></trkpt><trkpt lat="42.21476" lon="12.0976017"><ele>356.8333333333333</ele><time>2026-04-26T12:58:42.995Z</time></trkpt><trkpt lat="42.2147117" lon="12.09769"><ele>355.66666666666663</ele><time>2026-04-26T12:58:44Z</time></trkpt><trkpt lat="42.2146617" lon="12.0977633"><ele>354.5</ele><time>2026-04-26T12:58:44.992Z</time></trkpt><trkpt lat="42.2146067" lon="12.09783"><ele>353.3333333333333</ele><time>2026-04-26T12:58:45.993Z</time></trkpt><trkpt lat="42.214545" lon="12.0978817"><ele>352.1666666666667</ele><time>2026-04-26T12:58:46.991Z</time></trkpt><trkpt lat="42.2144733" lon="12.0979133"><ele>351.0</ele><time>2026-04-26T12:58:47.994Z</time></trkpt><trkpt lat="42.2143967" lon="12.097935"><ele>351.0</ele><time>2026-04-26T12:58:49.001Z</time></trkpt><trkpt lat="42.2143167" lon="12.0979567"><ele>351.0</ele><time>2026-04-26T12:58:49.993Z</time></trkpt><trkpt lat="42.2142267" lon="12.09798"><ele>351.0</ele><time>2026-04-26T12:58:50.997Z</time></trkpt><trkpt lat="42.2141333" lon="12.09801"><ele>351.0</ele><time>2026-04-26T12:58:51.992Z</time></trkpt><trkpt lat="42.2140333" lon="12.0980417"><ele>351.0</ele><time>2026-04-26T12:58:52.997Z</time></trkpt><trkpt lat="42.2139267" lon="12.09807"><ele>351.0</ele><time>2026-04-26T12:58:53.992Z</time></trkpt><trkpt lat="42.21381" lon="12.0981033"><ele>351.0</ele><time>2026-04-26T12:58:54.993Z</time></trkpt><trkpt lat="42.2136767" lon="12.0981417"><ele>351.0</ele><time>2026-04-26T12:58:55.997Z</time></trkpt><trkpt lat="42.2135333" lon="12.0981767"><ele>351.0</ele><time>2026-04-26T12:58:56.997Z</time></trkpt><trkpt lat="42.2133983" lon="12.0982133"><ele>352.5</ele><time>2026-04-26T12:58:57.997Z</time></trkpt><trkpt lat="42.2132683" lon="12.0982517"><ele>354.0</ele><time>2026-04-26T12:58:58.992Z</time></trkpt><trkpt lat="42.21314" lon="12.0982967"><ele>355.5</ele><time>2026-04-26T12:58:59.992Z</time></trkpt><trkpt lat="42.2130117" lon="12.0983633"><ele>357.0</ele><time>2026-04-26T12:59:00.998Z</time></trkpt><trkpt lat="42.212885" lon="12.0984467"><ele>357.0</ele><time>2026-04-26T12:59:01.994Z</time></trkpt><trkpt lat="42.2127667" lon="12.0985467"><ele>357.0</ele><time>2026-04-26T12:59:02.991Z</time></trkpt><trkpt lat="42.212665" lon="12.0986633"><ele>357.0</ele><time>2026-04-26T12:59:03.992Z</time></trkpt><trkpt lat="42.2125717" lon="12.09879"><ele>357.0</ele><time>2026-04-26T12:59:04.994Z</time></trkpt><trkpt lat="42.2124833" lon="12.0989283"><ele>356.0</ele><time>2026-04-26T12:59:05.991Z</time></trkpt><trkpt lat="42.2123983" lon="12.0990917"><ele>355.0</ele><time>2026-04-26T12:59:06.995Z</time></trkpt><trkpt lat="42.2123167" lon="12.0992733"><ele>354.0</ele><time>2026-04-26T12:59:07.994Z</time></trkpt><trkpt lat="42.2122333" lon="12.0994683"><ele>350.0</ele><time>2026-04-26T12:59:08.994Z</time></trkpt><trkpt lat="42.2121517" lon="12.0996783"><ele>346.0</ele><time>2026-04-26T12:59:09.995Z</time></trkpt><trkpt lat="42.2120667" lon="12.0999067"><ele>342.0</ele><time>2026-04-26T12:59:10.997Z</time></trkpt><trkpt lat="42.2119733" lon="12.100155"><ele>342.0</ele><time>2026-04-26T12:59:11.995Z</time></trkpt><trkpt lat="42.211875" lon="12.1004167"><ele>342.0</ele><time>2026-04-26T12:59:12.995Z</time></trkpt><trkpt lat="42.2117733" lon="12.1006883"><ele>342.0</ele><time>2026-04-26T12:59:13.993Z</time></trkpt><trkpt lat="42.2116733" lon="12.1009483"><ele>343.0</ele><time>2026-04-26T12:59:14.991Z</time></trkpt><trkpt lat="42.2115833" lon="12.1011883"><ele>344.0</ele><time>2026-04-26T12:59:15.992Z</time></trkpt><trkpt lat="42.2114967" lon="12.1014133"><ele>345.0</ele><time>2026-04-26T12:59:16.991Z</time></trkpt><trkpt lat="42.2114167" lon="12.10163"><ele>353.0</ele><time>2026-04-26T12:59:17.994Z</time></trkpt><trkpt lat="42.2113417" lon="12.1018367"><ele>361.0</ele><time>2026-04-26T12:59:18.993Z</time></trkpt><trkpt lat="42.211265" lon="12.1020383"><ele>369.0</ele><time>2026-04-26T12:59:20Z</time></trkpt><trkpt lat="42.2111867" lon="12.102235"><ele>371.3333333333333</ele><time>2026-04-26T12:59:20.994Z</time></trkpt><trkpt lat="42.2111017" lon="12.1024333"><ele>373.66666666666663</ele><time>2026-04-26T12:59:21.993Z</time></trkpt><trkpt lat="42.2110083" lon="12.10263"><ele>376.0</ele><time>2026-04-26T12:59:22.993Z</time></trkpt><trkpt lat="42.210895" lon="12.102825"><ele>376.0</ele><time>2026-04-26T12:59:23.995Z</time></trkpt><trkpt lat="42.2107633" lon="12.1030083"><ele>376.0</ele><time>2026-04-26T12:59:24.995Z</time></trkpt><trkpt lat="42.21062" lon="12.1031767"><ele>376.0</ele><time>2026-04-26T12:59:25.995Z</time></trkpt><trkpt lat="42.21048" lon="12.1033283"><ele>379.0</ele><time>2026-04-26T12:59:26.995Z</time></trkpt><trkpt lat="42.2103483" lon="12.10345"><ele>382.0</ele><time>2026-04-26T12:59:27.994Z</time></trkpt><trkpt lat="42.21023" lon="12.1035517"><ele>385.0</ele><time>2026-04-26T12:59:28.996Z</time></trkpt><trkpt lat="42.2101133" lon="12.1036433"><ele>388.0</ele><time>2026-04-26T12:59:29.995Z</time></trkpt><trkpt lat="42.2100017" lon="12.1037383"><ele>388.0</ele><time>2026-04-26T12:59:31Z</time></trkpt><trkpt lat="42.2098933" lon="12.1038183"><ele>388.0</ele><time>2026-04-26T12:59:31.996Z</time></trkpt><trkpt lat="42.2097833" lon="12.1038883"><ele>388.0</ele><time>2026-04-26T12:59:32.991Z</time></trkpt><trkpt lat="42.2096667" lon="12.10392"><ele>388.0</ele><time>2026-04-26T12:59:33.992Z</time></trkpt><trkpt lat="42.2095517" lon="12.1039183"><ele>388.25</ele><time>2026-04-26T12:59:34.992Z</time></trkpt><trkpt lat="42.20944" lon="12.1038733"><ele>388.5</ele><time>2026-04-26T12:59:35.996Z</time></trkpt><trkpt lat="42.2093417" lon="12.1038033"><ele>388.75</ele><time>2026-04-26T12:59:36.994Z</time></trkpt><trkpt lat="42.209255" lon="12.103705"><ele>389.0</ele><time>2026-04-26T12:59:37.996Z</time></trkpt><trkpt lat="42.2091717" lon="12.10359"><ele>389.0</ele><time>2026-04-26T12:59:38.997Z</time></trkpt><trkpt lat="42.2090833" lon="12.1034683"><ele>389.0</ele><time>2026-04-26T12:59:39.994Z</time></trkpt><trkpt lat="42.2089933" lon="12.1033617"><ele>389.0</ele><time>2026-04-26T12:59:41.003Z</time></trkpt><trkpt lat="42.2088983" lon="12.103265"><ele>389.0</ele><time>2026-04-26T12:59:41.999Z</time></trkpt><trkpt lat="42.2087917" lon="12.1031883"><ele>390.75</ele><time>2026-04-26T12:59:42.996Z</time></trkpt><trkpt lat="42.2086717" lon="12.10313"><ele>392.5</ele><time>2026-04-26T12:59:43.996Z</time></trkpt><trkpt lat="42.208545" lon="12.1030883"><ele>394.25</ele><time>2026-04-26T12:59:44.995Z</time></trkpt><trkpt lat="42.2084167" lon="12.1030617"><ele>396.0</ele><time>2026-04-26T12:59:45.994Z</time></trkpt><trkpt lat="42.2082967" lon="12.1030467"><ele>396.0</ele><time>2026-04-26T12:59:46.999Z</time></trkpt><trkpt lat="42.2081833" lon="12.1030317"><ele>396.0</ele><time>2026-04-26T12:59:47.995Z</time></trkpt><trkpt lat="42.208075" lon="12.1030167"><ele>396.0</ele><time>2026-04-26T12:59:48.997Z</time></trkpt><trkpt lat="42.20797" lon="12.1030067"><ele>396.0</ele><time>2026-04-26T12:59:49.998Z</time></trkpt><trkpt lat="42.2078667" lon="12.1029967"><ele>396.0</ele><time>2026-04-26T12:59:50.992Z</time></trkpt><trkpt lat="42.2077633" lon="12.1029917"><ele>396.8</ele><time>2026-04-26T12:59:51.998Z</time></trkpt><trkpt lat="42.207665" lon="12.10299"><ele>397.6</ele><time>2026-04-26T12:59:53.003Z</time></trkpt><trkpt lat="42.2075717" lon="12.1030017"><ele>398.4</ele><time>2026-04-26T12:59:54Z</time></trkpt><trkpt lat="42.20748" lon="12.1030317"><ele>399.2</ele><time>2026-04-26T12:59:54.994Z</time></trkpt><trkpt lat="42.2073917" lon="12.1030817"><ele>400.0</ele><time>2026-04-26T12:59:55.999Z</time></trkpt><trkpt lat="42.2073117" lon="12.1031583"><ele>401.8</ele><time>2026-04-26T12:59:56.989Z</time></trkpt><trkpt lat="42.2072467" lon="12.1032617"><ele>403.6</ele><time>2026-04-26T12:59:57.997Z</time></trkpt><trkpt lat="42.2072033" lon="12.10339"><ele>405.4</ele><time>2026-04-26T12:59:58.993Z</time></trkpt><trkpt lat="42.2071833" lon="12.1035267"><ele>407.2</ele><time>2026-04-26T12:59:59.992Z</time></trkpt><trkpt lat="42.2071767" lon="12.1036717"><ele>409.0</ele><time>2026-04-26T13:00:00.991Z</time></trkpt><trkpt lat="42.2071833" lon="12.10383"><ele>409.0</ele><time>2026-04-26T13:00:01.994Z</time></trkpt><trkpt lat="42.2071967" lon="12.1039933"><ele>409.0</ele><time>2026-04-26T13:00:02.991Z</time></trkpt><trkpt lat="42.2072" lon="12.1041617"><ele>409.0</ele><time>2026-04-26T13:00:03.993Z</time></trkpt><trkpt lat="42.2071983" lon="12.1043317"><ele>409.0</ele><time>2026-04-26T13:00:04.991Z</time></trkpt><trkpt lat="42.2071817" lon="12.1045"><ele>409.0</ele><time>2026-04-26T13:00:05.99Z</time></trkpt><trkpt lat="42.2071467" lon="12.1046583"><ele>409.0</ele><time>2026-04-26T13:00:06.993Z</time></trkpt><trkpt lat="42.207095" lon="12.1048"><ele>409.0</ele><time>2026-04-26T13:00:07.997Z</time></trkpt><trkpt lat="42.2070317" lon="12.1049217"><ele>409.0</ele><time>2026-04-26T13:00:09.004Z</time></trkpt><trkpt lat="42.20697" lon="12.1050283"><ele>409.0</ele><time>2026-04-26T13:00:09.992Z</time></trkpt><trkpt lat="42.2069033" lon="12.1051233"><ele>409.0</ele><time>2026-04-26T13:00:10.991Z</time></trkpt><trkpt lat="42.2068283" lon="12.1052183"><ele>409.0</ele><time>2026-04-26T13:00:11.994Z</time></trkpt><trkpt lat="42.206745" lon="12.10531"><ele>409.0</ele><time>2026-04-26T13:00:13.001Z</time></trkpt><trkpt lat="42.2066567" lon="12.1054067"><ele>409.0</ele><time>2026-04-26T13:00:13.991Z</time></trkpt><trkpt lat="42.206565" lon="12.105505"><ele>408.25</ele><time>2026-04-26T13:00:15.004Z</time></trkpt><trkpt lat="42.2064683" lon="12.1056083"><ele>407.5</ele><time>2026-04-26T13:00:15.99Z</time></trkpt><trkpt lat="42.2063633" lon="12.105715"><ele>406.75</ele><time>2026-04-26T13:00:16.994Z</time></trkpt><trkpt lat="42.206255" lon="12.1058267"><ele>406.0</ele><time>2026-04-26T13:00:17.995Z</time></trkpt><trkpt lat="42.2061467" lon="12.1059383"><ele>406.0</ele><time>2026-04-26T13:00:18.995Z</time></trkpt><trkpt lat="42.2060417" lon="12.1060567"><ele>406.0</ele><time>2026-04-26T13:00:19.995Z</time></trkpt><trkpt lat="42.2059333" lon="12.1061833"><ele>406.0</ele><time>2026-04-26T13:00:20.993Z</time></trkpt><trkpt lat="42.20581" lon="12.1063367"><ele>406.0</ele><time>2026-04-26T13:00:21.999Z</time></trkpt><trkpt lat="42.20567" lon="12.106515"><ele>402.0</ele><time>2026-04-26T13:00:23Z</time></trkpt><trkpt lat="42.2055133" lon="12.1067167"><ele>398.0</ele><time>2026-04-26T13:00:23.997Z</time></trkpt><trkpt lat="42.2053333" lon="12.1069433"><ele>398.0</ele><time>2026-04-26T13:00:24.992Z</time></trkpt><trkpt lat="42.20514" lon="12.10719"><ele>398.0</ele><time>2026-04-26T13:00:25.994Z</time></trkpt><trkpt lat="42.20494" lon="12.1074367"><ele>398.5</ele><time>2026-04-26T13:00:26.991Z</time></trkpt><trkpt lat="42.20474" lon="12.1076833"><ele>399.0</ele><time>2026-04-26T13:00:27.995Z</time></trkpt><trkpt lat="42.2045467" lon="12.1079267"><ele>399.0</ele><time>2026-04-26T13:00:28.996Z</time></trkpt><trkpt lat="42.2043583" lon="12.108165"><ele>399.0</ele><time>2026-04-26T13:00:29.993Z</time></trkpt><trkpt lat="42.2041817" lon="12.1083983"><ele>399.0</ele><time>2026-04-26T13:00:30.998Z</time></trkpt><trkpt lat="42.2040083" lon="12.1086283"><ele>399.0</ele><time>2026-04-26T13:00:31.993Z</time></trkpt><trkpt lat="42.2038267" lon="12.1088567"><ele>400.5</ele><time>2026-04-26T13:00:32.997Z</time></trkpt><trkpt lat="42.20364" lon="12.1090783"><ele>402.0</ele><time>2026-04-26T13:00:33.994Z</time></trkpt><trkpt lat="42.2034583" lon="12.10929"><ele>402.0</ele><time>2026-04-26T13:00:34.996Z</time></trkpt><trkpt lat="42.203285" lon="12.1094933"><ele>402.0</ele><time>2026-04-26T13:00:35.997Z</time></trkpt><trkpt lat="42.20312" lon="12.1097"><ele>402.33333333333337</ele><time>2026-04-26T13:00:36.999Z</time></trkpt><trkpt lat="42.202965" lon="12.109905"><ele>402.6666666666667</ele><time>2026-04-26T13:00:37.994Z</time></trkpt><trkpt lat="42.20282" lon="12.1101033"><ele>403.0</ele><time>2026-04-26T13:00:39.001Z</time></trkpt><trkpt lat="42.2026867" lon="12.1102967"><ele>403.0</ele><time>2026-04-26T13:00:39.996Z</time></trkpt><trkpt lat="42.202565" lon="12.11049"><ele>403.0</ele><time>2026-04-26T13:00:40.998Z</time></trkpt><trkpt lat="42.20246" lon="12.1106983"><ele>403.0</ele><time>2026-04-26T13:00:41.991Z</time></trkpt><trkpt lat="42.2023683" lon="12.11093"><ele>403.0</ele><time>2026-04-26T13:00:42.995Z</time></trkpt><trkpt lat="42.2022917" lon="12.1111817"><ele>403.0</ele><time>2026-04-26T13:00:43.998Z</time></trkpt><trkpt lat="42.202225" lon="12.1114533"><ele>403.0</ele><time>2026-04-26T13:00:44.992Z</time></trkpt><trkpt lat="42.2021567" lon="12.1117367"><ele>403.0</ele><time>2026-04-26T13:00:45.991Z</time></trkpt><trkpt lat="42.2020833" lon="12.1120317"><ele>403.0</ele><time>2026-04-26T13:00:46.998Z</time></trkpt><trkpt lat="42.2020033" lon="12.1123367"><ele>401.5</ele><time>2026-04-26T13:00:47.991Z</time></trkpt><trkpt lat="42.201925" lon="12.1126417"><ele>400.0</ele><time>2026-04-26T13:00:49.001Z</time></trkpt><trkpt lat="42.2018483" lon="12.1129383"><ele>400.0</ele><time>2026-04-26T13:00:49.996Z</time></trkpt><trkpt lat="42.2017733" lon="12.1132317"><ele>400.0</ele><time>2026-04-26T13:00:50.994Z</time></trkpt><trkpt lat="42.2016983" lon="12.1135183"><ele>400.33333333333337</ele><time>2026-04-26T13:00:51.993Z</time></trkpt><trkpt lat="42.2016267" lon="12.1138017"><ele>400.66666666666663</ele><time>2026-04-26T13:00:52.997Z</time></trkpt><trkpt lat="42.2015567" lon="12.114085"><ele>401.0</ele><time>2026-04-26T13:00:53.995Z</time></trkpt><trkpt lat="42.201485" lon="12.11437"><ele>400.3333333333333</ele><time>2026-04-26T13:00:54.992Z</time></trkpt><trkpt lat="42.201415" lon="12.1146533"><ele>399.66666666666663</ele><time>2026-04-26T13:00:56Z</time></trkpt><trkpt lat="42.2013417" lon="12.11494"><ele>399.0</ele><time>2026-04-26T13:00:56.992Z</time></trkpt><trkpt lat="42.2012683" lon="12.1152267"><ele>399.0</ele><time>2026-04-26T13:00:57.993Z</time></trkpt><trkpt lat="42.201195" lon="12.115515"><ele>399.0</ele><time>2026-04-26T13:00:58.996Z</time></trkpt><trkpt lat="42.20112" lon="12.115805"><ele>400.5</ele><time>2026-04-26T13:00:59.999Z</time></trkpt><trkpt lat="42.2010433" lon="12.116095"><ele>402.0</ele><time>2026-04-26T13:01:00.995Z</time></trkpt><trkpt lat="42.2009683" lon="12.116385"><ele>402.5</ele><time>2026-04-26T13:01:01.997Z</time></trkpt><trkpt lat="42.200895" lon="12.116675"><ele>403.0</ele><time>2026-04-26T13:01:02.993Z</time></trkpt><trkpt lat="42.200825" lon="12.1169617"><ele>403.0</ele><time>2026-04-26T13:01:03.99Z</time></trkpt><trkpt lat="42.2007517" lon="12.1172383"><ele>403.0</ele><time>2026-04-26T13:01:04.993Z</time></trkpt><trkpt lat="42.2006733" lon="12.1175067"><ele>403.0</ele><time>2026-04-26T13:01:05.993Z</time></trkpt><trkpt lat="42.200585" lon="12.1177683"><ele>402.0</ele><time>2026-04-26T13:01:06.99Z</time></trkpt><trkpt lat="42.200485" lon="12.1180183"><ele>401.0</ele><time>2026-04-26T13:01:07.989Z</time></trkpt><trkpt lat="42.2003683" lon="12.1182533"><ele>400.0</ele><time>2026-04-26T13:01:08.989Z</time></trkpt><trkpt lat="42.200235" lon="12.1184683"><ele>401.33333333333337</ele><time>2026-04-26T13:01:09.989Z</time></trkpt><trkpt lat="42.20008" lon="12.1186633"><ele>402.66666666666663</ele><time>2026-04-26T13:01:10.994Z</time></trkpt><trkpt lat="42.1999083" lon="12.11884"><ele>404.0</ele><time>2026-04-26T13:01:11.994Z</time></trkpt><trkpt lat="42.19972" lon="12.1189933"><ele>406.66666666666663</ele><time>2026-04-26T13:01:12.993Z</time></trkpt><trkpt lat="42.1995267" lon="12.119135"><ele>409.33333333333337</ele><time>2026-04-26T13:01:13.993Z</time></trkpt><trkpt lat="42.19934" lon="12.11928"><ele>412.0</ele><time>2026-04-26T13:01:14.997Z</time></trkpt><trkpt lat="42.19916" lon="12.11943"><ele>409.0</ele><time>2026-04-26T13:01:15.997Z</time></trkpt><trkpt lat="42.1989767" lon="12.119575"><ele>406.0</ele><time>2026-04-26T13:01:16.993Z</time></trkpt><trkpt lat="42.1987883" lon="12.1197083"><ele>403.0</ele><time>2026-04-26T13:01:17.988Z</time></trkpt><trkpt lat="42.198605" lon="12.1198483"><ele>404.6666666666667</ele><time>2026-04-26T13:01:18.989Z</time></trkpt><trkpt lat="42.1984183" lon="12.119985"><ele>406.33333333333337</ele><time>2026-04-26T13:01:20.001Z</time></trkpt><trkpt lat="42.19823" lon="12.120125"><ele>408.0</ele><time>2026-04-26T13:01:20.995Z</time></trkpt><trkpt lat="42.198045" lon="12.1202617"><ele>408.0</ele><time>2026-04-26T13:01:22Z</time></trkpt><trkpt lat="42.19786" lon="12.1203933"><ele>408.0</ele><time>2026-04-26T13:01:22.994Z</time></trkpt><trkpt lat="42.1976817" lon="12.1205283"><ele>408.0</ele><time>2026-04-26T13:01:23.99Z</time></trkpt><trkpt lat="42.197505" lon="12.1206667"><ele>407.0</ele><time>2026-04-26T13:01:24.998Z</time></trkpt><trkpt lat="42.1973317" lon="12.1207983"><ele>406.0</ele><time>2026-04-26T13:01:26.001Z</time></trkpt><trkpt lat="42.1971633" lon="12.1209233"><ele>405.0</ele><time>2026-04-26T13:01:26.998Z</time></trkpt><trkpt lat="42.1970033" lon="12.1210517"><ele>405.0</ele><time>2026-04-26T13:01:27.994Z</time></trkpt><trkpt lat="42.1968467" lon="12.1211883"><ele>405.0</ele><time>2026-04-26T13:01:28.991Z</time></trkpt><trkpt lat="42.1967" lon="12.1213467"><ele>405.0</ele><time>2026-04-26T13:01:29.996Z</time></trkpt><trkpt lat="42.1965667" lon="12.1215133"><ele>406.33333333333337</ele><time>2026-04-26T13:01:30.995Z</time></trkpt><trkpt lat="42.19645" lon="12.1216983"><ele>407.6666666666667</ele><time>2026-04-26T13:01:31.995Z</time></trkpt><trkpt lat="42.196345" lon="12.1219117"><ele>409.0</ele><time>2026-04-26T13:01:32.994Z</time></trkpt><trkpt lat="42.19625" lon="12.1221517"><ele>406.33333333333337</ele><time>2026-04-26T13:01:33.998Z</time></trkpt><trkpt lat="42.1961667" lon="12.12241"><ele>403.66666666666663</ele><time>2026-04-26T13:01:35.001Z</time></trkpt><trkpt lat="42.1961017" lon="12.1226867"><ele>401.0</ele><time>2026-04-26T13:01:35.991Z</time></trkpt><trkpt lat="42.1960467" lon="12.1229733"><ele>400.0</ele><time>2026-04-26T13:01:36.998Z</time></trkpt><trkpt lat="42.196" lon="12.12327"><ele>399.0</ele><time>2026-04-26T13:01:37.992Z</time></trkpt><trkpt lat="42.19595" lon="12.123565"><ele>398.0</ele><time>2026-04-26T13:01:38.993Z</time></trkpt><trkpt lat="42.1959017" lon="12.12386"><ele>399.0</ele><time>2026-04-26T13:01:39.99Z</time></trkpt><trkpt lat="42.1958567" lon="12.1241483"><ele>400.0</ele><time>2026-04-26T13:01:40.992Z</time></trkpt><trkpt lat="42.1958167" lon="12.124435"><ele>401.0</ele><time>2026-04-26T13:01:41.993Z</time></trkpt><trkpt lat="42.1957733" lon="12.124715"><ele>402.0</ele><time>2026-04-26T13:01:42.994Z</time></trkpt><trkpt lat="42.1957333" lon="12.1249883"><ele>403.0</ele><time>2026-04-26T13:01:43.994Z</time></trkpt><trkpt lat="42.195695" lon="12.1252633"><ele>404.0</ele><time>2026-04-26T13:01:44.988Z</time></trkpt><trkpt lat="42.195655" lon="12.1255383"><ele>408.66666666666663</ele><time>2026-04-26T13:01:45.993Z</time></trkpt><trkpt lat="42.1956083" lon="12.1258117"><ele>413.33333333333337</ele><time>2026-04-26T13:01:46.999Z</time></trkpt><trkpt lat="42.1955667" lon="12.1260933"><ele>418.0</ele><time>2026-04-26T13:01:47.988Z</time></trkpt><trkpt lat="42.195525" lon="12.126375"><ele>419.33333333333337</ele><time>2026-04-26T13:01:48.994Z</time></trkpt><trkpt lat="42.19548" lon="12.1266567"><ele>420.66666666666663</ele><time>2026-04-26T13:01:49.995Z</time></trkpt><trkpt lat="42.195435" lon="12.1269333"><ele>422.0</ele><time>2026-04-26T13:01:50.998Z</time></trkpt><trkpt lat="42.1953933" lon="12.1272117"><ele>421.66666666666663</ele><time>2026-04-26T13:01:51.99Z</time></trkpt><trkpt lat="42.195345" lon="12.1274917"><ele>421.33333333333337</ele><time>2026-04-26T13:01:52.993Z</time></trkpt><trkpt lat="42.1952967" lon="12.1277717"><ele>421.0</ele><time>2026-04-26T13:01:53.991Z</time></trkpt><trkpt lat="42.1952533" lon="12.1280583"><ele>419.0</ele><time>2026-04-26T13:01:54.992Z</time></trkpt><trkpt lat="42.1952133" lon="12.12834"><ele>417.0</ele><time>2026-04-26T13:01:55.996Z</time></trkpt><trkpt lat="42.1951717" lon="12.1286183"><ele>415.0</ele><time>2026-04-26T13:01:56.993Z</time></trkpt><trkpt lat="42.1951283" lon="12.128895"><ele>412.33333333333337</ele><time>2026-04-26T13:01:57.997Z</time></trkpt><trkpt lat="42.1950867" lon="12.1291767"><ele>409.66666666666663</ele><time>2026-04-26T13:01:58.993Z</time></trkpt><trkpt lat="42.19504" lon="12.129455"><ele>407.0</ele><time>2026-04-26T13:01:59.993Z</time></trkpt><trkpt lat="42.1950067" lon="12.1297283"><ele>405.0</ele><time>2026-04-26T13:02:00.994Z</time></trkpt><trkpt lat="42.1949617" lon="12.129995"><ele>403.0</ele><time>2026-04-26T13:02:01.989Z</time></trkpt><trkpt lat="42.194915" lon="12.1302483"><ele>401.0</ele><time>2026-04-26T13:02:02.999Z</time></trkpt><trkpt lat="42.1948483" lon="12.130495"><ele>399.3333333333333</ele><time>2026-04-26T13:02:03.992Z</time></trkpt><trkpt lat="42.1947733" lon="12.13074"><ele>397.66666666666663</ele><time>2026-04-26T13:02:04.993Z</time></trkpt><trkpt lat="42.19468" lon="12.13098"><ele>396.0</ele><time>2026-04-26T13:02:05.996Z</time></trkpt><trkpt lat="42.1945717" lon="12.1312167"><ele>396.0</ele><time>2026-04-26T13:02:06.993Z</time></trkpt><trkpt lat="42.1944517" lon="12.13145"><ele>396.0</ele><time>2026-04-26T13:02:07.995Z</time></trkpt><trkpt lat="42.1943233" lon="12.1316817"><ele>396.0</ele><time>2026-04-26T13:02:08.997Z</time></trkpt><trkpt lat="42.1941883" lon="12.1319117"><ele>397.66666666666663</ele><time>2026-04-26T13:02:09.996Z</time></trkpt><trkpt lat="42.1940517" lon="12.1321433"><ele>399.3333333333333</ele><time>2026-04-26T13:02:10.995Z</time></trkpt><trkpt lat="42.1939133" lon="12.13238"><ele>401.0</ele><time>2026-04-26T13:02:12.002Z</time></trkpt><trkpt lat="42.1937767" lon="12.1326183"><ele>402.0</ele><time>2026-04-26T13:02:12.991Z</time></trkpt><trkpt lat="42.1936383" lon="12.132855"><ele>403.0</ele><time>2026-04-26T13:02:13.998Z</time></trkpt><trkpt lat="42.1935017" lon="12.1330983"><ele>401.6666666666667</ele><time>2026-04-26T13:02:15Z</time></trkpt><trkpt lat="42.1933633" lon="12.1333367"><ele>400.33333333333337</ele><time>2026-04-26T13:02:16Z</time></trkpt><trkpt lat="42.19323" lon="12.1335667"><ele>399.0</ele><time>2026-04-26T13:02:16.989Z</time></trkpt><trkpt lat="42.1930933" lon="12.1337883"><ele>398.33333333333337</ele><time>2026-04-26T13:02:17.999Z</time></trkpt><trkpt lat="42.192965" lon="12.13401"><ele>397.6666666666667</ele><time>2026-04-26T13:02:19Z</time></trkpt><trkpt lat="42.1928367" lon="12.134225"><ele>397.0</ele><time>2026-04-26T13:02:19.996Z</time></trkpt><trkpt lat="42.1927083" lon="12.1344367"><ele>397.0</ele><time>2026-04-26T13:02:20.993Z</time></trkpt><trkpt lat="42.192575" lon="12.13464"><ele>397.0</ele><time>2026-04-26T13:02:21.996Z</time></trkpt><trkpt lat="42.19243" lon="12.1348317"><ele>397.0</ele><time>2026-04-26T13:02:22.993Z</time></trkpt><trkpt lat="42.19227" lon="12.1350133"><ele>397.0</ele><time>2026-04-26T13:02:23.991Z</time></trkpt><trkpt lat="42.192095" lon="12.135185"><ele>397.0</ele><time>2026-04-26T13:02:24.999Z</time></trkpt><trkpt lat="42.1919067" lon="12.135335"><ele>397.0</ele><time>2026-04-26T13:02:25.996Z</time></trkpt><trkpt lat="42.191705" lon="12.1354633"><ele>397.33333333333337</ele><time>2026-04-26T13:02:26.997Z</time></trkpt><trkpt lat="42.1915017" lon="12.1355783"><ele>397.66666666666663</ele><time>2026-04-26T13:02:27.988Z</time></trkpt><trkpt lat="42.191295" lon="12.13569"><ele>398.0</ele><time>2026-04-26T13:02:28.994Z</time></trkpt><trkpt lat="42.1910883" lon="12.1357983"><ele>398.0</ele><time>2026-04-26T13:02:29.994Z</time></trkpt><trkpt lat="42.1908833" lon="12.1359083"><ele>398.0</ele><time>2026-04-26T13:02:30.994Z</time></trkpt><trkpt lat="42.1906783" lon="12.13602"><ele>398.0</ele><time>2026-04-26T13:02:31.992Z</time></trkpt><trkpt lat="42.1904783" lon="12.1361317"><ele>398.66666666666663</ele><time>2026-04-26T13:02:32.993Z</time></trkpt><trkpt lat="42.19028" lon="12.13624"><ele>399.33333333333337</ele><time>2026-04-26T13:02:33.994Z</time></trkpt><trkpt lat="42.190085" lon="12.136345"><ele>400.0</ele><time>2026-04-26T13:02:34.992Z</time></trkpt><trkpt lat="42.1898917" lon="12.1364517"><ele>400.0</ele><time>2026-04-26T13:02:35.995Z</time></trkpt><trkpt lat="42.1896967" lon="12.13656"><ele>400.0</ele><time>2026-04-26T13:02:36.992Z</time></trkpt><trkpt lat="42.1895017" lon="12.1366717"><ele>400.0</ele><time>2026-04-26T13:02:37.994Z</time></trkpt><trkpt lat="42.1893017" lon="12.1367833"><ele>400.0</ele><time>2026-04-26T13:02:38.992Z</time></trkpt><trkpt lat="42.1891017" lon="12.1368917"><ele>400.0</ele><time>2026-04-26T13:02:39.996Z</time></trkpt><trkpt lat="42.188905" lon="12.136995"><ele>400.0</ele><time>2026-04-26T13:02:40.994Z</time></trkpt><trkpt lat="42.1887117" lon="12.1371"><ele>400.33333333333337</ele><time>2026-04-26T13:02:41.995Z</time></trkpt><trkpt lat="42.1885233" lon="12.1372017"><ele>400.66666666666663</ele><time>2026-04-26T13:02:42.992Z</time></trkpt><trkpt lat="42.1883317" lon="12.1372983"><ele>401.0</ele><time>2026-04-26T13:02:43.991Z</time></trkpt><trkpt lat="42.188135" lon="12.13738"><ele>401.66666666666663</ele><time>2026-04-26T13:02:44.994Z</time></trkpt><trkpt lat="42.18793" lon="12.137445"><ele>402.33333333333337</ele><time>2026-04-26T13:02:45.994Z</time></trkpt><trkpt lat="42.1877133" lon="12.13749"><ele>403.0</ele><time>2026-04-26T13:02:46.993Z</time></trkpt><trkpt lat="42.1874917" lon="12.1375117"><ele>405.5</ele><time>2026-04-26T13:02:47.991Z</time></trkpt><trkpt lat="42.187265" lon="12.1375067"><ele>408.0</ele><time>2026-04-26T13:02:48.99Z</time></trkpt><trkpt lat="42.1870367" lon="12.1374733"><ele>408.0</ele><time>2026-04-26T13:02:49.999Z</time></trkpt><trkpt lat="42.1868083" lon="12.1374217"><ele>408.0</ele><time>2026-04-26T13:02:50.998Z</time></trkpt><trkpt lat="42.1865867" lon="12.1373567"><ele>406.66666666666663</ele><time>2026-04-26T13:02:51.993Z</time></trkpt><trkpt lat="42.186375" lon="12.137285"><ele>405.3333333333333</ele><time>2026-04-26T13:02:52.995Z</time></trkpt><trkpt lat="42.1861633" lon="12.1372167"><ele>404.0</ele><time>2026-04-26T13:02:53.991Z</time></trkpt><trkpt lat="42.18595" lon="12.1371583"><ele>404.0</ele><time>2026-04-26T13:02:54.993Z</time></trkpt><trkpt lat="42.1857417" lon="12.1371067"><ele>404.0</ele><time>2026-04-26T13:02:55.994Z</time></trkpt><trkpt lat="42.1855317" lon="12.1370717"><ele>404.0</ele><time>2026-04-26T13:02:56.993Z</time></trkpt><trkpt lat="42.1853233" lon="12.137055"><ele>404.3333333333333</ele><time>2026-04-26T13:02:57.991Z</time></trkpt><trkpt lat="42.185105" lon="12.1370567"><ele>404.66666666666663</ele><time>2026-04-26T13:02:58.995Z</time></trkpt><trkpt lat="42.184885" lon="12.13706"><ele>405.0</ele><time>2026-04-26T13:02:59.992Z</time></trkpt><trkpt lat="42.1846633" lon="12.1370633"><ele>405.0</ele><time>2026-04-26T13:03:00.995Z</time></trkpt><trkpt lat="42.1844383" lon="12.137065"><ele>405.0</ele><time>2026-04-26T13:03:01.993Z</time></trkpt><trkpt lat="42.18421" lon="12.1370683"><ele>404.5</ele><time>2026-04-26T13:03:02.995Z</time></trkpt><trkpt lat="42.1839817" lon="12.1370733"><ele>404.0</ele><time>2026-04-26T13:03:03.992Z</time></trkpt><trkpt lat="42.1837533" lon="12.1370767"><ele>404.0</ele><time>2026-04-26T13:03:04.995Z</time></trkpt><trkpt lat="42.1835283" lon="12.1370817"><ele>404.0</ele><time>2026-04-26T13:03:05.994Z</time></trkpt><trkpt lat="42.183305" lon="12.1370833"><ele>404.0</ele><time>2026-04-26T13:03:06.995Z</time></trkpt><trkpt lat="42.1830817" lon="12.1370867"><ele>403.66666666666663</ele><time>2026-04-26T13:03:07.993Z</time></trkpt><trkpt lat="42.18286" lon="12.1370917"><ele>403.33333333333337</ele><time>2026-04-26T13:03:08.995Z</time></trkpt><trkpt lat="42.18264" lon="12.1370967"><ele>403.0</ele><time>2026-04-26T13:03:09.994Z</time></trkpt><trkpt lat="42.18242" lon="12.1370983"><ele>402.33333333333337</ele><time>2026-04-26T13:03:10.991Z</time></trkpt><trkpt lat="42.1822017" lon="12.1371017"><ele>401.66666666666663</ele><time>2026-04-26T13:03:11.997Z</time></trkpt><trkpt lat="42.181985" lon="12.1371033"><ele>401.0</ele><time>2026-04-26T13:03:12.993Z</time></trkpt><trkpt lat="42.1817667" lon="12.1371083"><ele>401.0</ele><time>2026-04-26T13:03:13.994Z</time></trkpt><trkpt lat="42.1815483" lon="12.1371133"><ele>401.0</ele><time>2026-04-26T13:03:14.992Z</time></trkpt><trkpt lat="42.1813233" lon="12.13712"><ele>401.0</ele><time>2026-04-26T13:03:15.994Z</time></trkpt><trkpt lat="42.1810883" lon="12.137125"><ele>401.5</ele><time>2026-04-26T13:03:16.991Z</time></trkpt><trkpt lat="42.1808467" lon="12.1371317"><ele>402.0</ele><time>2026-04-26T13:03:17.995Z</time></trkpt><trkpt lat="42.1806083" lon="12.1371383"><ele>403.0</ele><time>2026-04-26T13:03:18.997Z</time></trkpt><trkpt lat="42.18037" lon="12.1371467"><ele>404.0</ele><time>2026-04-26T13:03:19.999Z</time></trkpt><trkpt lat="42.1801367" lon="12.1371533"><ele>404.0</ele><time>2026-04-26T13:03:20.993Z</time></trkpt><trkpt lat="42.17991" lon="12.1371583"><ele>404.0</ele><time>2026-04-26T13:03:21.992Z</time></trkpt><trkpt lat="42.17968" lon="12.1371617"><ele>405.0</ele><time>2026-04-26T13:03:22.992Z</time></trkpt><trkpt lat="42.179445" lon="12.1371633"><ele>406.0</ele><time>2026-04-26T13:03:23.996Z</time></trkpt><trkpt lat="42.1792067" lon="12.137165"><ele>406.5</ele><time>2026-04-26T13:03:24.993Z</time></trkpt><trkpt lat="42.178975" lon="12.137165"><ele>407.0</ele><time>2026-04-26T13:03:25.994Z</time></trkpt><trkpt lat="42.17875" lon="12.137165"><ele>407.0</ele><time>2026-04-26T13:03:26.992Z</time></trkpt><trkpt lat="42.17853" lon="12.1371667"><ele>407.0</ele><time>2026-04-26T13:03:27.991Z</time></trkpt><trkpt lat="42.17831" lon="12.1371717"><ele>407.0</ele><time>2026-04-26T13:03:28.988Z</time></trkpt><trkpt lat="42.1780917" lon="12.1371733"><ele>406.66666666666663</ele><time>2026-04-26T13:03:29.998Z</time></trkpt><trkpt lat="42.1778717" lon="12.1371717"><ele>406.33333333333337</ele><time>2026-04-26T13:03:30.988Z</time></trkpt><trkpt lat="42.1776517" lon="12.1371783"><ele>406.0</ele><time>2026-04-26T13:03:31.992Z</time></trkpt><trkpt lat="42.1774333" lon="12.13718"><ele>406.6666666666667</ele><time>2026-04-26T13:03:32.993Z</time></trkpt><trkpt lat="42.1772133" lon="12.13718"><ele>407.33333333333337</ele><time>2026-04-26T13:03:33.991Z</time></trkpt><trkpt lat="42.1769933" lon="12.1371783"><ele>408.0</ele><time>2026-04-26T13:03:34.993Z</time></trkpt><trkpt lat="42.176775" lon="12.1371767"><ele>408.0</ele><time>2026-04-26T13:03:35.992Z</time></trkpt><trkpt lat="42.176555" lon="12.1371783"><ele>408.0</ele><time>2026-04-26T13:03:36.992Z</time></trkpt><trkpt lat="42.1763333" lon="12.1371767"><ele>408.0</ele><time>2026-04-26T13:03:37.997Z</time></trkpt><trkpt lat="42.17611" lon="12.13718"><ele>408.0</ele><time>2026-04-26T13:03:38.995Z</time></trkpt><trkpt lat="42.175885" lon="12.1371833"><ele>408.0</ele><time>2026-04-26T13:03:39.992Z</time></trkpt><trkpt lat="42.1756583" lon="12.137185"><ele>408.0</ele><time>2026-04-26T13:03:40.991Z</time></trkpt><trkpt lat="42.1754367" lon="12.13719"><ele>408.0</ele><time>2026-04-26T13:03:41.992Z</time></trkpt><trkpt lat="42.175225" lon="12.1371967"><ele>408.0</ele><time>2026-04-26T13:03:42.988Z</time></trkpt><trkpt lat="42.1750167" lon="12.1372"><ele>408.66666666666663</ele><time>2026-04-26T13:03:43.998Z</time></trkpt><trkpt lat="42.1748083" lon="12.1372017"><ele>409.3333333333333</ele><time>2026-04-26T13:03:44.995Z</time></trkpt><trkpt lat="42.1745967" lon="12.137205"><ele>410.0</ele><time>2026-04-26T13:03:45.997Z</time></trkpt><trkpt lat="42.1743767" lon="12.1372083"><ele>410.0</ele><time>2026-04-26T13:03:47.004Z</time></trkpt><trkpt lat="42.1741433" lon="12.1372133"><ele>410.0</ele><time>2026-04-26T13:03:48Z</time></trkpt><trkpt lat="42.1738983" lon="12.137215"><ele>408.5</ele><time>2026-04-26T13:03:48.996Z</time></trkpt><trkpt lat="42.17365" lon="12.13722"><ele>407.0</ele><time>2026-04-26T13:03:49.996Z</time></trkpt><trkpt lat="42.17341" lon="12.1372233"><ele>407.0</ele><time>2026-04-26T13:03:50.996Z</time></trkpt><trkpt lat="42.1731767" lon="12.1372267"><ele>407.0</ele><time>2026-04-26T13:03:51.992Z</time></trkpt><trkpt lat="42.1729483" lon="12.13723"><ele>407.0</ele><time>2026-04-26T13:03:52.994Z</time></trkpt><trkpt lat="42.1727233" lon="12.13723"><ele>407.0</ele><time>2026-04-26T13:03:53.993Z</time></trkpt><trkpt lat="42.1725" lon="12.13723"><ele>407.0</ele><time>2026-04-26T13:03:54.994Z</time></trkpt><trkpt lat="42.1722817" lon="12.1372317"><ele>407.3333333333333</ele><time>2026-04-26T13:03:55.996Z</time></trkpt><trkpt lat="42.1720633" lon="12.1372333"><ele>407.66666666666663</ele><time>2026-04-26T13:03:56.999Z</time></trkpt><trkpt lat="42.17185" lon="12.1372367"><ele>408.0</ele><time>2026-04-26T13:03:57.997Z</time></trkpt><trkpt lat="42.17164" lon="12.1372383"><ele>408.33333333333337</ele><time>2026-04-26T13:03:58.996Z</time></trkpt><trkpt lat="42.1714383" lon="12.1372383"><ele>408.6666666666667</ele><time>2026-04-26T13:03:59.99Z</time></trkpt><trkpt lat="42.17124" lon="12.13724"><ele>409.0</ele><time>2026-04-26T13:04:00.995Z</time></trkpt><trkpt lat="42.17104" lon="12.137245"><ele>409.0</ele><time>2026-04-26T13:04:01.992Z</time></trkpt><trkpt lat="42.1708383" lon="12.13725"><ele>409.0</ele><time>2026-04-26T13:04:02.998Z</time></trkpt><trkpt lat="42.1706333" lon="12.1372483"><ele>409.0</ele><time>2026-04-26T13:04:03.994Z</time></trkpt><trkpt lat="42.1704267" lon="12.13725"><ele>409.6666666666667</ele><time>2026-04-26T13:04:04.993Z</time></trkpt><trkpt lat="42.1702117" lon="12.13726"><ele>410.33333333333337</ele><time>2026-04-26T13:04:06.007Z</time></trkpt><trkpt lat="42.1699867" lon="12.13728"><ele>411.0</ele><time>2026-04-26T13:04:06.997Z</time></trkpt><trkpt lat="42.169755" lon="12.1373067"><ele>412.0</ele><time>2026-04-26T13:04:07.995Z</time></trkpt><trkpt lat="42.169525" lon="12.1373367"><ele>413.0</ele><time>2026-04-26T13:04:08.997Z</time></trkpt><trkpt lat="42.1693017" lon="12.1373717"><ele>412.0</ele><time>2026-04-26T13:04:09.989Z</time></trkpt><trkpt lat="42.1690967" lon="12.1374083"><ele>411.0</ele><time>2026-04-26T13:04:10.992Z</time></trkpt><trkpt lat="42.1689033" lon="12.137435"><ele>410.0</ele><time>2026-04-26T13:04:11.992Z</time></trkpt><trkpt lat="42.1687133" lon="12.1374667"><ele>409.66666666666663</ele><time>2026-04-26T13:04:12.997Z</time></trkpt><trkpt lat="42.1685383" lon="12.1374967"><ele>409.33333333333337</ele><time>2026-04-26T13:04:13.995Z</time></trkpt><trkpt lat="42.1683683" lon="12.1375233"><ele>409.0</ele><time>2026-04-26T13:04:14.994Z</time></trkpt><trkpt lat="42.1681983" lon="12.1375483"><ele>408.6666666666667</ele><time>2026-04-26T13:04:15.997Z</time></trkpt><trkpt lat="42.1680317" lon="12.1375783"><ele>408.33333333333337</ele><time>2026-04-26T13:04:16.99Z</time></trkpt><trkpt lat="42.16787" lon="12.1376083"><ele>408.0</ele><time>2026-04-26T13:04:17.993Z</time></trkpt><trkpt lat="42.1677183" lon="12.1376333"><ele>408.0</ele><time>2026-04-26T13:04:18.992Z</time></trkpt><trkpt lat="42.1675683" lon="12.1376617"><ele>408.0</ele><time>2026-04-26T13:04:19.99Z</time></trkpt><trkpt lat="42.16742" lon="12.137685"><ele>408.0</ele><time>2026-04-26T13:04:20.991Z</time></trkpt><trkpt lat="42.167275" lon="12.13771"><ele>408.0</ele><time>2026-04-26T13:04:21.992Z</time></trkpt><trkpt lat="42.167135" lon="12.1377333"><ele>407.75</ele><time>2026-04-26T13:04:22.994Z</time></trkpt><trkpt lat="42.167005" lon="12.1377517"><ele>407.5</ele><time>2026-04-26T13:04:23.991Z</time></trkpt><trkpt lat="42.1668833" lon="12.1377717"><ele>407.25</ele><time>2026-04-26T13:04:24.991Z</time></trkpt><trkpt lat="42.1667667" lon="12.137795"><ele>407.0</ele><time>2026-04-26T13:04:25.993Z</time></trkpt><trkpt lat="42.1666517" lon="12.1378167"><ele>407.0</ele><time>2026-04-26T13:04:26.995Z</time></trkpt><trkpt lat="42.1665333" lon="12.1378283"><ele>407.0</ele><time>2026-04-26T13:04:28Z</time></trkpt><trkpt lat="42.1664117" lon="12.137845"><ele>407.0</ele><time>2026-04-26T13:04:28.993Z</time></trkpt><trkpt lat="42.1662833" lon="12.1378617"><ele>407.0</ele><time>2026-04-26T13:04:29.992Z</time></trkpt><trkpt lat="42.1661517" lon="12.1378783"><ele>406.75</ele><time>2026-04-26T13:04:30.992Z</time></trkpt><trkpt lat="42.1660167" lon="12.1378983"><ele>406.5</ele><time>2026-04-26T13:04:31.991Z</time></trkpt><trkpt lat="42.1658783" lon="12.1379233"><ele>406.25</ele><time>2026-04-26T13:04:32.99Z</time></trkpt><trkpt lat="42.1657367" lon="12.1379483"><ele>406.0</ele><time>2026-04-26T13:04:33.997Z</time></trkpt><trkpt lat="42.16559" lon="12.1379733"><ele>405.5</ele><time>2026-04-26T13:04:34.989Z</time></trkpt><trkpt lat="42.1654417" lon="12.138"><ele>405.0</ele><time>2026-04-26T13:04:35.992Z</time></trkpt><trkpt lat="42.1652967" lon="12.138025"><ele>404.5</ele><time>2026-04-26T13:04:36.989Z</time></trkpt><trkpt lat="42.16516" lon="12.1380433"><ele>404.0</ele><time>2026-04-26T13:04:37.996Z</time></trkpt><trkpt lat="42.165035" lon="12.1380617"><ele>404.0</ele><time>2026-04-26T13:04:38.997Z</time></trkpt><trkpt lat="42.164925" lon="12.13808"><ele>404.0</ele><time>2026-04-26T13:04:39.992Z</time></trkpt><trkpt lat="42.1648283" lon="12.1380983"><ele>404.0</ele><time>2026-04-26T13:04:40.993Z</time></trkpt><trkpt lat="42.164745" lon="12.1381167"><ele>404.0</ele><time>2026-04-26T13:04:41.986Z</time></trkpt><trkpt lat="42.1646683" lon="12.138135"><ele>404.0</ele><time>2026-04-26T13:04:42.991Z</time></trkpt><trkpt lat="42.1645883" lon="12.138145"><ele>404.4</ele><time>2026-04-26T13:04:43.99Z</time></trkpt><trkpt lat="42.1645033" lon="12.1381517"><ele>404.79999999999995</ele><time>2026-04-26T13:04:44.988Z</time></trkpt><trkpt lat="42.164405" lon="12.1381583"><ele>405.20000000000005</ele><time>2026-04-26T13:04:45.991Z</time></trkpt><trkpt lat="42.1642933" lon="12.1381717"><ele>405.6</ele><time>2026-04-26T13:04:46.992Z</time></trkpt><trkpt lat="42.164175" lon="12.1381867"><ele>406.0</ele><time>2026-04-26T13:04:47.992Z</time></trkpt><trkpt lat="42.164045" lon="12.138205"><ele>406.5</ele><time>2026-04-26T13:04:48.987Z</time></trkpt><trkpt lat="42.16391" lon="12.1382317"><ele>407.0</ele><time>2026-04-26T13:04:49.993Z</time></trkpt><trkpt lat="42.16377" lon="12.13826"><ele>407.5</ele><time>2026-04-26T13:04:50.998Z</time></trkpt><trkpt lat="42.1636267" lon="12.1382883"><ele>408.0</ele><time>2026-04-26T13:04:51.99Z</time></trkpt><trkpt lat="42.1634833" lon="12.1383183"><ele>408.0</ele><time>2026-04-26T13:04:52.993Z</time></trkpt><trkpt lat="42.16334" lon="12.1383433"><ele>408.0</ele><time>2026-04-26T13:04:53.997Z</time></trkpt><trkpt lat="42.1631983" lon="12.1383633"><ele>408.0</ele><time>2026-04-26T13:04:54.996Z</time></trkpt><trkpt lat="42.1630533" lon="12.1383833"><ele>408.0</ele><time>2026-04-26T13:04:55.99Z</time></trkpt><trkpt lat="42.1629067" lon="12.1384067"><ele>409.75</ele><time>2026-04-26T13:04:57.002Z</time></trkpt><trkpt lat="42.1627617" lon="12.13843"><ele>411.5</ele><time>2026-04-26T13:04:57.997Z</time></trkpt><trkpt lat="42.1626133" lon="12.13845"><ele>413.25</ele><time>2026-04-26T13:04:58.996Z</time></trkpt><trkpt lat="42.162465" lon="12.1384733"><ele>415.0</ele><time>2026-04-26T13:04:59.993Z</time></trkpt><trkpt lat="42.1623183" lon="12.138495"><ele>415.0</ele><time>2026-04-26T13:05:00.994Z</time></trkpt><trkpt lat="42.1621717" lon="12.138515"><ele>415.0</ele><time>2026-04-26T13:05:01.991Z</time></trkpt><trkpt lat="42.1620217" lon="12.1385433"><ele>415.0</ele><time>2026-04-26T13:05:02.991Z</time></trkpt><trkpt lat="42.1618717" lon="12.1385733"><ele>415.0</ele><time>2026-04-26T13:05:03.99Z</time></trkpt><trkpt lat="42.161725" lon="12.1385883"><ele>415.0</ele><time>2026-04-26T13:05:04.99Z</time></trkpt><trkpt lat="42.1615883" lon="12.1386083"><ele>415.0</ele><time>2026-04-26T13:05:05.994Z</time></trkpt><trkpt lat="42.161465" lon="12.13863"><ele>415.0</ele><time>2026-04-26T13:05:06.999Z</time></trkpt><trkpt lat="42.16135" lon="12.1386433"><ele>415.5</ele><time>2026-04-26T13:05:07.991Z</time></trkpt><trkpt lat="42.16124" lon="12.1386633"><ele>416.0</ele><time>2026-04-26T13:05:08.996Z</time></trkpt><trkpt lat="42.1611333" lon="12.1386783"><ele>416.5</ele><time>2026-04-26T13:05:09.991Z</time></trkpt><trkpt lat="42.1610183" lon="12.1387"><ele>417.0</ele><time>2026-04-26T13:05:10.991Z</time></trkpt><trkpt lat="42.1608983" lon="12.1387217"><ele>417.0</ele><time>2026-04-26T13:05:11.989Z</time></trkpt><trkpt lat="42.16077" lon="12.1387467"><ele>417.0</ele><time>2026-04-26T13:05:12.992Z</time></trkpt><trkpt lat="42.1606367" lon="12.1387683"><ele>417.0</ele><time>2026-04-26T13:05:13.993Z</time></trkpt><trkpt lat="42.1605133" lon="12.138785"><ele>417.0</ele><time>2026-04-26T13:05:14.994Z</time></trkpt><trkpt lat="42.1603933" lon="12.1387933"><ele>418.75</ele><time>2026-04-26T13:05:15.997Z</time></trkpt><trkpt lat="42.1602767" lon="12.1387967"><ele>420.5</ele><time>2026-04-26T13:05:16.995Z</time></trkpt><trkpt lat="42.1601533" lon="12.138795"><ele>422.25</ele><time>2026-04-26T13:05:17.998Z</time></trkpt><trkpt lat="42.1600233" lon="12.1387933"><ele>424.0</ele><time>2026-04-26T13:05:18.994Z</time></trkpt><trkpt lat="42.1599" lon="12.1387933"><ele>424.4</ele><time>2026-04-26T13:05:20.001Z</time></trkpt><trkpt lat="42.1597833" lon="12.1388"><ele>424.79999999999995</ele><time>2026-04-26T13:05:20.997Z</time></trkpt><trkpt lat="42.159675" lon="12.1388117"><ele>425.20000000000005</ele><time>2026-04-26T13:05:21.992Z</time></trkpt><trkpt lat="42.1595717" lon="12.1388183"><ele>425.6</ele><time>2026-04-26T13:05:22.993Z</time></trkpt><trkpt lat="42.15947" lon="12.1388283"><ele>426.0</ele><time>2026-04-26T13:05:23.999Z</time></trkpt><trkpt lat="42.1593667" lon="12.1388567"><ele>426.0</ele><time>2026-04-26T13:05:24.99Z</time></trkpt><trkpt lat="42.1592633" lon="12.138875"><ele>426.0</ele><time>2026-04-26T13:05:25.996Z</time></trkpt><trkpt lat="42.1591567" lon="12.1388833"><ele>426.0</ele><time>2026-04-26T13:05:26.992Z</time></trkpt><trkpt lat="42.159045" lon="12.138885"><ele>426.0</ele><time>2026-04-26T13:05:27.992Z</time></trkpt><trkpt lat="42.1589383" lon="12.13888"><ele>426.0</ele><time>2026-04-26T13:05:28.995Z</time></trkpt><trkpt lat="42.1588333" lon="12.138875"><ele>426.4</ele><time>2026-04-26T13:05:29.996Z</time></trkpt><trkpt lat="42.1587267" lon="12.138865"><ele>426.8</ele><time>2026-04-26T13:05:30.996Z</time></trkpt><trkpt lat="42.158615" lon="12.138855"><ele>427.19999999999993</ele><time>2026-04-26T13:05:31.99Z</time></trkpt><trkpt lat="42.1585017" lon="12.13885"><ele>427.59999999999997</ele><time>2026-04-26T13:05:32.994Z</time></trkpt><trkpt lat="42.1583867" lon="12.1388417"><ele>428.0</ele><time>2026-04-26T13:05:33.994Z</time></trkpt><trkpt lat="42.15827" lon="12.138835"><ele>428.25</ele><time>2026-04-26T13:05:34.991Z</time></trkpt><trkpt lat="42.15815" lon="12.13883"><ele>428.5</ele><time>2026-04-26T13:05:35.994Z</time></trkpt><trkpt lat="42.1580283" lon="12.1388267"><ele>428.75</ele><time>2026-04-26T13:05:36.991Z</time></trkpt><trkpt lat="42.1579067" lon="12.138825"><ele>429.0</ele><time>2026-04-26T13:05:37.998Z</time></trkpt><trkpt lat="42.1577867" lon="12.1388267"><ele>429.0</ele><time>2026-04-26T13:05:38.993Z</time></trkpt><trkpt lat="42.1576683" lon="12.138825"><ele>429.0</ele><time>2026-04-26T13:05:39.993Z</time></trkpt><trkpt lat="42.1575533" lon="12.1388233"><ele>429.0</ele><time>2026-04-26T13:05:40.993Z</time></trkpt><trkpt lat="42.15745" lon="12.1388183"><ele>429.0</ele><time>2026-04-26T13:05:41.998Z</time></trkpt><trkpt lat="42.1573533" lon="12.1388133"><ele>429.0</ele><time>2026-04-26T13:05:42.993Z</time></trkpt><trkpt lat="42.157265" lon="12.1388"><ele>428.2</ele><time>2026-04-26T13:05:43.995Z</time></trkpt><trkpt lat="42.1571833" lon="12.1387683"><ele>427.4</ele><time>2026-04-26T13:05:44.994Z</time></trkpt><trkpt lat="42.157105" lon="12.13871"><ele>426.6</ele><time>2026-04-26T13:05:45.993Z</time></trkpt><trkpt lat="42.1570267" lon="12.1386417"><ele>425.8</ele><time>2026-04-26T13:05:46.997Z</time></trkpt><trkpt lat="42.1569433" lon="12.13856"><ele>425.0</ele><time>2026-04-26T13:05:47.995Z</time></trkpt><trkpt lat="42.1568483" lon="12.1384867"><ele>425.0</ele><time>2026-04-26T13:05:48.993Z</time></trkpt><trkpt lat="42.156745" lon="12.1384083"><ele>425.0</ele><time>2026-04-26T13:05:49.994Z</time></trkpt><trkpt lat="42.1566317" lon="12.1383283"><ele>425.0</ele><time>2026-04-26T13:05:50.993Z</time></trkpt><trkpt lat="42.1565067" lon="12.1382583"><ele>425.0</ele><time>2026-04-26T13:05:51.99Z</time></trkpt><trkpt lat="42.1563867" lon="12.1381733"><ele>424.75</ele><time>2026-04-26T13:05:52.994Z</time></trkpt><trkpt lat="42.15627" lon="12.1380867"><ele>424.5</ele><time>2026-04-26T13:05:53.995Z</time></trkpt><trkpt lat="42.1561517" lon="12.1380033"><ele>424.25</ele><time>2026-04-26T13:05:54.99Z</time></trkpt><trkpt lat="42.1560333" lon="12.1379233"><ele>424.0</ele><time>2026-04-26T13:05:55.997Z</time></trkpt><trkpt lat="42.1559167" lon="12.13784"><ele>424.0</ele><time>2026-04-26T13:05:56.994Z</time></trkpt><trkpt lat="42.1557983" lon="12.137755"><ele>424.0</ele><time>2026-04-26T13:05:57.995Z</time></trkpt><trkpt lat="42.15568" lon="12.137685"><ele>424.0</ele><time>2026-04-26T13:05:58.989Z</time></trkpt><trkpt lat="42.155575" lon="12.137625"><ele>424.0</ele><time>2026-04-26T13:05:59.997Z</time></trkpt><trkpt lat="42.1554917" lon="12.1375867"><ele>423.0</ele><time>2026-04-26T13:06:00.999Z</time></trkpt><trkpt lat="42.1554283" lon="12.1375467"><ele>422.0</ele><time>2026-04-26T13:06:01.993Z</time></trkpt><trkpt lat="42.15533" lon="12.1374883"><ele>421.0</ele><time>2026-04-26T13:06:03.99Z</time></trkpt><trkpt lat="42.1552417" lon="12.1374283"><ele>420.0</ele><time>2026-04-26T13:06:05.999Z</time></trkpt><trkpt lat="42.1551417" lon="12.1373383"><ele>419.0</ele><time>2026-04-26T13:06:07.991Z</time></trkpt><trkpt lat="42.1550883" lon="12.1372867"><ele>418.8333333333333</ele><time>2026-04-26T13:06:08.993Z</time></trkpt><trkpt lat="42.1550317" lon="12.1372333"><ele>418.66666666666663</ele><time>2026-04-26T13:06:09.992Z</time></trkpt><trkpt lat="42.1549717" lon="12.13719"><ele>418.5</ele><time>2026-04-26T13:06:10.996Z</time></trkpt><trkpt lat="42.1548617" lon="12.137105"><ele>418.33333333333337</ele><time>2026-04-26T13:06:12.992Z</time></trkpt><trkpt lat="42.1547983" lon="12.1370567"><ele>418.1666666666667</ele><time>2026-04-26T13:06:13.994Z</time></trkpt><trkpt lat="42.1547267" lon="12.137"><ele>418.0</ele><time>2026-04-26T13:06:14.992Z</time></trkpt><trkpt lat="42.154645" lon="12.1369317"><ele>417.5</ele><time>2026-04-26T13:06:15.996Z</time></trkpt><trkpt lat="42.154555" lon="12.1368583"><ele>417.0</ele><time>2026-04-26T13:06:16.991Z</time></trkpt><trkpt lat="42.15446" lon="12.1367833"><ele>416.5</ele><time>2026-04-26T13:06:17.995Z</time></trkpt><trkpt lat="42.15436" lon="12.136705"><ele>416.0</ele><time>2026-04-26T13:06:18.993Z</time></trkpt><trkpt lat="42.1542567" lon="12.13662"><ele>415.5</ele><time>2026-04-26T13:06:19.995Z</time></trkpt><trkpt lat="42.1541483" lon="12.13653"><ele>415.0</ele><time>2026-04-26T13:06:20.996Z</time></trkpt><trkpt lat="42.154035" lon="12.1364333"><ele>414.5</ele><time>2026-04-26T13:06:21.995Z</time></trkpt><trkpt lat="42.1539133" lon="12.1363333"><ele>414.0</ele><time>2026-04-26T13:06:22.99Z</time></trkpt><trkpt lat="42.1537883" lon="12.136235"><ele>413.66666666666663</ele><time>2026-04-26T13:06:24Z</time></trkpt><trkpt lat="42.15366" lon="12.1361317"><ele>413.3333333333333</ele><time>2026-04-26T13:06:24.991Z</time></trkpt><trkpt lat="42.1535283" lon="12.1360283"><ele>413.0</ele><time>2026-04-26T13:06:25.997Z</time></trkpt><trkpt lat="42.1533983" lon="12.1359317"><ele>413.0</ele><time>2026-04-26T13:06:26.998Z</time></trkpt><trkpt lat="42.153265" lon="12.13583"><ele>413.0</ele><time>2026-04-26T13:06:27.998Z</time></trkpt><trkpt lat="42.1531283" lon="12.135725"><ele>413.0</ele><time>2026-04-26T13:06:28.99Z</time></trkpt><trkpt lat="42.15299" lon="12.13562"><ele>413.0</ele><time>2026-04-26T13:06:30.003Z</time></trkpt><trkpt lat="42.152855" lon="12.13552"><ele>413.0</ele><time>2026-04-26T13:06:30.998Z</time></trkpt><trkpt lat="42.1527167" lon="12.1354167"><ele>413.0</ele><time>2026-04-26T13:06:31.998Z</time></trkpt><trkpt lat="42.1525733" lon="12.13531"><ele>413.0</ele><time>2026-04-26T13:06:32.989Z</time></trkpt><trkpt lat="42.1524267" lon="12.1352"><ele>413.0</ele><time>2026-04-26T13:06:33.99Z</time></trkpt><trkpt lat="42.1522767" lon="12.1350833"><ele>413.0</ele><time>2026-04-26T13:06:34.99Z</time></trkpt><trkpt lat="42.1521167" lon="12.134965"><ele>413.3333333333333</ele><time>2026-04-26T13:06:35.993Z</time></trkpt><trkpt lat="42.1519633" lon="12.1348383"><ele>413.66666666666663</ele><time>2026-04-26T13:06:36.991Z</time></trkpt><trkpt lat="42.1518083" lon="12.1347183"><ele>414.0</ele><time>2026-04-26T13:06:38.009Z</time></trkpt><trkpt lat="42.1516583" lon="12.1346"><ele>414.0</ele><time>2026-04-26T13:06:38.996Z</time></trkpt><trkpt lat="42.1515083" lon="12.134485"><ele>414.0</ele><time>2026-04-26T13:06:39.998Z</time></trkpt><trkpt lat="42.1513583" lon="12.1343667"><ele>414.0</ele><time>2026-04-26T13:06:40.993Z</time></trkpt><trkpt lat="42.151205" lon="12.134245"><ele>414.0</ele><time>2026-04-26T13:06:41.993Z</time></trkpt><trkpt lat="42.1510433" lon="12.1341217"><ele>414.0</ele><time>2026-04-26T13:06:42.994Z</time></trkpt><trkpt lat="42.1508783" lon="12.1340017"><ele>414.0</ele><time>2026-04-26T13:06:43.992Z</time></trkpt><trkpt lat="42.1507167" lon="12.1338817"><ele>414.0</ele><time>2026-04-26T13:06:45Z</time></trkpt><trkpt lat="42.1505517" lon="12.13377"><ele>414.0</ele><time>2026-04-26T13:06:45.991Z</time></trkpt><trkpt lat="42.1503883" lon="12.1336583"><ele>414.0</ele><time>2026-04-26T13:06:46.99Z</time></trkpt><trkpt lat="42.1502167" lon="12.1335483"><ele>414.0</ele><time>2026-04-26T13:06:47.999Z</time></trkpt><trkpt lat="42.1500433" lon="12.1334367"><ele>414.0</ele><time>2026-04-26T13:06:48.995Z</time></trkpt><trkpt lat="42.1498733" lon="12.133325"><ele>414.0</ele><time>2026-04-26T13:06:49.998Z</time></trkpt><trkpt lat="42.1497117" lon="12.1332183"><ele>415.0</ele><time>2026-04-26T13:06:50.991Z</time></trkpt><trkpt lat="42.1495583" lon="12.1331183"><ele>416.0</ele><time>2026-04-26T13:06:51.994Z</time></trkpt><trkpt lat="42.149405" lon="12.1330183"><ele>417.0</ele><time>2026-04-26T13:06:52.994Z</time></trkpt><trkpt lat="42.149255" lon="12.1329183"><ele>417.0</ele><time>2026-04-26T13:06:53.995Z</time></trkpt><trkpt lat="42.149105" lon="12.1328067"><ele>417.0</ele><time>2026-04-26T13:06:54.992Z</time></trkpt><trkpt lat="42.1489517" lon="12.1326917"><ele>417.0</ele><time>2026-04-26T13:06:55.992Z</time></trkpt><trkpt lat="42.1488" lon="12.1325567"><ele>417.0</ele><time>2026-04-26T13:06:56.995Z</time></trkpt><trkpt lat="42.1486467" lon="12.132415"><ele>417.0</ele><time>2026-04-26T13:06:57.992Z</time></trkpt><trkpt lat="42.1484967" lon="12.13227"><ele>417.0</ele><time>2026-04-26T13:06:58.997Z</time></trkpt><trkpt lat="42.1483433" lon="12.13213"><ele>415.33333333333337</ele><time>2026-04-26T13:06:59.996Z</time></trkpt><trkpt lat="42.1481917" lon="12.131995"><ele>413.6666666666667</ele><time>2026-04-26T13:07:00.99Z</time></trkpt><trkpt lat="42.1480383" lon="12.1318633"><ele>412.0</ele><time>2026-04-26T13:07:01.996Z</time></trkpt><trkpt lat="42.1478833" lon="12.1317333"><ele>412.0</ele><time>2026-04-26T13:07:02.993Z</time></trkpt><trkpt lat="42.1477233" lon="12.1316033"><ele>412.0</ele><time>2026-04-26T13:07:03.995Z</time></trkpt><trkpt lat="42.1475517" lon="12.1314717"><ele>412.0</ele><time>2026-04-26T13:07:04.998Z</time></trkpt><trkpt lat="42.14738" lon="12.131335"><ele>413.0</ele><time>2026-04-26T13:07:05.993Z</time></trkpt><trkpt lat="42.147215" lon="12.1311933"><ele>414.0</ele><time>2026-04-26T13:07:06.992Z</time></trkpt><trkpt lat="42.1470567" lon="12.1310467"><ele>415.0</ele><time>2026-04-26T13:07:07.99Z</time></trkpt><trkpt lat="42.1469033" lon="12.1308983"><ele>415.0</ele><time>2026-04-26T13:07:08.995Z</time></trkpt><trkpt lat="42.14676" lon="12.1307467"><ele>415.0</ele><time>2026-04-26T13:07:09.993Z</time></trkpt><trkpt lat="42.1466183" lon="12.1305967"><ele>415.0</ele><time>2026-04-26T13:07:10.991Z</time></trkpt><trkpt lat="42.146475" lon="12.13046"><ele>417.33333333333337</ele><time>2026-04-26T13:07:11.994Z</time></trkpt><trkpt lat="42.1463317" lon="12.13034"><ele>419.66666666666663</ele><time>2026-04-26T13:07:12.997Z</time></trkpt><trkpt lat="42.1461933" lon="12.1302367"><ele>422.0</ele><time>2026-04-26T13:07:13.992Z</time></trkpt><trkpt lat="42.146045" lon="12.1301583"><ele>422.0</ele><time>2026-04-26T13:07:14.993Z</time></trkpt><trkpt lat="42.1458833" lon="12.1301083"><ele>422.0</ele><time>2026-04-26T13:07:15.992Z</time></trkpt><trkpt lat="42.1457117" lon="12.1300817"><ele>422.0</ele><time>2026-04-26T13:07:16.992Z</time></trkpt><trkpt lat="42.1455367" lon="12.13008"><ele>424.3333333333333</ele><time>2026-04-26T13:07:17.99Z</time></trkpt><trkpt lat="42.1453633" lon="12.1300767"><ele>426.66666666666663</ele><time>2026-04-26T13:07:18.988Z</time></trkpt><trkpt lat="42.1451867" lon="12.1300683"><ele>429.0</ele><time>2026-04-26T13:07:20Z</time></trkpt><trkpt lat="42.1450067" lon="12.1300567"><ele>428.33333333333337</ele><time>2026-04-26T13:07:20.99Z</time></trkpt><trkpt lat="42.144825" lon="12.130045"><ele>427.6666666666667</ele><time>2026-04-26T13:07:21.993Z</time></trkpt><trkpt lat="42.1446467" lon="12.130025"><ele>427.0</ele><time>2026-04-26T13:07:22.99Z</time></trkpt><trkpt lat="42.144475" lon="12.1299967"><ele>427.0</ele><time>2026-04-26T13:07:23.994Z</time></trkpt><trkpt lat="42.1443017" lon="12.1299633"><ele>427.0</ele><time>2026-04-26T13:07:24.992Z</time></trkpt><trkpt lat="42.1441267" lon="12.1299333"><ele>427.0</ele><time>2026-04-26T13:07:25.992Z</time></trkpt><trkpt lat="42.14395" lon="12.1299183"><ele>425.33333333333337</ele><time>2026-04-26T13:07:26.993Z</time></trkpt><trkpt lat="42.14378" lon="12.1299083"><ele>423.66666666666663</ele><time>2026-04-26T13:07:27.998Z</time></trkpt><trkpt lat="42.1436083" lon="12.129905"><ele>422.0</ele><time>2026-04-26T13:07:28.992Z</time></trkpt><trkpt lat="42.143435" lon="12.1299117"><ele>422.0</ele><time>2026-04-26T13:07:29.991Z</time></trkpt><trkpt lat="42.1432517" lon="12.1299367"><ele>422.0</ele><time>2026-04-26T13:07:30.991Z</time></trkpt><trkpt lat="42.1430517" lon="12.1299867"><ele>422.0</ele><time>2026-04-26T13:07:31.994Z</time></trkpt><trkpt lat="42.1428333" lon="12.130055"><ele>420.66666666666663</ele><time>2026-04-26T13:07:32.992Z</time></trkpt><trkpt lat="42.14261" lon="12.130135"><ele>419.33333333333337</ele><time>2026-04-26T13:07:33.99Z</time></trkpt><trkpt lat="42.1424033" lon="12.1302133"><ele>418.0</ele><time>2026-04-26T13:07:34.995Z</time></trkpt><trkpt lat="42.1422217" lon="12.1302783"><ele>417.6666666666667</ele><time>2026-04-26T13:07:35.993Z</time></trkpt><trkpt lat="42.142055" lon="12.1303333"><ele>417.33333333333337</ele><time>2026-04-26T13:07:36.992Z</time></trkpt><trkpt lat="42.1418883" lon="12.1303717"><ele>417.0</ele><time>2026-04-26T13:07:37.994Z</time></trkpt><trkpt lat="42.141725" lon="12.13038"><ele>417.0</ele><time>2026-04-26T13:07:38.992Z</time></trkpt><trkpt lat="42.1415633" lon="12.1303467"><ele>417.0</ele><time>2026-04-26T13:07:39.993Z</time></trkpt><trkpt lat="42.141405" lon="12.1302783"><ele>417.0</ele><time>2026-04-26T13:07:40.999Z</time></trkpt><trkpt lat="42.1412533" lon="12.13016"><ele>416.0</ele><time>2026-04-26T13:07:41.997Z</time></trkpt><trkpt lat="42.1411133" lon="12.1299967"><ele>415.0</ele><time>2026-04-26T13:07:42.995Z</time></trkpt><trkpt lat="42.1409817" lon="12.12979"><ele>414.0</ele><time>2026-04-26T13:07:43.994Z</time></trkpt><trkpt lat="42.1408583" lon="12.1295533"><ele>414.0</ele><time>2026-04-26T13:07:45.002Z</time></trkpt><trkpt lat="42.14074" lon="12.1293217"><ele>414.0</ele><time>2026-04-26T13:07:45.992Z</time></trkpt><trkpt lat="42.1406233" lon="12.129105"><ele>414.0</ele><time>2026-04-26T13:07:46.997Z</time></trkpt><trkpt lat="42.1405067" lon="12.1289067"><ele>413.0</ele><time>2026-04-26T13:07:47.994Z</time></trkpt><trkpt lat="42.1403817" lon="12.12874"><ele>412.0</ele><time>2026-04-26T13:07:48.995Z</time></trkpt><trkpt lat="42.1402483" lon="12.1286"><ele>411.0</ele><time>2026-04-26T13:07:49.998Z</time></trkpt><trkpt lat="42.1401067" lon="12.1284833"><ele>411.0</ele><time>2026-04-26T13:07:50.992Z</time></trkpt><trkpt lat="42.1399483" lon="12.12839"><ele>411.0</ele><time>2026-04-26T13:07:51.994Z</time></trkpt><trkpt lat="42.13978" lon="12.1283083"><ele>411.0</ele><time>2026-04-26T13:07:52.992Z</time></trkpt><trkpt lat="42.139605" lon="12.128235"><ele>414.0</ele><time>2026-04-26T13:07:53.992Z</time></trkpt><trkpt lat="42.1394267" lon="12.1281683"><ele>417.0</ele><time>2026-04-26T13:07:54.996Z</time></trkpt><trkpt lat="42.1392517" lon="12.128105"><ele>420.0</ele><time>2026-04-26T13:07:55.997Z</time></trkpt><trkpt lat="42.13908" lon="12.1280383"><ele>415.0</ele><time>2026-04-26T13:07:56.992Z</time></trkpt><trkpt lat="42.1389083" lon="12.127975"><ele>410.0</ele><time>2026-04-26T13:07:57.994Z</time></trkpt><trkpt lat="42.1387417" lon="12.1279167"><ele>405.0</ele><time>2026-04-26T13:07:58.988Z</time></trkpt><trkpt lat="42.138575" lon="12.1278583"><ele>405.0</ele><time>2026-04-26T13:07:59.993Z</time></trkpt><trkpt lat="42.1384033" lon="12.1277967"><ele>405.0</ele><time>2026-04-26T13:08:00.995Z</time></trkpt><trkpt lat="42.1382317" lon="12.1277367"><ele>405.0</ele><time>2026-04-26T13:08:01.998Z</time></trkpt><trkpt lat="42.138055" lon="12.1276767"><ele>402.0</ele><time>2026-04-26T13:08:02.994Z</time></trkpt><trkpt lat="42.1378733" lon="12.1276133"><ele>399.0</ele><time>2026-04-26T13:08:03.992Z</time></trkpt><trkpt lat="42.13769" lon="12.1275483"><ele>396.0</ele><time>2026-04-26T13:08:05.001Z</time></trkpt><trkpt lat="42.1375117" lon="12.127485"><ele>396.33333333333337</ele><time>2026-04-26T13:08:05.992Z</time></trkpt><trkpt lat="42.1373317" lon="12.12742"><ele>396.6666666666667</ele><time>2026-04-26T13:08:06.993Z</time></trkpt><trkpt lat="42.1371517" lon="12.127355"><ele>397.0</ele><time>2026-04-26T13:08:07.994Z</time></trkpt><trkpt lat="42.1369733" lon="12.1272917"><ele>396.0</ele><time>2026-04-26T13:08:09Z</time></trkpt><trkpt lat="42.136795" lon="12.1272283"><ele>395.0</ele><time>2026-04-26T13:08:09.995Z</time></trkpt><trkpt lat="42.1366183" lon="12.12717"><ele>394.0</ele><time>2026-04-26T13:08:10.99Z</time></trkpt><trkpt lat="42.1364467" lon="12.1271217"><ele>394.0</ele><time>2026-04-26T13:08:11.99Z</time></trkpt><trkpt lat="42.136285" lon="12.1270683"><ele>394.0</ele><time>2026-04-26T13:08:12.994Z</time></trkpt><trkpt lat="42.1361233" lon="12.1270133"><ele>394.0</ele><time>2026-04-26T13:08:13.994Z</time></trkpt><trkpt lat="42.13596" lon="12.1269533"><ele>394.0</ele><time>2026-04-26T13:08:14.992Z</time></trkpt><trkpt lat="42.1357933" lon="12.1268983"><ele>394.0</ele><time>2026-04-26T13:08:15.994Z</time></trkpt><trkpt lat="42.1356283" lon="12.1268467"><ele>394.0</ele><time>2026-04-26T13:08:16.991Z</time></trkpt><trkpt lat="42.135465" lon="12.1268017"><ele>391.6666666666667</ele><time>2026-04-26T13:08:17.994Z</time></trkpt><trkpt lat="42.1353033" lon="12.12675"><ele>389.33333333333337</ele><time>2026-04-26T13:08:18.988Z</time></trkpt><trkpt lat="42.1351417" lon="12.1266983"><ele>387.0</ele><time>2026-04-26T13:08:19.995Z</time></trkpt><trkpt lat="42.1349817" lon="12.12665"><ele>384.3333333333333</ele><time>2026-04-26T13:08:20.99Z</time></trkpt><trkpt lat="42.1348217" lon="12.1265983"><ele>381.66666666666663</ele><time>2026-04-26T13:08:21.993Z</time></trkpt><trkpt lat="42.1346617" lon="12.1265483"><ele>379.0</ele><time>2026-04-26T13:08:22.99Z</time></trkpt><trkpt lat="42.1345017" lon="12.1265"><ele>378.3333333333333</ele><time>2026-04-26T13:08:23.994Z</time></trkpt><trkpt lat="42.134345" lon="12.12645"><ele>377.6666666666667</ele><time>2026-04-26T13:08:24.993Z</time></trkpt><trkpt lat="42.1341933" lon="12.1264033"><ele>377.0</ele><time>2026-04-26T13:08:25.996Z</time></trkpt><trkpt lat="42.1340433" lon="12.1263617"><ele>376.0</ele><time>2026-04-26T13:08:26.989Z</time></trkpt><trkpt lat="42.1338783" lon="12.1263267"><ele>375.0</ele><time>2026-04-26T13:08:27.991Z</time></trkpt><trkpt lat="42.1336983" lon="12.12632"><ele>374.0</ele><time>2026-04-26T13:08:28.998Z</time></trkpt><trkpt lat="42.1335167" lon="12.1263367"><ele>374.0</ele><time>2026-04-26T13:08:29.991Z</time></trkpt><trkpt lat="42.1333417" lon="12.1263617"><ele>374.0</ele><time>2026-04-26T13:08:30.994Z</time></trkpt><trkpt lat="42.133175" lon="12.1263817"><ele>374.0</ele><time>2026-04-26T13:08:31.994Z</time></trkpt><trkpt lat="42.13302" lon="12.1264"><ele>372.75</ele><time>2026-04-26T13:08:32.997Z</time></trkpt><trkpt lat="42.1328733" lon="12.1264167"><ele>371.5</ele><time>2026-04-26T13:08:33.99Z</time></trkpt><trkpt lat="42.13273" lon="12.1264383"><ele>370.25</ele><time>2026-04-26T13:08:34.993Z</time></trkpt><trkpt lat="42.132585" lon="12.1264567"><ele>369.0</ele><time>2026-04-26T13:08:36.003Z</time></trkpt><trkpt lat="42.1324467" lon="12.1264767"><ele>368.75</ele><time>2026-04-26T13:08:36.988Z</time></trkpt><trkpt lat="42.13232" lon="12.1264883"><ele>368.5</ele><time>2026-04-26T13:08:37.993Z</time></trkpt><trkpt lat="42.1321967" lon="12.1265017"><ele>368.25</ele><time>2026-04-26T13:08:38.989Z</time></trkpt><trkpt lat="42.1320717" lon="12.1265217"><ele>368.0</ele><time>2026-04-26T13:08:39.988Z</time></trkpt><trkpt lat="42.1319417" lon="12.1265467"><ele>368.25</ele><time>2026-04-26T13:08:40.989Z</time></trkpt><trkpt lat="42.1318083" lon="12.1265717"><ele>368.5</ele><time>2026-04-26T13:08:41.989Z</time></trkpt><trkpt lat="42.131675" lon="12.126595"><ele>368.75</ele><time>2026-04-26T13:08:42.99Z</time></trkpt><trkpt lat="42.1315333" lon="12.1266167"><ele>369.0</ele><time>2026-04-26T13:08:43.988Z</time></trkpt><trkpt lat="42.1313967" lon="12.1266333"><ele>368.2</ele><time>2026-04-26T13:08:44.991Z</time></trkpt><trkpt lat="42.1312733" lon="12.1266483"><ele>367.4</ele><time>2026-04-26T13:08:45.99Z</time></trkpt><trkpt lat="42.1311633" lon="12.1266517"><ele>366.6</ele><time>2026-04-26T13:08:46.994Z</time></trkpt><trkpt lat="42.1310583" lon="12.1266583"><ele>365.8</ele><time>2026-04-26T13:08:47.996Z</time></trkpt><trkpt lat="42.1309633" lon="12.1266683"><ele>365.0</ele><time>2026-04-26T13:08:48.987Z</time></trkpt><trkpt lat="42.1308783" lon="12.1266733"><ele>365.0</ele><time>2026-04-26T13:08:49.997Z</time></trkpt><trkpt lat="42.1307917" lon="12.1266817"><ele>365.0</ele><time>2026-04-26T13:08:50.988Z</time></trkpt><trkpt lat="42.13071" lon="12.12669"><ele>365.0</ele><time>2026-04-26T13:08:51.992Z</time></trkpt><trkpt lat="42.1306283" lon="12.1267033"><ele>365.0</ele><time>2026-04-26T13:08:52.991Z</time></trkpt><trkpt lat="42.1305317" lon="12.1267167"><ele>365.0</ele><time>2026-04-26T13:08:53.99Z</time></trkpt><trkpt lat="42.130425" lon="12.1267367"><ele>364.5</ele><time>2026-04-26T13:08:54.992Z</time></trkpt><trkpt lat="42.1302967" lon="12.1267617"><ele>364.0</ele><time>2026-04-26T13:08:55.989Z</time></trkpt><trkpt lat="42.13015" lon="12.1267867"><ele>363.5</ele><time>2026-04-26T13:08:56.988Z</time></trkpt><trkpt lat="42.1299933" lon="12.1268"><ele>363.0</ele><time>2026-04-26T13:08:57.988Z</time></trkpt><trkpt lat="42.1298283" lon="12.1268"><ele>362.0</ele><time>2026-04-26T13:08:58.99Z</time></trkpt><trkpt lat="42.12967" lon="12.1267867"><ele>361.0</ele><time>2026-04-26T13:08:59.994Z</time></trkpt><trkpt lat="42.1295117" lon="12.12675"><ele>360.0</ele><time>2026-04-26T13:09:00.993Z</time></trkpt><trkpt lat="42.1293583" lon="12.1267017"><ele>360.0</ele><time>2026-04-26T13:09:01.991Z</time></trkpt><trkpt lat="42.1292117" lon="12.12665"><ele>360.0</ele><time>2026-04-26T13:09:02.998Z</time></trkpt><trkpt lat="42.1290717" lon="12.1265983"><ele>360.0</ele><time>2026-04-26T13:09:03.989Z</time></trkpt><trkpt lat="42.1289317" lon="12.1265483"><ele>360.0</ele><time>2026-04-26T13:09:04.989Z</time></trkpt><trkpt lat="42.128795" lon="12.1264933"><ele>359.0</ele><time>2026-04-26T13:09:05.993Z</time></trkpt><trkpt lat="42.1286617" lon="12.12644"><ele>358.0</ele><time>2026-04-26T13:09:06.992Z</time></trkpt><trkpt lat="42.128525" lon="12.12639"><ele>357.0</ele><time>2026-04-26T13:09:07.99Z</time></trkpt><trkpt lat="42.1283933" lon="12.1263367"><ele>356.0</ele><time>2026-04-26T13:09:08.99Z</time></trkpt><trkpt lat="42.128265" lon="12.12628"><ele>355.5</ele><time>2026-04-26T13:09:09.99Z</time></trkpt><trkpt lat="42.1281383" lon="12.1262067"><ele>355.0</ele><time>2026-04-26T13:09:10.994Z</time></trkpt><trkpt lat="42.1280183" lon="12.1261233"><ele>354.5</ele><time>2026-04-26T13:09:11.995Z</time></trkpt><trkpt lat="42.1279083" lon="12.1260367"><ele>354.0</ele><time>2026-04-26T13:09:12.991Z</time></trkpt><trkpt lat="42.1278083" lon="12.1259467"><ele>354.0</ele><time>2026-04-26T13:09:13.991Z</time></trkpt><trkpt lat="42.127715" lon="12.12586"><ele>354.0</ele><time>2026-04-26T13:09:14.997Z</time></trkpt><trkpt lat="42.1276183" lon="12.12577"><ele>354.0</ele><time>2026-04-26T13:09:15.991Z</time></trkpt><trkpt lat="42.12752" lon="12.1256767"><ele>354.0</ele><time>2026-04-26T13:09:16.989Z</time></trkpt><trkpt lat="42.12742" lon="12.125575"><ele>354.25</ele><time>2026-04-26T13:09:17.99Z</time></trkpt><trkpt lat="42.12732" lon="12.125475"><ele>354.5</ele><time>2026-04-26T13:09:18.993Z</time></trkpt><trkpt lat="42.1272233" lon="12.125375"><ele>354.75</ele><time>2026-04-26T13:09:19.994Z</time></trkpt><trkpt lat="42.12713" lon="12.12528"><ele>355.0</ele><time>2026-04-26T13:09:20.997Z</time></trkpt><trkpt lat="42.1270383" lon="12.1251817"><ele>355.0</ele><time>2026-04-26T13:09:21.994Z</time></trkpt><trkpt lat="42.1269467" lon="12.1250883"><ele>355.0</ele><time>2026-04-26T13:09:22.997Z</time></trkpt><trkpt lat="42.1268533" lon="12.1249933"><ele>355.0</ele><time>2026-04-26T13:09:23.995Z</time></trkpt><trkpt lat="42.1267617" lon="12.124895"><ele>355.0</ele><time>2026-04-26T13:09:24.989Z</time></trkpt><trkpt lat="42.1266683" lon="12.1247967"><ele>355.0</ele><time>2026-04-26T13:09:25.995Z</time></trkpt><trkpt lat="42.126575" lon="12.1247"><ele>355.0</ele><time>2026-04-26T13:09:26.995Z</time></trkpt><trkpt lat="42.126485" lon="12.124605"><ele>355.0</ele><time>2026-04-26T13:09:27.993Z</time></trkpt><trkpt lat="42.1263983" lon="12.1245117"><ele>355.0</ele><time>2026-04-26T13:09:28.996Z</time></trkpt><trkpt lat="42.1263133" lon="12.1244167"><ele>355.0</ele><time>2026-04-26T13:09:29.993Z</time></trkpt><trkpt lat="42.1262267" lon="12.1243233"><ele>355.0</ele><time>2026-04-26T13:09:31.001Z</time></trkpt><trkpt lat="42.1261367" lon="12.124235"><ele>355.0</ele><time>2026-04-26T13:09:32Z</time></trkpt><trkpt lat="42.12605" lon="12.1241433"><ele>355.0</ele><time>2026-04-26T13:09:32.989Z</time></trkpt><trkpt lat="42.12596" lon="12.1240533"><ele>355.0</ele><time>2026-04-26T13:09:33.997Z</time></trkpt><trkpt lat="42.125865" lon="12.12397"><ele>355.0</ele><time>2026-04-26T13:09:34.996Z</time></trkpt><trkpt lat="42.1257667" lon="12.12388"><ele>355.0</ele><time>2026-04-26T13:09:35.99Z</time></trkpt><trkpt lat="42.1256617" lon="12.1237933"><ele>355.0</ele><time>2026-04-26T13:09:36.995Z</time></trkpt><trkpt lat="42.125555" lon="12.1237117"><ele>355.0</ele><time>2026-04-26T13:09:37.991Z</time></trkpt><trkpt lat="42.1254517" lon="12.1236417"><ele>355.0</ele><time>2026-04-26T13:09:38.991Z</time></trkpt><trkpt lat="42.1253517" lon="12.1235767"><ele>355.0</ele><time>2026-04-26T13:09:39.989Z</time></trkpt><trkpt lat="42.1252483" lon="12.12351"><ele>355.0</ele><time>2026-04-26T13:09:40.994Z</time></trkpt><trkpt lat="42.125145" lon="12.1234433"><ele>355.0</ele><time>2026-04-26T13:09:41.994Z</time></trkpt><trkpt lat="42.12504" lon="12.1233767"><ele>355.0</ele><time>2026-04-26T13:09:42.993Z</time></trkpt><trkpt lat="42.124935" lon="12.12331"><ele>355.0</ele><time>2026-04-26T13:09:43.995Z</time></trkpt><trkpt lat="42.1248317" lon="12.123245"><ele>355.0</ele><time>2026-04-26T13:09:44.992Z</time></trkpt><trkpt lat="42.1247283" lon="12.1231867"><ele>355.0</ele><time>2026-04-26T13:09:45.996Z</time></trkpt><trkpt lat="42.1246233" lon="12.1231283"><ele>356.25</ele><time>2026-04-26T13:09:46.995Z</time></trkpt><trkpt lat="42.1245167" lon="12.12307"><ele>357.5</ele><time>2026-04-26T13:09:47.995Z</time></trkpt><trkpt lat="42.1244067" lon="12.1230183"><ele>358.75</ele><time>2026-04-26T13:09:48.996Z</time></trkpt><trkpt lat="42.1242917" lon="12.1229817"><ele>360.0</ele><time>2026-04-26T13:09:50.001Z</time></trkpt><trkpt lat="42.1241733" lon="12.122955"><ele>362.0</ele><time>2026-04-26T13:09:50.992Z</time></trkpt><trkpt lat="42.124055" lon="12.1229367"><ele>364.0</ele><time>2026-04-26T13:09:51.992Z</time></trkpt><trkpt lat="42.123935" lon="12.12293"><ele>366.0</ele><time>2026-04-26T13:09:52.993Z</time></trkpt><trkpt lat="42.1238217" lon="12.122925"><ele>368.0</ele><time>2026-04-26T13:09:54.002Z</time></trkpt><trkpt lat="42.1237117" lon="12.1229283"><ele>368.0</ele><time>2026-04-26T13:09:54.997Z</time></trkpt><trkpt lat="42.123605" lon="12.1229383"><ele>368.0</ele><time>2026-04-26T13:09:55.989Z</time></trkpt><trkpt lat="42.1235033" lon="12.1229617"><ele>368.0</ele><time>2026-04-26T13:09:56.991Z</time></trkpt><trkpt lat="42.1233967" lon="12.12299"><ele>368.0</ele><time>2026-04-26T13:09:57.99Z</time></trkpt><trkpt lat="42.12329" lon="12.12303"><ele>368.0</ele><time>2026-04-26T13:09:58.988Z</time></trkpt><trkpt lat="42.1231817" lon="12.1230733"><ele>368.5</ele><time>2026-04-26T13:09:59.999Z</time></trkpt><trkpt lat="42.1230817" lon="12.12313"><ele>369.0</ele><time>2026-04-26T13:10:00.996Z</time></trkpt><trkpt lat="42.1229767" lon="12.1232"><ele>369.5</ele><time>2026-04-26T13:10:01.99Z</time></trkpt><trkpt lat="42.1228817" lon="12.1232883"><ele>370.0</ele><time>2026-04-26T13:10:02.992Z</time></trkpt><trkpt lat="42.1227867" lon="12.1233883"><ele>370.0</ele><time>2026-04-26T13:10:03.991Z</time></trkpt><trkpt lat="42.1226933" lon="12.12349"><ele>370.0</ele><time>2026-04-26T13:10:04.998Z</time></trkpt><trkpt lat="42.122605" lon="12.1236017"><ele>370.0</ele><time>2026-04-26T13:10:05.989Z</time></trkpt><trkpt lat="42.12252" lon="12.1237217"><ele>370.0</ele><time>2026-04-26T13:10:06.989Z</time></trkpt><trkpt lat="42.1224333" lon="12.1238383"><ele>369.5</ele><time>2026-04-26T13:10:07.988Z</time></trkpt><trkpt lat="42.1223417" lon="12.1239767"><ele>369.0</ele><time>2026-04-26T13:10:08.992Z</time></trkpt><trkpt lat="42.12224" lon="12.124125"><ele>368.5</ele><time>2026-04-26T13:10:09.99Z</time></trkpt><trkpt lat="42.122135" lon="12.1242733"><ele>368.0</ele><time>2026-04-26T13:10:10.995Z</time></trkpt><trkpt lat="42.12203" lon="12.1244167"><ele>368.0</ele><time>2026-04-26T13:10:11.998Z</time></trkpt><trkpt lat="42.121935" lon="12.1245517"><ele>368.0</ele><time>2026-04-26T13:10:12.99Z</time></trkpt><trkpt lat="42.121835" lon="12.1246833"><ele>368.0</ele><time>2026-04-26T13:10:13.995Z</time></trkpt><trkpt lat="42.1217383" lon="12.124815"><ele>368.0</ele><time>2026-04-26T13:10:14.989Z</time></trkpt><trkpt lat="42.1216433" lon="12.1249383"><ele>367.0</ele><time>2026-04-26T13:10:15.994Z</time></trkpt><trkpt lat="42.1215517" lon="12.1250567"><ele>366.0</ele><time>2026-04-26T13:10:16.991Z</time></trkpt><trkpt lat="42.12146" lon="12.1251683"><ele>365.0</ele><time>2026-04-26T13:10:17.991Z</time></trkpt><trkpt lat="42.1213667" lon="12.1252833"><ele>364.0</ele><time>2026-04-26T13:10:18.998Z</time></trkpt><trkpt lat="42.1212683" lon="12.125405"><ele>364.0</ele><time>2026-04-26T13:10:19.998Z</time></trkpt><trkpt lat="42.12117" lon="12.1255233"><ele>364.0</ele><time>2026-04-26T13:10:20.996Z</time></trkpt><trkpt lat="42.12107" lon="12.12564"><ele>364.0</ele><time>2026-04-26T13:10:21.991Z</time></trkpt><trkpt lat="42.1209717" lon="12.1257317"><ele>364.0</ele><time>2026-04-26T13:10:22.991Z</time></trkpt><trkpt lat="42.1208783" lon="12.1258033"><ele>362.4</ele><time>2026-04-26T13:10:23.999Z</time></trkpt><trkpt lat="42.120785" lon="12.1258617"><ele>360.79999999999995</ele><time>2026-04-26T13:10:24.992Z</time></trkpt><trkpt lat="42.1206883" lon="12.125905"><ele>359.20000000000005</ele><time>2026-04-26T13:10:25.992Z</time></trkpt><trkpt lat="42.1205883" lon="12.1259333"><ele>357.6</ele><time>2026-04-26T13:10:26.997Z</time></trkpt><trkpt lat="42.12049" lon="12.1259533"><ele>356.0</ele><time>2026-04-26T13:10:27.988Z</time></trkpt><trkpt lat="42.1203983" lon="12.1259683"><ele>355.6666666666667</ele><time>2026-04-26T13:10:28.994Z</time></trkpt><trkpt lat="42.12031" lon="12.125975"><ele>355.33333333333337</ele><time>2026-04-26T13:10:29.99Z</time></trkpt><trkpt lat="42.1202283" lon="12.1259767"><ele>355.0</ele><time>2026-04-26T13:10:30.989Z</time></trkpt><trkpt lat="42.1201517" lon="12.1259783"><ele>354.6666666666667</ele><time>2026-04-26T13:10:31.99Z</time></trkpt><trkpt lat="42.1200783" lon="12.1259733"><ele>354.3333333333333</ele><time>2026-04-26T13:10:32.989Z</time></trkpt><trkpt lat="42.1200033" lon="12.12597"><ele>354.0</ele><time>2026-04-26T13:10:33.994Z</time></trkpt><trkpt lat="42.1199217" lon="12.1259617"><ele>353.1666666666667</ele><time>2026-04-26T13:10:34.99Z</time></trkpt><trkpt lat="42.1198383" lon="12.12595"><ele>352.3333333333333</ele><time>2026-04-26T13:10:35.989Z</time></trkpt><trkpt lat="42.1197517" lon="12.125935"><ele>351.5</ele><time>2026-04-26T13:10:36.989Z</time></trkpt><trkpt lat="42.119665" lon="12.12592"><ele>350.66666666666663</ele><time>2026-04-26T13:10:37.992Z</time></trkpt><trkpt lat="42.1195783" lon="12.1259"><ele>349.8333333333333</ele><time>2026-04-26T13:10:38.994Z</time></trkpt><trkpt lat="42.119495" lon="12.1258817"><ele>349.0</ele><time>2026-04-26T13:10:39.994Z</time></trkpt><trkpt lat="42.1194233" lon="12.1258683"><ele>349.0</ele><time>2026-04-26T13:10:40.994Z</time></trkpt><trkpt lat="42.1193367" lon="12.125855"><ele>349.0</ele><time>2026-04-26T13:10:42.991Z</time></trkpt><trkpt lat="42.1192717" lon="12.1258533"><ele>349.0</ele><time>2026-04-26T13:10:44.99Z</time></trkpt><trkpt lat="42.1192067" lon="12.1258367"><ele>349.0</ele><time>2026-04-26T13:10:48.992Z</time></trkpt><trkpt lat="42.1190867" lon="12.1258233"><ele>349.0</ele><time>2026-04-26T13:10:51Z</time></trkpt><trkpt lat="42.1190017" lon="12.1258017"><ele>349.0</ele><time>2026-04-26T13:10:51.995Z</time></trkpt><trkpt lat="42.1188817" lon="12.1257617"><ele>350.0</ele><time>2026-04-26T13:10:52.995Z</time></trkpt><trkpt lat="42.1187417" lon="12.1257233"><ele>351.0</ele><time>2026-04-26T13:10:53.997Z</time></trkpt><trkpt lat="42.1186" lon="12.1256767"><ele>352.0</ele><time>2026-04-26T13:10:54.988Z</time></trkpt><trkpt lat="42.1184567" lon="12.1256267"><ele>353.0</ele><time>2026-04-26T13:10:55.989Z</time></trkpt><trkpt lat="42.11831" lon="12.1255683"><ele>351.33333333333337</ele><time>2026-04-26T13:10:56.994Z</time></trkpt><trkpt lat="42.1181567" lon="12.1255183"><ele>349.6666666666667</ele><time>2026-04-26T13:10:57.991Z</time></trkpt><trkpt lat="42.117995" lon="12.12547"><ele>348.0</ele><time>2026-04-26T13:10:58.991Z</time></trkpt><trkpt lat="42.1178283" lon="12.1254133"><ele>348.0</ele><time>2026-04-26T13:10:59.991Z</time></trkpt><trkpt lat="42.1176567" lon="12.12536"><ele>348.0</ele><time>2026-04-26T13:11:00.991Z</time></trkpt><trkpt lat="42.117485" lon="12.125305"><ele>348.0</ele><time>2026-04-26T13:11:01.992Z</time></trkpt><trkpt lat="42.1173083" lon="12.1252533"><ele>344.6666666666667</ele><time>2026-04-26T13:11:02.999Z</time></trkpt><trkpt lat="42.1171333" lon="12.1251983"><ele>341.33333333333337</ele><time>2026-04-26T13:11:03.99Z</time></trkpt><trkpt lat="42.1169667" lon="12.1251517"><ele>338.0</ele><time>2026-04-26T13:11:04.997Z</time></trkpt><trkpt lat="42.1168083" lon="12.1251033"><ele>338.0</ele><time>2026-04-26T13:11:05.997Z</time></trkpt><trkpt lat="42.11666" lon="12.1250617"><ele>338.0</ele><time>2026-04-26T13:11:06.992Z</time></trkpt><trkpt lat="42.1165117" lon="12.1250117"><ele>338.0</ele><time>2026-04-26T13:11:07.995Z</time></trkpt><trkpt lat="42.1163633" lon="12.1249617"><ele>336.6666666666667</ele><time>2026-04-26T13:11:08.993Z</time></trkpt><trkpt lat="42.11621" lon="12.1249167"><ele>335.3333333333333</ele><time>2026-04-26T13:11:09.995Z</time></trkpt><trkpt lat="42.1160517" lon="12.1248683"><ele>334.0</ele><time>2026-04-26T13:11:10.992Z</time></trkpt><trkpt lat="42.1158917" lon="12.12482"><ele>332.66666666666663</ele><time>2026-04-26T13:11:12.004Z</time></trkpt><trkpt lat="42.11573" lon="12.1247717"><ele>331.3333333333333</ele><time>2026-04-26T13:11:12.992Z</time></trkpt><trkpt lat="42.1155683" lon="12.1247267"><ele>330.0</ele><time>2026-04-26T13:11:13.992Z</time></trkpt><trkpt lat="42.1154067" lon="12.124685"><ele>330.0</ele><time>2026-04-26T13:11:14.99Z</time></trkpt><trkpt lat="42.1152483" lon="12.12464"><ele>330.0</ele><time>2026-04-26T13:11:15.991Z</time></trkpt><trkpt lat="42.115095" lon="12.1245933"><ele>330.0</ele><time>2026-04-26T13:11:16.997Z</time></trkpt><trkpt lat="42.1149483" lon="12.124555"><ele>330.75</ele><time>2026-04-26T13:11:17.993Z</time></trkpt><trkpt lat="42.1148067" lon="12.1245183"><ele>331.5</ele><time>2026-04-26T13:11:18.994Z</time></trkpt><trkpt lat="42.1146667" lon="12.1244867"><ele>332.25</ele><time>2026-04-26T13:11:19.997Z</time></trkpt><trkpt lat="42.1145233" lon="12.1244617"><ele>333.0</ele><time>2026-04-26T13:11:20.991Z</time></trkpt><trkpt lat="42.1143767" lon="12.1244517"><ele>333.0</ele><time>2026-04-26T13:11:21.991Z</time></trkpt><trkpt lat="42.114235" lon="12.124455"><ele>333.0</ele><time>2026-04-26T13:11:22.991Z</time></trkpt><trkpt lat="42.1141" lon="12.1244717"><ele>333.0</ele><time>2026-04-26T13:11:23.991Z</time></trkpt><trkpt lat="42.1139717" lon="12.1244983"><ele>333.0</ele><time>2026-04-26T13:11:24.993Z</time></trkpt><trkpt lat="42.11385" lon="12.1245367"><ele>332.75</ele><time>2026-04-26T13:11:25.992Z</time></trkpt><trkpt lat="42.1137333" lon="12.12458"><ele>332.5</ele><time>2026-04-26T13:11:26.993Z</time></trkpt><trkpt lat="42.1136117" lon="12.1246133"><ele>332.25</ele><time>2026-04-26T13:11:27.991Z</time></trkpt><trkpt lat="42.113485" lon="12.124615"><ele>332.0</ele><time>2026-04-26T13:11:28.999Z</time></trkpt><trkpt lat="42.11335" lon="12.124585"><ele>333.33333333333337</ele><time>2026-04-26T13:11:29.999Z</time></trkpt><trkpt lat="42.113205" lon="12.1245167"><ele>334.6666666666667</ele><time>2026-04-26T13:11:30.993Z</time></trkpt><trkpt lat="42.1130483" lon="12.1244083"><ele>336.0</ele><time>2026-04-26T13:11:31.992Z</time></trkpt><trkpt lat="42.11288" lon="12.124265"><ele>336.0</ele><time>2026-04-26T13:11:32.99Z</time></trkpt><trkpt lat="42.1126917" lon="12.1241117"><ele>336.0</ele><time>2026-04-26T13:11:33.99Z</time></trkpt><trkpt lat="42.1124917" lon="12.1239483"><ele>338.0</ele><time>2026-04-26T13:11:34.995Z</time></trkpt><trkpt lat="42.1122833" lon="12.1237817"><ele>340.0</ele><time>2026-04-26T13:11:35.987Z</time></trkpt><trkpt lat="42.1120733" lon="12.12362"><ele>340.0</ele><time>2026-04-26T13:11:36.992Z</time></trkpt><trkpt lat="42.11187" lon="12.1234633"><ele>340.0</ele><time>2026-04-26T13:11:37.99Z</time></trkpt><trkpt lat="42.1116717" lon="12.1233117"><ele>345.0</ele><time>2026-04-26T13:11:38.991Z</time></trkpt><trkpt lat="42.111475" lon="12.1231667"><ele>350.0</ele><time>2026-04-26T13:11:39.992Z</time></trkpt><trkpt lat="42.111275" lon="12.1230183"><ele>350.0</ele><time>2026-04-26T13:11:40.993Z</time></trkpt><trkpt lat="42.1110667" lon="12.1228717"><ele>350.0</ele><time>2026-04-26T13:11:41.994Z</time></trkpt><trkpt lat="42.1108517" lon="12.1227117"><ele>350.5</ele><time>2026-04-26T13:11:42.992Z</time></trkpt><trkpt lat="42.11064" lon="12.122545"><ele>351.0</ele><time>2026-04-26T13:11:43.997Z</time></trkpt><trkpt lat="42.110435" lon="12.1223817"><ele>351.0</ele><time>2026-04-26T13:11:44.99Z</time></trkpt><trkpt lat="42.110235" lon="12.1222183"><ele>351.0</ele><time>2026-04-26T13:11:45.992Z</time></trkpt><trkpt lat="42.1100367" lon="12.1220533"><ele>349.0</ele><time>2026-04-26T13:11:46.992Z</time></trkpt><trkpt lat="42.1098383" lon="12.1218783"><ele>347.0</ele><time>2026-04-26T13:11:47.992Z</time></trkpt><trkpt lat="42.10964" lon="12.121705"><ele>348.0</ele><time>2026-04-26T13:11:48.997Z</time></trkpt><trkpt lat="42.1094467" lon="12.1215383"><ele>349.0</ele><time>2026-04-26T13:11:49.996Z</time></trkpt><trkpt lat="42.1092583" lon="12.1213817"><ele>345.0</ele><time>2026-04-26T13:11:50.991Z</time></trkpt><trkpt lat="42.1090733" lon="12.1212233"><ele>341.0</ele><time>2026-04-26T13:11:51.991Z</time></trkpt><trkpt lat="42.10888" lon="12.1210517"><ele>341.0</ele><time>2026-04-26T13:11:52.995Z</time></trkpt><trkpt lat="42.1086817" lon="12.120885"><ele>341.0</ele><time>2026-04-26T13:11:53.992Z</time></trkpt><trkpt lat="42.1084783" lon="12.1207383"><ele>340.6666666666667</ele><time>2026-04-26T13:11:54.992Z</time></trkpt><trkpt lat="42.108275" lon="12.120615"><ele>340.3333333333333</ele><time>2026-04-26T13:11:55.998Z</time></trkpt><trkpt lat="42.1080767" lon="12.1205017"><ele>340.0</ele><time>2026-04-26T13:11:56.992Z</time></trkpt><trkpt lat="42.10789" lon="12.1203983"><ele>340.0</ele><time>2026-04-26T13:11:57.993Z</time></trkpt><trkpt lat="42.1077167" lon="12.120285"><ele>340.0</ele><time>2026-04-26T13:11:58.993Z</time></trkpt><trkpt lat="42.107555" lon="12.120145"><ele>340.0</ele><time>2026-04-26T13:12:00.03Z</time></trkpt><trkpt lat="42.1073983" lon="12.119995"><ele>339.0</ele><time>2026-04-26T13:12:00.991Z</time></trkpt><trkpt lat="42.107245" lon="12.11983"><ele>338.0</ele><time>2026-04-26T13:12:01.994Z</time></trkpt><trkpt lat="42.1070883" lon="12.1196583"><ele>337.0</ele><time>2026-04-26T13:12:02.992Z</time></trkpt><trkpt lat="42.10693" lon="12.1194867"><ele>337.0</ele><time>2026-04-26T13:12:03.992Z</time></trkpt><trkpt lat="42.1067767" lon="12.1193217"><ele>337.0</ele><time>2026-04-26T13:12:04.993Z</time></trkpt><trkpt lat="42.1066267" lon="12.1191617"><ele>337.0</ele><time>2026-04-26T13:12:05.989Z</time></trkpt><trkpt lat="42.1064833" lon="12.11901"><ele>336.3333333333333</ele><time>2026-04-26T13:12:06.993Z</time></trkpt><trkpt lat="42.10634" lon="12.11886"><ele>335.6666666666667</ele><time>2026-04-26T13:12:07.989Z</time></trkpt><trkpt lat="42.1061983" lon="12.1186967"><ele>335.0</ele><time>2026-04-26T13:12:08.99Z</time></trkpt><trkpt lat="42.1060633" lon="12.1185267"><ele>335.0</ele><time>2026-04-26T13:12:09.991Z</time></trkpt><trkpt lat="42.105935" lon="12.1183533"><ele>335.0</ele><time>2026-04-26T13:12:10.991Z</time></trkpt><trkpt lat="42.1058117" lon="12.1181717"><ele>335.0</ele><time>2026-04-26T13:12:11.995Z</time></trkpt><trkpt lat="42.1056817" lon="12.1179817"><ele>334.33333333333337</ele><time>2026-04-26T13:12:12.99Z</time></trkpt><trkpt lat="42.1055533" lon="12.1177817"><ele>333.6666666666667</ele><time>2026-04-26T13:12:13.991Z</time></trkpt><trkpt lat="42.1054317" lon="12.1175817"><ele>333.0</ele><time>2026-04-26T13:12:14.988Z</time></trkpt><trkpt lat="42.1053117" lon="12.1173933"><ele>333.0</ele><time>2026-04-26T13:12:15.995Z</time></trkpt><trkpt lat="42.105195" lon="12.1172067"><ele>333.0</ele><time>2026-04-26T13:12:16.99Z</time></trkpt><trkpt lat="42.1050783" lon="12.1170233"><ele>333.0</ele><time>2026-04-26T13:12:17.993Z</time></trkpt><trkpt lat="42.10496" lon="12.1168417"><ele>331.0</ele><time>2026-04-26T13:12:18.998Z</time></trkpt><trkpt lat="42.104835" lon="12.116665"><ele>329.0</ele><time>2026-04-26T13:12:19.995Z</time></trkpt><trkpt lat="42.1047033" lon="12.1165017"><ele>327.0</ele><time>2026-04-26T13:12:20.994Z</time></trkpt><trkpt lat="42.1045583" lon="12.116355"><ele>327.0</ele><time>2026-04-26T13:12:21.99Z</time></trkpt><trkpt lat="42.104405" lon="12.11622"><ele>327.0</ele><time>2026-04-26T13:12:22.991Z</time></trkpt><trkpt lat="42.10425" lon="12.1160967"><ele>327.0</ele><time>2026-04-26T13:12:23.992Z</time></trkpt><trkpt lat="42.104095" lon="12.1159817"><ele>326.3333333333333</ele><time>2026-04-26T13:12:24.99Z</time></trkpt><trkpt lat="42.1039533" lon="12.1158583"><ele>325.66666666666663</ele><time>2026-04-26T13:12:25.999Z</time></trkpt><trkpt lat="42.1038117" lon="12.115745"><ele>325.0</ele><time>2026-04-26T13:12:26.988Z</time></trkpt><trkpt lat="42.1036683" lon="12.1156333"><ele>325.0</ele><time>2026-04-26T13:12:27.996Z</time></trkpt><trkpt lat="42.1035217" lon="12.1155267"><ele>325.0</ele><time>2026-04-26T13:12:29Z</time></trkpt><trkpt lat="42.1033833" lon="12.1154233"><ele>325.0</ele><time>2026-04-26T13:12:29.992Z</time></trkpt><trkpt lat="42.1032517" lon="12.115325"><ele>321.75</ele><time>2026-04-26T13:12:30.993Z</time></trkpt><trkpt lat="42.10313" lon="12.115225"><ele>318.5</ele><time>2026-04-26T13:12:31.994Z</time></trkpt><trkpt lat="42.1030217" lon="12.1151267"><ele>315.25</ele><time>2026-04-26T13:12:32.995Z</time></trkpt><trkpt lat="42.102925" lon="12.1150233"><ele>312.0</ele><time>2026-04-26T13:12:33.993Z</time></trkpt><trkpt lat="42.1028283" lon="12.11492"><ele>312.25</ele><time>2026-04-26T13:12:34.995Z</time></trkpt><trkpt lat="42.1027583" lon="12.11479"><ele>312.5</ele><time>2026-04-26T13:12:35.993Z</time></trkpt><trkpt lat="42.1027167" lon="12.1146333"><ele>312.75</ele><time>2026-04-26T13:12:36.991Z</time></trkpt><trkpt lat="42.1027083" lon="12.11447"><ele>313.0</ele><time>2026-04-26T13:12:37.993Z</time></trkpt><trkpt lat="42.1027283" lon="12.1142983"><ele>313.0</ele><time>2026-04-26T13:12:38.997Z</time></trkpt><trkpt lat="42.102775" lon="12.1141167"><ele>313.0</ele><time>2026-04-26T13:12:39.993Z</time></trkpt><trkpt lat="42.1028317" lon="12.1139383"><ele>313.0</ele><time>2026-04-26T13:12:41Z</time></trkpt><trkpt lat="42.1028717" lon="12.11377"><ele>313.0</ele><time>2026-04-26T13:12:41.987Z</time></trkpt><trkpt lat="42.1028967" lon="12.11361"><ele>314.75</ele><time>2026-04-26T13:12:42.994Z</time></trkpt><trkpt lat="42.102905" lon="12.1134433"><ele>316.5</ele><time>2026-04-26T13:12:44.035Z</time></trkpt><trkpt lat="42.1028983" lon="12.1132717"><ele>318.25</ele><time>2026-04-26T13:12:44.991Z</time></trkpt><trkpt lat="42.10288" lon="12.1130967"><ele>320.0</ele><time>2026-04-26T13:12:45.993Z</time></trkpt><trkpt lat="42.1028433" lon="12.1129283"><ele>321.0</ele><time>2026-04-26T13:12:46.993Z</time></trkpt><trkpt lat="42.1027867" lon="12.1127667"><ele>322.0</ele><time>2026-04-26T13:12:47.999Z</time></trkpt><trkpt lat="42.1027117" lon="12.1126067"><ele>323.0</ele><time>2026-04-26T13:12:48.995Z</time></trkpt><trkpt lat="42.1026233" lon="12.1124583"><ele>324.0</ele><time>2026-04-26T13:12:49.993Z</time></trkpt><trkpt lat="42.1025333" lon="12.1123267"><ele>324.0</ele><time>2026-04-26T13:12:50.994Z</time></trkpt><trkpt lat="42.1024533" lon="12.1121933"><ele>324.0</ele><time>2026-04-26T13:12:51.993Z</time></trkpt><trkpt lat="42.1023783" lon="12.112055"><ele>324.0</ele><time>2026-04-26T13:12:52.996Z</time></trkpt><trkpt lat="42.1023067" lon="12.11191"><ele>324.0</ele><time>2026-04-26T13:12:53.996Z</time></trkpt><trkpt lat="42.1022433" lon="12.1117433"><ele>323.0</ele><time>2026-04-26T13:12:54.988Z</time></trkpt><trkpt lat="42.102185" lon="12.1115633"><ele>322.0</ele><time>2026-04-26T13:12:55.998Z</time></trkpt><trkpt lat="42.102135" lon="12.1113733"><ele>321.0</ele><time>2026-04-26T13:12:56.994Z</time></trkpt><trkpt lat="42.10209" lon="12.1111817"><ele>320.0</ele><time>2026-04-26T13:12:57.993Z</time></trkpt><trkpt lat="42.1020433" lon="12.1109933"><ele>320.0</ele><time>2026-04-26T13:12:58.994Z</time></trkpt><trkpt lat="42.102" lon="12.110805"><ele>320.0</ele><time>2026-04-26T13:12:59.995Z</time></trkpt><trkpt lat="42.101955" lon="12.110615"><ele>320.0</ele><time>2026-04-26T13:13:00.999Z</time></trkpt><trkpt lat="42.10191" lon="12.1104267"><ele>320.0</ele><time>2026-04-26T13:13:01.994Z</time></trkpt><trkpt lat="42.10186" lon="12.1102333"><ele>320.0</ele><time>2026-04-26T13:13:02.996Z</time></trkpt><trkpt lat="42.1018133" lon="12.1100333"><ele>320.0</ele><time>2026-04-26T13:13:03.999Z</time></trkpt><trkpt lat="42.10177" lon="12.1098183"><ele>320.0</ele><time>2026-04-26T13:13:04.994Z</time></trkpt><trkpt lat="42.1017317" lon="12.1095867"><ele>320.0</ele><time>2026-04-26T13:13:05.997Z</time></trkpt><trkpt lat="42.10169" lon="12.1093467"><ele>320.0</ele><time>2026-04-26T13:13:06.993Z</time></trkpt><trkpt lat="42.1016483" lon="12.1090867"><ele>320.0</ele><time>2026-04-26T13:13:08Z</time></trkpt><trkpt lat="42.101605" lon="12.1088017"><ele>319.5</ele><time>2026-04-26T13:13:08.999Z</time></trkpt><trkpt lat="42.1015617" lon="12.1084933"><ele>319.0</ele><time>2026-04-26T13:13:09.99Z</time></trkpt><trkpt lat="42.10152" lon="12.10819"><ele>318.0</ele><time>2026-04-26T13:13:10.995Z</time></trkpt><trkpt lat="42.1014817" lon="12.1079"><ele>317.0</ele><time>2026-04-26T13:13:11.996Z</time></trkpt><trkpt lat="42.101445" lon="12.1076333"><ele>316.0</ele><time>2026-04-26T13:13:12.995Z</time></trkpt><trkpt lat="42.10141" lon="12.1073833"><ele>314.66666666666663</ele><time>2026-04-26T13:13:13.994Z</time></trkpt><trkpt lat="42.1013717" lon="12.10715"><ele>313.3333333333333</ele><time>2026-04-26T13:13:14.994Z</time></trkpt><trkpt lat="42.1013217" lon="12.1069267"><ele>312.0</ele><time>2026-04-26T13:13:15.996Z</time></trkpt><trkpt lat="42.1012483" lon="12.1067083"><ele>311.3333333333333</ele><time>2026-04-26T13:13:16.994Z</time></trkpt><trkpt lat="42.10115" lon="12.10649"><ele>310.66666666666663</ele><time>2026-04-26T13:13:17.994Z</time></trkpt><trkpt lat="42.1010333" lon="12.1062717"><ele>310.0</ele><time>2026-04-26T13:13:18.994Z</time></trkpt><trkpt lat="42.1009167" lon="12.1060617"><ele>310.0</ele><time>2026-04-26T13:13:19.997Z</time></trkpt><trkpt lat="42.1008033" lon="12.1058717"><ele>310.0</ele><time>2026-04-26T13:13:21Z</time></trkpt><trkpt lat="42.1006967" lon="12.1056933"><ele>310.0</ele><time>2026-04-26T13:13:21.992Z</time></trkpt><trkpt lat="42.1005967" lon="12.1055283"><ele>309.0</ele><time>2026-04-26T13:13:22.992Z</time></trkpt><trkpt lat="42.1004967" lon="12.1053667"><ele>308.0</ele><time>2026-04-26T13:13:23.995Z</time></trkpt><trkpt lat="42.1003983" lon="12.1052"><ele>307.0</ele><time>2026-04-26T13:13:24.994Z</time></trkpt><trkpt lat="42.1003" lon="12.1050367"><ele>307.0</ele><time>2026-04-26T13:13:25.995Z</time></trkpt><trkpt lat="42.100205" lon="12.1048717"><ele>307.0</ele><time>2026-04-26T13:13:26.992Z</time></trkpt><trkpt lat="42.1001033" lon="12.1047033"><ele>307.0</ele><time>2026-04-26T13:13:27.994Z</time></trkpt><trkpt lat="42.0999933" lon="12.1045217"><ele>306.66666666666663</ele><time>2026-04-26T13:13:28.987Z</time></trkpt><trkpt lat="42.0998783" lon="12.1043333"><ele>306.3333333333333</ele><time>2026-04-26T13:13:29.992Z</time></trkpt><trkpt lat="42.0997683" lon="12.1041417"><ele>306.0</ele><time>2026-04-26T13:13:31Z</time></trkpt><trkpt lat="42.0996617" lon="12.1039483"><ele>305.6666666666667</ele><time>2026-04-26T13:13:31.992Z</time></trkpt><trkpt lat="42.0995517" lon="12.1037617"><ele>305.33333333333337</ele><time>2026-04-26T13:13:32.994Z</time></trkpt><trkpt lat="42.099445" lon="12.1035767"><ele>305.0</ele><time>2026-04-26T13:13:33.991Z</time></trkpt><trkpt lat="42.0993383" lon="12.103385"><ele>305.0</ele><time>2026-04-26T13:13:34.995Z</time></trkpt><trkpt lat="42.09923" lon="12.1031933"><ele>305.0</ele><time>2026-04-26T13:13:35.994Z</time></trkpt><trkpt lat="42.099115" lon="12.1030017"><ele>305.0</ele><time>2026-04-26T13:13:36.989Z</time></trkpt><trkpt lat="42.0990017" lon="12.10281"><ele>305.0</ele><time>2026-04-26T13:13:37.991Z</time></trkpt><trkpt lat="42.0988917" lon="12.1026267"><ele>305.0</ele><time>2026-04-26T13:13:38.994Z</time></trkpt><trkpt lat="42.0987817" lon="12.1024483"><ele>305.0</ele><time>2026-04-26T13:13:39.99Z</time></trkpt><trkpt lat="42.098675" lon="12.1022717"><ele>304.0</ele><time>2026-04-26T13:13:40.992Z</time></trkpt><trkpt lat="42.0985717" lon="12.102095"><ele>303.0</ele><time>2026-04-26T13:13:41.993Z</time></trkpt><trkpt lat="42.098475" lon="12.1019267"><ele>302.0</ele><time>2026-04-26T13:13:42.994Z</time></trkpt><trkpt lat="42.0983767" lon="12.1017617"><ele>302.0</ele><time>2026-04-26T13:13:43.993Z</time></trkpt><trkpt lat="42.09828" lon="12.1015933"><ele>302.0</ele><time>2026-04-26T13:13:44.993Z</time></trkpt><trkpt lat="42.0981833" lon="12.1014267"><ele>302.0</ele><time>2026-04-26T13:13:45.998Z</time></trkpt><trkpt lat="42.09809" lon="12.1012583"><ele>301.0</ele><time>2026-04-26T13:13:46.992Z</time></trkpt><trkpt lat="42.098" lon="12.101085"><ele>300.0</ele><time>2026-04-26T13:13:47.993Z</time></trkpt><trkpt lat="42.0979083" lon="12.1008883"><ele>299.0</ele><time>2026-04-26T13:13:48.996Z</time></trkpt><trkpt lat="42.097825" lon="12.1006567"><ele>298.6666666666667</ele><time>2026-04-26T13:13:49.994Z</time></trkpt><trkpt lat="42.0977417" lon="12.1004133"><ele>298.3333333333333</ele><time>2026-04-26T13:13:50.993Z</time></trkpt><trkpt lat="42.0976583" lon="12.1001617"><ele>298.0</ele><time>2026-04-26T13:13:51.993Z</time></trkpt><trkpt lat="42.0975767" lon="12.0999083"><ele>297.3333333333333</ele><time>2026-04-26T13:13:52.997Z</time></trkpt><trkpt lat="42.0974967" lon="12.0996533"><ele>296.6666666666667</ele><time>2026-04-26T13:13:53.99Z</time></trkpt><trkpt lat="42.0974167" lon="12.09938"><ele>296.0</ele><time>2026-04-26T13:13:54.999Z</time></trkpt><trkpt lat="42.0973317" lon="12.099085"><ele>293.0</ele><time>2026-04-26T13:13:55.994Z</time></trkpt><trkpt lat="42.0972467" lon="12.0987817"><ele>290.0</ele><time>2026-04-26T13:13:56.995Z</time></trkpt><trkpt lat="42.09716" lon="12.0984817"><ele>289.0</ele><time>2026-04-26T13:13:57.996Z</time></trkpt><trkpt lat="42.0970733" lon="12.09819"><ele>288.0</ele><time>2026-04-26T13:13:58.997Z</time></trkpt><trkpt lat="42.0969817" lon="12.0979"><ele>288.0</ele><time>2026-04-26T13:13:59.996Z</time></trkpt><trkpt lat="42.0968917" lon="12.0976133"><ele>288.0</ele><time>2026-04-26T13:14:00.997Z</time></trkpt><trkpt lat="42.0968017" lon="12.0973317"><ele>286.5</ele><time>2026-04-26T13:14:01.995Z</time></trkpt><trkpt lat="42.096715" lon="12.0970467"><ele>285.0</ele><time>2026-04-26T13:14:02.995Z</time></trkpt><trkpt lat="42.0966267" lon="12.09675"><ele>282.0</ele><time>2026-04-26T13:14:03.999Z</time></trkpt><trkpt lat="42.0965383" lon="12.0964567"><ele>279.0</ele><time>2026-04-26T13:14:04.996Z</time></trkpt><trkpt lat="42.0964533" lon="12.096185"><ele>279.0</ele><time>2026-04-26T13:14:05.994Z</time></trkpt><trkpt lat="42.09638" lon="12.0959367"><ele>279.0</ele><time>2026-04-26T13:14:06.997Z</time></trkpt><trkpt lat="42.0963117" lon="12.09571"><ele>279.0</ele><time>2026-04-26T13:14:07.995Z</time></trkpt><trkpt lat="42.09625" lon="12.0955017"><ele>278.3333333333333</ele><time>2026-04-26T13:14:08.998Z</time></trkpt><trkpt lat="42.096185" lon="12.0953033"><ele>277.66666666666663</ele><time>2026-04-26T13:14:09.995Z</time></trkpt><trkpt lat="42.09611" lon="12.0951167"><ele>277.0</ele><time>2026-04-26T13:14:10.994Z</time></trkpt><trkpt lat="42.0960183" lon="12.0949383"><ele>277.66666666666663</ele><time>2026-04-26T13:14:11.996Z</time></trkpt><trkpt lat="42.0959067" lon="12.094765"><ele>278.3333333333333</ele><time>2026-04-26T13:14:12.995Z</time></trkpt><trkpt lat="42.09578" lon="12.0946017"><ele>279.0</ele><time>2026-04-26T13:14:13.997Z</time></trkpt><trkpt lat="42.0956317" lon="12.0944383"><ele>279.0</ele><time>2026-04-26T13:14:14.993Z</time></trkpt><trkpt lat="42.095465" lon="12.0942567"><ele>279.0</ele><time>2026-04-26T13:14:15.99Z</time></trkpt><trkpt lat="42.0952867" lon="12.094055"><ele>279.0</ele><time>2026-04-26T13:14:16.992Z</time></trkpt><trkpt lat="42.0950983" lon="12.09384"><ele>278.0</ele><time>2026-04-26T13:14:17.998Z</time></trkpt><trkpt lat="42.0949083" lon="12.093625"><ele>277.0</ele><time>2026-04-26T13:14:18.993Z</time></trkpt><trkpt lat="42.094715" lon="12.0934133"><ele>277.5</ele><time>2026-04-26T13:14:19.991Z</time></trkpt><trkpt lat="42.094525" lon="12.093205"><ele>278.0</ele><time>2026-04-26T13:14:20.996Z</time></trkpt><trkpt lat="42.0943417" lon="12.0930067"><ele>278.0</ele><time>2026-04-26T13:14:21.996Z</time></trkpt><trkpt lat="42.0941617" lon="12.0927983"><ele>278.0</ele><time>2026-04-26T13:14:22.993Z</time></trkpt><trkpt lat="42.093975" lon="12.0925883"><ele>277.5</ele><time>2026-04-26T13:14:23.998Z</time></trkpt><trkpt lat="42.093785" lon="12.0923717"><ele>277.0</ele><time>2026-04-26T13:14:24.997Z</time></trkpt><trkpt lat="42.0935933" lon="12.0921517"><ele>277.0</ele><time>2026-04-26T13:14:25.996Z</time></trkpt><trkpt lat="42.0934" lon="12.091935"><ele>277.0</ele><time>2026-04-26T13:14:26.995Z</time></trkpt><trkpt lat="42.0932117" lon="12.091725"><ele>276.5</ele><time>2026-04-26T13:14:27.997Z</time></trkpt><trkpt lat="42.09303" lon="12.091525"><ele>276.0</ele><time>2026-04-26T13:14:28.995Z</time></trkpt><trkpt lat="42.0928467" lon="12.0913233"><ele>276.0</ele><time>2026-04-26T13:14:29.995Z</time></trkpt><trkpt lat="42.0926717" lon="12.0911233"><ele>276.0</ele><time>2026-04-26T13:14:30.997Z</time></trkpt><trkpt lat="42.0924933" lon="12.0909233"><ele>274.0</ele><time>2026-04-26T13:14:31.995Z</time></trkpt><trkpt lat="42.0923117" lon="12.09072"><ele>272.0</ele><time>2026-04-26T13:14:32.994Z</time></trkpt><trkpt lat="42.09213" lon="12.0905167"><ele>272.0</ele><time>2026-04-26T13:14:33.998Z</time></trkpt><trkpt lat="42.0919467" lon="12.090315"><ele>272.0</ele><time>2026-04-26T13:14:34.993Z</time></trkpt><trkpt lat="42.0917617" lon="12.0901067"><ele>272.0</ele><time>2026-04-26T13:14:35.99Z</time></trkpt><trkpt lat="42.0915817" lon="12.089905"><ele>272.0</ele><time>2026-04-26T13:14:36.994Z</time></trkpt><trkpt lat="42.0914067" lon="12.0897117"><ele>272.0</ele><time>2026-04-26T13:14:37.994Z</time></trkpt><trkpt lat="42.0912383" lon="12.089525"><ele>272.0</ele><time>2026-04-26T13:14:38.993Z</time></trkpt><trkpt lat="42.0910783" lon="12.0893383"><ele>272.0</ele><time>2026-04-26T13:14:40Z</time></trkpt><trkpt lat="42.090925" lon="12.089145"><ele>271.33333333333337</ele><time>2026-04-26T13:14:40.989Z</time></trkpt><trkpt lat="42.0907767" lon="12.0889333"><ele>270.6666666666667</ele><time>2026-04-26T13:14:41.995Z</time></trkpt><trkpt lat="42.090635" lon="12.0887"><ele>270.0</ele><time>2026-04-26T13:14:42.994Z</time></trkpt><trkpt lat="42.0904933" lon="12.0884533"><ele>272.0</ele><time>2026-04-26T13:14:43.998Z</time></trkpt><trkpt lat="42.0903517" lon="12.0882"><ele>274.0</ele><time>2026-04-26T13:14:44.988Z</time></trkpt><trkpt lat="42.0902083" lon="12.0879317"><ele>274.0</ele><time>2026-04-26T13:14:45.991Z</time></trkpt><trkpt lat="42.0900583" lon="12.0876583"><ele>274.0</ele><time>2026-04-26T13:14:46.99Z</time></trkpt><trkpt lat="42.0899167" lon="12.087395"><ele>273.5</ele><time>2026-04-26T13:14:47.99Z</time></trkpt><trkpt lat="42.08978" lon="12.0871417"><ele>273.0</ele><time>2026-04-26T13:14:48.992Z</time></trkpt><trkpt lat="42.08965" lon="12.0868983"><ele>273.0</ele><time>2026-04-26T13:14:49.993Z</time></trkpt><trkpt lat="42.0895217" lon="12.0866583"><ele>273.0</ele><time>2026-04-26T13:14:50.988Z</time></trkpt><trkpt lat="42.08939" lon="12.08642"><ele>273.0</ele><time>2026-04-26T13:14:51.996Z</time></trkpt><trkpt lat="42.089255" lon="12.0861833"><ele>272.3333333333333</ele><time>2026-04-26T13:14:52.994Z</time></trkpt><trkpt lat="42.0891217" lon="12.0859417"><ele>271.66666666666663</ele><time>2026-04-26T13:14:53.99Z</time></trkpt><trkpt lat="42.0889883" lon="12.0857"><ele>271.0</ele><time>2026-04-26T13:14:54.99Z</time></trkpt><trkpt lat="42.088855" lon="12.08546"><ele>270.5</ele><time>2026-04-26T13:14:55.998Z</time></trkpt><trkpt lat="42.08872" lon="12.0852133"><ele>270.0</ele><time>2026-04-26T13:14:56.996Z</time></trkpt><trkpt lat="42.0885817" lon="12.08496"><ele>270.0</ele><time>2026-04-26T13:14:57.992Z</time></trkpt><trkpt lat="42.0884417" lon="12.084705"><ele>270.0</ele><time>2026-04-26T13:14:58.993Z</time></trkpt><trkpt lat="42.0883" lon="12.0844467"><ele>269.5</ele><time>2026-04-26T13:14:59.997Z</time></trkpt><trkpt lat="42.088155" lon="12.084185"><ele>269.0</ele><time>2026-04-26T13:15:00.995Z</time></trkpt><trkpt lat="42.088005" lon="12.0839267"><ele>268.5</ele><time>2026-04-26T13:15:01.994Z</time></trkpt><trkpt lat="42.0878567" lon="12.0836783"><ele>268.0</ele><time>2026-04-26T13:15:02.997Z</time></trkpt><trkpt lat="42.087715" lon="12.083435"><ele>266.5</ele><time>2026-04-26T13:15:03.992Z</time></trkpt><trkpt lat="42.0875733" lon="12.083185"><ele>265.0</ele><time>2026-04-26T13:15:05Z</time></trkpt><trkpt lat="42.0874283" lon="12.08293"><ele>265.0</ele><time>2026-04-26T13:15:05.993Z</time></trkpt><trkpt lat="42.0872867" lon="12.0826717"><ele>265.0</ele><time>2026-04-26T13:15:06.997Z</time></trkpt><trkpt lat="42.0871433" lon="12.0824117"><ele>264.0</ele><time>2026-04-26T13:15:07.993Z</time></trkpt><trkpt lat="42.087" lon="12.08216"><ele>263.0</ele><time>2026-04-26T13:15:08.992Z</time></trkpt><trkpt lat="42.0868633" lon="12.081905"><ele>263.0</ele><time>2026-04-26T13:15:09.99Z</time></trkpt><trkpt lat="42.086725" lon="12.0816567"><ele>263.0</ele><time>2026-04-26T13:15:10.994Z</time></trkpt><trkpt lat="42.0865883" lon="12.081415"><ele>262.0</ele><time>2026-04-26T13:15:11.993Z</time></trkpt><trkpt lat="42.0864517" lon="12.08118"><ele>261.0</ele><time>2026-04-26T13:15:12.992Z</time></trkpt><trkpt lat="42.0863233" lon="12.0809483"><ele>260.0</ele><time>2026-04-26T13:15:13.997Z</time></trkpt><trkpt lat="42.0861983" lon="12.08072"><ele>260.0</ele><time>2026-04-26T13:15:14.995Z</time></trkpt><trkpt lat="42.0860767" lon="12.0805017"><ele>260.0</ele><time>2026-04-26T13:15:15.995Z</time></trkpt><trkpt lat="42.0859567" lon="12.0802883"><ele>260.0</ele><time>2026-04-26T13:15:16.99Z</time></trkpt><trkpt lat="42.0858367" lon="12.0800867"><ele>259.0</ele><time>2026-04-26T13:15:17.996Z</time></trkpt><trkpt lat="42.0857067" lon="12.07991"><ele>258.0</ele><time>2026-04-26T13:15:19.003Z</time></trkpt><trkpt lat="42.0855683" lon="12.079765"><ele>257.0</ele><time>2026-04-26T13:15:19.996Z</time></trkpt><trkpt lat="42.08542" lon="12.0796617"><ele>257.0</ele><time>2026-04-26T13:15:20.998Z</time></trkpt><trkpt lat="42.0852583" lon="12.0795933"><ele>257.0</ele><time>2026-04-26T13:15:21.994Z</time></trkpt><trkpt lat="42.0850783" lon="12.079565"><ele>257.0</ele><time>2026-04-26T13:15:22.998Z</time></trkpt><trkpt lat="42.0848783" lon="12.0795583"><ele>256.0</ele><time>2026-04-26T13:15:23.994Z</time></trkpt><trkpt lat="42.0846667" lon="12.0795517"><ele>255.0</ele><time>2026-04-26T13:15:24.997Z</time></trkpt><trkpt lat="42.08446" lon="12.0795283"><ele>254.0</ele><time>2026-04-26T13:15:25.998Z</time></trkpt><trkpt lat="42.084265" lon="12.0794833"><ele>254.0</ele><time>2026-04-26T13:15:26.998Z</time></trkpt><trkpt lat="42.0840833" lon="12.0794067"><ele>254.0</ele><time>2026-04-26T13:15:27.995Z</time></trkpt><trkpt lat="42.083905" lon="12.0793"><ele>254.0</ele><time>2026-04-26T13:15:28.996Z</time></trkpt><trkpt lat="42.083725" lon="12.0791633"><ele>254.0</ele><time>2026-04-26T13:15:29.994Z</time></trkpt><trkpt lat="42.0835367" lon="12.0789983"><ele>254.0</ele><time>2026-04-26T13:15:30.992Z</time></trkpt><trkpt lat="42.0833467" lon="12.0788183"><ele>254.0</ele><time>2026-04-26T13:15:31.996Z</time></trkpt><trkpt lat="42.083155" lon="12.07863"><ele>254.0</ele><time>2026-04-26T13:15:32.996Z</time></trkpt><trkpt lat="42.08296" lon="12.078435"><ele>254.5</ele><time>2026-04-26T13:15:33.993Z</time></trkpt><trkpt lat="42.0827583" lon="12.0782367"><ele>255.0</ele><time>2026-04-26T13:15:34.994Z</time></trkpt><trkpt lat="42.0825567" lon="12.0780417"><ele>255.0</ele><time>2026-04-26T13:15:35.993Z</time></trkpt><trkpt lat="42.0823617" lon="12.0778467"><ele>255.0</ele><time>2026-04-26T13:15:37.031Z</time></trkpt><trkpt lat="42.082165" lon="12.0776533"><ele>255.0</ele><time>2026-04-26T13:15:37.996Z</time></trkpt><trkpt lat="42.081965" lon="12.0774567"><ele>255.0</ele><time>2026-04-26T13:15:38.994Z</time></trkpt><trkpt lat="42.0817583" lon="12.07726"><ele>254.0</ele><time>2026-04-26T13:15:39.994Z</time></trkpt><trkpt lat="42.081555" lon="12.0770617"><ele>253.0</ele><time>2026-04-26T13:15:40.995Z</time></trkpt><trkpt lat="42.081355" lon="12.076865"><ele>253.0</ele><time>2026-04-26T13:15:41.993Z</time></trkpt><trkpt lat="42.0811583" lon="12.07667"><ele>253.0</ele><time>2026-04-26T13:15:42.993Z</time></trkpt><trkpt lat="42.0809633" lon="12.0764767"><ele>253.0</ele><time>2026-04-26T13:15:43.997Z</time></trkpt><trkpt lat="42.0807667" lon="12.0762883"><ele>253.0</ele><time>2026-04-26T13:15:44.995Z</time></trkpt><trkpt lat="42.08057" lon="12.076095"><ele>251.5</ele><time>2026-04-26T13:15:45.994Z</time></trkpt><trkpt lat="42.0803683" lon="12.0759067"><ele>250.0</ele><time>2026-04-26T13:15:46.997Z</time></trkpt><trkpt lat="42.0801667" lon="12.0757183"><ele>249.0</ele><time>2026-04-26T13:15:47.993Z</time></trkpt><trkpt lat="42.07996" lon="12.0755283"><ele>248.0</ele><time>2026-04-26T13:15:48.992Z</time></trkpt><trkpt lat="42.0797533" lon="12.075335"><ele>248.0</ele><time>2026-04-26T13:15:49.996Z</time></trkpt><trkpt lat="42.0795467" lon="12.07514"><ele>248.0</ele><time>2026-04-26T13:15:50.996Z</time></trkpt><trkpt lat="42.0793417" lon="12.0749417"><ele>247.5</ele><time>2026-04-26T13:15:51.992Z</time></trkpt><trkpt lat="42.0791383" lon="12.07474"><ele>247.0</ele><time>2026-04-26T13:15:52.995Z</time></trkpt><trkpt lat="42.0789333" lon="12.0745383"><ele>247.0</ele><time>2026-04-26T13:15:53.996Z</time></trkpt><trkpt lat="42.0787333" lon="12.07434"><ele>247.0</ele><time>2026-04-26T13:15:54.992Z</time></trkpt><trkpt lat="42.0785367" lon="12.0741433"><ele>247.0</ele><time>2026-04-26T13:15:55.994Z</time></trkpt><trkpt lat="42.0783383" lon="12.073945"><ele>247.0</ele><time>2026-04-26T13:15:56.996Z</time></trkpt><trkpt lat="42.0781367" lon="12.0737417"><ele>247.5</ele><time>2026-04-26T13:15:58.031Z</time></trkpt><trkpt lat="42.07793" lon="12.0735367"><ele>248.0</ele><time>2026-04-26T13:15:58.997Z</time></trkpt><trkpt lat="42.0777267" lon="12.0733333"><ele>248.0</ele><time>2026-04-26T13:15:59.994Z</time></trkpt><trkpt lat="42.0775283" lon="12.0731383"><ele>248.0</ele><time>2026-04-26T13:16:00.994Z</time></trkpt><trkpt lat="42.0773333" lon="12.072945"><ele>248.0</ele><time>2026-04-26T13:16:01.996Z</time></trkpt><trkpt lat="42.0771433" lon="12.072755"><ele>248.0</ele><time>2026-04-26T13:16:02.992Z</time></trkpt><trkpt lat="42.0769633" lon="12.0725717"><ele>248.0</ele><time>2026-04-26T13:16:03.992Z</time></trkpt><trkpt lat="42.0767883" lon="12.0723917"><ele>248.0</ele><time>2026-04-26T13:16:04.992Z</time></trkpt><trkpt lat="42.076615" lon="12.072215"><ele>248.0</ele><time>2026-04-26T13:16:05.997Z</time></trkpt><trkpt lat="42.0764417" lon="12.0720383"><ele>248.0</ele><time>2026-04-26T13:16:07Z</time></trkpt><trkpt lat="42.0762667" lon="12.0718617"><ele>248.0</ele><time>2026-04-26T13:16:08Z</time></trkpt><trkpt lat="42.0760933" lon="12.071685"><ele>248.0</ele><time>2026-04-26T13:16:08.996Z</time></trkpt><trkpt lat="42.0759233" lon="12.07151"><ele>248.33333333333334</ele><time>2026-04-26T13:16:09.994Z</time></trkpt><trkpt lat="42.07576" lon="12.071345"><ele>248.66666666666669</ele><time>2026-04-26T13:16:10.993Z</time></trkpt><trkpt lat="42.0756033" lon="12.0711883"><ele>249.0</ele><time>2026-04-26T13:16:11.993Z</time></trkpt><trkpt lat="42.0754467" lon="12.071035"><ele>249.0</ele><time>2026-04-26T13:16:12.997Z</time></trkpt><trkpt lat="42.0752883" lon="12.07088"><ele>249.0</ele><time>2026-04-26T13:16:13.997Z</time></trkpt><trkpt lat="42.0751233" lon="12.070715"><ele>249.0</ele><time>2026-04-26T13:16:14.996Z</time></trkpt><trkpt lat="42.0749517" lon="12.0705383"><ele>247.0</ele><time>2026-04-26T13:16:15.997Z</time></trkpt><trkpt lat="42.07477" lon="12.0703567"><ele>245.0</ele><time>2026-04-26T13:16:16.995Z</time></trkpt><trkpt lat="42.0745817" lon="12.0701717"><ele>245.0</ele><time>2026-04-26T13:16:17.995Z</time></trkpt><trkpt lat="42.0743917" lon="12.0699917"><ele>245.0</ele><time>2026-04-26T13:16:18.994Z</time></trkpt><trkpt lat="42.0742" lon="12.0698033"><ele>242.0</ele><time>2026-04-26T13:16:19.992Z</time></trkpt><trkpt lat="42.074005" lon="12.0696083"><ele>239.0</ele><time>2026-04-26T13:16:20.99Z</time></trkpt><trkpt lat="42.0738133" lon="12.0694083"><ele>239.0</ele><time>2026-04-26T13:16:21.996Z</time></trkpt><trkpt lat="42.0736367" lon="12.0692117"><ele>239.0</ele><time>2026-04-26T13:16:22.999Z</time></trkpt><trkpt lat="42.0734733" lon="12.0690133"><ele>239.0</ele><time>2026-04-26T13:16:23.997Z</time></trkpt><trkpt lat="42.0733117" lon="12.0688067"><ele>238.0</ele><time>2026-04-26T13:16:24.995Z</time></trkpt><trkpt lat="42.0731533" lon="12.0685883"><ele>237.0</ele><time>2026-04-26T13:16:25.997Z</time></trkpt><trkpt lat="42.0729933" lon="12.0683633"><ele>239.0</ele><time>2026-04-26T13:16:26.994Z</time></trkpt><trkpt lat="42.0728367" lon="12.0681317"><ele>241.0</ele><time>2026-04-26T13:16:27.993Z</time></trkpt><trkpt lat="42.0726867" lon="12.06789"><ele>241.0</ele><time>2026-04-26T13:16:28.998Z</time></trkpt><trkpt lat="42.0725467" lon="12.0676417"><ele>241.0</ele><time>2026-04-26T13:16:29.997Z</time></trkpt><trkpt lat="42.072415" lon="12.0673883"><ele>238.33333333333331</ele><time>2026-04-26T13:16:30.994Z</time></trkpt><trkpt lat="42.07229" lon="12.0671383"><ele>235.66666666666669</ele><time>2026-04-26T13:16:31.998Z</time></trkpt><trkpt lat="42.0721633" lon="12.066895"><ele>233.0</ele><time>2026-04-26T13:16:32.996Z</time></trkpt><trkpt lat="42.0720333" lon="12.06665"><ele>235.33333333333334</ele><time>2026-04-26T13:16:33.993Z</time></trkpt><trkpt lat="42.0719033" lon="12.066415"><ele>237.66666666666669</ele><time>2026-04-26T13:16:34.997Z</time></trkpt><trkpt lat="42.0717783" lon="12.0662"><ele>240.0</ele><time>2026-04-26T13:16:35.995Z</time></trkpt><trkpt lat="42.071665" lon="12.0659917"><ele>238.0</ele><time>2026-04-26T13:16:36.998Z</time></trkpt><trkpt lat="42.0715717" lon="12.0657767"><ele>236.0</ele><time>2026-04-26T13:16:37.998Z</time></trkpt><trkpt lat="42.0715017" lon="12.065535"><ele>234.0</ele><time>2026-04-26T13:16:38.997Z</time></trkpt><trkpt lat="42.0714467" lon="12.0652683"><ele>234.0</ele><time>2026-04-26T13:16:39.994Z</time></trkpt><trkpt lat="42.0714133" lon="12.064995"><ele>234.0</ele><time>2026-04-26T13:16:40.992Z</time></trkpt><trkpt lat="42.0714033" lon="12.064725"><ele>234.0</ele><time>2026-04-26T13:16:41.994Z</time></trkpt><trkpt lat="42.0714183" lon="12.0644483"><ele>232.66666666666669</ele><time>2026-04-26T13:16:42.998Z</time></trkpt><trkpt lat="42.0714633" lon="12.0641617"><ele>231.33333333333334</ele><time>2026-04-26T13:16:43.995Z</time></trkpt><trkpt lat="42.0715267" lon="12.0638667"><ele>230.0</ele><time>2026-04-26T13:16:44.994Z</time></trkpt><trkpt lat="42.0716" lon="12.063565"><ele>235.5</ele><time>2026-04-26T13:16:45.997Z</time></trkpt><trkpt lat="42.07168" lon="12.0632567"><ele>241.0</ele><time>2026-04-26T13:16:46.993Z</time></trkpt><trkpt lat="42.071765" lon="12.0629533"><ele>241.0</ele><time>2026-04-26T13:16:47.992Z</time></trkpt><trkpt lat="42.0718467" lon="12.0626633"><ele>241.0</ele><time>2026-04-26T13:16:48.996Z</time></trkpt><trkpt lat="42.0719167" lon="12.0623967"><ele>241.0</ele><time>2026-04-26T13:16:49.995Z</time></trkpt><trkpt lat="42.0719733" lon="12.06214"><ele>240.0</ele><time>2026-04-26T13:16:50.993Z</time></trkpt><trkpt lat="42.0720083" lon="12.0618983"><ele>239.0</ele><time>2026-04-26T13:16:51.994Z</time></trkpt><trkpt lat="42.072015" lon="12.0616683"><ele>238.0</ele><time>2026-04-26T13:16:52.994Z</time></trkpt><trkpt lat="42.0719933" lon="12.0614333"><ele>238.0</ele><time>2026-04-26T13:16:53.994Z</time></trkpt><trkpt lat="42.071945" lon="12.0611883"><ele>238.0</ele><time>2026-04-26T13:16:54.996Z</time></trkpt><trkpt lat="42.0718667" lon="12.0609233"><ele>238.0</ele><time>2026-04-26T13:16:55.99Z</time></trkpt><trkpt lat="42.071775" lon="12.0606433"><ele>238.5</ele><time>2026-04-26T13:16:56.996Z</time></trkpt><trkpt lat="42.0716683" lon="12.0603567"><ele>239.0</ele><time>2026-04-26T13:16:57.995Z</time></trkpt><trkpt lat="42.0715467" lon="12.0600717"><ele>238.0</ele><time>2026-04-26T13:16:59.002Z</time></trkpt><trkpt lat="42.0714233" lon="12.0597983"><ele>237.0</ele><time>2026-04-26T13:16:59.997Z</time></trkpt><trkpt lat="42.0713017" lon="12.059535"><ele>237.0</ele><time>2026-04-26T13:17:00.993Z</time></trkpt><trkpt lat="42.0711867" lon="12.0592817"><ele>237.0</ele><time>2026-04-26T13:17:01.995Z</time></trkpt><trkpt lat="42.0710683" lon="12.059035"><ele>237.0</ele><time>2026-04-26T13:17:02.999Z</time></trkpt><trkpt lat="42.0709517" lon="12.0587867"><ele>236.33333333333331</ele><time>2026-04-26T13:17:03.997Z</time></trkpt><trkpt lat="42.0708367" lon="12.0585417"><ele>235.66666666666666</ele><time>2026-04-26T13:17:05.001Z</time></trkpt><trkpt lat="42.07072" lon="12.0583"><ele>235.0</ele><time>2026-04-26T13:17:05.999Z</time></trkpt><trkpt lat="42.0706033" lon="12.05806"><ele>235.0</ele><time>2026-04-26T13:17:07Z</time></trkpt><trkpt lat="42.0704767" lon="12.057825"><ele>235.0</ele><time>2026-04-26T13:17:07.995Z</time></trkpt><trkpt lat="42.0703433" lon="12.0575933"><ele>235.0</ele><time>2026-04-26T13:17:08.994Z</time></trkpt><trkpt lat="42.0701983" lon="12.0573667"><ele>235.0</ele><time>2026-04-26T13:17:09.996Z</time></trkpt><trkpt lat="42.0700417" lon="12.0571367"><ele>235.0</ele><time>2026-04-26T13:17:10.993Z</time></trkpt><trkpt lat="42.0698783" lon="12.0569133"><ele>234.5</ele><time>2026-04-26T13:17:11.996Z</time></trkpt><trkpt lat="42.069715" lon="12.0567"><ele>234.0</ele><time>2026-04-26T13:17:12.992Z</time></trkpt><trkpt lat="42.0695517" lon="12.0564933"><ele>235.33333333333331</ele><time>2026-04-26T13:17:13.995Z</time></trkpt><trkpt lat="42.0693867" lon="12.0562917"><ele>236.66666666666666</ele><time>2026-04-26T13:17:14.994Z</time></trkpt><trkpt lat="42.0692267" lon="12.0560983"><ele>238.0</ele><time>2026-04-26T13:17:15.993Z</time></trkpt><trkpt lat="42.06907" lon="12.05592"><ele>240.66666666666666</ele><time>2026-04-26T13:17:16.996Z</time></trkpt><trkpt lat="42.0689133" lon="12.0557583"><ele>243.33333333333331</ele><time>2026-04-26T13:17:17.998Z</time></trkpt><trkpt lat="42.068755" lon="12.0556167"><ele>246.0</ele><time>2026-04-26T13:17:18.999Z</time></trkpt><trkpt lat="42.0685933" lon="12.05549"><ele>246.0</ele><time>2026-04-26T13:17:19.999Z</time></trkpt><trkpt lat="42.0684317" lon="12.0553833"><ele>246.0</ele><time>2026-04-26T13:17:21Z</time></trkpt><trkpt lat="42.068275" lon="12.0553033"><ele>246.0</ele><time>2026-04-26T13:17:21.992Z</time></trkpt><trkpt lat="42.0681167" lon="12.0552567"><ele>248.66666666666669</ele><time>2026-04-26T13:17:22.997Z</time></trkpt><trkpt lat="42.06795" lon="12.0552467"><ele>251.33333333333334</ele><time>2026-04-26T13:17:23.995Z</time></trkpt><trkpt lat="42.0677733" lon="12.0552583"><ele>254.0</ele><time>2026-04-26T13:17:24.996Z</time></trkpt><trkpt lat="42.0675867" lon="12.0552867"><ele>259.6666666666667</ele><time>2026-04-26T13:17:25.996Z</time></trkpt><trkpt lat="42.067395" lon="12.0553167"><ele>265.3333333333333</ele><time>2026-04-26T13:17:26.996Z</time></trkpt><trkpt lat="42.0672083" lon="12.055355"><ele>271.0</ele><time>2026-04-26T13:17:27.996Z</time></trkpt><trkpt lat="42.067025" lon="12.0553933"><ele>271.0</ele><time>2026-04-26T13:17:28.991Z</time></trkpt><trkpt lat="42.066855" lon="12.0554167"><ele>271.0</ele><time>2026-04-26T13:17:29.995Z</time></trkpt><trkpt lat="42.0667" lon="12.0554267"><ele>271.0</ele><time>2026-04-26T13:17:30.994Z</time></trkpt><trkpt lat="42.0665567" lon="12.0554033"><ele>269.0</ele><time>2026-04-26T13:17:31.993Z</time></trkpt><trkpt lat="42.0664183" lon="12.0553417"><ele>267.0</ele><time>2026-04-26T13:17:32.994Z</time></trkpt><trkpt lat="42.0662817" lon="12.05524"><ele>265.0</ele><time>2026-04-26T13:17:33.992Z</time></trkpt><trkpt lat="42.0661533" lon="12.055105"><ele>269.3333333333333</ele><time>2026-04-26T13:17:34.992Z</time></trkpt><trkpt lat="42.0660417" lon="12.0549383"><ele>273.6666666666667</ele><time>2026-04-26T13:17:35.995Z</time></trkpt><trkpt lat="42.06594" lon="12.0547267"><ele>278.0</ele><time>2026-04-26T13:17:36.992Z</time></trkpt><trkpt lat="42.0658467" lon="12.0544917"><ele>278.33333333333337</ele><time>2026-04-26T13:17:37.99Z</time></trkpt><trkpt lat="42.06576" lon="12.0542433"><ele>278.6666666666667</ele><time>2026-04-26T13:17:38.996Z</time></trkpt><trkpt lat="42.0656683" lon="12.0540067"><ele>279.0</ele><time>2026-04-26T13:17:39.993Z</time></trkpt><trkpt lat="42.0655717" lon="12.0537767"><ele>279.0</ele><time>2026-04-26T13:17:40.996Z</time></trkpt><trkpt lat="42.065455" lon="12.05356"><ele>279.0</ele><time>2026-04-26T13:17:41.994Z</time></trkpt><trkpt lat="42.0653133" lon="12.05336"><ele>279.0</ele><time>2026-04-26T13:17:42.997Z</time></trkpt><trkpt lat="42.0651567" lon="12.053175"><ele>282.0</ele><time>2026-04-26T13:17:43.994Z</time></trkpt><trkpt lat="42.064985" lon="12.053"><ele>285.0</ele><time>2026-04-26T13:17:44.992Z</time></trkpt><trkpt lat="42.064785" lon="12.0528483"><ele>288.0</ele><time>2026-04-26T13:17:45.995Z</time></trkpt><trkpt lat="42.064585" lon="12.0527183"><ele>288.0</ele><time>2026-04-26T13:17:46.999Z</time></trkpt><trkpt lat="42.064395" lon="12.0526133"><ele>288.0</ele><time>2026-04-26T13:17:47.996Z</time></trkpt><trkpt lat="42.0642217" lon="12.052515"><ele>288.0</ele><time>2026-04-26T13:17:48.995Z</time></trkpt><trkpt lat="42.0640683" lon="12.0523967"><ele>284.6666666666667</ele><time>2026-04-26T13:17:50.001Z</time></trkpt><trkpt lat="42.063925" lon="12.0522483"><ele>281.33333333333337</ele><time>2026-04-26T13:17:50.994Z</time></trkpt><trkpt lat="42.0637833" lon="12.0520683"><ele>278.0</ele><time>2026-04-26T13:17:51.997Z</time></trkpt><trkpt lat="42.063645" lon="12.05186"><ele>278.0</ele><time>2026-04-26T13:17:52.994Z</time></trkpt><trkpt lat="42.0635033" lon="12.0516267"><ele>278.0</ele><time>2026-04-26T13:17:53.993Z</time></trkpt><trkpt lat="42.0633567" lon="12.0513817"><ele>277.6666666666667</ele><time>2026-04-26T13:17:54.995Z</time></trkpt><trkpt lat="42.0632183" lon="12.05114"><ele>277.3333333333333</ele><time>2026-04-26T13:17:55.996Z</time></trkpt><trkpt lat="42.063095" lon="12.0509117"><ele>277.0</ele><time>2026-04-26T13:17:56.992Z</time></trkpt><trkpt lat="42.0629883" lon="12.050695"><ele>277.0</ele><time>2026-04-26T13:17:57.995Z</time></trkpt><trkpt lat="42.0629" lon="12.0504717"><ele>277.0</ele><time>2026-04-26T13:17:58.995Z</time></trkpt><trkpt lat="42.0628233" lon="12.05022"><ele>277.0</ele><time>2026-04-26T13:17:59.994Z</time></trkpt><trkpt lat="42.0627567" lon="12.04994"><ele>278.5</ele><time>2026-04-26T13:18:00.996Z</time></trkpt><trkpt lat="42.062695" lon="12.0496433"><ele>280.0</ele><time>2026-04-26T13:18:01.998Z</time></trkpt><trkpt lat="42.0626333" lon="12.0493317"><ele>283.0</ele><time>2026-04-26T13:18:02.994Z</time></trkpt><trkpt lat="42.0625667" lon="12.0490083"><ele>286.0</ele><time>2026-04-26T13:18:03.996Z</time></trkpt><trkpt lat="42.0625" lon="12.048675"><ele>279.0</ele><time>2026-04-26T13:18:04.994Z</time></trkpt><trkpt lat="42.0624333" lon="12.0483333"><ele>272.0</ele><time>2026-04-26T13:18:05.996Z</time></trkpt><trkpt lat="42.0623633" lon="12.047975"><ele>272.0</ele><time>2026-04-26T13:18:06.998Z</time></trkpt><trkpt lat="42.0622883" lon="12.0476017"><ele>272.0</ele><time>2026-04-26T13:18:07.993Z</time></trkpt><trkpt lat="42.062215" lon="12.047235"><ele>273.5</ele><time>2026-04-26T13:18:08.998Z</time></trkpt><trkpt lat="42.0621517" lon="12.0469"><ele>275.0</ele><time>2026-04-26T13:18:09.996Z</time></trkpt><trkpt lat="42.0620967" lon="12.0465933"><ele>276.33333333333337</ele><time>2026-04-26T13:18:10.999Z</time></trkpt><trkpt lat="42.0620433" lon="12.04632"><ele>277.6666666666667</ele><time>2026-04-26T13:18:11.993Z</time></trkpt><trkpt lat="42.06198" lon="12.0460633"><ele>279.0</ele><time>2026-04-26T13:18:12.998Z</time></trkpt><trkpt lat="42.0619017" lon="12.0458117"><ele>280.0</ele><time>2026-04-26T13:18:13.997Z</time></trkpt><trkpt lat="42.0617983" lon="12.0455717"><ele>281.0</ele><time>2026-04-26T13:18:14.997Z</time></trkpt><trkpt lat="42.0616683" lon="12.0453433"><ele>282.0</ele><time>2026-04-26T13:18:15.996Z</time></trkpt><trkpt lat="42.0615283" lon="12.0451217"><ele>282.6666666666667</ele><time>2026-04-26T13:18:16.996Z</time></trkpt><trkpt lat="42.0613733" lon="12.044905"><ele>283.33333333333337</ele><time>2026-04-26T13:18:17.995Z</time></trkpt><trkpt lat="42.0612133" lon="12.04469"><ele>284.0</ele><time>2026-04-26T13:18:18.994Z</time></trkpt><trkpt lat="42.0610517" lon="12.0444833"><ele>284.0</ele><time>2026-04-26T13:18:19.994Z</time></trkpt><trkpt lat="42.0608917" lon="12.044285"><ele>284.0</ele><time>2026-04-26T13:18:20.994Z</time></trkpt><trkpt lat="42.06073" lon="12.044085"><ele>284.0</ele><time>2026-04-26T13:18:21.997Z</time></trkpt><trkpt lat="42.06057" lon="12.0438883"><ele>285.0</ele><time>2026-04-26T13:18:23Z</time></trkpt><trkpt lat="42.0604083" lon="12.0436933"><ele>286.0</ele><time>2026-04-26T13:18:23.99Z</time></trkpt><trkpt lat="42.060245" lon="12.0434967"><ele>287.0</ele><time>2026-04-26T13:18:24.992Z</time></trkpt><trkpt lat="42.0600733" lon="12.0433"><ele>291.0</ele><time>2026-04-26T13:18:25.997Z</time></trkpt><trkpt lat="42.0598933" lon="12.043125"><ele>295.0</ele><time>2026-04-26T13:18:26.997Z</time></trkpt><trkpt lat="42.05971" lon="12.0429733"><ele>299.0</ele><time>2026-04-26T13:18:27.993Z</time></trkpt><trkpt lat="42.0595267" lon="12.0428467"><ele>299.0</ele><time>2026-04-26T13:18:28.996Z</time></trkpt><trkpt lat="42.059335" lon="12.0427517"><ele>299.0</ele><time>2026-04-26T13:18:29.995Z</time></trkpt><trkpt lat="42.0591233" lon="12.0426867"><ele>299.0</ele><time>2026-04-26T13:18:30.99Z</time></trkpt><trkpt lat="42.0588917" lon="12.0426467"><ele>302.5</ele><time>2026-04-26T13:18:31.997Z</time></trkpt><trkpt lat="42.0586417" lon="12.042635"><ele>306.0</ele><time>2026-04-26T13:18:32.994Z</time></trkpt><trkpt lat="42.0583867" lon="12.0426417"><ele>307.5</ele><time>2026-04-26T13:18:33.996Z</time></trkpt><trkpt lat="42.0581317" lon="12.0426683"><ele>309.0</ele><time>2026-04-26T13:18:34.994Z</time></trkpt><trkpt lat="42.057875" lon="12.0427133"><ele>309.0</ele><time>2026-04-26T13:18:35.987Z</time></trkpt><trkpt lat="42.057625" lon="12.0427617"><ele>309.0</ele><time>2026-04-26T13:18:36.995Z</time></trkpt><trkpt lat="42.0573867" lon="12.042805"><ele>312.0</ele><time>2026-04-26T13:18:37.997Z</time></trkpt><trkpt lat="42.0571483" lon="12.0428483"><ele>315.0</ele><time>2026-04-26T13:18:38.997Z</time></trkpt><trkpt lat="42.056915" lon="12.0429017"><ele>315.0</ele><time>2026-04-26T13:18:39.995Z</time></trkpt><trkpt lat="42.0566917" lon="12.0429567"><ele>315.0</ele><time>2026-04-26T13:18:40.993Z</time></trkpt><trkpt lat="42.0564783" lon="12.043025"><ele>315.0</ele><time>2026-04-26T13:18:41.989Z</time></trkpt><trkpt lat="42.05627" lon="12.0430883"><ele>315.6666666666667</ele><time>2026-04-26T13:18:42.992Z</time></trkpt><trkpt lat="42.0560617" lon="12.043155"><ele>316.33333333333337</ele><time>2026-04-26T13:18:44Z</time></trkpt><trkpt lat="42.055855" lon="12.0432183"><ele>317.0</ele><time>2026-04-26T13:18:44.995Z</time></trkpt><trkpt lat="42.0556517" lon="12.04328"><ele>315.33333333333337</ele><time>2026-04-26T13:18:45.996Z</time></trkpt><trkpt lat="42.0554517" lon="12.0433433"><ele>313.6666666666667</ele><time>2026-04-26T13:18:46.997Z</time></trkpt><trkpt lat="42.0552533" lon="12.0434117"><ele>312.0</ele><time>2026-04-26T13:18:47.994Z</time></trkpt><trkpt lat="42.0550583" lon="12.043475"><ele>313.6666666666667</ele><time>2026-04-26T13:18:48.997Z</time></trkpt><trkpt lat="42.0548633" lon="12.04353"><ele>315.33333333333337</ele><time>2026-04-26T13:18:49.993Z</time></trkpt><trkpt lat="42.0546783" lon="12.0435833"><ele>317.0</ele><time>2026-04-26T13:18:50.994Z</time></trkpt><trkpt lat="42.0545083" lon="12.0436217"><ele>317.0</ele><time>2026-04-26T13:18:51.993Z</time></trkpt><trkpt lat="42.05435" lon="12.0436483"><ele>317.0</ele><time>2026-04-26T13:18:52.997Z</time></trkpt><trkpt lat="42.0541967" lon="12.0436533"><ele>317.0</ele><time>2026-04-26T13:18:54.002Z</time></trkpt><trkpt lat="42.05404" lon="12.0436317"><ele>314.6666666666667</ele><time>2026-04-26T13:18:54.995Z</time></trkpt><trkpt lat="42.0538767" lon="12.043575"><ele>312.3333333333333</ele><time>2026-04-26T13:18:55.994Z</time></trkpt><trkpt lat="42.0537" lon="12.0434833"><ele>310.0</ele><time>2026-04-26T13:18:57.001Z</time></trkpt><trkpt lat="42.053515" lon="12.0433817"><ele>311.3333333333333</ele><time>2026-04-26T13:18:57.999Z</time></trkpt><trkpt lat="42.0533333" lon="12.0432933"><ele>312.6666666666667</ele><time>2026-04-26T13:18:58.987Z</time></trkpt><trkpt lat="42.0531617" lon="12.0431867"><ele>314.0</ele><time>2026-04-26T13:18:59.998Z</time></trkpt><trkpt lat="42.05299" lon="12.0430717"><ele>309.33333333333337</ele><time>2026-04-26T13:19:00.988Z</time></trkpt><trkpt lat="42.05282" lon="12.042935"><ele>304.6666666666667</ele><time>2026-04-26T13:19:01.99Z</time></trkpt><trkpt lat="42.0526533" lon="12.04281"><ele>300.0</ele><time>2026-04-26T13:19:02.995Z</time></trkpt><trkpt lat="42.052495" lon="12.0426867"><ele>294.6666666666667</ele><time>2026-04-26T13:19:03.995Z</time></trkpt><trkpt lat="42.0523433" lon="12.0425733"><ele>289.33333333333337</ele><time>2026-04-26T13:19:04.993Z</time></trkpt><trkpt lat="42.0521967" lon="12.0424667"><ele>284.0</ele><time>2026-04-26T13:19:05.993Z</time></trkpt><trkpt lat="42.0520633" lon="12.0423333"><ele>284.0</ele><time>2026-04-26T13:19:06.995Z</time></trkpt><trkpt lat="42.0519367" lon="12.042175"><ele>284.0</ele><time>2026-04-26T13:19:07.994Z</time></trkpt><trkpt lat="42.0518167" lon="12.04198"><ele>284.0</ele><time>2026-04-26T13:19:08.995Z</time></trkpt><trkpt lat="42.0517017" lon="12.0417683"><ele>278.33333333333337</ele><time>2026-04-26T13:19:09.996Z</time></trkpt><trkpt lat="42.0515933" lon="12.041555"><ele>272.6666666666667</ele><time>2026-04-26T13:19:10.993Z</time></trkpt><trkpt lat="42.0514867" lon="12.041335"><ele>267.0</ele><time>2026-04-26T13:19:11.996Z</time></trkpt><trkpt lat="42.0513833" lon="12.041105"><ele>267.0</ele><time>2026-04-26T13:19:12.993Z</time></trkpt><trkpt lat="42.0512883" lon="12.040865"><ele>267.0</ele><time>2026-04-26T13:19:13.995Z</time></trkpt><trkpt lat="42.051195" lon="12.04063"><ele>267.0</ele><time>2026-04-26T13:19:14.991Z</time></trkpt><trkpt lat="42.0510933" lon="12.0403983"><ele>265.6666666666667</ele><time>2026-04-26T13:19:15.991Z</time></trkpt><trkpt lat="42.050975" lon="12.0401533"><ele>264.33333333333337</ele><time>2026-04-26T13:19:16.99Z</time></trkpt><trkpt lat="42.0508417" lon="12.0399017"><ele>263.0</ele><time>2026-04-26T13:19:17.991Z</time></trkpt><trkpt lat="42.0507033" lon="12.0396633"><ele>263.0</ele><time>2026-04-26T13:19:18.996Z</time></trkpt><trkpt lat="42.0505633" lon="12.0394417"><ele>263.0</ele><time>2026-04-26T13:19:19.991Z</time></trkpt><trkpt lat="42.05043" lon="12.0392367"><ele>263.0</ele><time>2026-04-26T13:19:20.995Z</time></trkpt><trkpt lat="42.0503067" lon="12.0390517"><ele>267.0</ele><time>2026-04-26T13:19:21.991Z</time></trkpt><trkpt lat="42.0501867" lon="12.038885"><ele>271.0</ele><time>2026-04-26T13:19:22.995Z</time></trkpt><trkpt lat="42.0500733" lon="12.0387333"><ele>275.0</ele><time>2026-04-26T13:19:23.991Z</time></trkpt><trkpt lat="42.0499633" lon="12.038595"><ele>271.5</ele><time>2026-04-26T13:19:24.992Z</time></trkpt><trkpt lat="42.0498517" lon="12.038475"><ele>268.0</ele><time>2026-04-26T13:19:25.995Z</time></trkpt><trkpt lat="42.0497317" lon="12.03837"><ele>264.5</ele><time>2026-04-26T13:19:26.991Z</time></trkpt><trkpt lat="42.04961" lon="12.0382617"><ele>261.0</ele><time>2026-04-26T13:19:27.995Z</time></trkpt><trkpt lat="42.0494933" lon="12.0381467"><ele>261.0</ele><time>2026-04-26T13:19:28.996Z</time></trkpt><trkpt lat="42.049385" lon="12.038025"><ele>261.0</ele><time>2026-04-26T13:19:29.998Z</time></trkpt><trkpt lat="42.049285" lon="12.037895"><ele>261.0</ele><time>2026-04-26T13:19:30.992Z</time></trkpt><trkpt lat="42.0491933" lon="12.0377633"><ele>261.0</ele><time>2026-04-26T13:19:31.991Z</time></trkpt><trkpt lat="42.0491117" lon="12.0376283"><ele>256.5</ele><time>2026-04-26T13:19:32.997Z</time></trkpt><trkpt lat="42.0490517" lon="12.0374767"><ele>252.0</ele><time>2026-04-26T13:19:33.994Z</time></trkpt><trkpt lat="42.0490067" lon="12.0373033"><ele>247.5</ele><time>2026-04-26T13:19:34.99Z</time></trkpt><trkpt lat="42.0489717" lon="12.0371217"><ele>243.0</ele><time>2026-04-26T13:19:35.997Z</time></trkpt><trkpt lat="42.04894" lon="12.0369433"><ele>243.0</ele><time>2026-04-26T13:19:36.996Z</time></trkpt><trkpt lat="42.04891" lon="12.03677"><ele>243.0</ele><time>2026-04-26T13:19:37.994Z</time></trkpt><trkpt lat="42.0488867" lon="12.0365933"><ele>243.0</ele><time>2026-04-26T13:19:38.991Z</time></trkpt><trkpt lat="42.0488683" lon="12.0364167"><ele>243.0</ele><time>2026-04-26T13:19:39.992Z</time></trkpt><trkpt lat="42.0488483" lon="12.0362467"><ele>242.75</ele><time>2026-04-26T13:19:41.005Z</time></trkpt><trkpt lat="42.0488267" lon="12.03608"><ele>242.5</ele><time>2026-04-26T13:19:41.994Z</time></trkpt><trkpt lat="42.0488" lon="12.0359167"><ele>242.25</ele><time>2026-04-26T13:19:42.994Z</time></trkpt><trkpt lat="42.0487683" lon="12.0357617"><ele>242.0</ele><time>2026-04-26T13:19:43.994Z</time></trkpt><trkpt lat="42.04873" lon="12.0356167"><ele>240.75</ele><time>2026-04-26T13:19:44.988Z</time></trkpt><trkpt lat="42.04868" lon="12.03548"><ele>239.5</ele><time>2026-04-26T13:19:45.993Z</time></trkpt><trkpt lat="42.0486183" lon="12.0353533"><ele>238.25</ele><time>2026-04-26T13:19:46.993Z</time></trkpt><trkpt lat="42.0485433" lon="12.0352367"><ele>237.0</ele><time>2026-04-26T13:19:47.993Z</time></trkpt><trkpt lat="42.0484517" lon="12.035135"><ele>237.0</ele><time>2026-04-26T13:19:48.992Z</time></trkpt><trkpt lat="42.048345" lon="12.03505"><ele>237.0</ele><time>2026-04-26T13:19:49.998Z</time></trkpt><trkpt lat="42.048225" lon="12.0349883"><ele>237.0</ele><time>2026-04-26T13:19:50.991Z</time></trkpt><trkpt lat="42.0480933" lon="12.034945"><ele>237.0</ele><time>2026-04-26T13:19:51.993Z</time></trkpt><trkpt lat="42.0479583" lon="12.0349233"><ele>234.5</ele><time>2026-04-26T13:19:52.991Z</time></trkpt><trkpt lat="42.0478317" lon="12.034915"><ele>232.0</ele><time>2026-04-26T13:19:53.992Z</time></trkpt><trkpt lat="42.0477133" lon="12.0349183"><ele>229.5</ele><time>2026-04-26T13:19:54.994Z</time></trkpt><trkpt lat="42.0476033" lon="12.034945"><ele>227.0</ele><time>2026-04-26T13:19:55.991Z</time></trkpt><trkpt lat="42.0474983" lon="12.0349883"><ele>224.8</ele><time>2026-04-26T13:19:56.993Z</time></trkpt><trkpt lat="42.0474033" lon="12.0350383"><ele>222.6</ele><time>2026-04-26T13:19:57.988Z</time></trkpt><trkpt lat="42.0473133" lon="12.0350833"><ele>220.40000000000003</ele><time>2026-04-26T13:19:58.995Z</time></trkpt><trkpt lat="42.0472217" lon="12.035115"><ele>218.20000000000002</ele><time>2026-04-26T13:19:59.99Z</time></trkpt><trkpt lat="42.0471267" lon="12.0351267"><ele>216.0</ele><time>2026-04-26T13:20:00.993Z</time></trkpt><trkpt lat="42.047025" lon="12.03511"><ele>216.0</ele><time>2026-04-26T13:20:01.994Z</time></trkpt><trkpt lat="42.04692" lon="12.0350683"><ele>216.0</ele><time>2026-04-26T13:20:02.993Z</time></trkpt><trkpt lat="42.0468133" lon="12.035005"><ele>216.0</ele><time>2026-04-26T13:20:03.991Z</time></trkpt><trkpt lat="42.04671" lon="12.034925"><ele>216.0</ele><time>2026-04-26T13:20:04.995Z</time></trkpt><trkpt lat="42.0466083" lon="12.0348333"><ele>212.25</ele><time>2026-04-26T13:20:05.992Z</time></trkpt><trkpt lat="42.04651" lon="12.03472"><ele>208.5</ele><time>2026-04-26T13:20:06.99Z</time></trkpt><trkpt lat="42.0464133" lon="12.0345983"><ele>204.75</ele><time>2026-04-26T13:20:07.994Z</time></trkpt><trkpt lat="42.0463183" lon="12.0344667"><ele>201.0</ele><time>2026-04-26T13:20:08.997Z</time></trkpt><trkpt lat="42.046215" lon="12.0343367"><ele>201.0</ele><time>2026-04-26T13:20:09.992Z</time></trkpt><trkpt lat="42.046105" lon="12.0342183"><ele>201.0</ele><time>2026-04-26T13:20:10.995Z</time></trkpt><trkpt lat="42.0459917" lon="12.03411"><ele>201.0</ele><time>2026-04-26T13:20:11.992Z</time></trkpt><trkpt lat="42.0458767" lon="12.034015"><ele>201.0</ele><time>2026-04-26T13:20:12.991Z</time></trkpt><trkpt lat="42.0457583" lon="12.0339233"><ele>199.5</ele><time>2026-04-26T13:20:13.995Z</time></trkpt><trkpt lat="42.045635" lon="12.033835"><ele>198.0</ele><time>2026-04-26T13:20:14.992Z</time></trkpt><trkpt lat="42.0455067" lon="12.03375"><ele>196.5</ele><time>2026-04-26T13:20:15.993Z</time></trkpt><trkpt lat="42.045375" lon="12.033665"><ele>195.0</ele><time>2026-04-26T13:20:16.989Z</time></trkpt><trkpt lat="42.045245" lon="12.0335833"><ele>195.0</ele><time>2026-04-26T13:20:17.988Z</time></trkpt><trkpt lat="42.0451183" lon="12.03351"><ele>195.0</ele><time>2026-04-26T13:20:18.994Z</time></trkpt><trkpt lat="42.0449967" lon="12.03344"><ele>195.0</ele><time>2026-04-26T13:20:19.993Z</time></trkpt><trkpt lat="42.044875" lon="12.0333617"><ele>195.0</ele><time>2026-04-26T13:20:20.994Z</time></trkpt><trkpt lat="42.0447517" lon="12.0332783"><ele>192.25</ele><time>2026-04-26T13:20:21.995Z</time></trkpt><trkpt lat="42.0446267" lon="12.0331917"><ele>189.5</ele><time>2026-04-26T13:20:22.992Z</time></trkpt><trkpt lat="42.044505" lon="12.0331133"><ele>186.75</ele><time>2026-04-26T13:20:23.995Z</time></trkpt><trkpt lat="42.0443817" lon="12.0330417"><ele>184.0</ele><time>2026-04-26T13:20:24.996Z</time></trkpt><trkpt lat="42.0442583" lon="12.03298"><ele>184.0</ele><time>2026-04-26T13:20:25.993Z</time></trkpt><trkpt lat="42.0441367" lon="12.0329333"><ele>184.0</ele><time>2026-04-26T13:20:26.999Z</time></trkpt><trkpt lat="42.04401" lon="12.032905"><ele>184.0</ele><time>2026-04-26T13:20:27.993Z</time></trkpt><trkpt lat="42.0438817" lon="12.0328967"><ele>184.0</ele><time>2026-04-26T13:20:28.99Z</time></trkpt><trkpt lat="42.04375" lon="12.0329017"><ele>182.75</ele><time>2026-04-26T13:20:29.994Z</time></trkpt><trkpt lat="42.043615" lon="12.0329167"><ele>181.5</ele><time>2026-04-26T13:20:30.993Z</time></trkpt><trkpt lat="42.0434783" lon="12.0329283"><ele>180.25</ele><time>2026-04-26T13:20:31.994Z</time></trkpt><trkpt lat="42.0433433" lon="12.0329467"><ele>179.0</ele><time>2026-04-26T13:20:32.994Z</time></trkpt><trkpt lat="42.0432083" lon="12.0329633"><ele>176.5</ele><time>2026-04-26T13:20:33.998Z</time></trkpt><trkpt lat="42.043075" lon="12.0329783"><ele>174.0</ele><time>2026-04-26T13:20:34.994Z</time></trkpt><trkpt lat="42.0429433" lon="12.033"><ele>171.5</ele><time>2026-04-26T13:20:35.994Z</time></trkpt><trkpt lat="42.0428083" lon="12.0330367"><ele>169.0</ele><time>2026-04-26T13:20:36.995Z</time></trkpt><trkpt lat="42.0426717" lon="12.0330883"><ele>169.0</ele><time>2026-04-26T13:20:37.998Z</time></trkpt><trkpt lat="42.04254" lon="12.033155"><ele>169.0</ele><time>2026-04-26T13:20:38.997Z</time></trkpt><trkpt lat="42.0424167" lon="12.03322"><ele>169.0</ele><time>2026-04-26T13:20:39.994Z</time></trkpt><trkpt lat="42.0423" lon="12.0332767"><ele>169.0</ele><time>2026-04-26T13:20:40.99Z</time></trkpt><trkpt lat="42.0421933" lon="12.0333267"><ele>166.6</ele><time>2026-04-26T13:20:41.992Z</time></trkpt><trkpt lat="42.0420917" lon="12.0333667"><ele>164.2</ele><time>2026-04-26T13:20:42.991Z</time></trkpt><trkpt lat="42.0419867" lon="12.0333933"><ele>161.79999999999998</ele><time>2026-04-26T13:20:43.999Z</time></trkpt><trkpt lat="42.04188" lon="12.0333917"><ele>159.39999999999998</ele><time>2026-04-26T13:20:44.997Z</time></trkpt><trkpt lat="42.041765" lon="12.033365"><ele>157.0</ele><time>2026-04-26T13:20:45.989Z</time></trkpt><trkpt lat="42.0416483" lon="12.0333133"><ele>153.5</ele><time>2026-04-26T13:20:47.004Z</time></trkpt><trkpt lat="42.0415317" lon="12.03324"><ele>150.0</ele><time>2026-04-26T13:20:47.995Z</time></trkpt><trkpt lat="42.0414183" lon="12.0331617"><ele>146.5</ele><time>2026-04-26T13:20:48.992Z</time></trkpt><trkpt lat="42.0413067" lon="12.0330783"><ele>143.0</ele><time>2026-04-26T13:20:49.993Z</time></trkpt><trkpt lat="42.0411967" lon="12.0329967"><ele>143.0</ele><time>2026-04-26T13:20:50.997Z</time></trkpt><trkpt lat="42.0410917" lon="12.032915"><ele>143.0</ele><time>2026-04-26T13:20:51.993Z</time></trkpt><trkpt lat="42.040985" lon="12.0328417"><ele>143.0</ele><time>2026-04-26T13:20:52.996Z</time></trkpt><trkpt lat="42.040875" lon="12.032765"><ele>143.0</ele><time>2026-04-26T13:20:53.99Z</time></trkpt><trkpt lat="42.0407533" lon="12.032695"><ele>140.75</ele><time>2026-04-26T13:20:54.994Z</time></trkpt><trkpt lat="42.0406183" lon="12.0326333"><ele>138.5</ele><time>2026-04-26T13:20:55.988Z</time></trkpt><trkpt lat="42.04048" lon="12.0325833"><ele>136.25</ele><time>2026-04-26T13:20:56.99Z</time></trkpt><trkpt lat="42.0403333" lon="12.0325417"><ele>134.0</ele><time>2026-04-26T13:20:57.992Z</time></trkpt><trkpt lat="42.0401833" lon="12.03251"><ele>134.0</ele><time>2026-04-26T13:20:58.994Z</time></trkpt><trkpt lat="42.0400367" lon="12.0324733"><ele>134.0</ele><time>2026-04-26T13:20:59.997Z</time></trkpt><trkpt lat="42.0398933" lon="12.032435"><ele>134.0</ele><time>2026-04-26T13:21:00.99Z</time></trkpt><trkpt lat="42.0397533" lon="12.032395"><ele>134.0</ele><time>2026-04-26T13:21:01.993Z</time></trkpt><trkpt lat="42.0396133" lon="12.032355"><ele>129.5</ele><time>2026-04-26T13:21:02.993Z</time></trkpt><trkpt lat="42.03948" lon="12.0323167"><ele>125.0</ele><time>2026-04-26T13:21:03.997Z</time></trkpt><trkpt lat="42.03935" lon="12.0322867"><ele>120.5</ele><time>2026-04-26T13:21:04.993Z</time></trkpt><trkpt lat="42.0392233" lon="12.0322667"><ele>116.0</ele><time>2026-04-26T13:21:05.993Z</time></trkpt><trkpt lat="42.0390983" lon="12.032265"><ele>116.0</ele><time>2026-04-26T13:21:06.999Z</time></trkpt><trkpt lat="42.0389733" lon="12.03229"><ele>116.0</ele><time>2026-04-26T13:21:08Z</time></trkpt><trkpt lat="42.0388417" lon="12.0323383"><ele>116.0</ele><time>2026-04-26T13:21:08.994Z</time></trkpt><trkpt lat="42.03871" lon="12.032405"><ele>116.0</ele><time>2026-04-26T13:21:09.997Z</time></trkpt><trkpt lat="42.0385833" lon="12.0324867"><ele>116.0</ele><time>2026-04-26T13:21:10.99Z</time></trkpt><trkpt lat="42.0384717" lon="12.0325783"><ele>116.0</ele><time>2026-04-26T13:21:11.995Z</time></trkpt><trkpt lat="42.0383683" lon="12.0326733"><ele>116.0</ele><time>2026-04-26T13:21:12.992Z</time></trkpt><trkpt lat="42.0382733" lon="12.032765"><ele>116.0</ele><time>2026-04-26T13:21:13.99Z</time></trkpt><trkpt lat="42.03818" lon="12.0328567"><ele>113.0</ele><time>2026-04-26T13:21:14.988Z</time></trkpt><trkpt lat="42.0380917" lon="12.032955"><ele>110.0</ele><time>2026-04-26T13:21:15.991Z</time></trkpt><trkpt lat="42.0379967" lon="12.033075"><ele>107.0</ele><time>2026-04-26T13:21:16.999Z</time></trkpt><trkpt lat="42.0378917" lon="12.0332167"><ele>104.0</ele><time>2026-04-26T13:21:17.995Z</time></trkpt><trkpt lat="42.0377883" lon="12.0333617"><ele>104.0</ele><time>2026-04-26T13:21:18.995Z</time></trkpt><trkpt lat="42.0376883" lon="12.0334983"><ele>104.0</ele><time>2026-04-26T13:21:19.991Z</time></trkpt><trkpt lat="42.0375933" lon="12.03363"><ele>104.0</ele><time>2026-04-26T13:21:20.992Z</time></trkpt><trkpt lat="42.0375017" lon="12.0337483"><ele>104.0</ele><time>2026-04-26T13:21:21.996Z</time></trkpt><trkpt lat="42.0374033" lon="12.033845"><ele>101.75</ele><time>2026-04-26T13:21:22.992Z</time></trkpt><trkpt lat="42.0372967" lon="12.0339117"><ele>99.5</ele><time>2026-04-26T13:21:23.99Z</time></trkpt><trkpt lat="42.03718" lon="12.03394"><ele>97.25</ele><time>2026-04-26T13:21:24.995Z</time></trkpt><trkpt lat="42.0370567" lon="12.0339283"><ele>95.0</ele><time>2026-04-26T13:21:25.992Z</time></trkpt><trkpt lat="42.0369217" lon="12.0338867"><ele>95.0</ele><time>2026-04-26T13:21:26.989Z</time></trkpt><trkpt lat="42.03678" lon="12.0338217"><ele>95.0</ele><time>2026-04-26T13:21:27.99Z</time></trkpt><trkpt lat="42.03664" lon="12.0337483"><ele>95.0</ele><time>2026-04-26T13:21:28.996Z</time></trkpt><trkpt lat="42.0364983" lon="12.0336833"><ele>96.0</ele><time>2026-04-26T13:21:29.991Z</time></trkpt><trkpt lat="42.0363567" lon="12.0336233"><ele>97.0</ele><time>2026-04-26T13:21:30.997Z</time></trkpt><trkpt lat="42.0362233" lon="12.0335733"><ele>98.0</ele><time>2026-04-26T13:21:31.998Z</time></trkpt><trkpt lat="42.0360933" lon="12.0335367"><ele>99.0</ele><time>2026-04-26T13:21:32.997Z</time></trkpt><trkpt lat="42.0359633" lon="12.0335"><ele>99.0</ele><time>2026-04-26T13:21:33.991Z</time></trkpt><trkpt lat="42.0358283" lon="12.0334733"><ele>99.0</ele><time>2026-04-26T13:21:34.992Z</time></trkpt><trkpt lat="42.0356833" lon="12.0334583"><ele>99.0</ele><time>2026-04-26T13:21:35.996Z</time></trkpt><trkpt lat="42.0355333" lon="12.0334583"><ele>99.0</ele><time>2026-04-26T13:21:36.996Z</time></trkpt><trkpt lat="42.0353817" lon="12.03347"><ele>97.75</ele><time>2026-04-26T13:21:37.998Z</time></trkpt><trkpt lat="42.035235" lon="12.03349"><ele>96.5</ele><time>2026-04-26T13:21:39Z</time></trkpt><trkpt lat="42.0350917" lon="12.0335183"><ele>95.25</ele><time>2026-04-26T13:21:39.996Z</time></trkpt><trkpt lat="42.0349483" lon="12.0335667"><ele>94.0</ele><time>2026-04-26T13:21:40.99Z</time></trkpt><trkpt lat="42.034805" lon="12.0336267"><ele>90.66666666666666</ele><time>2026-04-26T13:21:41.987Z</time></trkpt><trkpt lat="42.03466" lon="12.033695"><ele>87.33333333333333</ele><time>2026-04-26T13:21:42.995Z</time></trkpt><trkpt lat="42.03452" lon="12.033775"><ele>84.0</ele><time>2026-04-26T13:21:43.991Z</time></trkpt><trkpt lat="42.034385" lon="12.03386"><ele>84.0</ele><time>2026-04-26T13:21:44.989Z</time></trkpt><trkpt lat="42.0342583" lon="12.033945"><ele>84.0</ele><time>2026-04-26T13:21:45.994Z</time></trkpt><trkpt lat="42.0341317" lon="12.0340267"><ele>84.0</ele><time>2026-04-26T13:21:46.992Z</time></trkpt><trkpt lat="42.0340017" lon="12.0341067"><ele>84.0</ele><time>2026-04-26T13:21:47.993Z</time></trkpt><trkpt lat="42.0338733" lon="12.03418"><ele>85.5</ele><time>2026-04-26T13:21:48.994Z</time></trkpt><trkpt lat="42.033745" lon="12.0342417"><ele>87.0</ele><time>2026-04-26T13:21:49.994Z</time></trkpt><trkpt lat="42.033615" lon="12.0342833"><ele>88.5</ele><time>2026-04-26T13:21:50.991Z</time></trkpt><trkpt lat="42.0334783" lon="12.0343017"><ele>90.0</ele><time>2026-04-26T13:21:51.991Z</time></trkpt><trkpt lat="42.03333" lon="12.0343"><ele>89.33333333333333</ele><time>2026-04-26T13:21:52.998Z</time></trkpt><trkpt lat="42.0331783" lon="12.03428"><ele>88.66666666666666</ele><time>2026-04-26T13:21:53.994Z</time></trkpt><trkpt lat="42.0330267" lon="12.0342467"><ele>88.0</ele><time>2026-04-26T13:21:54.991Z</time></trkpt><trkpt lat="42.0328833" lon="12.0342167"><ele>88.0</ele><time>2026-04-26T13:21:55.991Z</time></trkpt><trkpt lat="42.03274" lon="12.0341883"><ele>88.0</ele><time>2026-04-26T13:21:56.994Z</time></trkpt><trkpt lat="42.0325933" lon="12.034155"><ele>88.0</ele><time>2026-04-26T13:21:57.992Z</time></trkpt><trkpt lat="42.0324483" lon="12.0341217"><ele>88.0</ele><time>2026-04-26T13:21:58.992Z</time></trkpt><trkpt lat="42.03231" lon="12.03409"><ele>88.75</ele><time>2026-04-26T13:22:00.003Z</time></trkpt><trkpt lat="42.0321767" lon="12.0340583"><ele>89.5</ele><time>2026-04-26T13:22:00.996Z</time></trkpt><trkpt lat="42.032045" lon="12.0340233"><ele>90.25</ele><time>2026-04-26T13:22:01.992Z</time></trkpt><trkpt lat="42.0319133" lon="12.0339867"><ele>91.0</ele><time>2026-04-26T13:22:02.997Z</time></trkpt><trkpt lat="42.03178" lon="12.033945"><ele>91.0</ele><time>2026-04-26T13:22:03.996Z</time></trkpt><trkpt lat="42.0316483" lon="12.03389"><ele>91.0</ele><time>2026-04-26T13:22:04.995Z</time></trkpt><trkpt lat="42.0315167" lon="12.03381"><ele>91.0</ele><time>2026-04-26T13:22:05.992Z</time></trkpt><trkpt lat="42.0313767" lon="12.0337117"><ele>91.0</ele><time>2026-04-26T13:22:06.994Z</time></trkpt><trkpt lat="42.03124" lon="12.033605"><ele>89.5</ele><time>2026-04-26T13:22:07.999Z</time></trkpt><trkpt lat="42.0311133" lon="12.0334917"><ele>88.0</ele><time>2026-04-26T13:22:08.991Z</time></trkpt><trkpt lat="42.0309917" lon="12.0333833"><ele>86.5</ele><time>2026-04-26T13:22:09.993Z</time></trkpt><trkpt lat="42.0308733" lon="12.0332767"><ele>85.0</ele><time>2026-04-26T13:22:10.99Z</time></trkpt><trkpt lat="42.03075" lon="12.0331633"><ele>84.33333333333333</ele><time>2026-04-26T13:22:11.996Z</time></trkpt><trkpt lat="42.0306217" lon="12.0330467"><ele>83.66666666666667</ele><time>2026-04-26T13:22:12.996Z</time></trkpt><trkpt lat="42.03049" lon="12.032935"><ele>83.0</ele><time>2026-04-26T13:22:13.994Z</time></trkpt><trkpt lat="42.03036" lon="12.032825"><ele>83.0</ele><time>2026-04-26T13:22:14.996Z</time></trkpt><trkpt lat="42.0302383" lon="12.0327167"><ele>83.0</ele><time>2026-04-26T13:22:15.993Z</time></trkpt><trkpt lat="42.0301183" lon="12.0326083"><ele>83.0</ele><time>2026-04-26T13:22:16.993Z</time></trkpt><trkpt lat="42.029995" lon="12.0325"><ele>83.0</ele><time>2026-04-26T13:22:17.995Z</time></trkpt><trkpt lat="42.0298717" lon="12.032385"><ele>82.33333333333334</ele><time>2026-04-26T13:22:18.996Z</time></trkpt><trkpt lat="42.02975" lon="12.03226"><ele>81.66666666666667</ele><time>2026-04-26T13:22:19.994Z</time></trkpt><trkpt lat="42.0296367" lon="12.0321183"><ele>81.0</ele><time>2026-04-26T13:22:20.992Z</time></trkpt><trkpt lat="42.0295367" lon="12.0319583"><ele>81.0</ele><time>2026-04-26T13:22:21.996Z</time></trkpt><trkpt lat="42.0294483" lon="12.0317833"><ele>81.0</ele><time>2026-04-26T13:22:22.993Z</time></trkpt><trkpt lat="42.02937" lon="12.0316"><ele>81.0</ele><time>2026-04-26T13:22:23.993Z</time></trkpt><trkpt lat="42.029295" lon="12.0314183"><ele>80.25</ele><time>2026-04-26T13:22:24.994Z</time></trkpt><trkpt lat="42.0292217" lon="12.03125"><ele>79.5</ele><time>2026-04-26T13:22:25.991Z</time></trkpt><trkpt lat="42.0291433" lon="12.0310883"><ele>78.75</ele><time>2026-04-26T13:22:26.991Z</time></trkpt><trkpt lat="42.02905" lon="12.0309417"><ele>78.0</ele><time>2026-04-26T13:22:27.999Z</time></trkpt><trkpt lat="42.0289383" lon="12.0308117"><ele>75.66666666666667</ele><time>2026-04-26T13:22:28.992Z</time></trkpt><trkpt lat="42.0288083" lon="12.0307"><ele>73.33333333333334</ele><time>2026-04-26T13:22:29.993Z</time></trkpt><trkpt lat="42.0286733" lon="12.0306067"><ele>71.0</ele><time>2026-04-26T13:22:31Z</time></trkpt><trkpt lat="42.02854" lon="12.0305267"><ele>71.0</ele><time>2026-04-26T13:22:31.992Z</time></trkpt><trkpt lat="42.028405" lon="12.030455"><ele>71.0</ele><time>2026-04-26T13:22:32.991Z</time></trkpt><trkpt lat="42.0282633" lon="12.0303967"><ele>71.0</ele><time>2026-04-26T13:22:33.991Z</time></trkpt><trkpt lat="42.0281117" lon="12.030355"><ele>71.0</ele><time>2026-04-26T13:22:34.994Z</time></trkpt><trkpt lat="42.02795" lon="12.0303233"><ele>70.0</ele><time>2026-04-26T13:22:35.991Z</time></trkpt><trkpt lat="42.0277883" lon="12.0303"><ele>69.0</ele><time>2026-04-26T13:22:36.991Z</time></trkpt><trkpt lat="42.0276283" lon="12.0302783"><ele>68.0</ele><time>2026-04-26T13:22:37.994Z</time></trkpt><trkpt lat="42.0274633" lon="12.030255"><ele>67.66666666666667</ele><time>2026-04-26T13:22:38.99Z</time></trkpt><trkpt lat="42.0272933" lon="12.0302333"><ele>67.33333333333333</ele><time>2026-04-26T13:22:39.993Z</time></trkpt><trkpt lat="42.0271267" lon="12.0302083"><ele>67.0</ele><time>2026-04-26T13:22:40.995Z</time></trkpt><trkpt lat="42.026965" lon="12.030185"><ele>67.0</ele><time>2026-04-26T13:22:41.991Z</time></trkpt><trkpt lat="42.0268067" lon="12.0301617"><ele>67.0</ele><time>2026-04-26T13:22:42.996Z</time></trkpt><trkpt lat="42.0266467" lon="12.03014"><ele>67.0</ele><time>2026-04-26T13:22:43.996Z</time></trkpt><trkpt lat="42.0264867" lon="12.0301167"><ele>65.33333333333333</ele><time>2026-04-26T13:22:44.994Z</time></trkpt><trkpt lat="42.0263267" lon="12.0300983"><ele>63.66666666666667</ele><time>2026-04-26T13:22:45.992Z</time></trkpt><trkpt lat="42.02617" lon="12.03008"><ele>62.0</ele><time>2026-04-26T13:22:46.995Z</time></trkpt><trkpt lat="42.0260133" lon="12.03006"><ele>62.0</ele><time>2026-04-26T13:22:47.994Z</time></trkpt><trkpt lat="42.02586" lon="12.03004"><ele>62.0</ele><time>2026-04-26T13:22:48.995Z</time></trkpt><trkpt lat="42.0257133" lon="12.0300133"><ele>62.0</ele><time>2026-04-26T13:22:49.993Z</time></trkpt><trkpt lat="42.0255717" lon="12.0299933"><ele>62.0</ele><time>2026-04-26T13:22:50.998Z</time></trkpt><trkpt lat="42.02543" lon="12.0299667"><ele>61.25</ele><time>2026-04-26T13:22:51.991Z</time></trkpt><trkpt lat="42.02529" lon="12.02993"><ele>60.5</ele><time>2026-04-26T13:22:52.993Z</time></trkpt><trkpt lat="42.02515" lon="12.029885"><ele>59.75</ele><time>2026-04-26T13:22:53.994Z</time></trkpt><trkpt lat="42.02501" lon="12.02983"><ele>59.0</ele><time>2026-04-26T13:22:54.997Z</time></trkpt><trkpt lat="42.0248733" lon="12.0297667"><ele>56.0</ele><time>2026-04-26T13:22:55.996Z</time></trkpt><trkpt lat="42.0247333" lon="12.0296983"><ele>53.0</ele><time>2026-04-26T13:22:56.994Z</time></trkpt><trkpt lat="42.0245883" lon="12.0296367"><ele>50.0</ele><time>2026-04-26T13:22:57.993Z</time></trkpt><trkpt lat="42.02444" lon="12.0295783"><ele>50.0</ele><time>2026-04-26T13:22:58.993Z</time></trkpt><trkpt lat="42.0242933" lon="12.02952"><ele>50.0</ele><time>2026-04-26T13:22:59.991Z</time></trkpt><trkpt lat="42.02415" lon="12.0294683"><ele>50.0</ele><time>2026-04-26T13:23:00.991Z</time></trkpt><trkpt lat="42.024015" lon="12.029415"><ele>50.0</ele><time>2026-04-26T13:23:01.996Z</time></trkpt><trkpt lat="42.0238833" lon="12.0293633"><ele>49.5</ele><time>2026-04-26T13:23:02.996Z</time></trkpt><trkpt lat="42.0237533" lon="12.0293133"><ele>49.0</ele><time>2026-04-26T13:23:03.997Z</time></trkpt><trkpt lat="42.023625" lon="12.0292667"><ele>48.5</ele><time>2026-04-26T13:23:04.996Z</time></trkpt><trkpt lat="42.0235033" lon="12.02922"><ele>48.0</ele><time>2026-04-26T13:23:05.991Z</time></trkpt><trkpt lat="42.0233883" lon="12.0291783"><ele>47.25</ele><time>2026-04-26T13:23:07Z</time></trkpt><trkpt lat="42.0232767" lon="12.0291367"><ele>46.5</ele><time>2026-04-26T13:23:07.994Z</time></trkpt><trkpt lat="42.0231633" lon="12.0290917"><ele>45.75</ele><time>2026-04-26T13:23:08.993Z</time></trkpt><trkpt lat="42.0230433" lon="12.02905"><ele>45.0</ele><time>2026-04-26T13:23:09.991Z</time></trkpt><trkpt lat="42.0229067" lon="12.0290067"><ele>45.0</ele><time>2026-04-26T13:23:10.998Z</time></trkpt><trkpt lat="42.0227567" lon="12.0289567"><ele>45.0</ele><time>2026-04-26T13:23:11.993Z</time></trkpt><trkpt lat="42.022595" lon="12.0289017"><ele>45.0</ele><time>2026-04-26T13:23:12.993Z</time></trkpt><trkpt lat="42.022425" lon="12.0288367"><ele>44.0</ele><time>2026-04-26T13:23:13.993Z</time></trkpt><trkpt lat="42.02225" lon="12.0287733"><ele>43.0</ele><time>2026-04-26T13:23:14.998Z</time></trkpt><trkpt lat="42.0220683" lon="12.0287033"><ele>42.0</ele><time>2026-04-26T13:23:15.989Z</time></trkpt><trkpt lat="42.021885" lon="12.028635"><ele>42.0</ele><time>2026-04-26T13:23:16.993Z</time></trkpt><trkpt lat="42.0217067" lon="12.028565"><ele>42.0</ele><time>2026-04-26T13:23:17.996Z</time></trkpt><trkpt lat="42.021525" lon="12.0284967"><ele>42.0</ele><time>2026-04-26T13:23:18.994Z</time></trkpt><trkpt lat="42.0213433" lon="12.0284283"><ele>41.333333333333336</ele><time>2026-04-26T13:23:19.999Z</time></trkpt><trkpt lat="42.02116" lon="12.0283567"><ele>40.66666666666667</ele><time>2026-04-26T13:23:20.991Z</time></trkpt><trkpt lat="42.0209767" lon="12.0282833"><ele>40.0</ele><time>2026-04-26T13:23:21.992Z</time></trkpt><trkpt lat="42.0207917" lon="12.0282083"><ele>40.0</ele><time>2026-04-26T13:23:22.996Z</time></trkpt><trkpt lat="42.0206033" lon="12.028135"><ele>40.0</ele><time>2026-04-26T13:23:23.994Z</time></trkpt><trkpt lat="42.020415" lon="12.0280617"><ele>40.0</ele><time>2026-04-26T13:23:24.992Z</time></trkpt><trkpt lat="42.0202233" lon="12.0279867"><ele>40.0</ele><time>2026-04-26T13:23:25.998Z</time></trkpt><trkpt lat="42.0200283" lon="12.02791"><ele>40.0</ele><time>2026-04-26T13:23:26.996Z</time></trkpt><trkpt lat="42.0198317" lon="12.02783"><ele>40.0</ele><time>2026-04-26T13:23:27.993Z</time></trkpt><trkpt lat="42.0196317" lon="12.0277517"><ele>39.333333333333336</ele><time>2026-04-26T13:23:28.995Z</time></trkpt><trkpt lat="42.0194267" lon="12.02767"><ele>38.666666666666664</ele><time>2026-04-26T13:23:29.993Z</time></trkpt><trkpt lat="42.0192217" lon="12.027585"><ele>38.0</ele><time>2026-04-26T13:23:30.993Z</time></trkpt><trkpt lat="42.019015" lon="12.0274967"><ele>37.666666666666664</ele><time>2026-04-26T13:23:31.995Z</time></trkpt><trkpt lat="42.018805" lon="12.02741"><ele>37.333333333333336</ele><time>2026-04-26T13:23:32.994Z</time></trkpt><trkpt lat="42.0185917" lon="12.0273217"><ele>37.0</ele><time>2026-04-26T13:23:33.997Z</time></trkpt><trkpt lat="42.018375" lon="12.02723"><ele>37.0</ele><time>2026-04-26T13:23:34.993Z</time></trkpt><trkpt lat="42.018155" lon="12.0271383"><ele>37.0</ele><time>2026-04-26T13:23:35.992Z</time></trkpt><trkpt lat="42.0179317" lon="12.0270417"><ele>37.0</ele><time>2026-04-26T13:23:36.995Z</time></trkpt><trkpt lat="42.01771" lon="12.0269467"><ele>37.0</ele><time>2026-04-26T13:23:37.992Z</time></trkpt><trkpt lat="42.017495" lon="12.026855"><ele>36.333333333333336</ele><time>2026-04-26T13:23:38.998Z</time></trkpt><trkpt lat="42.017285" lon="12.0267683"><ele>35.666666666666664</ele><time>2026-04-26T13:23:39.993Z</time></trkpt><trkpt lat="42.0170767" lon="12.02668"><ele>35.0</ele><time>2026-04-26T13:23:40.995Z</time></trkpt><trkpt lat="42.0168683" lon="12.02659"><ele>34.666666666666664</ele><time>2026-04-26T13:23:41.996Z</time></trkpt><trkpt lat="42.0166567" lon="12.0265"><ele>34.333333333333336</ele><time>2026-04-26T13:23:42.992Z</time></trkpt><trkpt lat="42.0164467" lon="12.02641"><ele>34.0</ele><time>2026-04-26T13:23:43.991Z</time></trkpt><trkpt lat="42.0162333" lon="12.0263183"><ele>33.66666666666667</ele><time>2026-04-26T13:23:44.995Z</time></trkpt><trkpt lat="42.01602" lon="12.026225"><ele>33.333333333333336</ele><time>2026-04-26T13:23:45.993Z</time></trkpt><trkpt lat="42.0158083" lon="12.0261317"><ele>33.0</ele><time>2026-04-26T13:23:46.993Z</time></trkpt><trkpt lat="42.015605" lon="12.0260467"><ele>32.0</ele><time>2026-04-26T13:23:47.992Z</time></trkpt><trkpt lat="42.0154083" lon="12.0259617"><ele>31.0</ele><time>2026-04-26T13:23:48.994Z</time></trkpt><trkpt lat="42.0152217" lon="12.02588"><ele>30.0</ele><time>2026-04-26T13:23:49.994Z</time></trkpt><trkpt lat="42.0150417" lon="12.0258033"><ele>29.333333333333336</ele><time>2026-04-26T13:23:50.99Z</time></trkpt><trkpt lat="42.0148667" lon="12.0257283"><ele>28.666666666666668</ele><time>2026-04-26T13:23:51.993Z</time></trkpt><trkpt lat="42.0147" lon="12.02566"><ele>28.0</ele><time>2026-04-26T13:23:52.997Z</time></trkpt><trkpt lat="42.014545" lon="12.02559"><ele>28.0</ele><time>2026-04-26T13:23:53.996Z</time></trkpt><trkpt lat="42.0143967" lon="12.02552"><ele>28.0</ele><time>2026-04-26T13:23:54.996Z</time></trkpt><trkpt lat="42.0142533" lon="12.0254533"><ele>28.0</ele><time>2026-04-26T13:23:55.993Z</time></trkpt><trkpt lat="42.0141117" lon="12.02539"><ele>28.25</ele><time>2026-04-26T13:23:56.999Z</time></trkpt><trkpt lat="42.0139733" lon="12.0253267"><ele>28.5</ele><time>2026-04-26T13:23:57.989Z</time></trkpt><trkpt lat="42.0138383" lon="12.02527"><ele>28.75</ele><time>2026-04-26T13:23:58.988Z</time></trkpt><trkpt lat="42.0137083" lon="12.025215"><ele>29.0</ele><time>2026-04-26T13:23:59.997Z</time></trkpt><trkpt lat="42.0135817" lon="12.025165"><ele>29.0</ele><time>2026-04-26T13:24:00.995Z</time></trkpt><trkpt lat="42.0134567" lon="12.0251167"><ele>29.0</ele><time>2026-04-26T13:24:01.992Z</time></trkpt><trkpt lat="42.01333" lon="12.025065"><ele>29.0</ele><time>2026-04-26T13:24:02.992Z</time></trkpt><trkpt lat="42.0132033" lon="12.0250083"><ele>29.0</ele><time>2026-04-26T13:24:03.99Z</time></trkpt><trkpt lat="42.0130767" lon="12.0249483"><ele>29.0</ele><time>2026-04-26T13:24:04.989Z</time></trkpt><trkpt lat="42.0129467" lon="12.0248933"><ele>29.0</ele><time>2026-04-26T13:24:05.992Z</time></trkpt><trkpt lat="42.0128167" lon="12.0248417"><ele>29.0</ele><time>2026-04-26T13:24:06.993Z</time></trkpt><trkpt lat="42.0126917" lon="12.02479"><ele>29.0</ele><time>2026-04-26T13:24:08Z</time></trkpt><trkpt lat="42.0125733" lon="12.0247367"><ele>28.75</ele><time>2026-04-26T13:24:08.992Z</time></trkpt><trkpt lat="42.01246" lon="12.0246867"><ele>28.5</ele><time>2026-04-26T13:24:09.991Z</time></trkpt><trkpt lat="42.01234" lon="12.0246383"><ele>28.25</ele><time>2026-04-26T13:24:10.991Z</time></trkpt><trkpt lat="42.0122117" lon="12.0245867"><ele>28.0</ele><time>2026-04-26T13:24:11.996Z</time></trkpt><trkpt lat="42.01208" lon="12.0245333"><ele>28.0</ele><time>2026-04-26T13:24:12.992Z</time></trkpt><trkpt lat="42.011945" lon="12.024475"><ele>28.0</ele><time>2026-04-26T13:24:13.993Z</time></trkpt><trkpt lat="42.0118067" lon="12.0244183"><ele>28.0</ele><time>2026-04-26T13:24:14.995Z</time></trkpt><trkpt lat="42.0116667" lon="12.0243583"><ele>28.0</ele><time>2026-04-26T13:24:15.994Z</time></trkpt><trkpt lat="42.0115233" lon="12.0242967"><ele>27.0</ele><time>2026-04-26T13:24:16.995Z</time></trkpt><trkpt lat="42.011375" lon="12.0242333"><ele>26.0</ele><time>2026-04-26T13:24:17.996Z</time></trkpt><trkpt lat="42.0112167" lon="12.024165"><ele>25.0</ele><time>2026-04-26T13:24:18.994Z</time></trkpt><trkpt lat="42.0110517" lon="12.02409"><ele>24.666666666666668</ele><time>2026-04-26T13:24:19.995Z</time></trkpt><trkpt lat="42.0108833" lon="12.0240283"><ele>24.333333333333336</ele><time>2026-04-26T13:24:20.997Z</time></trkpt><trkpt lat="42.0107083" lon="12.0239733"><ele>24.0</ele><time>2026-04-26T13:24:22Z</time></trkpt><trkpt lat="42.01054" lon="12.0239183"><ele>24.0</ele><time>2026-04-26T13:24:22.992Z</time></trkpt><trkpt lat="42.0103817" lon="12.0238567"><ele>24.0</ele><time>2026-04-26T13:24:23.992Z</time></trkpt><trkpt lat="42.0102283" lon="12.02378"><ele>24.0</ele><time>2026-04-26T13:24:24.995Z</time></trkpt><trkpt lat="42.0100817" lon="12.0236917"><ele>24.333333333333336</ele><time>2026-04-26T13:24:25.998Z</time></trkpt><trkpt lat="42.009945" lon="12.0235883"><ele>24.666666666666668</ele><time>2026-04-26T13:24:26.996Z</time></trkpt><trkpt lat="42.0098117" lon="12.0234917"><ele>25.0</ele><time>2026-04-26T13:24:27.993Z</time></trkpt><trkpt lat="42.009675" lon="12.0234033"><ele>25.0</ele><time>2026-04-26T13:24:28.992Z</time></trkpt><trkpt lat="42.00953" lon="12.0233283"><ele>25.0</ele><time>2026-04-26T13:24:29.994Z</time></trkpt><trkpt lat="42.0093717" lon="12.02326"><ele>25.0</ele><time>2026-04-26T13:24:30.993Z</time></trkpt><trkpt lat="42.0092083" lon="12.0231983"><ele>23.333333333333336</ele><time>2026-04-26T13:24:31.991Z</time></trkpt><trkpt lat="42.0090433" lon="12.0231433"><ele>21.666666666666668</ele><time>2026-04-26T13:24:32.992Z</time></trkpt><trkpt lat="42.00888" lon="12.0230883"><ele>20.0</ele><time>2026-04-26T13:24:33.991Z</time></trkpt><trkpt lat="42.0087133" lon="12.0230317"><ele>20.0</ele><time>2026-04-26T13:24:34.995Z</time></trkpt><trkpt lat="42.0085467" lon="12.02297"><ele>20.0</ele><time>2026-04-26T13:24:35.99Z</time></trkpt><trkpt lat="42.0083867" lon="12.0229017"><ele>20.0</ele><time>2026-04-26T13:24:36.99Z</time></trkpt><trkpt lat="42.0082333" lon="12.0228283"><ele>20.333333333333336</ele><time>2026-04-26T13:24:37.995Z</time></trkpt><trkpt lat="42.0080833" lon="12.0227583"><ele>20.666666666666668</ele><time>2026-04-26T13:24:38.991Z</time></trkpt><trkpt lat="42.0079367" lon="12.0226917"><ele>21.0</ele><time>2026-04-26T13:24:39.995Z</time></trkpt><trkpt lat="42.00779" lon="12.0226283"><ele>21.0</ele><time>2026-04-26T13:24:40.996Z</time></trkpt><trkpt lat="42.0076433" lon="12.0225617"><ele>21.0</ele><time>2026-04-26T13:24:41.991Z</time></trkpt><trkpt lat="42.0074917" lon="12.0224933"><ele>21.0</ele><time>2026-04-26T13:24:42.991Z</time></trkpt><trkpt lat="42.0073417" lon="12.02242"><ele>20.666666666666668</ele><time>2026-04-26T13:24:43.992Z</time></trkpt><trkpt lat="42.0071883" lon="12.0223483"><ele>20.333333333333336</ele><time>2026-04-26T13:24:44.999Z</time></trkpt><trkpt lat="42.0070333" lon="12.0222817"><ele>20.0</ele><time>2026-04-26T13:24:45.991Z</time></trkpt><trkpt lat="42.0068767" lon="12.022215"><ele>20.0</ele><time>2026-04-26T13:24:46.993Z</time></trkpt><trkpt lat="42.0067183" lon="12.0221467"><ele>20.0</ele><time>2026-04-26T13:24:47.992Z</time></trkpt><trkpt lat="42.00656" lon="12.02208"><ele>20.0</ele><time>2026-04-26T13:24:48.995Z</time></trkpt><trkpt lat="42.0064033" lon="12.0220117"><ele>20.0</ele><time>2026-04-26T13:24:49.998Z</time></trkpt><trkpt lat="42.0062433" lon="12.0219433"><ele>20.0</ele><time>2026-04-26T13:24:50.989Z</time></trkpt><trkpt lat="42.006085" lon="12.0218733"><ele>20.0</ele><time>2026-04-26T13:24:51.991Z</time></trkpt><trkpt lat="42.0059283" lon="12.0218033"><ele>19.333333333333336</ele><time>2026-04-26T13:24:52.996Z</time></trkpt><trkpt lat="42.00577" lon="12.0217333"><ele>18.666666666666668</ele><time>2026-04-26T13:24:53.995Z</time></trkpt><trkpt lat="42.0056117" lon="12.0216617"><ele>18.0</ele><time>2026-04-26T13:24:54.997Z</time></trkpt><trkpt lat="42.00545" lon="12.02159"><ele>17.666666666666668</ele><time>2026-04-26T13:24:55.998Z</time></trkpt><trkpt lat="42.0052883" lon="12.02152"><ele>17.333333333333336</ele><time>2026-04-26T13:24:56.995Z</time></trkpt><trkpt lat="42.00513" lon="12.0214483"><ele>17.0</ele><time>2026-04-26T13:24:57.995Z</time></trkpt><trkpt lat="42.004975" lon="12.0213767"><ele>16.666666666666668</ele><time>2026-04-26T13:24:58.99Z</time></trkpt><trkpt lat="42.0048233" lon="12.02131"><ele>16.333333333333332</ele><time>2026-04-26T13:25:00Z</time></trkpt><trkpt lat="42.0046733" lon="12.0212467"><ele>16.0</ele><time>2026-04-26T13:25:00.989Z</time></trkpt><trkpt lat="42.00452" lon="12.0211783"><ele>16.0</ele><time>2026-04-26T13:25:01.996Z</time></trkpt><trkpt lat="42.0043633" lon="12.0211083"><ele>16.0</ele><time>2026-04-26T13:25:02.992Z</time></trkpt><trkpt lat="42.0042033" lon="12.02104"><ele>16.0</ele><time>2026-04-26T13:25:03.995Z</time></trkpt><trkpt lat="42.00404" lon="12.0209683"><ele>16.0</ele><time>2026-04-26T13:25:04.995Z</time></trkpt><trkpt lat="42.003875" lon="12.0208933"><ele>16.0</ele><time>2026-04-26T13:25:05.996Z</time></trkpt><trkpt lat="42.003705" lon="12.020815"><ele>16.0</ele><time>2026-04-26T13:25:06.994Z</time></trkpt><trkpt lat="42.0035333" lon="12.020735"><ele>16.0</ele><time>2026-04-26T13:25:07.994Z</time></trkpt><trkpt lat="42.00336" lon="12.020655"><ele>16.0</ele><time>2026-04-26T13:25:08.994Z</time></trkpt><trkpt lat="42.003185" lon="12.0205767"><ele>16.0</ele><time>2026-04-26T13:25:09.996Z</time></trkpt><trkpt lat="42.00301" lon="12.0205017"><ele>15.0</ele><time>2026-04-26T13:25:10.991Z</time></trkpt><trkpt lat="42.002835" lon="12.0204267"><ele>14.0</ele><time>2026-04-26T13:25:11.994Z</time></trkpt><trkpt lat="42.00266" lon="12.020355"><ele>13.0</ele><time>2026-04-26T13:25:12.993Z</time></trkpt><trkpt lat="42.00249" lon="12.0202833"><ele>12.666666666666666</ele><time>2026-04-26T13:25:13.994Z</time></trkpt><trkpt lat="42.002325" lon="12.0202133"><ele>12.333333333333332</ele><time>2026-04-26T13:25:14.995Z</time></trkpt><trkpt lat="42.0021633" lon="12.0201417"><ele>12.0</ele><time>2026-04-26T13:25:15.995Z</time></trkpt><trkpt lat="42.0020017" lon="12.0200717"><ele>12.0</ele><time>2026-04-26T13:25:16.993Z</time></trkpt><trkpt lat="42.0018383" lon="12.0199967"><ele>12.0</ele><time>2026-04-26T13:25:17.994Z</time></trkpt><trkpt lat="42.0016733" lon="12.0199217"><ele>12.0</ele><time>2026-04-26T13:25:19Z</time></trkpt><trkpt lat="42.0015083" lon="12.0198467"><ele>12.0</ele><time>2026-04-26T13:25:19.993Z</time></trkpt><trkpt lat="42.0013417" lon="12.0197733"><ele>12.0</ele><time>2026-04-26T13:25:20.997Z</time></trkpt><trkpt lat="42.0011783" lon="12.0197"><ele>12.0</ele><time>2026-04-26T13:25:21.992Z</time></trkpt><trkpt lat="42.0010167" lon="12.0196267"><ele>12.0</ele><time>2026-04-26T13:25:22.998Z</time></trkpt><trkpt lat="42.0008583" lon="12.019555"><ele>12.0</ele><time>2026-04-26T13:25:23.993Z</time></trkpt><trkpt lat="42.0007" lon="12.01949"><ele>12.0</ele><time>2026-04-26T13:25:24.998Z</time></trkpt><trkpt lat="42.0005467" lon="12.0194267"><ele>11.333333333333334</ele><time>2026-04-26T13:25:25.999Z</time></trkpt><trkpt lat="42.0003967" lon="12.0193583"><ele>10.666666666666668</ele><time>2026-04-26T13:25:26.996Z</time></trkpt><trkpt lat="42.0002467" lon="12.0192917"><ele>10.0</ele><time>2026-04-26T13:25:27.996Z</time></trkpt><trkpt lat="42.000095" lon="12.0192283"><ele>10.0</ele><time>2026-04-26T13:25:28.988Z</time></trkpt><trkpt lat="41.9999433" lon="12.0191633"><ele>10.0</ele><time>2026-04-26T13:25:29.993Z</time></trkpt><trkpt lat="41.9997933" lon="12.0191033"><ele>10.0</ele><time>2026-04-26T13:25:30.992Z</time></trkpt><trkpt lat="41.9996483" lon="12.0190383"><ele>9.75</ele><time>2026-04-26T13:25:31.995Z</time></trkpt><trkpt lat="41.999505" lon="12.0189733"><ele>9.5</ele><time>2026-04-26T13:25:32.993Z</time></trkpt><trkpt lat="41.999365" lon="12.0189083"><ele>9.25</ele><time>2026-04-26T13:25:33.992Z</time></trkpt><trkpt lat="41.9992233" lon="12.018845"><ele>9.0</ele><time>2026-04-26T13:25:34.994Z</time></trkpt><trkpt lat="41.9990817" lon="12.0187817"><ele>9.0</ele><time>2026-04-26T13:25:35.998Z</time></trkpt><trkpt lat="41.998945" lon="12.01872"><ele>9.0</ele><time>2026-04-26T13:25:36.992Z</time></trkpt><trkpt lat="41.998815" lon="12.018665"><ele>9.0</ele><time>2026-04-26T13:25:37.998Z</time></trkpt><trkpt lat="41.9986933" lon="12.01861"><ele>9.0</ele><time>2026-04-26T13:25:38.999Z</time></trkpt><trkpt lat="41.9985817" lon="12.018555"><ele>9.0</ele><time>2026-04-26T13:25:39.993Z</time></trkpt><trkpt lat="41.9984833" lon="12.0185"><ele>9.0</ele><time>2026-04-26T13:25:40.997Z</time></trkpt><trkpt lat="41.9984" lon="12.0184383"><ele>9.0</ele><time>2026-04-26T13:25:41.995Z</time></trkpt><trkpt lat="41.998335" lon="12.0183617"><ele>9.0</ele><time>2026-04-26T13:25:42.992Z</time></trkpt><trkpt lat="41.9982933" lon="12.01826"><ele>9.0</ele><time>2026-04-26T13:25:43.996Z</time></trkpt><trkpt lat="41.99827" lon="12.018145"><ele>9.2</ele><time>2026-04-26T13:25:44.993Z</time></trkpt><trkpt lat="41.9982667" lon="12.0180167"><ele>9.4</ele><time>2026-04-26T13:25:45.992Z</time></trkpt><trkpt lat="41.9982867" lon="12.0178833"><ele>9.6</ele><time>2026-04-26T13:25:46.987Z</time></trkpt><trkpt lat="41.9983233" lon="12.0177567"><ele>9.8</ele><time>2026-04-26T13:25:47.99Z</time></trkpt><trkpt lat="41.99837" lon="12.0176367"><ele>10.0</ele><time>2026-04-26T13:25:48.991Z</time></trkpt><trkpt lat="41.998425" lon="12.017515"><ele>10.5</ele><time>2026-04-26T13:25:49.991Z</time></trkpt><trkpt lat="41.9984867" lon="12.0173767"><ele>11.0</ele><time>2026-04-26T13:25:50.99Z</time></trkpt><trkpt lat="41.9985567" lon="12.0172167"><ele>11.5</ele><time>2026-04-26T13:25:51.99Z</time></trkpt><trkpt lat="41.998635" lon="12.0170317"><ele>12.0</ele><time>2026-04-26T13:25:52.993Z</time></trkpt><trkpt lat="41.9987233" lon="12.01684"><ele>12.0</ele><time>2026-04-26T13:25:53.989Z</time></trkpt><trkpt lat="41.9988167" lon="12.0166433"><ele>12.0</ele><time>2026-04-26T13:25:54.992Z</time></trkpt><trkpt lat="41.9989183" lon="12.0164417"><ele>12.0</ele><time>2026-04-26T13:25:55.992Z</time></trkpt><trkpt lat="41.9990217" lon="12.0162433"><ele>12.0</ele><time>2026-04-26T13:25:56.994Z</time></trkpt><trkpt lat="41.9991283" lon="12.0160417"><ele>12.0</ele><time>2026-04-26T13:25:57.992Z</time></trkpt><trkpt lat="41.999235" lon="12.0158317"><ele>12.0</ele><time>2026-04-26T13:25:58.987Z</time></trkpt><trkpt lat="41.999345" lon="12.0156217"><ele>12.0</ele><time>2026-04-26T13:25:59.995Z</time></trkpt><trkpt lat="41.999455" lon="12.015405"><ele>12.0</ele><time>2026-04-26T13:26:00.993Z</time></trkpt><trkpt lat="41.9995683" lon="12.0151867"><ele>12.0</ele><time>2026-04-26T13:26:01.993Z</time></trkpt><trkpt lat="41.99968" lon="12.0149633"><ele>11.666666666666666</ele><time>2026-04-26T13:26:02.995Z</time></trkpt><trkpt lat="41.999795" lon="12.0147317"><ele>11.333333333333332</ele><time>2026-04-26T13:26:03.992Z</time></trkpt><trkpt lat="41.999915" lon="12.0144883"><ele>11.0</ele><time>2026-04-26T13:26:04.993Z</time></trkpt><trkpt lat="42.0000433" lon="12.0142383"><ele>11.0</ele><time>2026-04-26T13:26:05.997Z</time></trkpt><trkpt lat="42.000175" lon="12.0139833"><ele>11.0</ele><time>2026-04-26T13:26:06.993Z</time></trkpt><trkpt lat="42.000305" lon="12.013735"><ele>11.0</ele><time>2026-04-26T13:26:07.999Z</time></trkpt><trkpt lat="42.0004267" lon="12.0134883"><ele>11.0</ele><time>2026-04-26T13:26:08.993Z</time></trkpt><trkpt lat="42.0005467" lon="12.0132417"><ele>11.0</ele><time>2026-04-26T13:26:09.996Z</time></trkpt><trkpt lat="42.0006717" lon="12.013"><ele>10.666666666666666</ele><time>2026-04-26T13:26:10.996Z</time></trkpt><trkpt lat="42.0007917" lon="12.0127517"><ele>10.333333333333334</ele><time>2026-04-26T13:26:11.992Z</time></trkpt><trkpt lat="42.0009117" lon="12.0125017"><ele>10.0</ele><time>2026-04-26T13:26:12.994Z</time></trkpt><trkpt lat="42.0010333" lon="12.0122533"><ele>10.0</ele><time>2026-04-26T13:26:13.991Z</time></trkpt><trkpt lat="42.0011583" lon="12.0120017"><ele>10.0</ele><time>2026-04-26T13:26:14.993Z</time></trkpt><trkpt lat="42.0012883" lon="12.0117483"><ele>10.5</ele><time>2026-04-26T13:26:15.994Z</time></trkpt><trkpt lat="42.00142" lon="12.011495"><ele>11.0</ele><time>2026-04-26T13:26:16.994Z</time></trkpt><trkpt lat="42.0015533" lon="12.0112483"><ele>11.0</ele><time>2026-04-26T13:26:17.997Z</time></trkpt><trkpt lat="42.0016833" lon="12.0110117"><ele>11.0</ele><time>2026-04-26T13:26:18.994Z</time></trkpt><trkpt lat="42.0018133" lon="12.0107867"><ele>11.0</ele><time>2026-04-26T13:26:19.991Z</time></trkpt><trkpt lat="42.0019433" lon="12.01057"><ele>11.0</ele><time>2026-04-26T13:26:20.995Z</time></trkpt><trkpt lat="42.0020733" lon="12.0103583"><ele>11.0</ele><time>2026-04-26T13:26:21.995Z</time></trkpt><trkpt lat="42.0022067" lon="12.0101517"><ele>11.0</ele><time>2026-04-26T13:26:23.004Z</time></trkpt><trkpt lat="42.0023383" lon="12.009945"><ele>11.0</ele><time>2026-04-26T13:26:23.994Z</time></trkpt><trkpt lat="42.0024717" lon="12.0097333"><ele>11.0</ele><time>2026-04-26T13:26:24.996Z</time></trkpt><trkpt lat="42.00261" lon="12.0095183"><ele>11.0</ele><time>2026-04-26T13:26:25.997Z</time></trkpt><trkpt lat="42.0027533" lon="12.0092917"><ele>11.0</ele><time>2026-04-26T13:26:26.994Z</time></trkpt><trkpt lat="42.0029" lon="12.0090517"><ele>11.0</ele><time>2026-04-26T13:26:27.993Z</time></trkpt><trkpt lat="42.0030333" lon="12.008795"><ele>11.0</ele><time>2026-04-26T13:26:28.995Z</time></trkpt><trkpt lat="42.003145" lon="12.0085267"><ele>11.0</ele><time>2026-04-26T13:26:29.991Z</time></trkpt><trkpt lat="42.00324" lon="12.0082517"><ele>11.0</ele><time>2026-04-26T13:26:30.994Z</time></trkpt><trkpt lat="42.0033117" lon="12.0079667"><ele>11.0</ele><time>2026-04-26T13:26:31.993Z</time></trkpt><trkpt lat="42.0033683" lon="12.0076783"><ele>11.0</ele><time>2026-04-26T13:26:32.991Z</time></trkpt><trkpt lat="42.0034133" lon="12.0073833"><ele>11.0</ele><time>2026-04-26T13:26:33.995Z</time></trkpt><trkpt lat="42.0034517" lon="12.00708"><ele>11.0</ele><time>2026-04-26T13:26:34.99Z</time></trkpt><trkpt lat="42.00349" lon="12.0067733"><ele>11.5</ele><time>2026-04-26T13:26:35.996Z</time></trkpt><trkpt lat="42.0035283" lon="12.0064667"><ele>12.0</ele><time>2026-04-26T13:26:36.99Z</time></trkpt><trkpt lat="42.00357" lon="12.0061567"><ele>12.0</ele><time>2026-04-26T13:26:37.998Z</time></trkpt><trkpt lat="42.00361" lon="12.0058483"><ele>12.0</ele><time>2026-04-26T13:26:38.992Z</time></trkpt><trkpt lat="42.0036533" lon="12.0055383"><ele>11.5</ele><time>2026-04-26T13:26:39.995Z</time></trkpt><trkpt lat="42.003695" lon="12.0052267"><ele>11.0</ele><time>2026-04-26T13:26:40.996Z</time></trkpt><trkpt lat="42.0037417" lon="12.0049167"><ele>10.5</ele><time>2026-04-26T13:26:41.994Z</time></trkpt><trkpt lat="42.0037883" lon="12.004615"><ele>10.0</ele><time>2026-04-26T13:26:42.992Z</time></trkpt><trkpt lat="42.00384" lon="12.0043217"><ele>9.333333333333334</ele><time>2026-04-26T13:26:43.991Z</time></trkpt><trkpt lat="42.0038967" lon="12.00403"><ele>8.666666666666666</ele><time>2026-04-26T13:26:44.989Z</time></trkpt><trkpt lat="42.0039583" lon="12.0037383"><ele>8.0</ele><time>2026-04-26T13:26:45.989Z</time></trkpt><trkpt lat="42.00403" lon="12.0034467"><ele>7.5</ele><time>2026-04-26T13:26:46.99Z</time></trkpt><trkpt lat="42.0041083" lon="12.003155"><ele>7.0</ele><time>2026-04-26T13:26:47.991Z</time></trkpt><trkpt lat="42.0041883" lon="12.0028683"><ele>7.0</ele><time>2026-04-26T13:26:48.995Z</time></trkpt><trkpt lat="42.0042733" lon="12.0025867"><ele>7.0</ele><time>2026-04-26T13:26:49.99Z</time></trkpt><trkpt lat="42.0043683" lon="12.00231"><ele>7.0</ele><time>2026-04-26T13:26:50.99Z</time></trkpt><trkpt lat="42.0044683" lon="12.0020333"><ele>7.0</ele><time>2026-04-26T13:26:51.993Z</time></trkpt><trkpt lat="42.0045733" lon="12.001755"><ele>6.5</ele><time>2026-04-26T13:26:52.996Z</time></trkpt><trkpt lat="42.0046833" lon="12.0014733"><ele>6.0</ele><time>2026-04-26T13:26:53.991Z</time></trkpt><trkpt lat="42.0047967" lon="12.0011833"><ele>6.0</ele><time>2026-04-26T13:26:54.997Z</time></trkpt><trkpt lat="42.004915" lon="12.000885"><ele>6.0</ele><time>2026-04-26T13:26:55.989Z</time></trkpt><trkpt lat="42.005035" lon="12.0005817"><ele>6.0</ele><time>2026-04-26T13:26:56.999Z</time></trkpt><trkpt lat="42.00515" lon="12.000285"><ele>6.0</ele><time>2026-04-26T13:26:57.994Z</time></trkpt><trkpt lat="42.0052633" lon="11.9999967"><ele>6.0</ele><time>2026-04-26T13:26:58.996Z</time></trkpt><trkpt lat="42.0053717" lon="11.999715"><ele>6.0</ele><time>2026-04-26T13:26:59.998Z</time></trkpt><trkpt lat="42.00548" lon="11.9994367"><ele>5.5</ele><time>2026-04-26T13:27:00.991Z</time></trkpt><trkpt lat="42.0055867" lon="11.9991583"><ele>5.0</ele><time>2026-04-26T13:27:01.991Z</time></trkpt><trkpt lat="42.0056933" lon="11.99888"><ele>5.0</ele><time>2026-04-26T13:27:02.998Z</time></trkpt><trkpt lat="42.0058033" lon="11.9986033"><ele>5.0</ele><time>2026-04-26T13:27:03.994Z</time></trkpt><trkpt lat="42.0059133" lon="11.9983283"><ele>5.0</ele><time>2026-04-26T13:27:04.992Z</time></trkpt><trkpt lat="42.006025" lon="11.9980567"><ele>5.0</ele><time>2026-04-26T13:27:05.999Z</time></trkpt><trkpt lat="42.0061383" lon="11.9977867"><ele>5.0</ele><time>2026-04-26T13:27:06.991Z</time></trkpt><trkpt lat="42.00625" lon="11.997515"><ele>5.0</ele><time>2026-04-26T13:27:07.995Z</time></trkpt><trkpt lat="42.0063633" lon="11.997235"><ele>5.5</ele><time>2026-04-26T13:27:08.993Z</time></trkpt><trkpt lat="42.00648" lon="11.996945"><ele>6.0</ele><time>2026-04-26T13:27:09.992Z</time></trkpt><trkpt lat="42.0065983" lon="11.9966467"><ele>6.0</ele><time>2026-04-26T13:27:10.993Z</time></trkpt><trkpt lat="42.00672" lon="11.9963467"><ele>6.0</ele><time>2026-04-26T13:27:11.996Z</time></trkpt><trkpt lat="42.0068383" lon="11.9960617"><ele>5.5</ele><time>2026-04-26T13:27:12.996Z</time></trkpt><trkpt lat="42.0069517" lon="11.9957883"><ele>5.0</ele><time>2026-04-26T13:27:13.994Z</time></trkpt><trkpt lat="42.007065" lon="11.9955233"><ele>5.0</ele><time>2026-04-26T13:27:14.995Z</time></trkpt><trkpt lat="42.0071733" lon="11.9952583"><ele>5.0</ele><time>2026-04-26T13:27:15.991Z</time></trkpt><trkpt lat="42.00728" lon="11.9949983"><ele>5.0</ele><time>2026-04-26T13:27:16.998Z</time></trkpt><trkpt lat="42.0073883" lon="11.99473"><ele>6.0</ele><time>2026-04-26T13:27:17.996Z</time></trkpt><trkpt lat="42.0075" lon="11.9944533"><ele>7.0</ele><time>2026-04-26T13:27:18.996Z</time></trkpt><trkpt lat="42.0076167" lon="11.9941717"><ele>7.0</ele><time>2026-04-26T13:27:19.993Z</time></trkpt><trkpt lat="42.0077367" lon="11.9938883"><ele>7.0</ele><time>2026-04-26T13:27:20.999Z</time></trkpt><trkpt lat="42.0078567" lon="11.9936033"><ele>6.0</ele><time>2026-04-26T13:27:21.993Z</time></trkpt><trkpt lat="42.0079767" lon="11.993315"><ele>5.0</ele><time>2026-04-26T13:27:22.996Z</time></trkpt><trkpt lat="42.0080983" lon="11.9930217"><ele>5.0</ele><time>2026-04-26T13:27:23.995Z</time></trkpt><trkpt lat="42.00822" lon="11.9927267"><ele>5.0</ele><time>2026-04-26T13:27:24.997Z</time></trkpt><trkpt lat="42.00834" lon="11.9924383"><ele>5.5</ele><time>2026-04-26T13:27:26Z</time></trkpt><trkpt lat="42.0084533" lon="11.9921583"><ele>6.0</ele><time>2026-04-26T13:27:26.994Z</time></trkpt><trkpt lat="42.008565" lon="11.9918833"><ele>5.5</ele><time>2026-04-26T13:27:27.997Z</time></trkpt><trkpt lat="42.008675" lon="11.9916067"><ele>5.0</ele><time>2026-04-26T13:27:28.995Z</time></trkpt><trkpt lat="42.0087833" lon="11.991335"><ele>5.0</ele><time>2026-04-26T13:27:29.997Z</time></trkpt><trkpt lat="42.0088933" lon="11.9910633"><ele>5.0</ele><time>2026-04-26T13:27:30.994Z</time></trkpt><trkpt lat="42.009005" lon="11.990795"><ele>5.0</ele><time>2026-04-26T13:27:31.995Z</time></trkpt><trkpt lat="42.0091167" lon="11.990525"><ele>5.0</ele><time>2026-04-26T13:27:32.991Z</time></trkpt><trkpt lat="42.0092283" lon="11.9902567"><ele>6.5</ele><time>2026-04-26T13:27:33.995Z</time></trkpt><trkpt lat="42.0093433" lon="11.9899867"><ele>8.0</ele><time>2026-04-26T13:27:34.996Z</time></trkpt><trkpt lat="42.00946" lon="11.9897183"><ele>8.0</ele><time>2026-04-26T13:27:35.994Z</time></trkpt><trkpt lat="42.0095733" lon="11.9894483"><ele>8.0</ele><time>2026-04-26T13:27:36.996Z</time></trkpt><trkpt lat="42.0096883" lon="11.98918"><ele>7.5</ele><time>2026-04-26T13:27:37.995Z</time></trkpt><trkpt lat="42.0098017" lon="11.9889133"><ele>7.0</ele><time>2026-04-26T13:27:38.997Z</time></trkpt><trkpt lat="42.009915" lon="11.9886517"><ele>7.0</ele><time>2026-04-26T13:27:39.994Z</time></trkpt><trkpt lat="42.0100267" lon="11.9883883"><ele>7.0</ele><time>2026-04-26T13:27:40.995Z</time></trkpt><trkpt lat="42.01014" lon="11.988125"><ele>7.0</ele><time>2026-04-26T13:27:41.997Z</time></trkpt><trkpt lat="42.010255" lon="11.987865"><ele>7.0</ele><time>2026-04-26T13:27:42.995Z</time></trkpt><trkpt lat="42.0103733" lon="11.9876083"><ele>7.0</ele><time>2026-04-26T13:27:43.993Z</time></trkpt><trkpt lat="42.010495" lon="11.9873533"><ele>6.0</ele><time>2026-04-26T13:27:44.994Z</time></trkpt><trkpt lat="42.0106167" lon="11.9870983"><ele>5.0</ele><time>2026-04-26T13:27:45.994Z</time></trkpt><trkpt lat="42.01074" lon="11.986845"><ele>5.666666666666667</ele><time>2026-04-26T13:27:46.995Z</time></trkpt><trkpt lat="42.01086" lon="11.9865917"><ele>6.333333333333334</ele><time>2026-04-26T13:27:47.999Z</time></trkpt><trkpt lat="42.0109767" lon="11.986335"><ele>7.0</ele><time>2026-04-26T13:27:48.997Z</time></trkpt><trkpt lat="42.0110917" lon="11.98608"><ele>6.333333333333334</ele><time>2026-04-26T13:27:49.993Z</time></trkpt><trkpt lat="42.0112033" lon="11.985825"><ele>5.666666666666667</ele><time>2026-04-26T13:27:50.998Z</time></trkpt><trkpt lat="42.0113133" lon="11.9855683"><ele>5.0</ele><time>2026-04-26T13:27:51.993Z</time></trkpt><trkpt lat="42.01142" lon="11.9853133"><ele>5.0</ele><time>2026-04-26T13:27:52.997Z</time></trkpt><trkpt lat="42.0115233" lon="11.985065"><ele>5.0</ele><time>2026-04-26T13:27:53.999Z</time></trkpt><trkpt lat="42.011625" lon="11.9848217"><ele>5.0</ele><time>2026-04-26T13:27:54.999Z</time></trkpt><trkpt lat="42.0117233" lon="11.9845833"><ele>5.0</ele><time>2026-04-26T13:27:55.999Z</time></trkpt><trkpt lat="42.01182" lon="11.98435"><ele>5.0</ele><time>2026-04-26T13:27:56.992Z</time></trkpt><trkpt lat="42.0119167" lon="11.9841183"><ele>5.0</ele><time>2026-04-26T13:27:57.992Z</time></trkpt><trkpt lat="42.012015" lon="11.983885"><ele>4.666666666666667</ele><time>2026-04-26T13:27:58.991Z</time></trkpt><trkpt lat="42.0121117" lon="11.9836517"><ele>4.333333333333333</ele><time>2026-04-26T13:27:59.996Z</time></trkpt><trkpt lat="42.01221" lon="11.983415"><ele>4.0</ele><time>2026-04-26T13:28:00.998Z</time></trkpt><trkpt lat="42.0123083" lon="11.9831783"><ele>4.0</ele><time>2026-04-26T13:28:01.993Z</time></trkpt><trkpt lat="42.0124083" lon="11.9829383"><ele>4.0</ele><time>2026-04-26T13:28:02.999Z</time></trkpt><trkpt lat="42.01251" lon="11.9826967"><ele>4.0</ele><time>2026-04-26T13:28:03.994Z</time></trkpt><trkpt lat="42.0126117" lon="11.9824533"><ele>5.0</ele><time>2026-04-26T13:28:04.999Z</time></trkpt><trkpt lat="42.012715" lon="11.9822083"><ele>6.0</ele><time>2026-04-26T13:28:05.998Z</time></trkpt><trkpt lat="42.0128167" lon="11.9819583"><ele>7.0</ele><time>2026-04-26T13:28:06.993Z</time></trkpt><trkpt lat="42.01292" lon="11.9817083"><ele>7.0</ele><time>2026-04-26T13:28:07.992Z</time></trkpt><trkpt lat="42.013025" lon="11.9814567"><ele>7.0</ele><time>2026-04-26T13:28:08.992Z</time></trkpt><trkpt lat="42.01313" lon="11.9812033"><ele>7.0</ele><time>2026-04-26T13:28:09.995Z</time></trkpt><trkpt lat="42.0132367" lon="11.98095"><ele>7.333333333333334</ele><time>2026-04-26T13:28:10.994Z</time></trkpt><trkpt lat="42.0133433" lon="11.9806983"><ele>7.666666666666666</ele><time>2026-04-26T13:28:11.999Z</time></trkpt><trkpt lat="42.0134517" lon="11.980445"><ele>8.0</ele><time>2026-04-26T13:28:13.003Z</time></trkpt><trkpt lat="42.0135583" lon="11.9801933"><ele>7.666666666666666</ele><time>2026-04-26T13:28:13.995Z</time></trkpt><trkpt lat="42.0136667" lon="11.9799367"><ele>7.333333333333334</ele><time>2026-04-26T13:28:14.994Z</time></trkpt><trkpt lat="42.013775" lon="11.979675"><ele>7.0</ele><time>2026-04-26T13:28:15.998Z</time></trkpt><trkpt lat="42.0138817" lon="11.9794117"><ele>7.5</ele><time>2026-04-26T13:28:16.991Z</time></trkpt><trkpt lat="42.01399" lon="11.9791467"><ele>8.0</ele><time>2026-04-26T13:28:17.994Z</time></trkpt><trkpt lat="42.0140983" lon="11.9788767"><ele>8.0</ele><time>2026-04-26T13:28:18.994Z</time></trkpt><trkpt lat="42.0142067" lon="11.9786067"><ele>8.0</ele><time>2026-04-26T13:28:19.998Z</time></trkpt><trkpt lat="42.0143167" lon="11.9783333"><ele>7.5</ele><time>2026-04-26T13:28:20.994Z</time></trkpt><trkpt lat="42.0144267" lon="11.9780567"><ele>7.0</ele><time>2026-04-26T13:28:21.991Z</time></trkpt><trkpt lat="42.0145383" lon="11.977775"><ele>7.0</ele><time>2026-04-26T13:28:22.995Z</time></trkpt><trkpt lat="42.0146533" lon="11.9774867"><ele>7.0</ele><time>2026-04-26T13:28:23.998Z</time></trkpt><trkpt lat="42.0147717" lon="11.9771883"><ele>7.0</ele><time>2026-04-26T13:28:24.999Z</time></trkpt><trkpt lat="42.0148883" lon="11.9768917"><ele>7.0</ele><time>2026-04-26T13:28:25.999Z</time></trkpt><trkpt lat="42.0150017" lon="11.976605"><ele>8.0</ele><time>2026-04-26T13:28:26.991Z</time></trkpt><trkpt lat="42.0151133" lon="11.9763217"><ele>9.0</ele><time>2026-04-26T13:28:27.994Z</time></trkpt><trkpt lat="42.0152233" lon="11.9760383"><ele>9.0</ele><time>2026-04-26T13:28:28.993Z</time></trkpt><trkpt lat="42.01533" lon="11.975755"><ele>9.0</ele><time>2026-04-26T13:28:29.993Z</time></trkpt><trkpt lat="42.0154333" lon="11.97547"><ele>9.0</ele><time>2026-04-26T13:28:30.996Z</time></trkpt><trkpt lat="42.015535" lon="11.9751867"><ele>9.0</ele><time>2026-04-26T13:28:31.997Z</time></trkpt><trkpt lat="42.015635" lon="11.974905"><ele>9.5</ele><time>2026-04-26T13:28:32.998Z</time></trkpt><trkpt lat="42.015735" lon="11.9746267"><ele>10.0</ele><time>2026-04-26T13:28:33.994Z</time></trkpt><trkpt lat="42.0158317" lon="11.9743567"><ele>9.333333333333334</ele><time>2026-04-26T13:28:34.998Z</time></trkpt><trkpt lat="42.01593" lon="11.97409"><ele>8.666666666666666</ele><time>2026-04-26T13:28:35.993Z</time></trkpt><trkpt lat="42.0160283" lon="11.9738233"><ele>8.0</ele><time>2026-04-26T13:28:36.995Z</time></trkpt><trkpt lat="42.01613" lon="11.9735583"><ele>7.333333333333333</ele><time>2026-04-26T13:28:37.987Z</time></trkpt><trkpt lat="42.0162317" lon="11.9732967"><ele>6.666666666666666</ele><time>2026-04-26T13:28:38.995Z</time></trkpt><trkpt lat="42.0163317" lon="11.973045"><ele>6.0</ele><time>2026-04-26T13:28:39.997Z</time></trkpt><trkpt lat="42.016435" lon="11.9728"><ele>6.0</ele><time>2026-04-26T13:28:40.994Z</time></trkpt><trkpt lat="42.0165383" lon="11.9725533"><ele>6.0</ele><time>2026-04-26T13:28:41.991Z</time></trkpt><trkpt lat="42.0166417" lon="11.9723067"><ele>6.0</ele><time>2026-04-26T13:28:42.993Z</time></trkpt><trkpt lat="42.016745" lon="11.9720567"><ele>6.333333333333334</ele><time>2026-04-26T13:28:43.991Z</time></trkpt><trkpt lat="42.01685" lon="11.9718083"><ele>6.666666666666667</ele><time>2026-04-26T13:28:44.991Z</time></trkpt><trkpt lat="42.016955" lon="11.9715567"><ele>7.0</ele><time>2026-04-26T13:28:45.996Z</time></trkpt><trkpt lat="42.01706" lon="11.971305"><ele>7.0</ele><time>2026-04-26T13:28:46.993Z</time></trkpt><trkpt lat="42.017165" lon="11.9710583"><ele>7.0</ele><time>2026-04-26T13:28:47.993Z</time></trkpt><trkpt lat="42.017265" lon="11.9708283"><ele>7.0</ele><time>2026-04-26T13:28:48.997Z</time></trkpt><trkpt lat="42.0173617" lon="11.9706033"><ele>8.0</ele><time>2026-04-26T13:28:49.991Z</time></trkpt><trkpt lat="42.0174517" lon="11.9703817"><ele>9.0</ele><time>2026-04-26T13:28:51.001Z</time></trkpt><trkpt lat="42.0175467" lon="11.97017"><ele>10.0</ele><time>2026-04-26T13:28:51.993Z</time></trkpt><trkpt lat="42.01764" lon="11.9699633"><ele>10.0</ele><time>2026-04-26T13:28:52.996Z</time></trkpt><trkpt lat="42.0177317" lon="11.96976"><ele>10.0</ele><time>2026-04-26T13:28:53.996Z</time></trkpt><trkpt lat="42.0178233" lon="11.969555"><ele>10.0</ele><time>2026-04-26T13:28:54.996Z</time></trkpt><trkpt lat="42.0179167" lon="11.9693517"><ele>9.333333333333334</ele><time>2026-04-26T13:28:55.994Z</time></trkpt><trkpt lat="42.0180083" lon="11.96914"><ele>8.666666666666666</ele><time>2026-04-26T13:28:56.992Z</time></trkpt><trkpt lat="42.0181017" lon="11.968925"><ele>8.0</ele><time>2026-04-26T13:28:57.996Z</time></trkpt><trkpt lat="42.018195" lon="11.96871"><ele>8.0</ele><time>2026-04-26T13:28:58.99Z</time></trkpt><trkpt lat="42.0182867" lon="11.9685"><ele>8.0</ele><time>2026-04-26T13:28:59.998Z</time></trkpt><trkpt lat="42.0183733" lon="11.9683033"><ele>8.0</ele><time>2026-04-26T13:29:00.991Z</time></trkpt><trkpt lat="42.0184567" lon="11.9681133"><ele>8.333333333333332</ele><time>2026-04-26T13:29:01.994Z</time></trkpt><trkpt lat="42.0185367" lon="11.9679283"><ele>8.666666666666666</ele><time>2026-04-26T13:29:02.993Z</time></trkpt><trkpt lat="42.0186167" lon="11.9677483"><ele>9.0</ele><time>2026-04-26T13:29:03.995Z</time></trkpt><trkpt lat="42.018695" lon="11.9675717"><ele>8.25</ele><time>2026-04-26T13:29:04.997Z</time></trkpt><trkpt lat="42.0187717" lon="11.9673983"><ele>7.5</ele><time>2026-04-26T13:29:05.992Z</time></trkpt><trkpt lat="42.0188483" lon="11.9672267"><ele>6.75</ele><time>2026-04-26T13:29:06.995Z</time></trkpt><trkpt lat="42.0189217" lon="11.9670583"><ele>6.0</ele><time>2026-04-26T13:29:07.991Z</time></trkpt><trkpt lat="42.0189967" lon="11.9668933"><ele>6.0</ele><time>2026-04-26T13:29:09.001Z</time></trkpt><trkpt lat="42.0190683" lon="11.9667283"><ele>6.0</ele><time>2026-04-26T13:29:09.995Z</time></trkpt><trkpt lat="42.0191383" lon="11.9665583"><ele>6.0</ele><time>2026-04-26T13:29:10.995Z</time></trkpt><trkpt lat="42.0192067" lon="11.9663883"><ele>6.0</ele><time>2026-04-26T13:29:11.996Z</time></trkpt><trkpt lat="42.0192733" lon="11.9662133"><ele>6.25</ele><time>2026-04-26T13:29:12.99Z</time></trkpt><trkpt lat="42.0193383" lon="11.9660367"><ele>6.5</ele><time>2026-04-26T13:29:13.997Z</time></trkpt><trkpt lat="42.0194017" lon="11.9658567"><ele>6.75</ele><time>2026-04-26T13:29:14.991Z</time></trkpt><trkpt lat="42.0194683" lon="11.9656733"><ele>7.0</ele><time>2026-04-26T13:29:15.989Z</time></trkpt><trkpt lat="42.019535" lon="11.965485"><ele>7.0</ele><time>2026-04-26T13:29:16.99Z</time></trkpt><trkpt lat="42.0196017" lon="11.9652933"><ele>7.0</ele><time>2026-04-26T13:29:17.994Z</time></trkpt><trkpt lat="42.0196683" lon="11.9651017"><ele>7.0</ele><time>2026-04-26T13:29:18.992Z</time></trkpt><trkpt lat="42.0197333" lon="11.9649033"><ele>6.666666666666667</ele><time>2026-04-26T13:29:19.998Z</time></trkpt><trkpt lat="42.0198" lon="11.9647"><ele>6.333333333333334</ele><time>2026-04-26T13:29:20.991Z</time></trkpt><trkpt lat="42.0198683" lon="11.9644983"><ele>6.0</ele><time>2026-04-26T13:29:21.994Z</time></trkpt><trkpt lat="42.0199383" lon="11.9642933"><ele>7.0</ele><time>2026-04-26T13:29:22.997Z</time></trkpt><trkpt lat="42.0200067" lon="11.964085"><ele>8.0</ele><time>2026-04-26T13:29:23.992Z</time></trkpt><trkpt lat="42.0200767" lon="11.963875"><ele>9.0</ele><time>2026-04-26T13:29:24.995Z</time></trkpt><trkpt lat="42.02015" lon="11.9636617"><ele>9.0</ele><time>2026-04-26T13:29:26.001Z</time></trkpt><trkpt lat="42.020225" lon="11.9634433"><ele>9.0</ele><time>2026-04-26T13:29:26.994Z</time></trkpt><trkpt lat="42.0203033" lon="11.963225"><ele>9.0</ele><time>2026-04-26T13:29:27.989Z</time></trkpt><trkpt lat="42.020385" lon="11.9630067"><ele>8.333333333333334</ele><time>2026-04-26T13:29:28.993Z</time></trkpt><trkpt lat="42.0204717" lon="11.9627883"><ele>7.666666666666667</ele><time>2026-04-26T13:29:29.994Z</time></trkpt><trkpt lat="42.0205567" lon="11.9625733"><ele>7.0</ele><time>2026-04-26T13:29:30.995Z</time></trkpt><trkpt lat="42.0206433" lon="11.9623617"><ele>6.666666666666667</ele><time>2026-04-26T13:29:31.993Z</time></trkpt><trkpt lat="42.0207317" lon="11.9621483"><ele>6.333333333333334</ele><time>2026-04-26T13:29:32.999Z</time></trkpt><trkpt lat="42.0208217" lon="11.9619383"><ele>6.0</ele><time>2026-04-26T13:29:33.991Z</time></trkpt><trkpt lat="42.0209083" lon="11.9617167"><ele>5.666666666666667</ele><time>2026-04-26T13:29:34.992Z</time></trkpt><trkpt lat="42.0209967" lon="11.9614967"><ele>5.333333333333334</ele><time>2026-04-26T13:29:35.996Z</time></trkpt><trkpt lat="42.0210817" lon="11.9612783"><ele>5.0</ele><time>2026-04-26T13:29:36.989Z</time></trkpt><trkpt lat="42.021165" lon="11.9610617"><ele>4.666666666666667</ele><time>2026-04-26T13:29:37.992Z</time></trkpt><trkpt lat="42.0212483" lon="11.9608433"><ele>4.333333333333333</ele><time>2026-04-26T13:29:38.991Z</time></trkpt><trkpt lat="42.0213367" lon="11.9606267"><ele>4.0</ele><time>2026-04-26T13:29:39.997Z</time></trkpt><trkpt lat="42.0214267" lon="11.96041"><ele>4.0</ele><time>2026-04-26T13:29:40.994Z</time></trkpt><trkpt lat="42.0215133" lon="11.9601933"><ele>4.0</ele><time>2026-04-26T13:29:41.998Z</time></trkpt><trkpt lat="42.0215983" lon="11.9599833"><ele>4.0</ele><time>2026-04-26T13:29:42.993Z</time></trkpt><trkpt lat="42.02168" lon="11.9597783"><ele>5.666666666666666</ele><time>2026-04-26T13:29:43.987Z</time></trkpt><trkpt lat="42.0217633" lon="11.959575"><ele>7.333333333333333</ele><time>2026-04-26T13:29:44.991Z</time></trkpt><trkpt lat="42.0218433" lon="11.9593733"><ele>9.0</ele><time>2026-04-26T13:29:45.99Z</time></trkpt><trkpt lat="42.021925" lon="11.9591683"><ele>9.333333333333334</ele><time>2026-04-26T13:29:46.997Z</time></trkpt><trkpt lat="42.0220067" lon="11.95896"><ele>9.666666666666668</ele><time>2026-04-26T13:29:47.995Z</time></trkpt><trkpt lat="42.0220917" lon="11.9587517"><ele>10.0</ele><time>2026-04-26T13:29:48.996Z</time></trkpt><trkpt lat="42.0221767" lon="11.958545"><ele>10.0</ele><time>2026-04-26T13:29:49.991Z</time></trkpt><trkpt lat="42.0222567" lon="11.9583483"><ele>10.0</ele><time>2026-04-26T13:29:50.99Z</time></trkpt><trkpt lat="42.0223383" lon="11.95815"><ele>10.0</ele><time>2026-04-26T13:29:51.991Z</time></trkpt><trkpt lat="42.02242" lon="11.9579517"><ele>9.666666666666668</ele><time>2026-04-26T13:29:52.996Z</time></trkpt><trkpt lat="42.0225033" lon="11.9577517"><ele>9.333333333333334</ele><time>2026-04-26T13:29:53.989Z</time></trkpt><trkpt lat="42.0225833" lon="11.9575517"><ele>9.0</ele><time>2026-04-26T13:29:54.993Z</time></trkpt><trkpt lat="42.0226633" lon="11.9573533"><ele>9.0</ele><time>2026-04-26T13:29:55.998Z</time></trkpt><trkpt lat="42.0227383" lon="11.9571667"><ele>9.0</ele><time>2026-04-26T13:29:56.989Z</time></trkpt><trkpt lat="42.0228133" lon="11.95698"><ele>9.0</ele><time>2026-04-26T13:29:57.989Z</time></trkpt><trkpt lat="42.02289" lon="11.9567933"><ele>9.25</ele><time>2026-04-26T13:29:58.991Z</time></trkpt><trkpt lat="42.022965" lon="11.9566083"><ele>9.5</ele><time>2026-04-26T13:30:00.009Z</time></trkpt><trkpt lat="42.0230367" lon="11.95643"><ele>9.75</ele><time>2026-04-26T13:30:00.995Z</time></trkpt><trkpt lat="42.023105" lon="11.956265"><ele>10.0</ele><time>2026-04-26T13:30:01.992Z</time></trkpt><trkpt lat="42.0231683" lon="11.95611"><ele>10.0</ele><time>2026-04-26T13:30:03.001Z</time></trkpt><trkpt lat="42.0232283" lon="11.9559667"><ele>10.0</ele><time>2026-04-26T13:30:03.994Z</time></trkpt><trkpt lat="42.0232833" lon="11.9558317"><ele>10.0</ele><time>2026-04-26T13:30:04.991Z</time></trkpt><trkpt lat="42.0233333" lon="11.9557083"><ele>10.0</ele><time>2026-04-26T13:30:05.994Z</time></trkpt><trkpt lat="42.0233783" lon="11.9555967"><ele>10.0</ele><time>2026-04-26T13:30:06.996Z</time></trkpt><trkpt lat="42.02342" lon="11.9555017"><ele>9.8</ele><time>2026-04-26T13:30:07.995Z</time></trkpt><trkpt lat="42.0234583" lon="11.9554167"><ele>9.6</ele><time>2026-04-26T13:30:09.001Z</time></trkpt><trkpt lat="42.0234917" lon="11.9553433"><ele>9.4</ele><time>2026-04-26T13:30:09.991Z</time></trkpt><trkpt lat="42.023535" lon="11.9552483"><ele>9.2</ele><time>2026-04-26T13:30:11.991Z</time></trkpt><trkpt lat="42.0235717" lon="11.955155"><ele>9.0</ele><time>2026-04-26T13:30:37.994Z</time></trkpt><trkpt lat="42.0236567" lon="11.9549567"><ele>9.0</ele><time>2026-04-26T13:30:39.995Z</time></trkpt><trkpt lat="42.0237083" lon="11.9548417"><ele>9.0</ele><time>2026-04-26T13:30:40.99Z</time></trkpt><trkpt lat="42.0237533" lon="11.9547317"><ele>9.0</ele><time>2026-04-26T13:30:41.993Z</time></trkpt><trkpt lat="42.0237983" lon="11.9546117"><ele>9.0</ele><time>2026-04-26T13:30:42.99Z</time></trkpt><trkpt lat="42.0238483" lon="11.9544867"><ele>9.0</ele><time>2026-04-26T13:30:43.994Z</time></trkpt><trkpt lat="42.023895" lon="11.9543633"><ele>9.0</ele><time>2026-04-26T13:30:44.989Z</time></trkpt><trkpt lat="42.0239433" lon="11.9542333"><ele>9.0</ele><time>2026-04-26T13:30:45.997Z</time></trkpt><trkpt lat="42.0239933" lon="11.9541033"><ele>9.0</ele><time>2026-04-26T13:30:46.992Z</time></trkpt><trkpt lat="42.0240433" lon="11.9539767"><ele>9.0</ele><time>2026-04-26T13:30:47.993Z</time></trkpt><trkpt lat="42.024095" lon="11.9538417"><ele>9.0</ele><time>2026-04-26T13:30:48.989Z</time></trkpt><trkpt lat="42.0241533" lon="11.9536983"><ele>8.5</ele><time>2026-04-26T13:30:49.992Z</time></trkpt><trkpt lat="42.02421" lon="11.953555"><ele>8.0</ele><time>2026-04-26T13:30:50.991Z</time></trkpt><trkpt lat="42.0242667" lon="11.9534133"><ele>7.5</ele><time>2026-04-26T13:30:51.994Z</time></trkpt><trkpt lat="42.024325" lon="11.95326"><ele>7.0</ele><time>2026-04-26T13:30:52.99Z</time></trkpt><trkpt lat="42.0243867" lon="11.9531133"><ele>7.0</ele><time>2026-04-26T13:30:53.992Z</time></trkpt><trkpt lat="42.024445" lon="11.9529667"><ele>7.0</ele><time>2026-04-26T13:30:54.989Z</time></trkpt><trkpt lat="42.024505" lon="11.9528217"><ele>7.0</ele><time>2026-04-26T13:30:55.998Z</time></trkpt><trkpt lat="42.0245633" lon="11.9526683"><ele>7.0</ele><time>2026-04-26T13:30:56.995Z</time></trkpt><trkpt lat="42.0246233" lon="11.9525217"><ele>7.199999999999999</ele><time>2026-04-26T13:30:57.99Z</time></trkpt><trkpt lat="42.0246833" lon="11.952385"><ele>7.3999999999999995</ele><time>2026-04-26T13:30:58.994Z</time></trkpt><trkpt lat="42.0247383" lon="11.9522617"><ele>7.6000000000000005</ele><time>2026-04-26T13:30:59.99Z</time></trkpt><trkpt lat="42.024785" lon="11.9521517"><ele>7.800000000000001</ele><time>2026-04-26T13:31:00.989Z</time></trkpt><trkpt lat="42.0248233" lon="11.9520583"><ele>8.0</ele><time>2026-04-26T13:31:01.989Z</time></trkpt><trkpt lat="42.024855" lon="11.9519783"><ele>8.0</ele><time>2026-04-26T13:31:02.99Z</time></trkpt><trkpt lat="42.024905" lon="11.951865"><ele>8.0</ele><time>2026-04-26T13:31:04.993Z</time></trkpt><trkpt lat="42.024935" lon="11.9517717"><ele>8.0</ele><time>2026-04-26T13:32:00.997Z</time></trkpt><trkpt lat="42.0249833" lon="11.9516133"><ele>8.0</ele><time>2026-04-26T13:32:02.999Z</time></trkpt><trkpt lat="42.0250283" lon="11.9515067"><ele>8.0</ele><time>2026-04-26T13:32:03.995Z</time></trkpt><trkpt lat="42.025075" lon="11.9513967"><ele>8.25</ele><time>2026-04-26T13:32:04.991Z</time></trkpt><trkpt lat="42.0251217" lon="11.9512767"><ele>8.5</ele><time>2026-04-26T13:32:06Z</time></trkpt><trkpt lat="42.0251767" lon="11.9511317"><ele>8.75</ele><time>2026-04-26T13:32:06.996Z</time></trkpt><trkpt lat="42.02524" lon="11.9509733"><ele>9.0</ele><time>2026-04-26T13:32:07.995Z</time></trkpt><trkpt lat="42.0253017" lon="11.9508183"><ele>8.5</ele><time>2026-04-26T13:32:08.992Z</time></trkpt><trkpt lat="42.0253667" lon="11.95066"><ele>8.0</ele><time>2026-04-26T13:32:09.99Z</time></trkpt><trkpt lat="42.025435" lon="11.950495"><ele>7.5</ele><time>2026-04-26T13:32:10.994Z</time></trkpt><trkpt lat="42.0255083" lon="11.9503233"><ele>7.0</ele><time>2026-04-26T13:32:12.004Z</time></trkpt><trkpt lat="42.0255833" lon="11.9501533"><ele>7.0</ele><time>2026-04-26T13:32:12.994Z</time></trkpt><trkpt lat="42.0256617" lon="11.9499767"><ele>7.0</ele><time>2026-04-26T13:32:13.998Z</time></trkpt><trkpt lat="42.025735" lon="11.9498"><ele>7.0</ele><time>2026-04-26T13:32:14.998Z</time></trkpt><trkpt lat="42.0258083" lon="11.9496167"><ele>7.0</ele><time>2026-04-26T13:32:15.993Z</time></trkpt><trkpt lat="42.02588" lon="11.9494283"><ele>7.0</ele><time>2026-04-26T13:32:16.992Z</time></trkpt><trkpt lat="42.0259567" lon="11.949235"><ele>7.0</ele><time>2026-04-26T13:32:17.993Z</time></trkpt><trkpt lat="42.0260333" lon="11.949045"><ele>7.0</ele><time>2026-04-26T13:32:18.997Z</time></trkpt><trkpt lat="42.0261117" lon="11.9488517"><ele>7.0</ele><time>2026-04-26T13:32:19.994Z</time></trkpt><trkpt lat="42.0261917" lon="11.9486533"><ele>7.0</ele><time>2026-04-26T13:32:20.995Z</time></trkpt><trkpt lat="42.0262733" lon="11.9484517"><ele>7.0</ele><time>2026-04-26T13:32:21.996Z</time></trkpt><trkpt lat="42.026355" lon="11.948245"><ele>7.0</ele><time>2026-04-26T13:32:22.99Z</time></trkpt><trkpt lat="42.0264383" lon="11.9480383"><ele>7.0</ele><time>2026-04-26T13:32:23.991Z</time></trkpt><trkpt lat="42.0265233" lon="11.9478317"><ele>7.0</ele><time>2026-04-26T13:32:24.991Z</time></trkpt><trkpt lat="42.026605" lon="11.94763"><ele>7.0</ele><time>2026-04-26T13:32:25.996Z</time></trkpt><trkpt lat="42.0266867" lon="11.94743"><ele>7.0</ele><time>2026-04-26T13:32:26.994Z</time></trkpt><trkpt lat="42.0267683" lon="11.9472267"><ele>7.0</ele><time>2026-04-26T13:32:27.99Z</time></trkpt><trkpt lat="42.0268517" lon="11.9470183"><ele>7.0</ele><time>2026-04-26T13:32:28.993Z</time></trkpt><trkpt lat="42.0269367" lon="11.94681"><ele>7.0</ele><time>2026-04-26T13:32:29.997Z</time></trkpt><trkpt lat="42.0270233" lon="11.9466"><ele>7.0</ele><time>2026-04-26T13:32:30.99Z</time></trkpt><trkpt lat="42.0271083" lon="11.9463933"><ele>7.0</ele><time>2026-04-26T13:32:31.988Z</time></trkpt><trkpt lat="42.0271917" lon="11.9461883"><ele>7.0</ele><time>2026-04-26T13:32:32.995Z</time></trkpt><trkpt lat="42.027275" lon="11.9459833"><ele>7.333333333333334</ele><time>2026-04-26T13:32:33.99Z</time></trkpt><trkpt lat="42.0273567" lon="11.945775"><ele>7.666666666666666</ele><time>2026-04-26T13:32:34.992Z</time></trkpt><trkpt lat="42.02744" lon="11.9455617"><ele>8.0</ele><time>2026-04-26T13:32:35.994Z</time></trkpt><trkpt lat="42.0275267" lon="11.945345"><ele>7.333333333333333</ele><time>2026-04-26T13:32:36.994Z</time></trkpt><trkpt lat="42.0276133" lon="11.945125"><ele>6.666666666666666</ele><time>2026-04-26T13:32:37.993Z</time></trkpt><trkpt lat="42.0276983" lon="11.9449083"><ele>6.0</ele><time>2026-04-26T13:32:38.991Z</time></trkpt><trkpt lat="42.0277867" lon="11.9446967"><ele>6.0</ele><time>2026-04-26T13:32:39.993Z</time></trkpt><trkpt lat="42.0278717" lon="11.9444917"><ele>6.0</ele><time>2026-04-26T13:32:40.99Z</time></trkpt><trkpt lat="42.027955" lon="11.9442883"><ele>6.0</ele><time>2026-04-26T13:32:41.995Z</time></trkpt><trkpt lat="42.0280383" lon="11.9440817"><ele>5.666666666666667</ele><time>2026-04-26T13:32:42.997Z</time></trkpt><trkpt lat="42.0281217" lon="11.943875"><ele>5.333333333333334</ele><time>2026-04-26T13:32:43.993Z</time></trkpt><trkpt lat="42.0282067" lon="11.943665"><ele>5.0</ele><time>2026-04-26T13:32:44.992Z</time></trkpt><trkpt lat="42.0282933" lon="11.94345"><ele>5.0</ele><time>2026-04-26T13:32:45.998Z</time></trkpt><trkpt lat="42.02838" lon="11.9432333"><ele>5.0</ele><time>2026-04-26T13:32:46.996Z</time></trkpt><trkpt lat="42.0284683" lon="11.9430117"><ele>5.0</ele><time>2026-04-26T13:32:47.989Z</time></trkpt><trkpt lat="42.02856" lon="11.9427783"><ele>5.0</ele><time>2026-04-26T13:32:48.989Z</time></trkpt><trkpt lat="42.0286567" lon="11.94254"><ele>5.0</ele><time>2026-04-26T13:32:49.992Z</time></trkpt><trkpt lat="42.028755" lon="11.9422967"><ele>5.0</ele><time>2026-04-26T13:32:50.991Z</time></trkpt><trkpt lat="42.0288567" lon="11.9420517"><ele>5.0</ele><time>2026-04-26T13:32:51.993Z</time></trkpt><trkpt lat="42.0289633" lon="11.941815"><ele>5.0</ele><time>2026-04-26T13:32:52.997Z</time></trkpt><trkpt lat="42.0290633" lon="11.9415783"><ele>5.0</ele><time>2026-04-26T13:32:53.988Z</time></trkpt><trkpt lat="42.02916" lon="11.94133"><ele>4.666666666666667</ele><time>2026-04-26T13:32:54.995Z</time></trkpt><trkpt lat="42.0292633" lon="11.9410683"><ele>4.333333333333333</ele><time>2026-04-26T13:32:55.993Z</time></trkpt><trkpt lat="42.0293667" lon="11.9407983"><ele>4.0</ele><time>2026-04-26T13:32:57.004Z</time></trkpt><trkpt lat="42.0294733" lon="11.9405267"><ele>5.0</ele><time>2026-04-26T13:32:58Z</time></trkpt><trkpt lat="42.0295833" lon="11.94026"><ele>6.0</ele><time>2026-04-26T13:32:58.995Z</time></trkpt><trkpt lat="42.02969" lon="11.939995"><ele>6.666666666666666</ele><time>2026-04-26T13:32:59.991Z</time></trkpt><trkpt lat="42.0297983" lon="11.9397317"><ele>7.333333333333333</ele><time>2026-04-26T13:33:00.995Z</time></trkpt><trkpt lat="42.029905" lon="11.93947"><ele>8.0</ele><time>2026-04-26T13:33:02.001Z</time></trkpt><trkpt lat="42.0300117" lon="11.939205"><ele>9.5</ele><time>2026-04-26T13:33:02.991Z</time></trkpt><trkpt lat="42.03012" lon="11.9389333"><ele>11.0</ele><time>2026-04-26T13:33:03.995Z</time></trkpt><trkpt lat="42.0302267" lon="11.9386633"><ele>11.0</ele><time>2026-04-26T13:33:04.995Z</time></trkpt><trkpt lat="42.0303367" lon="11.9383917"><ele>11.0</ele><time>2026-04-26T13:33:05.991Z</time></trkpt><trkpt lat="42.030445" lon="11.9381217"><ele>13.0</ele><time>2026-04-26T13:33:06.993Z</time></trkpt><trkpt lat="42.0305517" lon="11.9378483"><ele>15.0</ele><time>2026-04-26T13:33:07.998Z</time></trkpt><trkpt lat="42.0306583" lon="11.937575"><ele>15.0</ele><time>2026-04-26T13:33:08.992Z</time></trkpt><trkpt lat="42.0307667" lon="11.9373033"><ele>15.0</ele><time>2026-04-26T13:33:09.994Z</time></trkpt><trkpt lat="42.030875" lon="11.9370317"><ele>15.0</ele><time>2026-04-26T13:33:10.996Z</time></trkpt><trkpt lat="42.0309833" lon="11.936765"><ele>15.0</ele><time>2026-04-26T13:33:11.993Z</time></trkpt><trkpt lat="42.0310883" lon="11.9365033"><ele>15.0</ele><time>2026-04-26T13:33:12.992Z</time></trkpt><trkpt lat="42.03119" lon="11.9362583"><ele>13.666666666666666</ele><time>2026-04-26T13:33:13.992Z</time></trkpt><trkpt lat="42.0312867" lon="11.9360233"><ele>12.333333333333332</ele><time>2026-04-26T13:33:14.994Z</time></trkpt><trkpt lat="42.0313817" lon="11.935795"><ele>11.0</ele><time>2026-04-26T13:33:15.99Z</time></trkpt><trkpt lat="42.0314733" lon="11.935565"><ele>10.333333333333332</ele><time>2026-04-26T13:33:16.997Z</time></trkpt><trkpt lat="42.0315667" lon="11.9353417"><ele>9.666666666666666</ele><time>2026-04-26T13:33:17.994Z</time></trkpt><trkpt lat="42.0316567" lon="11.9351217"><ele>9.0</ele><time>2026-04-26T13:33:18.989Z</time></trkpt><trkpt lat="42.0317433" lon="11.9349033"><ele>9.0</ele><time>2026-04-26T13:33:19.993Z</time></trkpt><trkpt lat="42.0318283" lon="11.9346833"><ele>9.0</ele><time>2026-04-26T13:33:20.99Z</time></trkpt><trkpt lat="42.0319133" lon="11.9344667"><ele>9.0</ele><time>2026-04-26T13:33:21.992Z</time></trkpt><trkpt lat="42.0319983" lon="11.9342467"><ele>8.333333333333334</ele><time>2026-04-26T13:33:22.993Z</time></trkpt><trkpt lat="42.0320867" lon="11.9340233"><ele>7.666666666666667</ele><time>2026-04-26T13:33:23.994Z</time></trkpt><trkpt lat="42.03218" lon="11.9337883"><ele>7.0</ele><time>2026-04-26T13:33:24.991Z</time></trkpt><trkpt lat="42.03228" lon="11.933545"><ele>6.666666666666667</ele><time>2026-04-26T13:33:25.995Z</time></trkpt><trkpt lat="42.0323833" lon="11.9333"><ele>6.333333333333334</ele><time>2026-04-26T13:33:26.996Z</time></trkpt><trkpt lat="42.032485" lon="11.933065"><ele>6.0</ele><time>2026-04-26T13:33:27.99Z</time></trkpt><trkpt lat="42.0325817" lon="11.9328383"><ele>5.666666666666667</ele><time>2026-04-26T13:33:28.997Z</time></trkpt><trkpt lat="42.03268" lon="11.93262"><ele>5.333333333333334</ele><time>2026-04-26T13:33:29.993Z</time></trkpt><trkpt lat="42.03278" lon="11.93241"><ele>5.0</ele><time>2026-04-26T13:33:30.997Z</time></trkpt><trkpt lat="42.03288" lon="11.9322017"><ele>5.0</ele><time>2026-04-26T13:33:31.996Z</time></trkpt><trkpt lat="42.0329783" lon="11.9319933"><ele>5.0</ele><time>2026-04-26T13:33:32.992Z</time></trkpt><trkpt lat="42.0330783" lon="11.9317817"><ele>5.0</ele><time>2026-04-26T13:33:33.992Z</time></trkpt><trkpt lat="42.0331817" lon="11.931565"><ele>5.0</ele><time>2026-04-26T13:33:34.993Z</time></trkpt><trkpt lat="42.033285" lon="11.931345"><ele>5.0</ele><time>2026-04-26T13:33:36.001Z</time></trkpt><trkpt lat="42.0333917" lon="11.9311217"><ele>5.0</ele><time>2026-04-26T13:33:36.993Z</time></trkpt><trkpt lat="42.0334983" lon="11.930895"><ele>4.0</ele><time>2026-04-26T13:33:38.001Z</time></trkpt><trkpt lat="42.03361" lon="11.9306683"><ele>3.0</ele><time>2026-04-26T13:33:38.993Z</time></trkpt><trkpt lat="42.03371" lon="11.9304483"><ele>2.0</ele><time>2026-04-26T13:33:39.991Z</time></trkpt><trkpt lat="42.03381" lon="11.930235"><ele>1.6666666666666665</ele><time>2026-04-26T13:33:40.992Z</time></trkpt><trkpt lat="42.0339117" lon="11.930025"><ele>1.3333333333333333</ele><time>2026-04-26T13:33:41.991Z</time></trkpt><trkpt lat="42.03401" lon="11.9298217"><ele>1.0</ele><time>2026-04-26T13:33:42.993Z</time></trkpt><trkpt lat="42.0341033" lon="11.929625"><ele>1.3333333333333333</ele><time>2026-04-26T13:33:43.988Z</time></trkpt><trkpt lat="42.0341917" lon="11.929435"><ele>1.6666666666666665</ele><time>2026-04-26T13:33:44.998Z</time></trkpt><trkpt lat="42.03428" lon="11.9292567"><ele>2.0</ele><time>2026-04-26T13:33:45.994Z</time></trkpt><trkpt lat="42.03436" lon="11.92909"><ele>2.0</ele><time>2026-04-26T13:33:46.99Z</time></trkpt><trkpt lat="42.0344333" lon="11.928935"><ele>2.0</ele><time>2026-04-26T13:33:47.993Z</time></trkpt><trkpt lat="42.0345033" lon="11.928785"><ele>2.0</ele><time>2026-04-26T13:33:48.998Z</time></trkpt><trkpt lat="42.0345717" lon="11.928635"><ele>2.0</ele><time>2026-04-26T13:33:49.996Z</time></trkpt><trkpt lat="42.0346433" lon="11.92848"><ele>2.0</ele><time>2026-04-26T13:33:50.997Z</time></trkpt><trkpt lat="42.0347167" lon="11.9283183"><ele>2.0</ele><time>2026-04-26T13:33:51.993Z</time></trkpt><trkpt lat="42.03479" lon="11.9281433"><ele>2.0</ele><time>2026-04-26T13:33:52.998Z</time></trkpt><trkpt lat="42.034875" lon="11.9279433"><ele>1.6666666666666665</ele><time>2026-04-26T13:33:53.994Z</time></trkpt><trkpt lat="42.0349717" lon="11.9277267"><ele>1.3333333333333333</ele><time>2026-04-26T13:33:54.994Z</time></trkpt><trkpt lat="42.0350817" lon="11.9274917"><ele>1.0</ele><time>2026-04-26T13:33:55.998Z</time></trkpt><trkpt lat="42.0352017" lon="11.927255"><ele>1.0</ele><time>2026-04-26T13:33:56.993Z</time></trkpt><trkpt lat="42.035315" lon="11.927025"><ele>1.0</ele><time>2026-04-26T13:33:57.993Z</time></trkpt><trkpt lat="42.0354317" lon="11.9267967"><ele>1.0</ele><time>2026-04-26T13:33:58.993Z</time></trkpt><trkpt lat="42.03554" lon="11.9265783"><ele>1.6666666666666665</ele><time>2026-04-26T13:33:59.993Z</time></trkpt><trkpt lat="42.0356417" lon="11.92637"><ele>2.3333333333333335</ele><time>2026-04-26T13:34:00.993Z</time></trkpt><trkpt lat="42.035735" lon="11.9261717"><ele>3.0</ele><time>2026-04-26T13:34:01.992Z</time></trkpt><trkpt lat="42.0358217" lon="11.92597"><ele>4.0</ele><time>2026-04-26T13:34:02.992Z</time></trkpt><trkpt lat="42.035905" lon="11.9257633"><ele>5.0</ele><time>2026-04-26T13:34:03.993Z</time></trkpt><trkpt lat="42.0359817" lon="11.9255533"><ele>6.0</ele><time>2026-04-26T13:34:04.996Z</time></trkpt><trkpt lat="42.03605" lon="11.9253367"><ele>6.0</ele><time>2026-04-26T13:34:05.992Z</time></trkpt><trkpt lat="42.03611" lon="11.9251083"><ele>6.0</ele><time>2026-04-26T13:34:06.99Z</time></trkpt><trkpt lat="42.0361633" lon="11.9248733"><ele>6.0</ele><time>2026-04-26T13:34:07.993Z</time></trkpt><trkpt lat="42.0362183" lon="11.9246417"><ele>5.333333333333333</ele><time>2026-04-26T13:34:08.998Z</time></trkpt><trkpt lat="42.0362733" lon="11.9244133"><ele>4.666666666666666</ele><time>2026-04-26T13:34:09.992Z</time></trkpt><trkpt lat="42.0363267" lon="11.9241883"><ele>4.0</ele><time>2026-04-26T13:34:10.997Z</time></trkpt><trkpt lat="42.0363817" lon="11.9239633"><ele>3.6666666666666665</ele><time>2026-04-26T13:34:11.994Z</time></trkpt><trkpt lat="42.0364367" lon="11.9237417"><ele>3.333333333333333</ele><time>2026-04-26T13:34:12.995Z</time></trkpt><trkpt lat="42.036495" lon="11.9235267"><ele>3.0</ele><time>2026-04-26T13:34:13.996Z</time></trkpt><trkpt lat="42.03655" lon="11.9233183"><ele>3.0</ele><time>2026-04-26T13:34:14.993Z</time></trkpt><trkpt lat="42.03661" lon="11.923105"><ele>3.0</ele><time>2026-04-26T13:34:15.989Z</time></trkpt><trkpt lat="42.0366717" lon="11.92289"><ele>3.0</ele><time>2026-04-26T13:34:17Z</time></trkpt><trkpt lat="42.0367417" lon="11.9226767"><ele>2.6666666666666665</ele><time>2026-04-26T13:34:17.993Z</time></trkpt><trkpt lat="42.0368167" lon="11.922465"><ele>2.333333333333333</ele><time>2026-04-26T13:34:18.995Z</time></trkpt><trkpt lat="42.0368967" lon="11.9222567"><ele>2.0</ele><time>2026-04-26T13:34:19.994Z</time></trkpt><trkpt lat="42.03698" lon="11.9220517"><ele>2.0</ele><time>2026-04-26T13:34:20.995Z</time></trkpt><trkpt lat="42.0370617" lon="11.9218467"><ele>2.0</ele><time>2026-04-26T13:34:21.994Z</time></trkpt><trkpt lat="42.037145" lon="11.921645"><ele>2.0</ele><time>2026-04-26T13:34:22.988Z</time></trkpt><trkpt lat="42.037235" lon="11.9214383"><ele>2.0</ele><time>2026-04-26T13:34:23.994Z</time></trkpt><trkpt lat="42.0373267" lon="11.92123"><ele>2.0</ele><time>2026-04-26T13:34:24.992Z</time></trkpt><trkpt lat="42.037415" lon="11.92103"><ele>2.0</ele><time>2026-04-26T13:34:26.002Z</time></trkpt><trkpt lat="42.0374967" lon="11.9208367"><ele>2.0</ele><time>2026-04-26T13:34:26.991Z</time></trkpt><trkpt lat="42.0375767" lon="11.9206467"><ele>2.0</ele><time>2026-04-26T13:34:27.995Z</time></trkpt><trkpt lat="42.0376567" lon="11.9204567"><ele>2.0</ele><time>2026-04-26T13:34:28.992Z</time></trkpt><trkpt lat="42.0377367" lon="11.920275"><ele>2.0</ele><time>2026-04-26T13:34:29.993Z</time></trkpt><trkpt lat="42.03781" lon="11.9201033"><ele>2.0</ele><time>2026-04-26T13:34:30.996Z</time></trkpt><trkpt lat="42.0378783" lon="11.9199367"><ele>2.0</ele><time>2026-04-26T13:34:31.99Z</time></trkpt><trkpt lat="42.03795" lon="11.9197667"><ele>2.0</ele><time>2026-04-26T13:34:32.994Z</time></trkpt><trkpt lat="42.0380217" lon="11.9195917"><ele>2.25</ele><time>2026-04-26T13:34:33.994Z</time></trkpt><trkpt lat="42.038095" lon="11.9194217"><ele>2.5</ele><time>2026-04-26T13:34:34.99Z</time></trkpt><trkpt lat="42.0381683" lon="11.9192483"><ele>2.75</ele><time>2026-04-26T13:34:35.991Z</time></trkpt><trkpt lat="42.038245" lon="11.9190733"><ele>3.0</ele><time>2026-04-26T13:34:36.991Z</time></trkpt><trkpt lat="42.038325" lon="11.9188967"><ele>3.0</ele><time>2026-04-26T13:34:37.988Z</time></trkpt><trkpt lat="42.0384017" lon="11.9187117"><ele>3.0</ele><time>2026-04-26T13:34:38.995Z</time></trkpt><trkpt lat="42.0384783" lon="11.9185283"><ele>3.0</ele><time>2026-04-26T13:34:39.992Z</time></trkpt><trkpt lat="42.0385567" lon="11.9183483"><ele>3.0</ele><time>2026-04-26T13:34:40.991Z</time></trkpt><trkpt lat="42.0386317" lon="11.9181683"><ele>3.0</ele><time>2026-04-26T13:34:42Z</time></trkpt><trkpt lat="42.0387067" lon="11.9179883"><ele>3.0</ele><time>2026-04-26T13:34:42.992Z</time></trkpt><trkpt lat="42.0387867" lon="11.9178033"><ele>3.0</ele><time>2026-04-26T13:34:43.992Z</time></trkpt><trkpt lat="42.0388667" lon="11.9176217"><ele>3.0</ele><time>2026-04-26T13:34:44.992Z</time></trkpt><trkpt lat="42.0389483" lon="11.9174433"><ele>3.0</ele><time>2026-04-26T13:34:45.996Z</time></trkpt><trkpt lat="42.039035" lon="11.91727"><ele>3.333333333333333</ele><time>2026-04-26T13:34:46.993Z</time></trkpt><trkpt lat="42.039125" lon="11.9171033"><ele>3.6666666666666665</ele><time>2026-04-26T13:34:47.993Z</time></trkpt><trkpt lat="42.0392183" lon="11.91694"><ele>4.0</ele><time>2026-04-26T13:34:48.999Z</time></trkpt><trkpt lat="42.0393133" lon="11.9167767"><ele>4.5</ele><time>2026-04-26T13:34:49.998Z</time></trkpt><trkpt lat="42.0394067" lon="11.9166167"><ele>5.0</ele><time>2026-04-26T13:34:50.995Z</time></trkpt><trkpt lat="42.0394967" lon="11.9164567"><ele>5.5</ele><time>2026-04-26T13:34:51.994Z</time></trkpt><trkpt lat="42.0395833" lon="11.9162983"><ele>6.0</ele><time>2026-04-26T13:34:52.995Z</time></trkpt><trkpt lat="42.0396633" lon="11.91614"><ele>6.0</ele><time>2026-04-26T13:34:53.99Z</time></trkpt><trkpt lat="42.0397333" lon="11.9159683"><ele>6.0</ele><time>2026-04-26T13:34:54.993Z</time></trkpt><trkpt lat="42.0397933" lon="11.9157867"><ele>6.0</ele><time>2026-04-26T13:34:55.991Z</time></trkpt><trkpt lat="42.0398417" lon="11.9155967"><ele>6.0</ele><time>2026-04-26T13:34:56.992Z</time></trkpt><trkpt lat="42.0398883" lon="11.9154083"><ele>6.25</ele><time>2026-04-26T13:34:57.996Z</time></trkpt><trkpt lat="42.039925" lon="11.9152283"><ele>6.5</ele><time>2026-04-26T13:34:58.991Z</time></trkpt><trkpt lat="42.03997" lon="11.9150383"><ele>6.75</ele><time>2026-04-26T13:34:59.998Z</time></trkpt><trkpt lat="42.0400133" lon="11.9148483"><ele>7.0</ele><time>2026-04-26T13:35:00.997Z</time></trkpt><trkpt lat="42.0400583" lon="11.9146517"><ele>7.0</ele><time>2026-04-26T13:35:01.993Z</time></trkpt><trkpt lat="42.0401017" lon="11.9144583"><ele>7.0</ele><time>2026-04-26T13:35:02.995Z</time></trkpt><trkpt lat="42.040135" lon="11.9142767"><ele>7.0</ele><time>2026-04-26T13:35:03.993Z</time></trkpt><trkpt lat="42.0401667" lon="11.9140867"><ele>7.0</ele><time>2026-04-26T13:35:04.996Z</time></trkpt><trkpt lat="42.0401967" lon="11.913885"><ele>7.0</ele><time>2026-04-26T13:35:05.992Z</time></trkpt><trkpt lat="42.04023" lon="11.9136717"><ele>7.0</ele><time>2026-04-26T13:35:06.993Z</time></trkpt><trkpt lat="42.040265" lon="11.91344"><ele>7.0</ele><time>2026-04-26T13:35:07.993Z</time></trkpt><trkpt lat="42.0403017" lon="11.913195"><ele>6.333333333333334</ele><time>2026-04-26T13:35:08.992Z</time></trkpt><trkpt lat="42.0403433" lon="11.91294"><ele>5.666666666666667</ele><time>2026-04-26T13:35:09.997Z</time></trkpt><trkpt lat="42.0403883" lon="11.9126833"><ele>5.0</ele><time>2026-04-26T13:35:10.997Z</time></trkpt><trkpt lat="42.0404367" lon="11.91244"><ele>4.666666666666667</ele><time>2026-04-26T13:35:11.993Z</time></trkpt><trkpt lat="42.04048" lon="11.912205"><ele>4.333333333333333</ele><time>2026-04-26T13:35:12.991Z</time></trkpt><trkpt lat="42.0405217" lon="11.9119633"><ele>4.0</ele><time>2026-04-26T13:35:13.993Z</time></trkpt><trkpt lat="42.0405683" lon="11.91172"><ele>4.0</ele><time>2026-04-26T13:35:14.992Z</time></trkpt><trkpt lat="42.04062" lon="11.9114833"><ele>4.0</ele><time>2026-04-26T13:35:15.99Z</time></trkpt><trkpt lat="42.0406667" lon="11.9112683"><ele>4.0</ele><time>2026-04-26T13:35:16.997Z</time></trkpt><trkpt lat="42.0407083" lon="11.9110667"><ele>4.25</ele><time>2026-04-26T13:35:17.992Z</time></trkpt><trkpt lat="42.0407383" lon="11.91088"><ele>4.5</ele><time>2026-04-26T13:35:18.995Z</time></trkpt><trkpt lat="42.0407633" lon="11.910695"><ele>4.75</ele><time>2026-04-26T13:35:19.993Z</time></trkpt><trkpt lat="42.0407917" lon="11.9105033"><ele>5.0</ele><time>2026-04-26T13:35:21.005Z</time></trkpt><trkpt lat="42.040825" lon="11.910305"><ele>7.666666666666666</ele><time>2026-04-26T13:35:21.996Z</time></trkpt><trkpt lat="42.04086" lon="11.9100967"><ele>10.333333333333332</ele><time>2026-04-26T13:35:22.996Z</time></trkpt><trkpt lat="42.040895" lon="11.9098833"><ele>13.0</ele><time>2026-04-26T13:35:23.989Z</time></trkpt><trkpt lat="42.0409333" lon="11.909675"><ele>13.0</ele><time>2026-04-26T13:35:24.998Z</time></trkpt><trkpt lat="42.040965" lon="11.9094733"><ele>13.0</ele><time>2026-04-26T13:35:25.991Z</time></trkpt><trkpt lat="42.0409933" lon="11.9092617"><ele>13.0</ele><time>2026-04-26T13:35:26.99Z</time></trkpt><trkpt lat="42.041025" lon="11.909035"><ele>13.0</ele><time>2026-04-26T13:35:27.992Z</time></trkpt><trkpt lat="42.0410617" lon="11.90879"><ele>13.0</ele><time>2026-04-26T13:35:28.994Z</time></trkpt><trkpt lat="42.0411083" lon="11.908535"><ele>13.0</ele><time>2026-04-26T13:35:29.994Z</time></trkpt><trkpt lat="42.0411567" lon="11.90827"><ele>12.0</ele><time>2026-04-26T13:35:30.992Z</time></trkpt><trkpt lat="42.0412083" lon="11.9080117"><ele>11.0</ele><time>2026-04-26T13:35:31.993Z</time></trkpt><trkpt lat="42.041255" lon="11.90777"><ele>10.0</ele><time>2026-04-26T13:35:32.995Z</time></trkpt><trkpt lat="42.041295" lon="11.907545"><ele>8.0</ele><time>2026-04-26T13:35:33.994Z</time></trkpt><trkpt lat="42.0413217" lon="11.9073283"><ele>6.0</ele><time>2026-04-26T13:35:34.994Z</time></trkpt><trkpt lat="42.0413317" lon="11.9071067"><ele>4.0</ele><time>2026-04-26T13:35:36.002Z</time></trkpt><trkpt lat="42.0413233" lon="11.9068667"><ele>3.0</ele><time>2026-04-26T13:35:36.992Z</time></trkpt><trkpt lat="42.041305" lon="11.9066133"><ele>2.0</ele><time>2026-04-26T13:35:37.994Z</time></trkpt><trkpt lat="42.0412783" lon="11.90634"><ele>1.0</ele><time>2026-04-26T13:35:38.998Z</time></trkpt><trkpt lat="42.0412517" lon="11.9060567"><ele>1.3333333333333333</ele><time>2026-04-26T13:35:39.99Z</time></trkpt><trkpt lat="42.04123" lon="11.9057767"><ele>1.6666666666666665</ele><time>2026-04-26T13:35:40.996Z</time></trkpt><trkpt lat="42.0412067" lon="11.9055167"><ele>2.0</ele><time>2026-04-26T13:35:41.99Z</time></trkpt><trkpt lat="42.0411783" lon="11.9052667"><ele>2.333333333333333</ele><time>2026-04-26T13:35:42.993Z</time></trkpt><trkpt lat="42.041145" lon="11.9050183"><ele>2.6666666666666665</ele><time>2026-04-26T13:35:43.997Z</time></trkpt><trkpt lat="42.0410983" lon="11.90477"><ele>3.0</ele><time>2026-04-26T13:35:44.988Z</time></trkpt><trkpt lat="42.0410433" lon="11.9045083"><ele>3.666666666666667</ele><time>2026-04-26T13:35:45.988Z</time></trkpt><trkpt lat="42.04098" lon="11.9042383"><ele>4.333333333333334</ele><time>2026-04-26T13:35:46.995Z</time></trkpt><trkpt lat="42.04092" lon="11.90398"><ele>5.0</ele><time>2026-04-26T13:35:47.994Z</time></trkpt><trkpt lat="42.04086" lon="11.9037483"><ele>5.0</ele><time>2026-04-26T13:35:48.993Z</time></trkpt><trkpt lat="42.040805" lon="11.90353"><ele>5.0</ele><time>2026-04-26T13:35:49.994Z</time></trkpt><trkpt lat="42.040745" lon="11.903325"><ele>5.0</ele><time>2026-04-26T13:35:50.997Z</time></trkpt><trkpt lat="42.0406817" lon="11.9031217"><ele>5.0</ele><time>2026-04-26T13:35:51.994Z</time></trkpt><trkpt lat="42.0406167" lon="11.902925"><ele>5.0</ele><time>2026-04-26T13:35:52.993Z</time></trkpt><trkpt lat="42.04055" lon="11.9027317"><ele>5.0</ele><time>2026-04-26T13:35:53.992Z</time></trkpt><trkpt lat="42.0404767" lon="11.902555"><ele>5.0</ele><time>2026-04-26T13:35:54.993Z</time></trkpt><trkpt lat="42.0403917" lon="11.9024067"><ele>5.0</ele><time>2026-04-26T13:35:55.994Z</time></trkpt><trkpt lat="42.0402883" lon="11.9022783"><ele>5.0</ele><time>2026-04-26T13:35:56.992Z</time></trkpt><trkpt lat="42.0401667" lon="11.9021617"><ele>5.0</ele><time>2026-04-26T13:35:57.991Z</time></trkpt><trkpt lat="42.0400317" lon="11.902035"><ele>5.0</ele><time>2026-04-26T13:35:58.993Z</time></trkpt><trkpt lat="42.0399033" lon="11.9019167"><ele>5.0</ele><time>2026-04-26T13:35:59.995Z</time></trkpt><trkpt lat="42.0397867" lon="11.9018133"><ele>5.0</ele><time>2026-04-26T13:36:00.992Z</time></trkpt><trkpt lat="42.0396783" lon="11.9017183"><ele>5.0</ele><time>2026-04-26T13:36:01.994Z</time></trkpt><trkpt lat="42.03957" lon="11.90161"><ele>5.0</ele><time>2026-04-26T13:36:02.992Z</time></trkpt><trkpt lat="42.0394667" lon="11.90149"><ele>5.0</ele><time>2026-04-26T13:36:03.997Z</time></trkpt><trkpt lat="42.039375" lon="11.901355"><ele>5.0</ele><time>2026-04-26T13:36:04.993Z</time></trkpt><trkpt lat="42.0393017" lon="11.9012033"><ele>5.0</ele><time>2026-04-26T13:36:05.994Z</time></trkpt><trkpt lat="42.0392433" lon="11.90103"><ele>5.75</ele><time>2026-04-26T13:36:06.991Z</time></trkpt><trkpt lat="42.0392017" lon="11.90085"><ele>6.5</ele><time>2026-04-26T13:36:07.99Z</time></trkpt><trkpt lat="42.03917" lon="11.9006633"><ele>7.25</ele><time>2026-04-26T13:36:08.992Z</time></trkpt><trkpt lat="42.0391383" lon="11.90048"><ele>8.0</ele><time>2026-04-26T13:36:09.993Z</time></trkpt><trkpt lat="42.039115" lon="11.90028"><ele>5.666666666666666</ele><time>2026-04-26T13:36:10.992Z</time></trkpt><trkpt lat="42.0390983" lon="11.9000783"><ele>3.333333333333333</ele><time>2026-04-26T13:36:11.989Z</time></trkpt><trkpt lat="42.0390883" lon="11.8998767"><ele>1.0</ele><time>2026-04-26T13:36:12.991Z</time></trkpt><trkpt lat="42.0390767" lon="11.8996733"><ele>1.0</ele><time>2026-04-26T13:36:13.994Z</time></trkpt><trkpt lat="42.0390683" lon="11.899475"><ele>1.0</ele><time>2026-04-26T13:36:14.995Z</time></trkpt><trkpt lat="42.03906" lon="11.89927"><ele>1.0</ele><time>2026-04-26T13:36:15.99Z</time></trkpt><trkpt lat="42.0390583" lon="11.8990633"><ele>1.0</ele><time>2026-04-26T13:36:16.996Z</time></trkpt><trkpt lat="42.0390583" lon="11.898865"><ele>1.0</ele><time>2026-04-26T13:36:17.994Z</time></trkpt><trkpt lat="42.0390633" lon="11.8986783"><ele>1.0</ele><time>2026-04-26T13:36:18.999Z</time></trkpt><trkpt lat="42.039065" lon="11.8985033"><ele>1.0</ele><time>2026-04-26T13:36:19.996Z</time></trkpt><trkpt lat="42.0390783" lon="11.8983317"><ele>0.75</ele><time>2026-04-26T13:36:21.002Z</time></trkpt><trkpt lat="42.0391033" lon="11.8981683"><ele>0.5</ele><time>2026-04-26T13:36:21.991Z</time></trkpt><trkpt lat="42.03914" lon="11.8980167"><ele>0.25</ele><time>2026-04-26T13:36:22.991Z</time></trkpt><trkpt lat="42.039185" lon="11.8978667"><ele>0.0</ele><time>2026-04-26T13:36:23.995Z</time></trkpt><trkpt lat="42.039245" lon="11.89772"><ele>1.0</ele><time>2026-04-26T13:36:24.995Z</time></trkpt><trkpt lat="42.03931" lon="11.8975767"><ele>2.0</ele><time>2026-04-26T13:36:25.997Z</time></trkpt><trkpt lat="42.03938" lon="11.897435"><ele>3.0</ele><time>2026-04-26T13:36:26.994Z</time></trkpt><trkpt lat="42.039455" lon="11.8973"><ele>4.0</ele><time>2026-04-26T13:36:27.993Z</time></trkpt><trkpt lat="42.039525" lon="11.8971683"><ele>4.0</ele><time>2026-04-26T13:36:28.994Z</time></trkpt><trkpt lat="42.0395967" lon="11.89703"><ele>4.0</ele><time>2026-04-26T13:36:29.992Z</time></trkpt><trkpt lat="42.0396667" lon="11.8968917"><ele>4.0</ele><time>2026-04-26T13:36:30.994Z</time></trkpt><trkpt lat="42.0397317" lon="11.89676"><ele>4.0</ele><time>2026-04-26T13:36:31.993Z</time></trkpt><trkpt lat="42.03979" lon="11.8966233"><ele>3.25</ele><time>2026-04-26T13:36:32.994Z</time></trkpt><trkpt lat="42.0398417" lon="11.8964833"><ele>2.5</ele><time>2026-04-26T13:36:33.991Z</time></trkpt><trkpt lat="42.0398867" lon="11.8963417"><ele>1.75</ele><time>2026-04-26T13:36:34.988Z</time></trkpt><trkpt lat="42.0399233" lon="11.8961933"><ele>1.0</ele><time>2026-04-26T13:36:35.994Z</time></trkpt><trkpt lat="42.039955" lon="11.896035"><ele>1.75</ele><time>2026-04-26T13:36:36.987Z</time></trkpt><trkpt lat="42.039985" lon="11.8958717"><ele>2.5</ele><time>2026-04-26T13:36:37.996Z</time></trkpt><trkpt lat="42.0400183" lon="11.8957033"><ele>3.25</ele><time>2026-04-26T13:36:38.991Z</time></trkpt><trkpt lat="42.0400483" lon="11.8955317"><ele>4.0</ele><time>2026-04-26T13:36:39.995Z</time></trkpt><trkpt lat="42.0400833" lon="11.8953483"><ele>4.0</ele><time>2026-04-26T13:36:40.997Z</time></trkpt><trkpt lat="42.0401167" lon="11.8951717"><ele>4.0</ele><time>2026-04-26T13:36:41.997Z</time></trkpt><trkpt lat="42.0401483" lon="11.8950033"><ele>4.0</ele><time>2026-04-26T13:36:42.993Z</time></trkpt><trkpt lat="42.0401833" lon="11.894835"><ele>4.0</ele><time>2026-04-26T13:36:43.995Z</time></trkpt><trkpt lat="42.040215" lon="11.89467"><ele>3.5</ele><time>2026-04-26T13:36:44.99Z</time></trkpt><trkpt lat="42.0402467" lon="11.8945067"><ele>3.0</ele><time>2026-04-26T13:36:45.995Z</time></trkpt><trkpt lat="42.04028" lon="11.894345"><ele>2.5</ele><time>2026-04-26T13:36:46.99Z</time></trkpt><trkpt lat="42.0403083" lon="11.8941883"><ele>2.0</ele><time>2026-04-26T13:36:47.996Z</time></trkpt><trkpt lat="42.040335" lon="11.8940317"><ele>1.75</ele><time>2026-04-26T13:36:48.99Z</time></trkpt><trkpt lat="42.0403583" lon="11.8938733"><ele>1.5</ele><time>2026-04-26T13:36:49.995Z</time></trkpt><trkpt lat="42.0403783" lon="11.89371"><ele>1.25</ele><time>2026-04-26T13:36:50.991Z</time></trkpt><trkpt lat="42.0403983" lon="11.8935467"><ele>1.0</ele><time>2026-04-26T13:36:51.991Z</time></trkpt><trkpt lat="42.0404167" lon="11.8933833"><ele>1.0</ele><time>2026-04-26T13:36:52.997Z</time></trkpt><trkpt lat="42.0404317" lon="11.8932217"><ele>1.0</ele><time>2026-04-26T13:36:53.996Z</time></trkpt><trkpt lat="42.04044" lon="11.8930517"><ele>1.0</ele><time>2026-04-26T13:36:54.99Z</time></trkpt><trkpt lat="42.040445" lon="11.8928733"><ele>1.0</ele><time>2026-04-26T13:36:55.993Z</time></trkpt><trkpt lat="42.04045" lon="11.89269"><ele>1.75</ele><time>2026-04-26T13:36:56.988Z</time></trkpt><trkpt lat="42.0404517" lon="11.8925167"><ele>2.5</ele><time>2026-04-26T13:36:57.99Z</time></trkpt><trkpt lat="42.0404517" lon="11.892345"><ele>3.25</ele><time>2026-04-26T13:36:58.995Z</time></trkpt><trkpt lat="42.04045" lon="11.89218"><ele>4.0</ele><time>2026-04-26T13:36:59.994Z</time></trkpt><trkpt lat="42.0404533" lon="11.8920183"><ele>4.0</ele><time>2026-04-26T13:37:00.994Z</time></trkpt><trkpt lat="42.0404567" lon="11.8918583"><ele>4.0</ele><time>2026-04-26T13:37:01.998Z</time></trkpt><trkpt lat="42.0404583" lon="11.8916983"><ele>4.0</ele><time>2026-04-26T13:37:03.001Z</time></trkpt><trkpt lat="42.04046" lon="11.8915383"><ele>4.0</ele><time>2026-04-26T13:37:03.994Z</time></trkpt><trkpt lat="42.0404583" lon="11.8913733"><ele>4.0</ele><time>2026-04-26T13:37:04.993Z</time></trkpt><trkpt lat="42.0404567" lon="11.8912"><ele>4.0</ele><time>2026-04-26T13:37:05.994Z</time></trkpt><trkpt lat="42.0404533" lon="11.8910267"><ele>4.0</ele><time>2026-04-26T13:37:06.99Z</time></trkpt><trkpt lat="42.0404383" lon="11.89086"><ele>4.0</ele><time>2026-04-26T13:37:07.992Z</time></trkpt><trkpt lat="42.0404133" lon="11.89069"><ele>4.25</ele><time>2026-04-26T13:37:08.99Z</time></trkpt><trkpt lat="42.0403767" lon="11.8905167"><ele>4.5</ele><time>2026-04-26T13:37:09.992Z</time></trkpt><trkpt lat="42.0403317" lon="11.8903433"><ele>4.75</ele><time>2026-04-26T13:37:10.992Z</time></trkpt><trkpt lat="42.04028" lon="11.8901733"><ele>5.0</ele><time>2026-04-26T13:37:11.995Z</time></trkpt><trkpt lat="42.040225" lon="11.88999"><ele>5.0</ele><time>2026-04-26T13:37:12.991Z</time></trkpt><trkpt lat="42.0401517" lon="11.88979"><ele>5.0</ele><time>2026-04-26T13:37:13.992Z</time></trkpt><trkpt lat="42.04008" lon="11.88956"><ele>5.0</ele><time>2026-04-26T13:37:14.995Z</time></trkpt><trkpt lat="42.0400233" lon="11.8893167"><ele>5.666666666666667</ele><time>2026-04-26T13:37:15.991Z</time></trkpt><trkpt lat="42.039975" lon="11.8890833"><ele>6.333333333333334</ele><time>2026-04-26T13:37:16.999Z</time></trkpt><trkpt lat="42.0399283" lon="11.8888633"><ele>7.0</ele><time>2026-04-26T13:37:17.996Z</time></trkpt><trkpt lat="42.039875" lon="11.88865"><ele>5.666666666666667</ele><time>2026-04-26T13:37:18.998Z</time></trkpt><trkpt lat="42.0398183" lon="11.88844"><ele>4.333333333333334</ele><time>2026-04-26T13:37:19.996Z</time></trkpt><trkpt lat="42.03976" lon="11.88823"><ele>3.0</ele><time>2026-04-26T13:37:20.997Z</time></trkpt><trkpt lat="42.0397033" lon="11.8880167"><ele>2.3333333333333335</ele><time>2026-04-26T13:37:21.993Z</time></trkpt><trkpt lat="42.0396483" lon="11.8878083"><ele>1.6666666666666665</ele><time>2026-04-26T13:37:22.993Z</time></trkpt><trkpt lat="42.0396" lon="11.8876033"><ele>1.0</ele><time>2026-04-26T13:37:23.99Z</time></trkpt><trkpt lat="42.0395583" lon="11.8874167"><ele>1.0</ele><time>2026-04-26T13:37:24.991Z</time></trkpt><trkpt lat="42.0395233" lon="11.8872367"><ele>1.0</ele><time>2026-04-26T13:37:25.996Z</time></trkpt><trkpt lat="42.0394967" lon="11.8870633"><ele>1.0</ele><time>2026-04-26T13:37:26.997Z</time></trkpt><trkpt lat="42.03949" lon="11.8869017"><ele>1.0</ele><time>2026-04-26T13:37:27.992Z</time></trkpt><trkpt lat="42.0395" lon="11.886745"><ele>1.0</ele><time>2026-04-26T13:37:28.993Z</time></trkpt><trkpt lat="42.03953" lon="11.8865917"><ele>1.0</ele><time>2026-04-26T13:37:29.999Z</time></trkpt><trkpt lat="42.0395717" lon="11.8864367"><ele>1.0</ele><time>2026-04-26T13:37:30.991Z</time></trkpt><trkpt lat="42.0396167" lon="11.886275"><ele>1.0</ele><time>2026-04-26T13:37:31.999Z</time></trkpt><trkpt lat="42.0396667" lon="11.8861083"><ele>1.0</ele><time>2026-04-26T13:37:32.991Z</time></trkpt><trkpt lat="42.039715" lon="11.885955"><ele>1.0</ele><time>2026-04-26T13:37:33.989Z</time></trkpt><trkpt lat="42.0397583" lon="11.8858117"><ele>1.0</ele><time>2026-04-26T13:37:34.994Z</time></trkpt><trkpt lat="42.0397967" lon="11.88567"><ele>1.0</ele><time>2026-04-26T13:37:35.995Z</time></trkpt><trkpt lat="42.0398317" lon="11.885535"><ele>1.4</ele><time>2026-04-26T13:37:36.989Z</time></trkpt><trkpt lat="42.03987" lon="11.8853967"><ele>1.8</ele><time>2026-04-26T13:37:37.997Z</time></trkpt><trkpt lat="42.0399033" lon="11.88526"><ele>2.1999999999999997</ele><time>2026-04-26T13:37:38.99Z</time></trkpt><trkpt lat="42.0399383" lon="11.8851217"><ele>2.6</ele><time>2026-04-26T13:37:39.997Z</time></trkpt><trkpt lat="42.0399717" lon="11.8849717"><ele>3.0</ele><time>2026-04-26T13:37:40.996Z</time></trkpt><trkpt lat="42.0400117" lon="11.8847933"><ele>3.666666666666667</ele><time>2026-04-26T13:37:41.995Z</time></trkpt><trkpt lat="42.0400583" lon="11.88458"><ele>4.333333333333334</ele><time>2026-04-26T13:37:42.996Z</time></trkpt><trkpt lat="42.0401283" lon="11.88434"><ele>5.0</ele><time>2026-04-26T13:37:43.994Z</time></trkpt><trkpt lat="42.0402117" lon="11.8841067"><ele>5.0</ele><time>2026-04-26T13:37:44.996Z</time></trkpt><trkpt lat="42.040285" lon="11.8838933"><ele>5.0</ele><time>2026-04-26T13:37:45.991Z</time></trkpt><trkpt lat="42.0403483" lon="11.8836967"><ele>5.0</ele><time>2026-04-26T13:37:46.995Z</time></trkpt><trkpt lat="42.0404067" lon="11.8835117"><ele>4.75</ele><time>2026-04-26T13:37:47.991Z</time></trkpt><trkpt lat="42.0404483" lon="11.883335"><ele>4.5</ele><time>2026-04-26T13:37:48.994Z</time></trkpt><trkpt lat="42.0404717" lon="11.8831617"><ele>4.25</ele><time>2026-04-26T13:37:50.003Z</time></trkpt><trkpt lat="42.0404733" lon="11.8829883"><ele>4.0</ele><time>2026-04-26T13:37:50.994Z</time></trkpt><trkpt lat="42.0404533" lon="11.88281"><ele>4.0</ele><time>2026-04-26T13:37:51.996Z</time></trkpt><trkpt lat="42.04043" lon="11.88261"><ele>4.0</ele><time>2026-04-26T13:37:52.992Z</time></trkpt><trkpt lat="42.0404133" lon="11.8824167"><ele>4.0</ele><time>2026-04-26T13:37:53.996Z</time></trkpt><trkpt lat="42.040385" lon="11.8822383"><ele>4.0</ele><time>2026-04-26T13:37:54.998Z</time></trkpt><trkpt lat="42.04034" lon="11.88208"><ele>4.25</ele><time>2026-04-26T13:37:55.997Z</time></trkpt><trkpt lat="42.040255" lon="11.8819483"><ele>4.5</ele><time>2026-04-26T13:37:56.995Z</time></trkpt><trkpt lat="42.04014" lon="11.8818233"><ele>4.75</ele><time>2026-04-26T13:37:57.998Z</time></trkpt><trkpt lat="42.039995" lon="11.8817133"><ele>5.0</ele><time>2026-04-26T13:37:58.996Z</time></trkpt><trkpt lat="42.0398167" lon="11.8816067"><ele>4.333333333333334</ele><time>2026-04-26T13:37:59.989Z</time></trkpt><trkpt lat="42.039625" lon="11.8814867"><ele>3.666666666666667</ele><time>2026-04-26T13:38:00.991Z</time></trkpt><trkpt lat="42.0394367" lon="11.8813567"><ele>3.0</ele><time>2026-04-26T13:38:01.996Z</time></trkpt><trkpt lat="42.03926" lon="11.881235"><ele>3.0</ele><time>2026-04-26T13:38:02.993Z</time></trkpt><trkpt lat="42.0391" lon="11.8811233"><ele>3.0</ele><time>2026-04-26T13:38:03.996Z</time></trkpt><trkpt lat="42.0389633" lon="11.8810167"><ele>3.0</ele><time>2026-04-26T13:38:04.994Z</time></trkpt><trkpt lat="42.03885" lon="11.8809"><ele>3.0</ele><time>2026-04-26T13:38:05.99Z</time></trkpt><trkpt lat="42.038765" lon="11.8807567"><ele>3.0</ele><time>2026-04-26T13:38:06.998Z</time></trkpt><trkpt lat="42.0387117" lon="11.88059"><ele>3.0</ele><time>2026-04-26T13:38:07.993Z</time></trkpt><trkpt lat="42.0386833" lon="11.880405"><ele>3.0</ele><time>2026-04-26T13:38:08.994Z</time></trkpt><trkpt lat="42.0386633" lon="11.88021"><ele>3.5</ele><time>2026-04-26T13:38:09.989Z</time></trkpt><trkpt lat="42.0386567" lon="11.8800183"><ele>4.0</ele><time>2026-04-26T13:38:10.991Z</time></trkpt><trkpt lat="42.0386483" lon="11.8798233"><ele>4.5</ele><time>2026-04-26T13:38:11.998Z</time></trkpt><trkpt lat="42.038635" lon="11.8796267"><ele>5.0</ele><time>2026-04-26T13:38:12.995Z</time></trkpt><trkpt lat="42.0386167" lon="11.879425"><ele>4.666666666666667</ele><time>2026-04-26T13:38:13.995Z</time></trkpt><trkpt lat="42.038595" lon="11.87922"><ele>4.333333333333333</ele><time>2026-04-26T13:38:14.991Z</time></trkpt><trkpt lat="42.0385733" lon="11.8790083"><ele>4.0</ele><time>2026-04-26T13:38:15.99Z</time></trkpt><trkpt lat="42.0385533" lon="11.8788017"><ele>4.0</ele><time>2026-04-26T13:38:16.992Z</time></trkpt><trkpt lat="42.0385383" lon="11.8786083"><ele>4.0</ele><time>2026-04-26T13:38:17.99Z</time></trkpt><trkpt lat="42.038515" lon="11.8784217"><ele>4.0</ele><time>2026-04-26T13:38:18.993Z</time></trkpt><trkpt lat="42.0384917" lon="11.878235"><ele>4.0</ele><time>2026-04-26T13:38:19.993Z</time></trkpt><trkpt lat="42.0384633" lon="11.8780483"><ele>4.5</ele><time>2026-04-26T13:38:20.992Z</time></trkpt><trkpt lat="42.0384283" lon="11.87786"><ele>5.0</ele><time>2026-04-26T13:38:21.992Z</time></trkpt><trkpt lat="42.0383917" lon="11.8776667"><ele>5.5</ele><time>2026-04-26T13:38:22.99Z</time></trkpt><trkpt lat="42.038355" lon="11.8774683"><ele>6.0</ele><time>2026-04-26T13:38:23.992Z</time></trkpt><trkpt lat="42.038315" lon="11.8772783"><ele>5.0</ele><time>2026-04-26T13:38:24.993Z</time></trkpt><trkpt lat="42.038275" lon="11.8770917"><ele>4.0</ele><time>2026-04-26T13:38:26Z</time></trkpt><trkpt lat="42.0382383" lon="11.8769033"><ele>3.0</ele><time>2026-04-26T13:38:26.99Z</time></trkpt><trkpt lat="42.0382017" lon="11.8767167"><ele>2.0</ele><time>2026-04-26T13:38:28Z</time></trkpt><trkpt lat="42.0381717" lon="11.8765267"><ele>2.0</ele><time>2026-04-26T13:38:28.992Z</time></trkpt><trkpt lat="42.0381383" lon="11.8763367"><ele>2.0</ele><time>2026-04-26T13:38:29.998Z</time></trkpt><trkpt lat="42.0381033" lon="11.876145"><ele>2.0</ele><time>2026-04-26T13:38:30.991Z</time></trkpt><trkpt lat="42.0380667" lon="11.8759533"><ele>2.0</ele><time>2026-04-26T13:38:31.99Z</time></trkpt><trkpt lat="42.03803" lon="11.8757617"><ele>2.0</ele><time>2026-04-26T13:38:32.99Z</time></trkpt><trkpt lat="42.0379933" lon="11.875565"><ele>2.0</ele><time>2026-04-26T13:38:33.992Z</time></trkpt><trkpt lat="42.0379583" lon="11.8753633"><ele>2.0</ele><time>2026-04-26T13:38:34.994Z</time></trkpt><trkpt lat="42.0379233" lon="11.8751617"><ele>2.333333333333333</ele><time>2026-04-26T13:38:35.994Z</time></trkpt><trkpt lat="42.0378833" lon="11.8749617"><ele>2.6666666666666665</ele><time>2026-04-26T13:38:36.994Z</time></trkpt><trkpt lat="42.037845" lon="11.8747617"><ele>3.0</ele><time>2026-04-26T13:38:37.992Z</time></trkpt><trkpt lat="42.037805" lon="11.8745567"><ele>3.0</ele><time>2026-04-26T13:38:38.996Z</time></trkpt><trkpt lat="42.037765" lon="11.87435"><ele>3.0</ele><time>2026-04-26T13:38:39.988Z</time></trkpt><trkpt lat="42.0377217" lon="11.874145"><ele>3.0</ele><time>2026-04-26T13:38:40.995Z</time></trkpt><trkpt lat="42.0376817" lon="11.8739367"><ele>3.0</ele><time>2026-04-26T13:38:41.993Z</time></trkpt><trkpt lat="42.037645" lon="11.873725"><ele>3.0</ele><time>2026-04-26T13:38:42.992Z</time></trkpt><trkpt lat="42.0376083" lon="11.87351"><ele>3.0</ele><time>2026-04-26T13:38:43.992Z</time></trkpt><trkpt lat="42.0375733" lon="11.8732933"><ele>3.0</ele><time>2026-04-26T13:38:44.99Z</time></trkpt><trkpt lat="42.0375333" lon="11.8730767"><ele>3.0</ele><time>2026-04-26T13:38:45.991Z</time></trkpt><trkpt lat="42.0374933" lon="11.8728617"><ele>3.0</ele><time>2026-04-26T13:38:46.99Z</time></trkpt><trkpt lat="42.0374567" lon="11.8726517"><ele>2.3333333333333335</ele><time>2026-04-26T13:38:47.991Z</time></trkpt><trkpt lat="42.0374167" lon="11.8724517"><ele>1.6666666666666665</ele><time>2026-04-26T13:38:48.995Z</time></trkpt><trkpt lat="42.03738" lon="11.8722583"><ele>1.0</ele><time>2026-04-26T13:38:49.994Z</time></trkpt><trkpt lat="42.0373433" lon="11.8720633"><ele>1.0</ele><time>2026-04-26T13:38:50.992Z</time></trkpt><trkpt lat="42.0373083" lon="11.8718617"><ele>1.0</ele><time>2026-04-26T13:38:51.994Z</time></trkpt><trkpt lat="42.03727" lon="11.871655"><ele>1.0</ele><time>2026-04-26T13:38:52.99Z</time></trkpt><trkpt lat="42.0372333" lon="11.8714433"><ele>1.5</ele><time>2026-04-26T13:38:53.994Z</time></trkpt><trkpt lat="42.0371967" lon="11.8712333"><ele>2.0</ele><time>2026-04-26T13:38:54.992Z</time></trkpt><trkpt lat="42.0371617" lon="11.87104"><ele>2.5</ele><time>2026-04-26T13:38:55.996Z</time></trkpt><trkpt lat="42.0371233" lon="11.8708667"><ele>3.0</ele><time>2026-04-26T13:38:56.997Z</time></trkpt><trkpt lat="42.037075" lon="11.8707033"><ele>3.75</ele><time>2026-04-26T13:38:57.995Z</time></trkpt><trkpt lat="42.0370133" lon="11.87055"><ele>4.5</ele><time>2026-04-26T13:38:58.99Z</time></trkpt><trkpt lat="42.03694" lon="11.8704033"><ele>5.25</ele><time>2026-04-26T13:38:59.995Z</time></trkpt><trkpt lat="42.0368633" lon="11.8702567"><ele>6.0</ele><time>2026-04-26T13:39:00.988Z</time></trkpt><trkpt lat="42.0367867" lon="11.87011"><ele>6.75</ele><time>2026-04-26T13:39:01.987Z</time></trkpt><trkpt lat="42.03671" lon="11.86996"><ele>7.5</ele><time>2026-04-26T13:39:02.992Z</time></trkpt><trkpt lat="42.03663" lon="11.8697983"><ele>8.25</ele><time>2026-04-26T13:39:03.989Z</time></trkpt><trkpt lat="42.036555" lon="11.86963"><ele>9.0</ele><time>2026-04-26T13:39:04.993Z</time></trkpt><trkpt lat="42.0364867" lon="11.8694733"><ele>9.0</ele><time>2026-04-26T13:39:05.998Z</time></trkpt><trkpt lat="42.036425" lon="11.86933"><ele>9.0</ele><time>2026-04-26T13:39:06.991Z</time></trkpt><trkpt lat="42.036365" lon="11.8692017"><ele>9.0</ele><time>2026-04-26T13:39:07.996Z</time></trkpt><trkpt lat="42.0363033" lon="11.8690733"><ele>9.0</ele><time>2026-04-26T13:39:08.993Z</time></trkpt><trkpt lat="42.0362433" lon="11.8689517"><ele>10.4</ele><time>2026-04-26T13:39:09.993Z</time></trkpt><trkpt lat="42.0361967" lon="11.8688267"><ele>11.8</ele><time>2026-04-26T13:39:10.994Z</time></trkpt><trkpt lat="42.0361517" lon="11.8687033"><ele>13.200000000000001</ele><time>2026-04-26T13:39:11.992Z</time></trkpt><trkpt lat="42.0361167" lon="11.8685833"><ele>14.600000000000001</ele><time>2026-04-26T13:39:12.997Z</time></trkpt><trkpt lat="42.03609" lon="11.8684733"><ele>16.0</ele><time>2026-04-26T13:39:13.999Z</time></trkpt><trkpt lat="42.0360683" lon="11.8683783"><ele>16.8</ele><time>2026-04-26T13:39:14.997Z</time></trkpt><trkpt lat="42.0360467" lon="11.8682933"><ele>17.6</ele><time>2026-04-26T13:39:15.989Z</time></trkpt><trkpt lat="42.0360117" lon="11.8681533"><ele>18.4</ele><time>2026-04-26T13:39:17.991Z</time></trkpt><trkpt lat="42.0359733" lon="11.868005"><ele>19.2</ele><time>2026-04-26T13:39:19.994Z</time></trkpt><trkpt lat="42.03594" lon="11.8678733"><ele>20.0</ele><time>2026-04-26T13:39:21.993Z</time></trkpt><trkpt lat="42.0359117" lon="11.86775"><ele>20.0</ele><time>2026-04-26T13:39:23.994Z</time></trkpt><trkpt lat="42.0358933" lon="11.8676417"><ele>20.0</ele><time>2026-04-26T13:39:25.996Z</time></trkpt><trkpt lat="42.03584" lon="11.8675883"><ele>20.0</ele><time>2026-04-26T13:39:35.992Z</time></trkpt><trkpt lat="42.0358167" lon="11.86746"><ele>20.0</ele><time>2026-04-26T13:39:37.994Z</time></trkpt><trkpt lat="42.0357933" lon="11.867355"><ele>20.0</ele><time>2026-04-26T13:39:39.992Z</time></trkpt><trkpt lat="42.0357617" lon="11.867245"><ele>20.0</ele><time>2026-04-26T13:39:41.996Z</time></trkpt><trkpt lat="42.0357333" lon="11.86712"><ele>20.2</ele><time>2026-04-26T13:39:43.994Z</time></trkpt><trkpt lat="42.0357" lon="11.86697"><ele>20.4</ele><time>2026-04-26T13:39:45.994Z</time></trkpt><trkpt lat="42.0356817" lon="11.866885"><ele>20.6</ele><time>2026-04-26T13:39:46.992Z</time></trkpt><trkpt lat="42.0356683" lon="11.8667933"><ele>20.8</ele><time>2026-04-26T13:39:47.993Z</time></trkpt><trkpt lat="42.0356417" lon="11.8666383"><ele>21.0</ele><time>2026-04-26T13:39:49.996Z</time></trkpt><trkpt lat="42.0356183" lon="11.8665167"><ele>20.666666666666668</ele><time>2026-04-26T13:39:51.99Z</time></trkpt><trkpt lat="42.03559" lon="11.8664033"><ele>20.333333333333332</ele><time>2026-04-26T13:39:53.996Z</time></trkpt><trkpt lat="42.0355767" lon="11.8663117"><ele>20.0</ele><time>2026-04-26T13:39:55.99Z</time></trkpt><trkpt lat="42.0355717" lon="11.86622"><ele>19.666666666666664</ele><time>2026-04-26T13:39:57.998Z</time></trkpt><trkpt lat="42.03553" lon="11.8661333"><ele>19.333333333333332</ele><time>2026-04-26T13:40:07.993Z</time></trkpt><trkpt lat="42.0355033" lon="11.8660083"><ele>19.0</ele><time>2026-04-26T13:40:09.991Z</time></trkpt><trkpt lat="42.0355" lon="11.8658583"><ele>18.71428571428571</ele><time>2026-04-26T13:40:11.994Z</time></trkpt><trkpt lat="42.035495" lon="11.865765"><ele>18.42857142857143</ele><time>2026-04-26T13:40:13.993Z</time></trkpt><trkpt lat="42.0354833" lon="11.86568"><ele>18.142857142857142</ele><time>2026-04-26T13:40:17.995Z</time></trkpt><trkpt lat="42.0354517" lon="11.865585"><ele>17.857142857142854</ele><time>2026-04-26T13:40:21.995Z</time></trkpt><trkpt lat="42.0354167" lon="11.8655133"><ele>17.57142857142857</ele><time>2026-04-26T13:40:25.993Z</time></trkpt><trkpt lat="42.0353733" lon="11.8654483"><ele>17.285714285714285</ele><time>2026-04-26T13:40:32.992Z</time></trkpt><trkpt lat="42.0353483" lon="11.8653633"><ele>17.0</ele><time>2026-04-26T13:40:34.99Z</time></trkpt><trkpt lat="42.03532" lon="11.86527"><ele>17.0</ele><time>2026-04-26T13:40:36.992Z</time></trkpt><trkpt lat="42.035285" lon="11.8651567"><ele>17.0</ele><time>2026-04-26T13:40:38.993Z</time></trkpt><trkpt lat="42.0352617" lon="11.8649967"><ele>17.0</ele><time>2026-04-26T13:40:40.989Z</time></trkpt><trkpt lat="42.0352333" lon="11.86491"><ele>17.0</ele><time>2026-04-26T13:40:41.992Z</time></trkpt><trkpt lat="42.0352033" lon="11.8648117"><ele>17.0</ele><time>2026-04-26T13:40:42.992Z</time></trkpt><trkpt lat="42.0351817" lon="11.864685"><ele>17.6</ele><time>2026-04-26T13:40:43.994Z</time></trkpt><trkpt lat="42.03516" lon="11.8645583"><ele>18.2</ele><time>2026-04-26T13:40:44.997Z</time></trkpt><trkpt lat="42.0351333" lon="11.8644283"><ele>18.8</ele><time>2026-04-26T13:40:45.995Z</time></trkpt><trkpt lat="42.0351117" lon="11.8642967"><ele>19.4</ele><time>2026-04-26T13:40:46.991Z</time></trkpt><trkpt lat="42.0350933" lon="11.8641617"><ele>20.0</ele><time>2026-04-26T13:40:47.996Z</time></trkpt><trkpt lat="42.0350783" lon="11.864035"><ele>20.2</ele><time>2026-04-26T13:40:48.996Z</time></trkpt><trkpt lat="42.03506" lon="11.86393"><ele>20.4</ele><time>2026-04-26T13:40:49.995Z</time></trkpt><trkpt lat="42.0350467" lon="11.86384"><ele>20.6</ele><time>2026-04-26T13:40:50.992Z</time></trkpt><trkpt lat="42.035035" lon="11.8637067"><ele>20.8</ele><time>2026-04-26T13:40:52.992Z</time></trkpt><trkpt lat="42.035" lon="11.8636067"><ele>21.0</ele><time>2026-04-26T13:41:05.992Z</time></trkpt><trkpt lat="42.0349483" lon="11.8634183"><ele>18.75</ele><time>2026-04-26T13:41:07.997Z</time></trkpt><trkpt lat="42.0349183" lon="11.8633067"><ele>16.5</ele><time>2026-04-26T13:41:08.989Z</time></trkpt><trkpt lat="42.03489" lon="11.8631533"><ele>14.25</ele><time>2026-04-26T13:41:10Z</time></trkpt><trkpt lat="42.0348617" lon="11.86298"><ele>12.0</ele><time>2026-04-26T13:41:10.99Z</time></trkpt><trkpt lat="42.03484" lon="11.8628133"><ele>12.0</ele><time>2026-04-26T13:41:11.993Z</time></trkpt><trkpt lat="42.03483" lon="11.862635"><ele>12.0</ele><time>2026-04-26T13:41:12.994Z</time></trkpt><trkpt lat="42.03481" lon="11.8624683"><ele>12.0</ele><time>2026-04-26T13:41:13.993Z</time></trkpt><trkpt lat="42.0347833" lon="11.862295"><ele>12.0</ele><time>2026-04-26T13:41:14.993Z</time></trkpt><trkpt lat="42.0347583" lon="11.8621233"><ele>10.0</ele><time>2026-04-26T13:41:15.992Z</time></trkpt><trkpt lat="42.0347383" lon="11.86196"><ele>8.0</ele><time>2026-04-26T13:41:16.993Z</time></trkpt><trkpt lat="42.0347183" lon="11.8618017"><ele>6.0</ele><time>2026-04-26T13:41:17.997Z</time></trkpt><trkpt lat="42.034705" lon="11.8616433"><ele>4.0</ele><time>2026-04-26T13:41:18.993Z</time></trkpt><trkpt lat="42.0346983" lon="11.861485"><ele>3.5</ele><time>2026-04-26T13:41:19.991Z</time></trkpt><trkpt lat="42.034685" lon="11.8613217"><ele>3.0</ele><time>2026-04-26T13:41:20.989Z</time></trkpt><trkpt lat="42.03467" lon="11.861155"><ele>2.5</ele><time>2026-04-26T13:41:21.989Z</time></trkpt><trkpt lat="42.0346583" lon="11.8609833"><ele>2.0</ele><time>2026-04-26T13:41:22.991Z</time></trkpt><trkpt lat="42.0346417" lon="11.8608133"><ele>2.0</ele><time>2026-04-26T13:41:23.993Z</time></trkpt><trkpt lat="42.0346283" lon="11.8606367"><ele>2.0</ele><time>2026-04-26T13:41:24.992Z</time></trkpt><trkpt lat="42.03461" lon="11.8604633"><ele>2.0</ele><time>2026-04-26T13:41:25.993Z</time></trkpt><trkpt lat="42.0345867" lon="11.86028"><ele>2.0</ele><time>2026-04-26T13:41:26.993Z</time></trkpt><trkpt lat="42.0345667" lon="11.8600867"><ele>2.0</ele><time>2026-04-26T13:41:27.992Z</time></trkpt><trkpt lat="42.0345467" lon="11.8598817"><ele>2.0</ele><time>2026-04-26T13:41:28.996Z</time></trkpt><trkpt lat="42.0345317" lon="11.8596733"><ele>2.0</ele><time>2026-04-26T13:41:29.994Z</time></trkpt><trkpt lat="42.0345167" lon="11.859485"><ele>2.0</ele><time>2026-04-26T13:41:30.997Z</time></trkpt><trkpt lat="42.0345" lon="11.85931"><ele>2.0</ele><time>2026-04-26T13:41:31.992Z</time></trkpt><trkpt lat="42.03448" lon="11.8591417"><ele>2.0</ele><time>2026-04-26T13:41:32.992Z</time></trkpt><trkpt lat="42.034455" lon="11.8589767"><ele>2.0</ele><time>2026-04-26T13:41:33.993Z</time></trkpt><trkpt lat="42.034425" lon="11.8588133"><ele>2.0</ele><time>2026-04-26T13:41:34.992Z</time></trkpt><trkpt lat="42.0343933" lon="11.858635"><ele>2.0</ele><time>2026-04-26T13:41:35.991Z</time></trkpt><trkpt lat="42.0343517" lon="11.8584417"><ele>2.0</ele><time>2026-04-26T13:41:36.995Z</time></trkpt><trkpt lat="42.0342967" lon="11.858235"><ele>2.0</ele><time>2026-04-26T13:41:37.993Z</time></trkpt><trkpt lat="42.0342417" lon="11.8580117"><ele>2.6666666666666665</ele><time>2026-04-26T13:41:38.994Z</time></trkpt><trkpt lat="42.0341867" lon="11.8577883"><ele>3.333333333333333</ele><time>2026-04-26T13:41:39.989Z</time></trkpt><trkpt lat="42.0341367" lon="11.85758"><ele>4.0</ele><time>2026-04-26T13:41:40.994Z</time></trkpt><trkpt lat="42.034085" lon="11.8573717"><ele>3.333333333333333</ele><time>2026-04-26T13:41:41.991Z</time></trkpt><trkpt lat="42.0340317" lon="11.8571667"><ele>2.6666666666666665</ele><time>2026-04-26T13:41:42.987Z</time></trkpt><trkpt lat="42.03398" lon="11.8569617"><ele>2.0</ele><time>2026-04-26T13:41:43.993Z</time></trkpt><trkpt lat="42.0339333" lon="11.8567617"><ele>2.0</ele><time>2026-04-26T13:41:44.992Z</time></trkpt><trkpt lat="42.03389" lon="11.856565"><ele>2.0</ele><time>2026-04-26T13:41:45.99Z</time></trkpt><trkpt lat="42.03385" lon="11.8563683"><ele>2.0</ele><time>2026-04-26T13:41:46.994Z</time></trkpt><trkpt lat="42.033815" lon="11.8561767"><ele>2.0</ele><time>2026-04-26T13:41:47.993Z</time></trkpt><trkpt lat="42.033785" lon="11.856"><ele>2.0</ele><time>2026-04-26T13:41:48.991Z</time></trkpt><trkpt lat="42.033755" lon="11.85583"><ele>2.0</ele><time>2026-04-26T13:41:49.992Z</time></trkpt><trkpt lat="42.0337233" lon="11.8556617"><ele>2.0</ele><time>2026-04-26T13:41:50.993Z</time></trkpt><trkpt lat="42.0336967" lon="11.8554867"><ele>2.5</ele><time>2026-04-26T13:41:51.993Z</time></trkpt><trkpt lat="42.0336733" lon="11.855305"><ele>3.0</ele><time>2026-04-26T13:41:52.993Z</time></trkpt><trkpt lat="42.0336517" lon="11.8551167"><ele>3.5</ele><time>2026-04-26T13:41:53.992Z</time></trkpt><trkpt lat="42.0336283" lon="11.8549183"><ele>4.0</ele><time>2026-04-26T13:41:54.991Z</time></trkpt><trkpt lat="42.033605" lon="11.854715"><ele>5.0</ele><time>2026-04-26T13:41:55.995Z</time></trkpt><trkpt lat="42.0335817" lon="11.8545033"><ele>6.0</ele><time>2026-04-26T13:41:56.992Z</time></trkpt><trkpt lat="42.033555" lon="11.8542833"><ele>7.0</ele><time>2026-04-26T13:41:57.992Z</time></trkpt><trkpt lat="42.0335267" lon="11.8540567"><ele>7.333333333333334</ele><time>2026-04-26T13:41:58.992Z</time></trkpt><trkpt lat="42.0335" lon="11.853835"><ele>7.666666666666666</ele><time>2026-04-26T13:41:59.995Z</time></trkpt><trkpt lat="42.03347" lon="11.8536217"><ele>8.0</ele><time>2026-04-26T13:42:00.992Z</time></trkpt><trkpt lat="42.0334433" lon="11.853415"><ele>9.0</ele><time>2026-04-26T13:42:01.993Z</time></trkpt><trkpt lat="42.0334183" lon="11.8532083"><ele>10.0</ele><time>2026-04-26T13:42:02.991Z</time></trkpt><trkpt lat="42.0333933" lon="11.853005"><ele>11.0</ele><time>2026-04-26T13:42:03.99Z</time></trkpt><trkpt lat="42.03337" lon="11.8527983"><ele>11.75</ele><time>2026-04-26T13:42:04.996Z</time></trkpt><trkpt lat="42.0333517" lon="11.8525967"><ele>12.5</ele><time>2026-04-26T13:42:05.995Z</time></trkpt><trkpt lat="42.0333333" lon="11.8524033"><ele>13.25</ele><time>2026-04-26T13:42:06.99Z</time></trkpt><trkpt lat="42.0333133" lon="11.8522283"><ele>14.0</ele><time>2026-04-26T13:42:07.993Z</time></trkpt><trkpt lat="42.033295" lon="11.8520667"><ele>12.75</ele><time>2026-04-26T13:42:08.991Z</time></trkpt><trkpt lat="42.03327" lon="11.8519067"><ele>11.5</ele><time>2026-04-26T13:42:09.991Z</time></trkpt><trkpt lat="42.0332433" lon="11.8517383"><ele>10.25</ele><time>2026-04-26T13:42:10.993Z</time></trkpt><trkpt lat="42.0332083" lon="11.851555"><ele>9.0</ele><time>2026-04-26T13:42:11.992Z</time></trkpt><trkpt lat="42.03317" lon="11.8513517"><ele>9.0</ele><time>2026-04-26T13:42:12.994Z</time></trkpt><trkpt lat="42.03313" lon="11.8511333"><ele>9.0</ele><time>2026-04-26T13:42:13.992Z</time></trkpt><trkpt lat="42.033095" lon="11.850905"><ele>9.0</ele><time>2026-04-26T13:42:14.994Z</time></trkpt><trkpt lat="42.033065" lon="11.8506917"><ele>8.666666666666666</ele><time>2026-04-26T13:42:15.994Z</time></trkpt><trkpt lat="42.0330283" lon="11.8504867"><ele>8.333333333333332</ele><time>2026-04-26T13:42:16.991Z</time></trkpt><trkpt lat="42.0329933" lon="11.8502783"><ele>8.0</ele><time>2026-04-26T13:42:17.992Z</time></trkpt><trkpt lat="42.0329617" lon="11.8500717"><ele>7.75</ele><time>2026-04-26T13:42:18.991Z</time></trkpt><trkpt lat="42.0329367" lon="11.8498683"><ele>7.5</ele><time>2026-04-26T13:42:19.988Z</time></trkpt><trkpt lat="42.03291" lon="11.8496833"><ele>7.25</ele><time>2026-04-26T13:42:20.99Z</time></trkpt><trkpt lat="42.03288" lon="11.8495083"><ele>7.0</ele><time>2026-04-26T13:42:21.99Z</time></trkpt><trkpt lat="42.03285" lon="11.849335"><ele>7.0</ele><time>2026-04-26T13:42:22.993Z</time></trkpt><trkpt lat="42.0328167" lon="11.84916"><ele>7.0</ele><time>2026-04-26T13:42:23.996Z</time></trkpt><trkpt lat="42.03278" lon="11.8489717"><ele>7.0</ele><time>2026-04-26T13:42:24.992Z</time></trkpt><trkpt lat="42.032745" lon="11.8487733"><ele>7.0</ele><time>2026-04-26T13:42:25.99Z</time></trkpt><trkpt lat="42.0327167" lon="11.8485733"><ele>7.25</ele><time>2026-04-26T13:42:26.99Z</time></trkpt><trkpt lat="42.0326883" lon="11.8483783"><ele>7.5</ele><time>2026-04-26T13:42:27.99Z</time></trkpt><trkpt lat="42.0326583" lon="11.8481917"><ele>7.75</ele><time>2026-04-26T13:42:28.993Z</time></trkpt><trkpt lat="42.03263" lon="11.8480067"><ele>8.0</ele><time>2026-04-26T13:42:29.99Z</time></trkpt><trkpt lat="42.0326" lon="11.84783"><ele>8.0</ele><time>2026-04-26T13:42:30.992Z</time></trkpt><trkpt lat="42.0325667" lon="11.8476533"><ele>8.0</ele><time>2026-04-26T13:42:31.99Z</time></trkpt><trkpt lat="42.0325333" lon="11.8474783"><ele>8.0</ele><time>2026-04-26T13:42:32.991Z</time></trkpt><trkpt lat="42.0325017" lon="11.847295"><ele>8.0</ele><time>2026-04-26T13:42:33.991Z</time></trkpt><trkpt lat="42.0324717" lon="11.84712"><ele>7.5</ele><time>2026-04-26T13:42:34.991Z</time></trkpt><trkpt lat="42.0324417" lon="11.8469367"><ele>7.0</ele><time>2026-04-26T13:42:35.992Z</time></trkpt><trkpt lat="42.0324133" lon="11.8467533"><ele>6.5</ele><time>2026-04-26T13:42:36.998Z</time></trkpt><trkpt lat="42.0323817" lon="11.8465767"><ele>6.0</ele><time>2026-04-26T13:42:37.995Z</time></trkpt><trkpt lat="42.0323567" lon="11.846405"><ele>6.0</ele><time>2026-04-26T13:42:38.99Z</time></trkpt><trkpt lat="42.0323333" lon="11.8462417"><ele>6.0</ele><time>2026-04-26T13:42:39.989Z</time></trkpt><trkpt lat="42.0323067" lon="11.84609"><ele>6.0</ele><time>2026-04-26T13:42:40.996Z</time></trkpt><trkpt lat="42.032275" lon="11.84594"><ele>6.0</ele><time>2026-04-26T13:42:41.991Z</time></trkpt><trkpt lat="42.0322433" lon="11.8457883"><ele>6.199999999999999</ele><time>2026-04-26T13:42:42.994Z</time></trkpt><trkpt lat="42.0322167" lon="11.8456383"><ele>6.3999999999999995</ele><time>2026-04-26T13:42:43.996Z</time></trkpt><trkpt lat="42.0321933" lon="11.845495"><ele>6.6</ele><time>2026-04-26T13:42:44.998Z</time></trkpt><trkpt lat="42.0321683" lon="11.8453617"><ele>6.8</ele><time>2026-04-26T13:42:45.992Z</time></trkpt><trkpt lat="42.0321417" lon="11.8452267"><ele>7.0</ele><time>2026-04-26T13:42:46.995Z</time></trkpt><trkpt lat="42.0321133" lon="11.8450817"><ele>7.5</ele><time>2026-04-26T13:42:47.994Z</time></trkpt><trkpt lat="42.0320917" lon="11.8449217"><ele>8.0</ele><time>2026-04-26T13:42:48.991Z</time></trkpt><trkpt lat="42.03208" lon="11.8447433"><ele>8.5</ele><time>2026-04-26T13:42:49.995Z</time></trkpt><trkpt lat="42.032085" lon="11.844555"><ele>9.0</ele><time>2026-04-26T13:42:50.992Z</time></trkpt><trkpt lat="42.0321" lon="11.844365"><ele>9.0</ele><time>2026-04-26T13:42:51.991Z</time></trkpt><trkpt lat="42.0321183" lon="11.8441817"><ele>9.0</ele><time>2026-04-26T13:42:52.991Z</time></trkpt><trkpt lat="42.0321367" lon="11.844005"><ele>9.0</ele><time>2026-04-26T13:42:53.99Z</time></trkpt><trkpt lat="42.0321517" lon="11.8438317"><ele>9.0</ele><time>2026-04-26T13:42:54.991Z</time></trkpt><trkpt lat="42.0321683" lon="11.8436583"><ele>9.0</ele><time>2026-04-26T13:42:55.998Z</time></trkpt><trkpt lat="42.0321833" lon="11.8434817"><ele>9.0</ele><time>2026-04-26T13:42:56.995Z</time></trkpt><trkpt lat="42.0321967" lon="11.8433033"><ele>9.0</ele><time>2026-04-26T13:42:57.991Z</time></trkpt><trkpt lat="42.0322067" lon="11.8431283"><ele>9.0</ele><time>2026-04-26T13:42:58.994Z</time></trkpt><trkpt lat="42.0322217" lon="11.8429617"><ele>9.0</ele><time>2026-04-26T13:42:59.995Z</time></trkpt><trkpt lat="42.0322367" lon="11.8428033"><ele>9.0</ele><time>2026-04-26T13:43:00.991Z</time></trkpt><trkpt lat="42.0322517" lon="11.8426433"><ele>9.0</ele><time>2026-04-26T13:43:01.996Z</time></trkpt><trkpt lat="42.0322667" lon="11.84249"><ele>9.0</ele><time>2026-04-26T13:43:02.99Z</time></trkpt><trkpt lat="42.0322783" lon="11.8423483"><ele>9.0</ele><time>2026-04-26T13:43:03.993Z</time></trkpt><trkpt lat="42.0322833" lon="11.8422167"><ele>9.0</ele><time>2026-04-26T13:43:04.99Z</time></trkpt><trkpt lat="42.03229" lon="11.8420883"><ele>9.0</ele><time>2026-04-26T13:43:05.994Z</time></trkpt><trkpt lat="42.032295" lon="11.8419583"><ele>9.0</ele><time>2026-04-26T13:43:06.99Z</time></trkpt><trkpt lat="42.0323" lon="11.84183"><ele>9.0</ele><time>2026-04-26T13:43:07.992Z</time></trkpt><trkpt lat="42.0323067" lon="11.8417033"><ele>9.166666666666666</ele><time>2026-04-26T13:43:08.992Z</time></trkpt><trkpt lat="42.0323167" lon="11.8415817"><ele>9.333333333333334</ele><time>2026-04-26T13:43:09.993Z</time></trkpt><trkpt lat="42.03233" lon="11.84147"><ele>9.5</ele><time>2026-04-26T13:43:10.992Z</time></trkpt><trkpt lat="42.03235" lon="11.8413683"><ele>9.666666666666668</ele><time>2026-04-26T13:43:11.996Z</time></trkpt><trkpt lat="42.0323783" lon="11.8412283"><ele>9.833333333333334</ele><time>2026-04-26T13:43:14.001Z</time></trkpt><trkpt lat="42.0323133" lon="11.8412417"><ele>10.0</ele><time>2026-04-26T13:43:36.995Z</time></trkpt><trkpt lat="42.0323267" lon="11.84106"><ele>10.2</ele><time>2026-04-26T13:43:38.995Z</time></trkpt><trkpt lat="42.0323483" lon="11.84093"><ele>10.4</ele><time>2026-04-26T13:43:39.992Z</time></trkpt><trkpt lat="42.0323633" lon="11.8407967"><ele>10.600000000000001</ele><time>2026-04-26T13:43:40.996Z</time></trkpt><trkpt lat="42.032375" lon="11.8406733"><ele>10.8</ele><time>2026-04-26T13:43:41.995Z</time></trkpt><trkpt lat="42.0323983" lon="11.84052"><ele>11.0</ele><time>2026-04-26T13:43:42.992Z</time></trkpt><trkpt lat="42.0324333" lon="11.8403383"><ele>12.0</ele><time>2026-04-26T13:43:43.992Z</time></trkpt><trkpt lat="42.0324767" lon="11.8401583"><ele>13.0</ele><time>2026-04-26T13:43:44.994Z</time></trkpt><trkpt lat="42.0325067" lon="11.83999"><ele>14.0</ele><time>2026-04-26T13:43:45.995Z</time></trkpt><trkpt lat="42.03254" lon="11.8398117"><ele>15.0</ele><time>2026-04-26T13:43:46.994Z</time></trkpt><trkpt lat="42.032575" lon="11.839625"><ele>15.333333333333332</ele><time>2026-04-26T13:43:47.992Z</time></trkpt><trkpt lat="42.03261" lon="11.8394317"><ele>15.666666666666666</ele><time>2026-04-26T13:43:48.994Z</time></trkpt><trkpt lat="42.0326467" lon="11.8392317"><ele>16.0</ele><time>2026-04-26T13:43:50Z</time></trkpt><trkpt lat="42.03269" lon="11.8390267"><ele>16.666666666666664</ele><time>2026-04-26T13:43:50.997Z</time></trkpt><trkpt lat="42.0327383" lon="11.83882"><ele>17.333333333333332</ele><time>2026-04-26T13:43:51.992Z</time></trkpt><trkpt lat="42.0327867" lon="11.838615"><ele>18.0</ele><time>2026-04-26T13:43:52.992Z</time></trkpt><trkpt lat="42.0328383" lon="11.838415"><ele>18.0</ele><time>2026-04-26T13:43:53.99Z</time></trkpt><trkpt lat="42.0328933" lon="11.8382317"><ele>18.0</ele><time>2026-04-26T13:43:54.991Z</time></trkpt><trkpt lat="42.032945" lon="11.838065"><ele>18.0</ele><time>2026-04-26T13:43:55.994Z</time></trkpt><trkpt lat="42.0330033" lon="11.8378967"><ele>18.0</ele><time>2026-04-26T13:43:56.991Z</time></trkpt><trkpt lat="42.0330633" lon="11.8377217"><ele>17.75</ele><time>2026-04-26T13:43:57.991Z</time></trkpt><trkpt lat="42.0331317" lon="11.8375433"><ele>17.5</ele><time>2026-04-26T13:43:58.994Z</time></trkpt><trkpt lat="42.033205" lon="11.8373667"><ele>17.25</ele><time>2026-04-26T13:43:59.992Z</time></trkpt><trkpt lat="42.033275" lon="11.8371933"><ele>17.0</ele><time>2026-04-26T13:44:00.992Z</time></trkpt><trkpt lat="42.0333417" lon="11.8370233"><ele>17.0</ele><time>2026-04-26T13:44:01.999Z</time></trkpt><trkpt lat="42.0334067" lon="11.836855"><ele>17.0</ele><time>2026-04-26T13:44:02.997Z</time></trkpt><trkpt lat="42.033475" lon="11.8366917"><ele>17.0</ele><time>2026-04-26T13:44:03.993Z</time></trkpt><trkpt lat="42.0335483" lon="11.83652"><ele>17.0</ele><time>2026-04-26T13:44:04.995Z</time></trkpt><trkpt lat="42.0336367" lon="11.8363417"><ele>16.333333333333336</ele><time>2026-04-26T13:44:05.993Z</time></trkpt><trkpt lat="42.0337267" lon="11.83616"><ele>15.666666666666668</ele><time>2026-04-26T13:44:06.991Z</time></trkpt><trkpt lat="42.0338217" lon="11.8359833"><ele>15.0</ele><time>2026-04-26T13:44:07.993Z</time></trkpt><trkpt lat="42.0339117" lon="11.8358283"><ele>14.5</ele><time>2026-04-26T13:44:08.992Z</time></trkpt><trkpt lat="42.0339983" lon="11.83568"><ele>14.0</ele><time>2026-04-26T13:44:09.993Z</time></trkpt><trkpt lat="42.0340817" lon="11.8355267"><ele>13.5</ele><time>2026-04-26T13:44:10.991Z</time></trkpt><trkpt lat="42.0341683" lon="11.8353783"><ele>13.0</ele><time>2026-04-26T13:44:11.992Z</time></trkpt><trkpt lat="42.0342567" lon="11.8352267"><ele>12.25</ele><time>2026-04-26T13:44:12.991Z</time></trkpt><trkpt lat="42.0343467" lon="11.835075"><ele>11.5</ele><time>2026-04-26T13:44:13.994Z</time></trkpt><trkpt lat="42.0344383" lon="11.83493"><ele>10.75</ele><time>2026-04-26T13:44:14.991Z</time></trkpt><trkpt lat="42.0345267" lon="11.8347917"><ele>10.0</ele><time>2026-04-26T13:44:15.995Z</time></trkpt><trkpt lat="42.03461" lon="11.8346567"><ele>10.0</ele><time>2026-04-26T13:44:16.991Z</time></trkpt><trkpt lat="42.0346933" lon="11.834525"><ele>10.0</ele><time>2026-04-26T13:44:17.991Z</time></trkpt><trkpt lat="42.0347783" lon="11.8344033"><ele>10.0</ele><time>2026-04-26T13:44:18.99Z</time></trkpt><trkpt lat="42.03485" lon="11.8342833"><ele>10.0</ele><time>2026-04-26T13:44:19.994Z</time></trkpt><trkpt lat="42.03493" lon="11.834165"><ele>9.25</ele><time>2026-04-26T13:44:20.992Z</time></trkpt><trkpt lat="42.0350067" lon="11.8340467"><ele>8.5</ele><time>2026-04-26T13:44:21.992Z</time></trkpt><trkpt lat="42.03509" lon="11.8339383"><ele>7.75</ele><time>2026-04-26T13:44:22.994Z</time></trkpt><trkpt lat="42.03517" lon="11.8338333"><ele>7.0</ele><time>2026-04-26T13:44:23.995Z</time></trkpt><trkpt lat="42.0352567" lon="11.833725"><ele>7.0</ele><time>2026-04-26T13:44:24.994Z</time></trkpt><trkpt lat="42.0353517" lon="11.8336167"><ele>7.0</ele><time>2026-04-26T13:44:25.995Z</time></trkpt><trkpt lat="42.0354583" lon="11.8335133"><ele>7.0</ele><time>2026-04-26T13:44:26.991Z</time></trkpt><trkpt lat="42.0355667" lon="11.8334233"><ele>7.0</ele><time>2026-04-26T13:44:27.988Z</time></trkpt><trkpt lat="42.0356767" lon="11.8333483"><ele>6.25</ele><time>2026-04-26T13:44:28.998Z</time></trkpt><trkpt lat="42.0357867" lon="11.83329"><ele>5.5</ele><time>2026-04-26T13:44:29.994Z</time></trkpt><trkpt lat="42.0359067" lon="11.8332417"><ele>4.75</ele><time>2026-04-26T13:44:30.994Z</time></trkpt><trkpt lat="42.0360317" lon="11.8331933"><ele>4.0</ele><time>2026-04-26T13:44:31.993Z</time></trkpt><trkpt lat="42.0361617" lon="11.8331517"><ele>4.0</ele><time>2026-04-26T13:44:32.994Z</time></trkpt><trkpt lat="42.0362983" lon="11.8331217"><ele>4.0</ele><time>2026-04-26T13:44:33.995Z</time></trkpt><trkpt lat="42.0364283" lon="11.8330933"><ele>4.0</ele><time>2026-04-26T13:44:34.994Z</time></trkpt><trkpt lat="42.0365617" lon="11.833055"><ele>4.0</ele><time>2026-04-26T13:44:35.996Z</time></trkpt><trkpt lat="42.036705" lon="11.8330083"><ele>4.333333333333333</ele><time>2026-04-26T13:44:37.002Z</time></trkpt><trkpt lat="42.0368667" lon="11.8329633"><ele>4.666666666666667</ele><time>2026-04-26T13:44:37.993Z</time></trkpt><trkpt lat="42.037035" lon="11.83292"><ele>5.0</ele><time>2026-04-26T13:44:38.994Z</time></trkpt><trkpt lat="42.0372017" lon="11.8328767"><ele>5.0</ele><time>2026-04-26T13:44:39.992Z</time></trkpt><trkpt lat="42.0373633" lon="11.832815"><ele>5.0</ele><time>2026-04-26T13:44:40.992Z</time></trkpt><trkpt lat="42.0375283" lon="11.832725"><ele>5.0</ele><time>2026-04-26T13:44:41.996Z</time></trkpt><trkpt lat="42.037695" lon="11.8326117"><ele>3.666666666666667</ele><time>2026-04-26T13:44:42.994Z</time></trkpt><trkpt lat="42.0378633" lon="11.832485"><ele>2.3333333333333335</ele><time>2026-04-26T13:44:43.995Z</time></trkpt><trkpt lat="42.0380217" lon="11.8323433"><ele>1.0</ele><time>2026-04-26T13:44:44.999Z</time></trkpt><trkpt lat="42.0381717" lon="11.8321867"><ele>1.3333333333333333</ele><time>2026-04-26T13:44:45.993Z</time></trkpt><trkpt lat="42.0383167" lon="11.8320233"><ele>1.6666666666666665</ele><time>2026-04-26T13:44:46.989Z</time></trkpt><trkpt lat="42.0384567" lon="11.831845"><ele>2.0</ele><time>2026-04-26T13:44:47.993Z</time></trkpt><trkpt lat="42.0385883" lon="11.8316583"><ele>2.0</ele><time>2026-04-26T13:44:48.989Z</time></trkpt><trkpt lat="42.038715" lon="11.8314683"><ele>2.0</ele><time>2026-04-26T13:44:49.992Z</time></trkpt><trkpt lat="42.03883" lon="11.831285"><ele>2.0</ele><time>2026-04-26T13:44:50.993Z</time></trkpt><trkpt lat="42.0389333" lon="11.8311067"><ele>2.0</ele><time>2026-04-26T13:44:51.993Z</time></trkpt><trkpt lat="42.03903" lon="11.8309217"><ele>2.0</ele><time>2026-04-26T13:44:52.992Z</time></trkpt><trkpt lat="42.0391217" lon="11.8307317"><ele>2.0</ele><time>2026-04-26T13:44:53.992Z</time></trkpt><trkpt lat="42.039215" lon="11.8305417"><ele>2.0</ele><time>2026-04-26T13:44:54.993Z</time></trkpt><trkpt lat="42.0393167" lon="11.8303483"><ele>2.0</ele><time>2026-04-26T13:44:55.991Z</time></trkpt><trkpt lat="42.03942" lon="11.8301617"><ele>2.0</ele><time>2026-04-26T13:44:56.995Z</time></trkpt><trkpt lat="42.0395267" lon="11.8299733"><ele>1.3333333333333333</ele><time>2026-04-26T13:44:57.988Z</time></trkpt><trkpt lat="42.03964" lon="11.8297883"><ele>0.6666666666666666</ele><time>2026-04-26T13:44:58.993Z</time></trkpt><trkpt lat="42.03976" lon="11.8296067"><ele>0.0</ele><time>2026-04-26T13:44:59.992Z</time></trkpt><trkpt lat="42.0398883" lon="11.8294333"><ele>0.3333333333333333</ele><time>2026-04-26T13:45:00.99Z</time></trkpt><trkpt lat="42.0400283" lon="11.8292767"><ele>0.6666666666666666</ele><time>2026-04-26T13:45:01.994Z</time></trkpt><trkpt lat="42.0401733" lon="11.82914"><ele>1.0</ele><time>2026-04-26T13:45:02.988Z</time></trkpt><trkpt lat="42.0403283" lon="11.8290167"><ele>1.0</ele><time>2026-04-26T13:45:03.992Z</time></trkpt><trkpt lat="42.0404883" lon="11.828895"><ele>1.0</ele><time>2026-04-26T13:45:04.991Z</time></trkpt><trkpt lat="42.0406517" lon="11.8287717"><ele>1.0</ele><time>2026-04-26T13:45:05.995Z</time></trkpt><trkpt lat="42.0408183" lon="11.8286367"><ele>1.0</ele><time>2026-04-26T13:45:06.992Z</time></trkpt><trkpt lat="42.0409933" lon="11.82849"><ele>1.0</ele><time>2026-04-26T13:45:07.994Z</time></trkpt><trkpt lat="42.0411783" lon="11.8283483"><ele>1.0</ele><time>2026-04-26T13:45:08.992Z</time></trkpt><trkpt lat="42.0413583" lon="11.8282217"><ele>1.0</ele><time>2026-04-26T13:45:09.99Z</time></trkpt><trkpt lat="42.04153" lon="11.8281033"><ele>1.0</ele><time>2026-04-26T13:45:10.991Z</time></trkpt><trkpt lat="42.0416967" lon="11.8279967"><ele>1.0</ele><time>2026-04-26T13:45:11.993Z</time></trkpt><trkpt lat="42.04186" lon="11.8278967"><ele>1.6666666666666665</ele><time>2026-04-26T13:45:12.988Z</time></trkpt><trkpt lat="42.0420267" lon="11.8278017"><ele>2.3333333333333335</ele><time>2026-04-26T13:45:13.994Z</time></trkpt><trkpt lat="42.042195" lon="11.8277167"><ele>3.0</ele><time>2026-04-26T13:45:14.993Z</time></trkpt><trkpt lat="42.0423667" lon="11.827645"><ele>3.333333333333333</ele><time>2026-04-26T13:45:15.99Z</time></trkpt><trkpt lat="42.0425333" lon="11.8275783"><ele>3.6666666666666665</ele><time>2026-04-26T13:45:16.992Z</time></trkpt><trkpt lat="42.042705" lon="11.8275167"><ele>4.0</ele><time>2026-04-26T13:45:17.989Z</time></trkpt><trkpt lat="42.0428817" lon="11.8274583"><ele>4.0</ele><time>2026-04-26T13:45:18.989Z</time></trkpt><trkpt lat="42.0430633" lon="11.8274067"><ele>4.0</ele><time>2026-04-26T13:45:19.995Z</time></trkpt><trkpt lat="42.043245" lon="11.8273583"><ele>4.0</ele><time>2026-04-26T13:45:20.994Z</time></trkpt><trkpt lat="42.043425" lon="11.8273083"><ele>4.666666666666666</ele><time>2026-04-26T13:45:21.992Z</time></trkpt><trkpt lat="42.0435933" lon="11.8272683"><ele>5.333333333333333</ele><time>2026-04-26T13:45:22.988Z</time></trkpt><trkpt lat="42.0437517" lon="11.82722"><ele>6.0</ele><time>2026-04-26T13:45:23.989Z</time></trkpt><trkpt lat="42.0439" lon="11.82717"><ele>6.0</ele><time>2026-04-26T13:45:24.992Z</time></trkpt><trkpt lat="42.0440367" lon="11.8271317"><ele>6.0</ele><time>2026-04-26T13:45:25.993Z</time></trkpt><trkpt lat="42.0441583" lon="11.8270967"><ele>6.0</ele><time>2026-04-26T13:45:26.989Z</time></trkpt><trkpt lat="42.04426" lon="11.8270617"><ele>6.0</ele><time>2026-04-26T13:45:27.996Z</time></trkpt><trkpt lat="42.04435" lon="11.827035"><ele>6.333333333333333</ele><time>2026-04-26T13:45:28.989Z</time></trkpt><trkpt lat="42.0444283" lon="11.82702"><ele>6.666666666666666</ele><time>2026-04-26T13:45:29.991Z</time></trkpt><trkpt lat="42.0444933" lon="11.8270217"><ele>7.0</ele><time>2026-04-26T13:45:30.99Z</time></trkpt><trkpt lat="42.0445867" lon="11.8270417"><ele>7.333333333333333</ele><time>2026-04-26T13:45:32.995Z</time></trkpt><trkpt lat="42.04464" lon="11.8269633"><ele>7.666666666666666</ele><time>2026-04-26T13:45:34.993Z</time></trkpt><trkpt lat="42.04465" lon="11.8268583"><ele>8.0</ele><time>2026-04-26T13:45:35.99Z</time></trkpt><trkpt lat="42.04466" lon="11.826725"><ele>6.800000000000001</ele><time>2026-04-26T13:45:36.986Z</time></trkpt><trkpt lat="42.04468" lon="11.8266083"><ele>5.6000000000000005</ele><time>2026-04-26T13:45:37.994Z</time></trkpt><trkpt lat="42.044705" lon="11.8264917"><ele>4.4</ele><time>2026-04-26T13:45:38.992Z</time></trkpt><trkpt lat="42.0447517" lon="11.826375"><ele>3.2</ele><time>2026-04-26T13:45:39.993Z</time></trkpt><trkpt lat="42.0448267" lon="11.8262567"><ele>2.0</ele><time>2026-04-26T13:45:40.991Z</time></trkpt><trkpt lat="42.0449333" lon="11.8260983"><ele>1.6666666666666665</ele><time>2026-04-26T13:45:41.996Z</time></trkpt><trkpt lat="42.0450333" lon="11.8259367"><ele>1.3333333333333333</ele><time>2026-04-26T13:45:42.989Z</time></trkpt><trkpt lat="42.0451267" lon="11.82577"><ele>1.0</ele><time>2026-04-26T13:45:43.992Z</time></trkpt><trkpt lat="42.0452233" lon="11.8255883"><ele>1.0</ele><time>2026-04-26T13:45:44.992Z</time></trkpt><trkpt lat="42.04532" lon="11.8254133"><ele>1.0</ele><time>2026-04-26T13:45:45.992Z</time></trkpt><trkpt lat="42.04542" lon="11.8252333"><ele>1.0</ele><time>2026-04-26T13:45:46.993Z</time></trkpt><trkpt lat="42.0455267" lon="11.8250567"><ele>1.0</ele><time>2026-04-26T13:45:47.996Z</time></trkpt><trkpt lat="42.04564" lon="11.8248833"><ele>1.0</ele><time>2026-04-26T13:45:48.99Z</time></trkpt><trkpt lat="42.0457583" lon="11.8247083"><ele>1.0</ele><time>2026-04-26T13:45:49.999Z</time></trkpt><trkpt lat="42.0458817" lon="11.8245233"><ele>2.0</ele><time>2026-04-26T13:45:50.992Z</time></trkpt><trkpt lat="42.0460167" lon="11.8243283"><ele>3.0</ele><time>2026-04-26T13:45:51.994Z</time></trkpt><trkpt lat="42.0461617" lon="11.8241333"><ele>4.0</ele><time>2026-04-26T13:45:52.994Z</time></trkpt><trkpt lat="42.04631" lon="11.8239383"><ele>4.0</ele><time>2026-04-26T13:45:53.993Z</time></trkpt><trkpt lat="42.04645" lon="11.823735"><ele>4.0</ele><time>2026-04-26T13:45:54.992Z</time></trkpt><trkpt lat="42.0465967" lon="11.8235317"><ele>4.0</ele><time>2026-04-26T13:45:55.994Z</time></trkpt><trkpt lat="42.04675" lon="11.8233233"><ele>4.333333333333333</ele><time>2026-04-26T13:45:56.988Z</time></trkpt><trkpt lat="42.0469033" lon="11.823115"><ele>4.666666666666667</ele><time>2026-04-26T13:45:57.993Z</time></trkpt><trkpt lat="42.0470533" lon="11.8229083"><ele>5.0</ele><time>2026-04-26T13:45:58.994Z</time></trkpt><trkpt lat="42.0472" lon="11.822705"><ele>5.0</ele><time>2026-04-26T13:45:59.991Z</time></trkpt><trkpt lat="42.0473483" lon="11.8225017"><ele>5.0</ele><time>2026-04-26T13:46:00.994Z</time></trkpt><trkpt lat="42.047495" lon="11.8223017"><ele>5.0</ele><time>2026-04-26T13:46:01.992Z</time></trkpt><trkpt lat="42.0476417" lon="11.8221033"><ele>5.0</ele><time>2026-04-26T13:46:02.989Z</time></trkpt><trkpt lat="42.0477867" lon="11.8219067"><ele>5.0</ele><time>2026-04-26T13:46:03.989Z</time></trkpt><trkpt lat="42.047935" lon="11.8217133"><ele>5.0</ele><time>2026-04-26T13:46:04.994Z</time></trkpt><trkpt lat="42.0480883" lon="11.82153"><ele>4.666666666666667</ele><time>2026-04-26T13:46:05.995Z</time></trkpt><trkpt lat="42.0482417" lon="11.8213633"><ele>4.333333333333333</ele><time>2026-04-26T13:46:06.992Z</time></trkpt><trkpt lat="42.048405" lon="11.8212117"><ele>4.0</ele><time>2026-04-26T13:46:07.992Z</time></trkpt><trkpt lat="42.0485783" lon="11.8210883"><ele>4.666666666666666</ele><time>2026-04-26T13:46:08.991Z</time></trkpt><trkpt lat="42.0487483" lon="11.820985"><ele>5.333333333333333</ele><time>2026-04-26T13:46:09.99Z</time></trkpt><trkpt lat="42.0489267" lon="11.8209033"><ele>6.0</ele><time>2026-04-26T13:46:10.988Z</time></trkpt><trkpt lat="42.0491083" lon="11.8208433"><ele>5.666666666666667</ele><time>2026-04-26T13:46:11.99Z</time></trkpt><trkpt lat="42.049295" lon="11.8208017"><ele>5.333333333333334</ele><time>2026-04-26T13:46:12.992Z</time></trkpt><trkpt lat="42.0494867" lon="11.8207633"><ele>5.0</ele><time>2026-04-26T13:46:13.995Z</time></trkpt><trkpt lat="42.0496833" lon="11.82072"><ele>5.0</ele><time>2026-04-26T13:46:14.99Z</time></trkpt><trkpt lat="42.04988" lon="11.8206733"><ele>5.0</ele><time>2026-04-26T13:46:15.989Z</time></trkpt><trkpt lat="42.0500783" lon="11.8206217"><ele>5.0</ele><time>2026-04-26T13:46:16.996Z</time></trkpt><trkpt lat="42.0502767" lon="11.8205683"><ele>4.666666666666667</ele><time>2026-04-26T13:46:17.993Z</time></trkpt><trkpt lat="42.0504767" lon="11.8205183"><ele>4.333333333333333</ele><time>2026-04-26T13:46:18.996Z</time></trkpt><trkpt lat="42.0506733" lon="11.8204833"><ele>4.0</ele><time>2026-04-26T13:46:19.988Z</time></trkpt><trkpt lat="42.05086" lon="11.8204617"><ele>4.0</ele><time>2026-04-26T13:46:20.998Z</time></trkpt><trkpt lat="42.0510383" lon="11.8204417"><ele>4.0</ele><time>2026-04-26T13:46:21.993Z</time></trkpt><trkpt lat="42.0512083" lon="11.82043"><ele>4.0</ele><time>2026-04-26T13:46:22.989Z</time></trkpt><trkpt lat="42.05137" lon="11.820425"><ele>4.0</ele><time>2026-04-26T13:46:23.996Z</time></trkpt><trkpt lat="42.0515167" lon="11.8204183"><ele>4.0</ele><time>2026-04-26T13:46:25.024Z</time></trkpt><trkpt lat="42.0516583" lon="11.8204067"><ele>4.0</ele><time>2026-04-26T13:46:25.993Z</time></trkpt><trkpt lat="42.0518017" lon="11.8203933"><ele>4.0</ele><time>2026-04-26T13:46:26.992Z</time></trkpt><trkpt lat="42.05195" lon="11.8203817"><ele>4.0</ele><time>2026-04-26T13:46:27.992Z</time></trkpt><trkpt lat="42.052095" lon="11.8203733"><ele>4.0</ele><time>2026-04-26T13:46:28.997Z</time></trkpt><trkpt lat="42.0522267" lon="11.8203617"><ele>4.0</ele><time>2026-04-26T13:46:29.992Z</time></trkpt><trkpt lat="42.05236" lon="11.8203617"><ele>4.0</ele><time>2026-04-26T13:46:30.993Z</time></trkpt><trkpt lat="42.0524867" lon="11.8203517"><ele>4.333333333333333</ele><time>2026-04-26T13:46:31.999Z</time></trkpt><trkpt lat="42.0526233" lon="11.8203367"><ele>4.666666666666667</ele><time>2026-04-26T13:46:32.993Z</time></trkpt><trkpt lat="42.0527817" lon="11.8203317"><ele>5.0</ele><time>2026-04-26T13:46:33.991Z</time></trkpt><trkpt lat="42.0529533" lon="11.82033"><ele>5.0</ele><time>2026-04-26T13:46:34.99Z</time></trkpt><trkpt lat="42.0531333" lon="11.8203217"><ele>5.0</ele><time>2026-04-26T13:46:35.997Z</time></trkpt><trkpt lat="42.0533267" lon="11.8202917"><ele>5.0</ele><time>2026-04-26T13:46:36.991Z</time></trkpt><trkpt lat="42.05354" lon="11.8202517"><ele>5.0</ele><time>2026-04-26T13:46:37.99Z</time></trkpt><trkpt lat="42.0537617" lon="11.8202017"><ele>5.0</ele><time>2026-04-26T13:46:38.989Z</time></trkpt><trkpt lat="42.0539833" lon="11.82016"><ele>5.0</ele><time>2026-04-26T13:46:39.994Z</time></trkpt><trkpt lat="42.0541933" lon="11.8201317"><ele>5.0</ele><time>2026-04-26T13:46:40.989Z</time></trkpt><trkpt lat="42.0543883" lon="11.8201083"><ele>5.0</ele><time>2026-04-26T13:46:41.996Z</time></trkpt><trkpt lat="42.0545717" lon="11.8200883"><ele>5.0</ele><time>2026-04-26T13:46:42.994Z</time></trkpt><trkpt lat="42.05474" lon="11.820075"><ele>5.0</ele><time>2026-04-26T13:46:43.995Z</time></trkpt><trkpt lat="42.05489" lon="11.82006"><ele>5.0</ele><time>2026-04-26T13:46:44.997Z</time></trkpt><trkpt lat="42.0550267" lon="11.8200383"><ele>5.0</ele><time>2026-04-26T13:46:45.991Z</time></trkpt><trkpt lat="42.05516" lon="11.8200067"><ele>5.0</ele><time>2026-04-26T13:46:46.994Z</time></trkpt><trkpt lat="42.0553067" lon="11.819975"><ele>5.0</ele><time>2026-04-26T13:46:48Z</time></trkpt><trkpt lat="42.05546" lon="11.8199433"><ele>5.0</ele><time>2026-04-26T13:46:48.995Z</time></trkpt><trkpt lat="42.055615" lon="11.81991"><ele>5.0</ele><time>2026-04-26T13:46:49.997Z</time></trkpt><trkpt lat="42.0557683" lon="11.8198683"><ele>4.333333333333334</ele><time>2026-04-26T13:46:50.995Z</time></trkpt><trkpt lat="42.0559283" lon="11.8198267"><ele>3.666666666666667</ele><time>2026-04-26T13:46:51.997Z</time></trkpt><trkpt lat="42.0561017" lon="11.81979"><ele>3.0</ele><time>2026-04-26T13:46:52.996Z</time></trkpt><trkpt lat="42.056285" lon="11.8197617"><ele>3.0</ele><time>2026-04-26T13:46:53.996Z</time></trkpt><trkpt lat="42.0564667" lon="11.8197367"><ele>3.0</ele><time>2026-04-26T13:46:54.99Z</time></trkpt><trkpt lat="42.0566317" lon="11.8197117"><ele>3.0</ele><time>2026-04-26T13:46:55.995Z</time></trkpt><trkpt lat="42.0567817" lon="11.8196817"><ele>4.0</ele><time>2026-04-26T13:46:56.993Z</time></trkpt><trkpt lat="42.0569167" lon="11.81964"><ele>5.0</ele><time>2026-04-26T13:46:57.998Z</time></trkpt><trkpt lat="42.0570417" lon="11.8195667"><ele>6.0</ele><time>2026-04-26T13:46:58.993Z</time></trkpt><trkpt lat="42.0571717" lon="11.819455"><ele>7.0</ele><time>2026-04-26T13:46:59.993Z</time></trkpt><trkpt lat="42.05731" lon="11.8193217"><ele>5.0</ele><time>2026-04-26T13:47:00.994Z</time></trkpt><trkpt lat="42.0574433" lon="11.8191767"><ele>3.0</ele><time>2026-04-26T13:47:01.996Z</time></trkpt><trkpt lat="42.057565" lon="11.8190333"><ele>1.0</ele><time>2026-04-26T13:47:02.99Z</time></trkpt><trkpt lat="42.0576817" lon="11.8188917"><ele>1.0</ele><time>2026-04-26T13:47:03.998Z</time></trkpt><trkpt lat="42.0578017" lon="11.8187517"><ele>1.0</ele><time>2026-04-26T13:47:04.993Z</time></trkpt><trkpt lat="42.0579283" lon="11.8186133"><ele>1.0</ele><time>2026-04-26T13:47:05.988Z</time></trkpt><trkpt lat="42.0580533" lon="11.81848"><ele>1.0</ele><time>2026-04-26T13:47:06.995Z</time></trkpt><trkpt lat="42.058175" lon="11.8183483"><ele>1.0</ele><time>2026-04-26T13:47:07.99Z</time></trkpt><trkpt lat="42.0582967" lon="11.8182133"><ele>1.0</ele><time>2026-04-26T13:47:08.997Z</time></trkpt><trkpt lat="42.0584183" lon="11.8180717"><ele>2.0</ele><time>2026-04-26T13:47:09.995Z</time></trkpt><trkpt lat="42.0585433" lon="11.81793"><ele>3.0</ele><time>2026-04-26T13:47:10.992Z</time></trkpt><trkpt lat="42.05867" lon="11.817785"><ele>4.0</ele><time>2026-04-26T13:47:11.996Z</time></trkpt><trkpt lat="42.058805" lon="11.8176433"><ele>4.333333333333333</ele><time>2026-04-26T13:47:12.996Z</time></trkpt><trkpt lat="42.0589417" lon="11.8175033"><ele>4.666666666666667</ele><time>2026-04-26T13:47:13.992Z</time></trkpt><trkpt lat="42.0590817" lon="11.8173767"><ele>5.0</ele><time>2026-04-26T13:47:14.997Z</time></trkpt><trkpt lat="42.05923" lon="11.8172683"><ele>6.333333333333334</ele><time>2026-04-26T13:47:15.996Z</time></trkpt><trkpt lat="42.0593817" lon="11.817185"><ele>7.666666666666667</ele><time>2026-04-26T13:47:16.998Z</time></trkpt><trkpt lat="42.0595417" lon="11.817125"><ele>9.0</ele><time>2026-04-26T13:47:17.995Z</time></trkpt><trkpt lat="42.059705" lon="11.81708"><ele>9.0</ele><time>2026-04-26T13:47:18.994Z</time></trkpt><trkpt lat="42.0598583" lon="11.817035"><ele>9.0</ele><time>2026-04-26T13:47:19.994Z</time></trkpt><trkpt lat="42.060005" lon="11.81699"><ele>9.0</ele><time>2026-04-26T13:47:20.996Z</time></trkpt><trkpt lat="42.0601533" lon="11.8169433"><ele>10.0</ele><time>2026-04-26T13:47:21.996Z</time></trkpt><trkpt lat="42.0603" lon="11.8168917"><ele>11.0</ele><time>2026-04-26T13:47:22.997Z</time></trkpt><trkpt lat="42.0604483" lon="11.81684"><ele>12.0</ele><time>2026-04-26T13:47:23.991Z</time></trkpt><trkpt lat="42.0605933" lon="11.8167733"><ele>10.666666666666666</ele><time>2026-04-26T13:47:24.995Z</time></trkpt><trkpt lat="42.06074" lon="11.816695"><ele>9.333333333333332</ele><time>2026-04-26T13:47:25.992Z</time></trkpt><trkpt lat="42.0608817" lon="11.8166017"><ele>8.0</ele><time>2026-04-26T13:47:26.988Z</time></trkpt><trkpt lat="42.0610183" lon="11.8165083"><ele>8.0</ele><time>2026-04-26T13:47:27.986Z</time></trkpt><trkpt lat="42.061145" lon="11.8164083"><ele>8.0</ele><time>2026-04-26T13:47:28.992Z</time></trkpt><trkpt lat="42.061275" lon="11.8163067"><ele>8.0</ele><time>2026-04-26T13:47:29.989Z</time></trkpt><trkpt lat="42.0614083" lon="11.816205"><ele>8.0</ele><time>2026-04-26T13:47:31Z</time></trkpt><trkpt lat="42.06154" lon="11.8161067"><ele>8.0</ele><time>2026-04-26T13:47:31.997Z</time></trkpt><trkpt lat="42.06167" lon="11.8160083"><ele>8.0</ele><time>2026-04-26T13:47:32.992Z</time></trkpt><trkpt lat="42.0618033" lon="11.81591"><ele>7.333333333333333</ele><time>2026-04-26T13:47:33.992Z</time></trkpt><trkpt lat="42.0619367" lon="11.81581"><ele>6.666666666666666</ele><time>2026-04-26T13:47:34.992Z</time></trkpt><trkpt lat="42.0620717" lon="11.8157033"><ele>6.0</ele><time>2026-04-26T13:47:35.994Z</time></trkpt><trkpt lat="42.0622083" lon="11.8155967"><ele>6.0</ele><time>2026-04-26T13:47:36.993Z</time></trkpt><trkpt lat="42.062345" lon="11.815485"><ele>6.0</ele><time>2026-04-26T13:47:37.995Z</time></trkpt><trkpt lat="42.0624833" lon="11.8153717"><ele>6.0</ele><time>2026-04-26T13:47:38.993Z</time></trkpt><trkpt lat="42.0626233" lon="11.8152633"><ele>6.333333333333334</ele><time>2026-04-26T13:47:39.997Z</time></trkpt><trkpt lat="42.06276" lon="11.81516"><ele>6.666666666666667</ele><time>2026-04-26T13:47:40.993Z</time></trkpt><trkpt lat="42.0628933" lon="11.8150617"><ele>7.0</ele><time>2026-04-26T13:47:41.996Z</time></trkpt><trkpt lat="42.0630233" lon="11.81496"><ele>6.0</ele><time>2026-04-26T13:47:42.996Z</time></trkpt><trkpt lat="42.0631517" lon="11.81486"><ele>5.0</ele><time>2026-04-26T13:47:43.997Z</time></trkpt><trkpt lat="42.063285" lon="11.8147583"><ele>4.0</ele><time>2026-04-26T13:47:44.996Z</time></trkpt><trkpt lat="42.0634167" lon="11.814655"><ele>4.0</ele><time>2026-04-26T13:47:45.993Z</time></trkpt><trkpt lat="42.0635517" lon="11.8145517"><ele>4.0</ele><time>2026-04-26T13:47:46.993Z</time></trkpt><trkpt lat="42.0636883" lon="11.81445"><ele>4.0</ele><time>2026-04-26T13:47:47.994Z</time></trkpt><trkpt lat="42.0638317" lon="11.8143517"><ele>4.0</ele><time>2026-04-26T13:47:48.996Z</time></trkpt><trkpt lat="42.0639767" lon="11.81426"><ele>4.0</ele><time>2026-04-26T13:47:49.995Z</time></trkpt><trkpt lat="42.064125" lon="11.8141833"><ele>4.0</ele><time>2026-04-26T13:47:50.995Z</time></trkpt><trkpt lat="42.0642683" lon="11.81412"><ele>4.0</ele><time>2026-04-26T13:47:51.997Z</time></trkpt><trkpt lat="42.06441" lon="11.814065"><ele>4.0</ele><time>2026-04-26T13:47:52.994Z</time></trkpt><trkpt lat="42.0645533" lon="11.8140233"><ele>4.0</ele><time>2026-04-26T13:47:53.992Z</time></trkpt><trkpt lat="42.0646967" lon="11.8139867"><ele>4.0</ele><time>2026-04-26T13:47:54.996Z</time></trkpt><trkpt lat="42.0648367" lon="11.8139567"><ele>4.25</ele><time>2026-04-26T13:47:55.994Z</time></trkpt><trkpt lat="42.06497" lon="11.813935"><ele>4.5</ele><time>2026-04-26T13:47:56.994Z</time></trkpt><trkpt lat="42.0650967" lon="11.8139167"><ele>4.75</ele><time>2026-04-26T13:47:57.993Z</time></trkpt><trkpt lat="42.0652133" lon="11.8139033"><ele>5.0</ele><time>2026-04-26T13:47:58.991Z</time></trkpt><trkpt lat="42.0653233" lon="11.8139017"><ele>5.0</ele><time>2026-04-26T13:47:59.994Z</time></trkpt><trkpt lat="42.065425" lon="11.813905"><ele>5.0</ele><time>2026-04-26T13:48:00.992Z</time></trkpt><trkpt lat="42.0655217" lon="11.8139183"><ele>5.0</ele><time>2026-04-26T13:48:01.996Z</time></trkpt><trkpt lat="42.0656083" lon="11.8139467"><ele>5.0</ele><time>2026-04-26T13:48:02.993Z</time></trkpt><trkpt lat="42.06569" lon="11.8139817"><ele>5.0</ele><time>2026-04-26T13:48:03.99Z</time></trkpt><trkpt lat="42.0657733" lon="11.8140217"><ele>5.0</ele><time>2026-04-26T13:48:04.994Z</time></trkpt><trkpt lat="42.0658567" lon="11.8140683"><ele>5.0</ele><time>2026-04-26T13:48:05.991Z</time></trkpt><trkpt lat="42.065945" lon="11.8141183"><ele>5.0</ele><time>2026-04-26T13:48:06.991Z</time></trkpt><trkpt lat="42.06603" lon="11.8141717"><ele>5.0</ele><time>2026-04-26T13:48:07.991Z</time></trkpt><trkpt lat="42.06611" lon="11.8142183"><ele>5.0</ele><time>2026-04-26T13:48:08.995Z</time></trkpt><trkpt lat="42.0661833" lon="11.8142567"><ele>5.0</ele><time>2026-04-26T13:48:09.992Z</time></trkpt><trkpt lat="42.0662533" lon="11.81429"><ele>5.0</ele><time>2026-04-26T13:48:10.993Z</time></trkpt><trkpt lat="42.0663183" lon="11.8143217"><ele>5.0</ele><time>2026-04-26T13:48:11.992Z</time></trkpt><trkpt lat="42.066435" lon="11.8143467"><ele>5.0</ele><time>2026-04-26T13:48:13.996Z</time></trkpt><trkpt lat="42.0665117" lon="11.8143283"><ele>5.0</ele><time>2026-04-26T13:48:15.998Z</time></trkpt><trkpt lat="42.06658" lon="11.81425"><ele>5.0</ele><time>2026-04-26T13:48:16.996Z</time></trkpt><trkpt lat="42.066655" lon="11.8141467"><ele>5.0</ele><time>2026-04-26T13:48:17.992Z</time></trkpt><trkpt lat="42.0667417" lon="11.8140217"><ele>5.0</ele><time>2026-04-26T13:48:18.994Z</time></trkpt><trkpt lat="42.0668433" lon="11.8139017"><ele>5.0</ele><time>2026-04-26T13:48:20.002Z</time></trkpt><trkpt lat="42.0669333" lon="11.8137883"><ele>5.0</ele><time>2026-04-26T13:48:20.997Z</time></trkpt><trkpt lat="42.0670217" lon="11.8136867"><ele>5.0</ele><time>2026-04-26T13:48:21.992Z</time></trkpt><trkpt lat="42.06712" lon="11.8135883"><ele>5.0</ele><time>2026-04-26T13:48:22.991Z</time></trkpt><trkpt lat="42.0672217" lon="11.813495"><ele>5.0</ele><time>2026-04-26T13:48:23.992Z</time></trkpt><trkpt lat="42.067335" lon="11.813405"><ele>5.0</ele><time>2026-04-26T13:48:24.992Z</time></trkpt><trkpt lat="42.06745" lon="11.813305"><ele>5.0</ele><time>2026-04-26T13:48:25.996Z</time></trkpt><trkpt lat="42.0675683" lon="11.8132067"><ele>5.0</ele><time>2026-04-26T13:48:26.997Z</time></trkpt><trkpt lat="42.0676933" lon="11.8131033"><ele>5.0</ele><time>2026-04-26T13:48:27.997Z</time></trkpt><trkpt lat="42.0678217" lon="11.813"><ele>5.0</ele><time>2026-04-26T13:48:28.989Z</time></trkpt><trkpt lat="42.0679583" lon="11.812895"><ele>5.0</ele><time>2026-04-26T13:48:29.994Z</time></trkpt><trkpt lat="42.068095" lon="11.8127917"><ele>5.0</ele><time>2026-04-26T13:48:30.991Z</time></trkpt><trkpt lat="42.068235" lon="11.81269"><ele>5.0</ele><time>2026-04-26T13:48:31.994Z</time></trkpt><trkpt lat="42.0683767" lon="11.8125883"><ele>5.666666666666667</ele><time>2026-04-26T13:48:32.992Z</time></trkpt><trkpt lat="42.0685133" lon="11.8124883"><ele>6.333333333333334</ele><time>2026-04-26T13:48:33.992Z</time></trkpt><trkpt lat="42.068645" lon="11.8123917"><ele>7.0</ele><time>2026-04-26T13:48:34.99Z</time></trkpt><trkpt lat="42.06877" lon="11.8122917"><ele>7.0</ele><time>2026-04-26T13:48:35.993Z</time></trkpt><trkpt lat="42.0688983" lon="11.812185"><ele>7.0</ele><time>2026-04-26T13:48:36.995Z</time></trkpt><trkpt lat="42.06903" lon="11.8120733"><ele>7.0</ele><time>2026-04-26T13:48:37.996Z</time></trkpt><trkpt lat="42.0691667" lon="11.8119467"><ele>7.666666666666667</ele><time>2026-04-26T13:48:38.993Z</time></trkpt><trkpt lat="42.0693267" lon="11.8118167"><ele>8.333333333333334</ele><time>2026-04-26T13:48:39.996Z</time></trkpt><trkpt lat="42.0694917" lon="11.8117033"><ele>9.0</ele><time>2026-04-26T13:48:40.994Z</time></trkpt><trkpt lat="42.0696433" lon="11.811605"><ele>9.0</ele><time>2026-04-26T13:48:41.99Z</time></trkpt><trkpt lat="42.0697783" lon="11.8115083"><ele>9.0</ele><time>2026-04-26T13:48:42.997Z</time></trkpt><trkpt lat="42.069905" lon="11.81141"><ele>9.0</ele><time>2026-04-26T13:48:43.998Z</time></trkpt><trkpt lat="42.0700317" lon="11.811315"><ele>9.0</ele><time>2026-04-26T13:48:44.994Z</time></trkpt><trkpt lat="42.070165" lon="11.811225"><ele>9.25</ele><time>2026-04-26T13:48:45.991Z</time></trkpt><trkpt lat="42.0703017" lon="11.81114"><ele>9.5</ele><time>2026-04-26T13:48:46.994Z</time></trkpt><trkpt lat="42.0704367" lon="11.8110667"><ele>9.75</ele><time>2026-04-26T13:48:47.999Z</time></trkpt><trkpt lat="42.0705667" lon="11.811"><ele>10.0</ele><time>2026-04-26T13:48:48.995Z</time></trkpt><trkpt lat="42.070695" lon="11.810935"><ele>10.25</ele><time>2026-04-26T13:48:50Z</time></trkpt><trkpt lat="42.0708217" lon="11.8108767"><ele>10.5</ele><time>2026-04-26T13:48:50.997Z</time></trkpt><trkpt lat="42.07094" lon="11.8108233"><ele>10.75</ele><time>2026-04-26T13:48:51.992Z</time></trkpt><trkpt lat="42.071055" lon="11.81077"><ele>11.0</ele><time>2026-04-26T13:48:52.994Z</time></trkpt><trkpt lat="42.0711733" lon="11.8107183"><ele>11.0</ele><time>2026-04-26T13:48:53.991Z</time></trkpt><trkpt lat="42.0712917" lon="11.8106683"><ele>11.0</ele><time>2026-04-26T13:48:54.995Z</time></trkpt><trkpt lat="42.07141" lon="11.8106133"><ele>11.0</ele><time>2026-04-26T13:48:55.99Z</time></trkpt><trkpt lat="42.0715317" lon="11.810555"><ele>11.0</ele><time>2026-04-26T13:48:56.991Z</time></trkpt><trkpt lat="42.071655" lon="11.810495"><ele>11.25</ele><time>2026-04-26T13:48:57.992Z</time></trkpt><trkpt lat="42.0717783" lon="11.8104383"><ele>11.5</ele><time>2026-04-26T13:48:58.994Z</time></trkpt><trkpt lat="42.0718917" lon="11.8103833"><ele>11.75</ele><time>2026-04-26T13:48:59.99Z</time></trkpt><trkpt lat="42.072" lon="11.8103233"><ele>12.0</ele><time>2026-04-26T13:49:00.991Z</time></trkpt><trkpt lat="42.0721083" lon="11.8102667"><ele>12.0</ele><time>2026-04-26T13:49:01.992Z</time></trkpt><trkpt lat="42.0722283" lon="11.8102133"><ele>12.0</ele><time>2026-04-26T13:49:02.992Z</time></trkpt><trkpt lat="42.072355" lon="11.8101567"><ele>12.0</ele><time>2026-04-26T13:49:03.995Z</time></trkpt><trkpt lat="42.072485" lon="11.8101017"><ele>12.0</ele><time>2026-04-26T13:49:04.997Z</time></trkpt><trkpt lat="42.0726117" lon="11.810045"><ele>11.75</ele><time>2026-04-26T13:49:05.991Z</time></trkpt><trkpt lat="42.0727333" lon="11.8099933"><ele>11.5</ele><time>2026-04-26T13:49:06.994Z</time></trkpt><trkpt lat="42.0728533" lon="11.8099367"><ele>11.25</ele><time>2026-04-26T13:49:07.995Z</time></trkpt><trkpt lat="42.0729733" lon="11.80988"><ele>11.0</ele><time>2026-04-26T13:49:08.995Z</time></trkpt><trkpt lat="42.073095" lon="11.8098283"><ele>11.0</ele><time>2026-04-26T13:49:09.992Z</time></trkpt><trkpt lat="42.073215" lon="11.8097733"><ele>11.0</ele><time>2026-04-26T13:49:11.033Z</time></trkpt><trkpt lat="42.0733317" lon="11.8097183"><ele>11.0</ele><time>2026-04-26T13:49:11.993Z</time></trkpt><trkpt lat="42.07345" lon="11.8096617"><ele>11.0</ele><time>2026-04-26T13:49:12.993Z</time></trkpt><trkpt lat="42.0735683" lon="11.8095983"><ele>11.75</ele><time>2026-04-26T13:49:13.994Z</time></trkpt><trkpt lat="42.07369" lon="11.809535"><ele>12.5</ele><time>2026-04-26T13:49:14.99Z</time></trkpt><trkpt lat="42.0738117" lon="11.8094767"><ele>13.25</ele><time>2026-04-26T13:49:15.991Z</time></trkpt><trkpt lat="42.0739333" lon="11.8094267"><ele>14.0</ele><time>2026-04-26T13:49:16.99Z</time></trkpt><trkpt lat="42.0740483" lon="11.8093733"><ele>14.0</ele><time>2026-04-26T13:49:17.99Z</time></trkpt><trkpt lat="42.0741567" lon="11.8093183"><ele>14.0</ele><time>2026-04-26T13:49:18.996Z</time></trkpt><trkpt lat="42.0742667" lon="11.809265"><ele>14.0</ele><time>2026-04-26T13:49:19.993Z</time></trkpt><trkpt lat="42.0743767" lon="11.8092083"><ele>14.0</ele><time>2026-04-26T13:49:20.996Z</time></trkpt><trkpt lat="42.0744917" lon="11.8091633"><ele>14.0</ele><time>2026-04-26T13:49:21.998Z</time></trkpt><trkpt lat="42.0746017" lon="11.8091183"><ele>14.0</ele><time>2026-04-26T13:49:22.989Z</time></trkpt><trkpt lat="42.07472" lon="11.8090817"><ele>14.0</ele><time>2026-04-26T13:49:23.993Z</time></trkpt><trkpt lat="42.0748333" lon="11.8090367"><ele>14.0</ele><time>2026-04-26T13:49:24.992Z</time></trkpt><trkpt lat="42.0749467" lon="11.808995"><ele>14.25</ele><time>2026-04-26T13:49:25.992Z</time></trkpt><trkpt lat="42.075065" lon="11.8089583"><ele>14.5</ele><time>2026-04-26T13:49:26.993Z</time></trkpt><trkpt lat="42.0751883" lon="11.808935"><ele>14.75</ele><time>2026-04-26T13:49:27.996Z</time></trkpt><trkpt lat="42.0753033" lon="11.808905"><ele>15.0</ele><time>2026-04-26T13:49:28.995Z</time></trkpt><trkpt lat="42.0754183" lon="11.8088733"><ele>15.0</ele><time>2026-04-26T13:49:29.99Z</time></trkpt><trkpt lat="42.0755317" lon="11.80884"><ele>15.0</ele><time>2026-04-26T13:49:30.997Z</time></trkpt><trkpt lat="42.0756433" lon="11.808795"><ele>15.0</ele><time>2026-04-26T13:49:31.994Z</time></trkpt><trkpt lat="42.0757633" lon="11.8087633"><ele>15.0</ele><time>2026-04-26T13:49:32.988Z</time></trkpt><trkpt lat="42.0758783" lon="11.8087433"><ele>14.6</ele><time>2026-04-26T13:49:33.99Z</time></trkpt><trkpt lat="42.0759717" lon="11.8087283"><ele>14.2</ele><time>2026-04-26T13:49:34.991Z</time></trkpt><trkpt lat="42.0760483" lon="11.8087133"><ele>13.8</ele><time>2026-04-26T13:49:35.996Z</time></trkpt><trkpt lat="42.076155" lon="11.8086967"><ele>13.4</ele><time>2026-04-26T13:49:37.996Z</time></trkpt><trkpt lat="42.0762383" lon="11.8086683"><ele>13.0</ele><time>2026-04-26T13:49:39.996Z</time></trkpt><trkpt lat="42.076325" lon="11.8086317"><ele>13.0</ele><time>2026-04-26T13:49:41.993Z</time></trkpt><trkpt lat="42.0764133" lon="11.80861"><ele>13.0</ele><time>2026-04-26T13:49:43.994Z</time></trkpt><trkpt lat="42.0765117" lon="11.8085783"><ele>13.0</ele><time>2026-04-26T13:49:45.993Z</time></trkpt><trkpt lat="42.0766417" lon="11.808545"><ele>13.0</ele><time>2026-04-26T13:49:47.994Z</time></trkpt><trkpt lat="42.0767183" lon="11.808525"><ele>13.0</ele><time>2026-04-26T13:49:48.994Z</time></trkpt><trkpt lat="42.076805" lon="11.8085017"><ele>11.499999999999998</ele><time>2026-04-26T13:49:49.996Z</time></trkpt><trkpt lat="42.0769033" lon="11.808475"><ele>10.0</ele><time>2026-04-26T13:49:50.99Z</time></trkpt><trkpt lat="42.0770033" lon="11.8084533"><ele>8.5</ele><time>2026-04-26T13:49:51.993Z</time></trkpt><trkpt lat="42.0771017" lon="11.8084383"><ele>7.0</ele><time>2026-04-26T13:49:52.995Z</time></trkpt><trkpt lat="42.0771817" lon="11.8084283"><ele>5.5</ele><time>2026-04-26T13:49:53.993Z</time></trkpt><trkpt lat="42.07725" lon="11.8084217"><ele>4.0</ele><time>2026-04-26T13:49:54.987Z</time></trkpt><trkpt lat="42.0773317" lon="11.808415"><ele>4.0</ele><time>2026-04-26T13:49:56.999Z</time></trkpt><trkpt lat="42.0773767" lon="11.8083233"><ele>4.0</ele><time>2026-04-26T13:50:58.994Z</time></trkpt><trkpt lat="42.0774617" lon="11.8082833"><ele>4.0</ele><time>2026-04-26T13:50:59.995Z</time></trkpt><trkpt lat="42.077565" lon="11.808255"><ele>4.0</ele><time>2026-04-26T13:51:00.99Z</time></trkpt><trkpt lat="42.0776667" lon="11.8082367"><ele>4.0</ele><time>2026-04-26T13:51:01.995Z</time></trkpt><trkpt lat="42.0777717" lon="11.8082067"><ele>4.0</ele><time>2026-04-26T13:51:02.994Z</time></trkpt><trkpt lat="42.0778933" lon="11.8081767"><ele>4.0</ele><time>2026-04-26T13:51:03.995Z</time></trkpt><trkpt lat="42.07802" lon="11.8081433"><ele>4.0</ele><time>2026-04-26T13:51:04.995Z</time></trkpt><trkpt lat="42.0781467" lon="11.808115"><ele>4.0</ele><time>2026-04-26T13:51:05.993Z</time></trkpt><trkpt lat="42.0782717" lon="11.8080783"><ele>5.0</ele><time>2026-04-26T13:51:06.991Z</time></trkpt><trkpt lat="42.0784033" lon="11.808055"><ele>6.0</ele><time>2026-04-26T13:51:08.001Z</time></trkpt><trkpt lat="42.0785383" lon="11.8080217"><ele>7.0</ele><time>2026-04-26T13:51:08.996Z</time></trkpt><trkpt lat="42.0786833" lon="11.8079817"><ele>8.0</ele><time>2026-04-26T13:51:09.99Z</time></trkpt><trkpt lat="42.0788283" lon="11.8079333"><ele>8.0</ele><time>2026-04-26T13:51:10.991Z</time></trkpt><trkpt lat="42.07897" lon="11.8078767"><ele>8.0</ele><time>2026-04-26T13:51:11.994Z</time></trkpt><trkpt lat="42.079115" lon="11.8078183"><ele>8.0</ele><time>2026-04-26T13:51:12.995Z</time></trkpt><trkpt lat="42.0792633" lon="11.8077583"><ele>7.75</ele><time>2026-04-26T13:51:13.994Z</time></trkpt><trkpt lat="42.0794083" lon="11.8077"><ele>7.5</ele><time>2026-04-26T13:51:14.99Z</time></trkpt><trkpt lat="42.0795467" lon="11.8076467"><ele>7.25</ele><time>2026-04-26T13:51:15.995Z</time></trkpt><trkpt lat="42.0796883" lon="11.8075933"><ele>7.0</ele><time>2026-04-26T13:51:16.992Z</time></trkpt><trkpt lat="42.0798283" lon="11.8075417"><ele>7.5</ele><time>2026-04-26T13:51:17.993Z</time></trkpt><trkpt lat="42.0799633" lon="11.80749"><ele>8.0</ele><time>2026-04-26T13:51:18.994Z</time></trkpt><trkpt lat="42.0800883" lon="11.8074417"><ele>8.5</ele><time>2026-04-26T13:51:19.994Z</time></trkpt><trkpt lat="42.08021" lon="11.8073917"><ele>9.0</ele><time>2026-04-26T13:51:20.992Z</time></trkpt><trkpt lat="42.08033" lon="11.8073383"><ele>9.0</ele><time>2026-04-26T13:51:21.993Z</time></trkpt><trkpt lat="42.0804483" lon="11.8072867"><ele>9.0</ele><time>2026-04-26T13:51:22.998Z</time></trkpt><trkpt lat="42.080565" lon="11.8072383"><ele>9.0</ele><time>2026-04-26T13:51:23.995Z</time></trkpt><trkpt lat="42.0806667" lon="11.8071867"><ele>9.0</ele><time>2026-04-26T13:51:24.996Z</time></trkpt><trkpt lat="42.0807633" lon="11.807135"><ele>8.8</ele><time>2026-04-26T13:51:25.996Z</time></trkpt><trkpt lat="42.08086" lon="11.8070833"><ele>8.600000000000001</ele><time>2026-04-26T13:51:26.995Z</time></trkpt><trkpt lat="42.0809583" lon="11.8070333"><ele>8.4</ele><time>2026-04-26T13:51:27.995Z</time></trkpt><trkpt lat="42.08106" lon="11.8069833"><ele>8.200000000000001</ele><time>2026-04-26T13:51:28.989Z</time></trkpt><trkpt lat="42.0811583" lon="11.806935"><ele>8.0</ele><time>2026-04-26T13:51:29.993Z</time></trkpt><trkpt lat="42.0812567" lon="11.806885"><ele>8.0</ele><time>2026-04-26T13:51:30.99Z</time></trkpt><trkpt lat="42.0813517" lon="11.8068383"><ele>8.0</ele><time>2026-04-26T13:51:31.991Z</time></trkpt><trkpt lat="42.0814467" lon="11.8067833"><ele>8.0</ele><time>2026-04-26T13:51:32.991Z</time></trkpt><trkpt lat="42.0815483" lon="11.8067267"><ele>8.0</ele><time>2026-04-26T13:51:33.992Z</time></trkpt><trkpt lat="42.0816617" lon="11.8066717"><ele>8.0</ele><time>2026-04-26T13:51:34.99Z</time></trkpt><trkpt lat="42.0817833" lon="11.80662"><ele>8.0</ele><time>2026-04-26T13:51:35.992Z</time></trkpt><trkpt lat="42.0819017" lon="11.80656"><ele>8.0</ele><time>2026-04-26T13:51:36.992Z</time></trkpt><trkpt lat="42.08203" lon="11.8064933"><ele>8.0</ele><time>2026-04-26T13:51:37.987Z</time></trkpt><trkpt lat="42.0821667" lon="11.8064217"><ele>8.0</ele><time>2026-04-26T13:51:38.988Z</time></trkpt><trkpt lat="42.082305" lon="11.8063533"><ele>8.75</ele><time>2026-04-26T13:51:39.992Z</time></trkpt><trkpt lat="42.0824383" lon="11.8062833"><ele>9.5</ele><time>2026-04-26T13:51:40.989Z</time></trkpt><trkpt lat="42.08256" lon="11.806205"><ele>10.25</ele><time>2026-04-26T13:51:41.993Z</time></trkpt><trkpt lat="42.0826783" lon="11.806125"><ele>11.0</ele><time>2026-04-26T13:51:42.99Z</time></trkpt><trkpt lat="42.082785" lon="11.8060417"><ele>11.0</ele><time>2026-04-26T13:51:43.989Z</time></trkpt><trkpt lat="42.0828833" lon="11.8059483"><ele>11.0</ele><time>2026-04-26T13:51:44.994Z</time></trkpt><trkpt lat="42.08298" lon="11.8058467"><ele>11.0</ele><time>2026-04-26T13:51:45.997Z</time></trkpt><trkpt lat="42.0830817" lon="11.80574"><ele>11.0</ele><time>2026-04-26T13:51:46.993Z</time></trkpt><trkpt lat="42.083185" lon="11.8056183"><ele>11.333333333333332</ele><time>2026-04-26T13:51:47.989Z</time></trkpt><trkpt lat="42.0832917" lon="11.8054817"><ele>11.666666666666666</ele><time>2026-04-26T13:51:48.993Z</time></trkpt><trkpt lat="42.0834017" lon="11.80534"><ele>12.0</ele><time>2026-04-26T13:51:49.99Z</time></trkpt><trkpt lat="42.0835133" lon="11.8051983"><ele>12.0</ele><time>2026-04-26T13:51:50.993Z</time></trkpt><trkpt lat="42.083625" lon="11.8050633"><ele>12.0</ele><time>2026-04-26T13:51:51.994Z</time></trkpt><trkpt lat="42.0837283" lon="11.8049433"><ele>12.0</ele><time>2026-04-26T13:51:52.992Z</time></trkpt><trkpt lat="42.08382" lon="11.804835"><ele>12.0</ele><time>2026-04-26T13:51:53.999Z</time></trkpt><trkpt lat="42.0839067" lon="11.80474"><ele>12.0</ele><time>2026-04-26T13:51:54.996Z</time></trkpt><trkpt lat="42.0840017" lon="11.8046667"><ele>12.0</ele><time>2026-04-26T13:51:55.988Z</time></trkpt><trkpt lat="42.0841017" lon="11.80464"><ele>12.0</ele><time>2026-04-26T13:51:56.992Z</time></trkpt><trkpt lat="42.08419" lon="11.8046817"><ele>12.0</ele><time>2026-04-26T13:51:57.991Z</time></trkpt><trkpt lat="42.0842717" lon="11.8047517"><ele>12.0</ele><time>2026-04-26T13:51:58.989Z</time></trkpt><trkpt lat="42.0843567" lon="11.8048333"><ele>12.0</ele><time>2026-04-26T13:51:59.989Z</time></trkpt><trkpt lat="42.0844433" lon="11.8049333"><ele>12.0</ele><time>2026-04-26T13:52:00.992Z</time></trkpt><trkpt lat="42.08453" lon="11.8050233"><ele>12.0</ele><time>2026-04-26T13:52:01.991Z</time></trkpt><trkpt lat="42.0846233" lon="11.80509"><ele>12.0</ele><time>2026-04-26T13:52:02.991Z</time></trkpt><trkpt lat="42.0847267" lon="11.80513"><ele>12.0</ele><time>2026-04-26T13:52:03.992Z</time></trkpt><trkpt lat="42.084835" lon="11.8051467"><ele>12.75</ele><time>2026-04-26T13:52:04.993Z</time></trkpt><trkpt lat="42.0849583" lon="11.805135"><ele>13.5</ele><time>2026-04-26T13:52:05.994Z</time></trkpt><trkpt lat="42.0850967" lon="11.8051067"><ele>14.25</ele><time>2026-04-26T13:52:06.996Z</time></trkpt><trkpt lat="42.0852433" lon="11.8050833"><ele>15.0</ele><time>2026-04-26T13:52:07.992Z</time></trkpt><trkpt lat="42.0853833" lon="11.805075"><ele>15.0</ele><time>2026-04-26T13:52:08.991Z</time></trkpt><trkpt lat="42.0855133" lon="11.8050633"><ele>15.0</ele><time>2026-04-26T13:52:09.992Z</time></trkpt><trkpt lat="42.0856367" lon="11.8050433"><ele>15.0</ele><time>2026-04-26T13:52:10.991Z</time></trkpt><trkpt lat="42.08576" lon="11.8050317"><ele>15.0</ele><time>2026-04-26T13:52:11.994Z</time></trkpt><trkpt lat="42.08588" lon="11.8050133"><ele>15.5</ele><time>2026-04-26T13:52:12.991Z</time></trkpt><trkpt lat="42.0859883" lon="11.8050117"><ele>16.0</ele><time>2026-04-26T13:52:13.992Z</time></trkpt><trkpt lat="42.086085" lon="11.80501"><ele>16.5</ele><time>2026-04-26T13:52:14.991Z</time></trkpt><trkpt lat="42.08616" lon="11.8050067"><ele>17.0</ele><time>2026-04-26T13:52:15.989Z</time></trkpt><trkpt lat="42.0862267" lon="11.8050067"><ele>17.5</ele><time>2026-04-26T13:52:16.99Z</time></trkpt><trkpt lat="42.0863133" lon="11.8050517"><ele>18.0</ele><time>2026-04-26T13:52:18.995Z</time></trkpt><trkpt lat="42.0863367" lon="11.8051783"><ele>18.333333333333332</ele><time>2026-04-26T13:52:20.994Z</time></trkpt><trkpt lat="42.08634" lon="11.8052733"><ele>18.666666666666668</ele><time>2026-04-26T13:52:21.993Z</time></trkpt><trkpt lat="42.0863383" lon="11.8053767"><ele>19.0</ele><time>2026-04-26T13:52:22.997Z</time></trkpt><trkpt lat="42.0863517" lon="11.80548"><ele>19.333333333333336</ele><time>2026-04-26T13:52:23.992Z</time></trkpt><trkpt lat="42.0863733" lon="11.8055783"><ele>19.666666666666668</ele><time>2026-04-26T13:52:24.993Z</time></trkpt><trkpt lat="42.0864333" lon="11.8057017"><ele>20.0</ele><time>2026-04-26T13:52:26.992Z</time></trkpt><trkpt lat="42.0865467" lon="11.805795"><ele>20.2</ele><time>2026-04-26T13:52:28.989Z</time></trkpt><trkpt lat="42.0866067" lon="11.8058867"><ele>20.4</ele><time>2026-04-26T13:52:29.995Z</time></trkpt><trkpt lat="42.08667" lon="11.8060033"><ele>20.6</ele><time>2026-04-26T13:52:30.992Z</time></trkpt><trkpt lat="42.0867417" lon="11.8061333"><ele>20.8</ele><time>2026-04-26T13:52:31.998Z</time></trkpt><trkpt lat="42.0868117" lon="11.8062767"><ele>21.0</ele><time>2026-04-26T13:52:32.994Z</time></trkpt><trkpt lat="42.0868817" lon="11.806405"><ele>21.25</ele><time>2026-04-26T13:52:33.991Z</time></trkpt><trkpt lat="42.0869533" lon="11.80653"><ele>21.5</ele><time>2026-04-26T13:52:34.994Z</time></trkpt><trkpt lat="42.0870283" lon="11.80666"><ele>21.75</ele><time>2026-04-26T13:52:35.989Z</time></trkpt><trkpt lat="42.0870983" lon="11.8067933"><ele>22.0</ele><time>2026-04-26T13:52:36.989Z</time></trkpt><trkpt lat="42.0871633" lon="11.8069083"><ele>22.333333333333332</ele><time>2026-04-26T13:52:37.99Z</time></trkpt><trkpt lat="42.0872283" lon="11.8070033"><ele>22.666666666666664</ele><time>2026-04-26T13:52:38.99Z</time></trkpt><trkpt lat="42.0872933" lon="11.8070883"><ele>23.0</ele><time>2026-04-26T13:52:39.992Z</time></trkpt><trkpt lat="42.08736" lon="11.8071567"><ele>23.333333333333332</ele><time>2026-04-26T13:52:40.994Z</time></trkpt><trkpt lat="42.0874317" lon="11.8072133"><ele>23.666666666666668</ele><time>2026-04-26T13:52:41.991Z</time></trkpt><trkpt lat="42.0875067" lon="11.8072683"><ele>24.0</ele><time>2026-04-26T13:52:42.995Z</time></trkpt><trkpt lat="42.0875833" lon="11.8073267"><ele>24.0</ele><time>2026-04-26T13:52:43.988Z</time></trkpt><trkpt lat="42.0876683" lon="11.807385"><ele>24.0</ele><time>2026-04-26T13:52:44.998Z</time></trkpt><trkpt lat="42.0877617" lon="11.807435"><ele>24.0</ele><time>2026-04-26T13:52:45.997Z</time></trkpt><trkpt lat="42.087855" lon="11.80749"><ele>24.0</ele><time>2026-04-26T13:52:46.996Z</time></trkpt><trkpt lat="42.0879483" lon="11.8075317"><ele>24.0</ele><time>2026-04-26T13:52:47.995Z</time></trkpt><trkpt lat="42.0880367" lon="11.8075567"><ele>23.999999999999996</ele><time>2026-04-26T13:52:48.99Z</time></trkpt><trkpt lat="42.0881183" lon="11.8075933"><ele>24.0</ele><time>2026-04-26T13:52:49.995Z</time></trkpt><trkpt lat="42.0881867" lon="11.80763"><ele>24.0</ele><time>2026-04-26T13:52:50.989Z</time></trkpt><trkpt lat="42.0882483" lon="11.8076667"><ele>24.0</ele><time>2026-04-26T13:52:51.996Z</time></trkpt><trkpt lat="42.08831" lon="11.8077033"><ele>24.0</ele><time>2026-04-26T13:52:52.997Z</time></trkpt><trkpt lat="42.088375" lon="11.8077117"><ele>23.999999999999996</ele><time>2026-04-26T13:52:54.998Z</time></trkpt><trkpt lat="42.088435" lon="11.8076833"><ele>24.0</ele><time>2026-04-26T13:52:56.992Z</time></trkpt><trkpt lat="42.088515" lon="11.8076567"><ele>24.5</ele><time>2026-04-26T13:52:58.989Z</time></trkpt><trkpt lat="42.0886233" lon="11.80764"><ele>25.0</ele><time>2026-04-26T13:53:00.99Z</time></trkpt><trkpt lat="42.0886933" lon="11.80761"><ele>25.5</ele><time>2026-04-26T13:53:01.991Z</time></trkpt><trkpt lat="42.0887733" lon="11.8075783"><ele>26.0</ele><time>2026-04-26T13:53:02.989Z</time></trkpt><trkpt lat="42.0888583" lon="11.8075917"><ele>26.5</ele><time>2026-04-26T13:53:03.989Z</time></trkpt><trkpt lat="42.0889483" lon="11.807635"><ele>27.0</ele><time>2026-04-26T13:53:04.99Z</time></trkpt><trkpt lat="42.0890433" lon="11.8076517"><ele>27.400000000000002</ele><time>2026-04-26T13:53:05.993Z</time></trkpt><trkpt lat="42.0891317" lon="11.8076433"><ele>27.800000000000004</ele><time>2026-04-26T13:53:06.996Z</time></trkpt><trkpt lat="42.0892367" lon="11.8076267"><ele>28.2</ele><time>2026-04-26T13:53:07.993Z</time></trkpt><trkpt lat="42.08935" lon="11.8076133"><ele>28.6</ele><time>2026-04-26T13:53:08.991Z</time></trkpt><trkpt lat="42.0894667" lon="11.807595"><ele>29.0</ele><time>2026-04-26T13:53:09.993Z</time></trkpt><trkpt lat="42.0895833" lon="11.8075767"><ele>29.0</ele><time>2026-04-26T13:53:10.99Z</time></trkpt><trkpt lat="42.089695" lon="11.8075617"><ele>29.0</ele><time>2026-04-26T13:53:11.992Z</time></trkpt><trkpt lat="42.0897917" lon="11.8075433"><ele>29.0</ele><time>2026-04-26T13:53:12.988Z</time></trkpt><trkpt lat="42.0898833" lon="11.807535"><ele>29.0</ele><time>2026-04-26T13:53:13.996Z</time></trkpt><trkpt lat="42.0899683" lon="11.80753"><ele>29.0</ele><time>2026-04-26T13:53:14.99Z</time></trkpt><trkpt lat="42.0900433" lon="11.80751"><ele>29.333333333333332</ele><time>2026-04-26T13:53:15.991Z</time></trkpt><trkpt lat="42.0901133" lon="11.807485"><ele>29.666666666666664</ele><time>2026-04-26T13:53:16.991Z</time></trkpt><trkpt lat="42.0901917" lon="11.8074733"><ele>30.0</ele><time>2026-04-26T13:53:17.989Z</time></trkpt><trkpt lat="42.090265" lon="11.8074717"><ele>30.333333333333336</ele><time>2026-04-26T13:53:18.991Z</time></trkpt><trkpt lat="42.0903383" lon="11.8074833"><ele>30.666666666666668</ele><time>2026-04-26T13:53:19.991Z</time></trkpt><trkpt lat="42.09041" lon="11.807575"><ele>31.0</ele><time>2026-04-26T13:53:21.997Z</time></trkpt><trkpt lat="42.090465" lon="11.8077117"><ele>31.6</ele><time>2026-04-26T13:53:23.992Z</time></trkpt><trkpt lat="42.090485" lon="11.8078167"><ele>32.2</ele><time>2026-04-26T13:53:24.999Z</time></trkpt><trkpt lat="42.0905233" lon="11.8079333"><ele>32.8</ele><time>2026-04-26T13:53:25.991Z</time></trkpt><trkpt lat="42.0905667" lon="11.80807"><ele>33.4</ele><time>2026-04-26T13:53:26.99Z</time></trkpt><trkpt lat="42.0906117" lon="11.808255"><ele>34.0</ele><time>2026-04-26T13:53:27.993Z</time></trkpt><trkpt lat="42.0906633" lon="11.808475"><ele>34.5</ele><time>2026-04-26T13:53:28.989Z</time></trkpt><trkpt lat="42.0907067" lon="11.8086733"><ele>35.0</ele><time>2026-04-26T13:53:29.997Z</time></trkpt><trkpt lat="42.0907517" lon="11.8088583"><ele>35.5</ele><time>2026-04-26T13:53:30.989Z</time></trkpt><trkpt lat="42.0908017" lon="11.8090267"><ele>36.0</ele><time>2026-04-26T13:53:31.991Z</time></trkpt><trkpt lat="42.090855" lon="11.809205"><ele>36.5</ele><time>2026-04-26T13:53:32.996Z</time></trkpt><trkpt lat="42.090905" lon="11.8093883"><ele>37.0</ele><time>2026-04-26T13:53:33.993Z</time></trkpt><trkpt lat="42.0909533" lon="11.80957"><ele>37.5</ele><time>2026-04-26T13:53:34.991Z</time></trkpt><trkpt lat="42.0909967" lon="11.8097267"><ele>38.0</ele><time>2026-04-26T13:53:35.99Z</time></trkpt><trkpt lat="42.0910417" lon="11.8098633"><ele>38.0</ele><time>2026-04-26T13:53:36.988Z</time></trkpt><trkpt lat="42.0910933" lon="11.8099817"><ele>38.0</ele><time>2026-04-26T13:53:37.996Z</time></trkpt><trkpt lat="42.0911467" lon="11.8100783"><ele>38.0</ele><time>2026-04-26T13:53:38.99Z</time></trkpt><trkpt lat="42.0912" lon="11.8101533"><ele>38.0</ele><time>2026-04-26T13:53:39.993Z</time></trkpt><trkpt lat="42.0912517" lon="11.8102117"><ele>38.0</ele><time>2026-04-26T13:53:40.996Z</time></trkpt><trkpt lat="42.09135" lon="11.8102883"><ele>38.0</ele><time>2026-04-26T13:53:42.989Z</time></trkpt><trkpt lat="42.0914367" lon="11.8103833"><ele>38.599999999999994</ele><time>2026-04-26T13:53:44.993Z</time></trkpt><trkpt lat="42.0914583" lon="11.8104633"><ele>39.199999999999996</ele><time>2026-04-26T13:53:45.99Z</time></trkpt><trkpt lat="42.0914733" lon="11.8105483"><ele>39.8</ele><time>2026-04-26T13:53:46.991Z</time></trkpt><trkpt lat="42.0915333" lon="11.8107267"><ele>40.4</ele><time>2026-04-26T13:53:48.991Z</time></trkpt><trkpt lat="42.0915733" lon="11.8108467"><ele>41.0</ele><time>2026-04-26T13:53:49.991Z</time></trkpt><trkpt lat="42.0916167" lon="11.810995"><ele>41.5</ele><time>2026-04-26T13:53:50.992Z</time></trkpt><trkpt lat="42.0916667" lon="11.8111683"><ele>42.0</ele><time>2026-04-26T13:53:51.991Z</time></trkpt><trkpt lat="42.0917133" lon="11.8113317"><ele>42.5</ele><time>2026-04-26T13:53:52.997Z</time></trkpt><trkpt lat="42.091755" lon="11.81149"><ele>43.0</ele><time>2026-04-26T13:53:53.989Z</time></trkpt><trkpt lat="42.0917883" lon="11.81164"><ele>43.0</ele><time>2026-04-26T13:53:54.993Z</time></trkpt><trkpt lat="42.091815" lon="11.8117733"><ele>43.0</ele><time>2026-04-26T13:53:55.99Z</time></trkpt><trkpt lat="42.0918333" lon="11.8118767"><ele>43.0</ele><time>2026-04-26T13:53:56.991Z</time></trkpt><trkpt lat="42.091875" lon="11.8119783"><ele>43.0</ele><time>2026-04-26T13:53:58.993Z</time></trkpt><trkpt lat="42.09198" lon="11.811925"><ele>43.0</ele><time>2026-04-26T13:54:00.99Z</time></trkpt><trkpt lat="42.092075" lon="11.81184"><ele>43.0</ele><time>2026-04-26T13:54:01.988Z</time></trkpt><trkpt lat="42.0921867" lon="11.8117733"><ele>43.0</ele><time>2026-04-26T13:54:02.992Z</time></trkpt><trkpt lat="42.0922983" lon="11.8117333"><ele>43.0</ele><time>2026-04-26T13:54:03.994Z</time></trkpt><trkpt lat="42.0923867" lon="11.8117133"><ele>43.0</ele><time>2026-04-26T13:54:04.995Z</time></trkpt><trkpt lat="42.0924633" lon="11.8117"><ele>43.0</ele><time>2026-04-26T13:54:05.992Z</time></trkpt><trkpt lat="42.0925333" lon="11.81171"><ele>44.5</ele><time>2026-04-26T13:54:06.994Z</time></trkpt><trkpt lat="42.0926" lon="11.811735"><ele>46.0</ele><time>2026-04-26T13:54:07.99Z</time></trkpt><trkpt lat="42.0926683" lon="11.81177"><ele>47.5</ele><time>2026-04-26T13:54:08.992Z</time></trkpt><trkpt lat="42.09272" lon="11.8118517"><ele>49.0</ele><time>2026-04-26T13:54:09.988Z</time></trkpt><trkpt lat="42.0927667" lon="11.8119683"><ele>50.49999999999999</ele><time>2026-04-26T13:54:10.996Z</time></trkpt><trkpt lat="42.0928083" lon="11.81209"><ele>52.0</ele><time>2026-04-26T13:54:11.997Z</time></trkpt><trkpt lat="42.0928383" lon="11.81219"><ele>56.0</ele><time>2026-04-26T13:54:12.993Z</time></trkpt><trkpt lat="42.0928733" lon="11.8122733"><ele>56.0</ele><time>2026-04-26T13:54:13.988Z</time></trkpt><trkpt lat="42.092925" lon="11.8123883"><ele>56.0</ele><time>2026-04-26T13:54:15.988Z</time></trkpt><trkpt lat="42.0928717" lon="11.8124733"><ele>56.0</ele><time>2026-04-26T13:54:19.993Z</time></trkpt><trkpt lat="42.0927817" lon="11.8125133"><ele>56.0</ele><time>2026-04-26T13:54:21.99Z</time></trkpt><trkpt lat="42.0927083" lon="11.81257"><ele>56.0</ele><time>2026-04-26T13:54:23.992Z</time></trkpt></trkseg></trk></gpx>